<?xml version="1.0" encoding="UTF-8" standalone="no" ?>
<gpx xmlns="http://www.topografix.com/GPX/1/1" xmlns:xsi="http://www.w3.org/2001/XMLSchema-instance" xsi:schemaLocation="http://www.topografix.com/GPX/1/1 http://www.topografix.com/GPX/1/1/gpx.xsd" version="1.1" creator="VisuGPX - https://www.visugpx.com">
  <metadata>
    <name>MB. Sortie du 24/11/2019</name>
    <desc><![CDATA[Sortie VTT du dimanche 24 novembre 2019]]></desc>
  </metadata>
  <trk>
    <name><![CDATA[Pornichet Cyclisme]]></name>
    <trkseg>
      <trkpt lat="47.26417" lon="-2.31552">
        <ele>5.4000000953674</ele>
        <time>2019-11-24T07:56:22.000Z</time>
      </trkpt>
      <trkpt lat="47.26417" lon="-2.31552">
        <ele>5.4000000953674</ele>
        <time>2019-11-24T07:56:23.000Z</time>
      </trkpt>
      <trkpt lat="47.26414" lon="-2.31552">
        <ele>5.4000000953674</ele>
        <time>2019-11-24T07:56:26.000Z</time>
      </trkpt>
      <trkpt lat="47.26412" lon="-2.31552">
        <ele>5.8000001907349</ele>
        <time>2019-11-24T07:56:27.000Z</time>
      </trkpt>
      <trkpt lat="47.26408" lon="-2.31554">
        <ele>5.8000001907349</ele>
        <time>2019-11-24T07:56:28.000Z</time>
      </trkpt>
      <trkpt lat="47.26405" lon="-2.31565">
        <ele>5.8000001907349</ele>
        <time>2019-11-24T07:56:31.000Z</time>
      </trkpt>
      <trkpt lat="47.26407" lon="-2.31606">
        <ele>5.8000001907349</ele>
        <time>2019-11-24T07:56:37.000Z</time>
      </trkpt>
      <trkpt lat="47.26408" lon="-2.31648">
        <ele>5.8000001907349</ele>
        <time>2019-11-24T07:56:43.000Z</time>
      </trkpt>
      <trkpt lat="47.26405" lon="-2.31665">
        <ele>5.8000001907349</ele>
        <time>2019-11-24T07:56:47.000Z</time>
      </trkpt>
      <trkpt lat="47.26401" lon="-2.31667">
        <ele>5.4000000953674</ele>
        <time>2019-11-24T07:56:48.000Z</time>
      </trkpt>
      <trkpt lat="47.26397" lon="-2.31668">
        <ele>5</ele>
        <time>2019-11-24T07:56:49.000Z</time>
      </trkpt>
      <trkpt lat="47.26392" lon="-2.3167">
        <ele>4.5999999046326</ele>
        <time>2019-11-24T07:56:50.000Z</time>
      </trkpt>
      <trkpt lat="47.26387" lon="-2.31673">
        <ele>4</ele>
        <time>2019-11-24T07:56:51.000Z</time>
      </trkpt>
      <trkpt lat="47.26383" lon="-2.31676">
        <ele>3.5999999046326</ele>
        <time>2019-11-24T07:56:52.000Z</time>
      </trkpt>
      <trkpt lat="47.26358" lon="-2.31691">
        <ele>3.5999999046326</ele>
        <time>2019-11-24T07:56:57.000Z</time>
      </trkpt>
      <trkpt lat="47.26353" lon="-2.31695">
        <ele>3.5999999046326</ele>
        <time>2019-11-24T07:56:58.000Z</time>
      </trkpt>
      <trkpt lat="47.26324" lon="-2.31709">
        <ele>3.2000000476837</ele>
        <time>2019-11-24T07:57:03.000Z</time>
      </trkpt>
      <trkpt lat="47.26319" lon="-2.31713">
        <ele>2.7999999523163</ele>
        <time>2019-11-24T07:57:04.000Z</time>
      </trkpt>
      <trkpt lat="47.26314" lon="-2.31716">
        <ele>2.4000000953674</ele>
        <time>2019-11-24T07:57:05.000Z</time>
      </trkpt>
      <trkpt lat="47.26309" lon="-2.31718">
        <ele>2</ele>
        <time>2019-11-24T07:57:06.000Z</time>
      </trkpt>
      <trkpt lat="47.26305" lon="-2.31718">
        <ele>1.6000000238419</ele>
        <time>2019-11-24T07:57:07.000Z</time>
      </trkpt>
      <trkpt lat="47.26301" lon="-2.31717">
        <ele>1.6000000238419</ele>
        <time>2019-11-24T07:57:08.000Z</time>
      </trkpt>
      <trkpt lat="47.26292" lon="-2.31706">
        <ele>1.2000000476837</ele>
        <time>2019-11-24T07:57:11.000Z</time>
      </trkpt>
      <trkpt lat="47.26288" lon="-2.31702">
        <ele>0.80000001192093</ele>
        <time>2019-11-24T07:57:12.000Z</time>
      </trkpt>
      <trkpt lat="47.26285" lon="-2.31697">
        <ele>0.40000000596046</ele>
        <time>2019-11-24T07:57:13.000Z</time>
      </trkpt>
      <trkpt lat="47.26283" lon="-2.31691">
        <ele>4</ele>
        <time>2019-11-24T07:57:14.000Z</time>
      </trkpt>
      <trkpt lat="47.2628" lon="-2.31685">
        <ele>-0.40000000596046</ele>
        <time>2019-11-24T07:57:15.000Z</time>
      </trkpt>
      <trkpt lat="47.26275" lon="-2.31673">
        <ele>-0.40000000596046</ele>
        <time>2019-11-24T07:57:17.000Z</time>
      </trkpt>
      <trkpt lat="47.26259" lon="-2.31641">
        <ele>-0.40000000596046</ele>
        <time>2019-11-24T07:57:23.000Z</time>
      </trkpt>
      <trkpt lat="47.26249" lon="-2.31625">
        <ele>-0.40000000596046</ele>
        <time>2019-11-24T07:57:26.000Z</time>
      </trkpt>
      <trkpt lat="47.26244" lon="-2.31619">
        <ele>-0.40000000596046</ele>
        <time>2019-11-24T07:57:27.000Z</time>
      </trkpt>
      <trkpt lat="47.26236" lon="-2.3161">
        <ele>-0.40000000596046</ele>
        <time>2019-11-24T07:57:29.000Z</time>
      </trkpt>
      <trkpt lat="47.26222" lon="-2.316">
        <ele>-0.40000000596046</ele>
        <time>2019-11-24T07:57:32.000Z</time>
      </trkpt>
      <trkpt lat="47.26201" lon="-2.31599">
        <ele>-0.40000000596046</ele>
        <time>2019-11-24T07:57:36.000Z</time>
      </trkpt>
      <trkpt lat="47.26191" lon="-2.316">
        <ele>-0.40000000596046</ele>
        <time>2019-11-24T07:57:38.000Z</time>
      </trkpt>
      <trkpt lat="47.26171" lon="-2.31603">
        <ele>-0.40000000596046</ele>
        <time>2019-11-24T07:57:42.000Z</time>
      </trkpt>
      <trkpt lat="47.26167" lon="-2.31605">
        <ele>-0.40000000596046</ele>
        <time>2019-11-24T07:57:43.000Z</time>
      </trkpt>
      <trkpt lat="47.26143" lon="-2.31613">
        <ele>-0.40000000596046</ele>
        <time>2019-11-24T07:57:48.000Z</time>
      </trkpt>
      <trkpt lat="47.26133" lon="-2.31613">
        <ele>-0.40000000596046</ele>
        <time>2019-11-24T07:57:50.000Z</time>
      </trkpt>
      <trkpt lat="47.26124" lon="-2.31616">
        <ele>-0.40000000596046</ele>
        <time>2019-11-24T07:57:52.000Z</time>
      </trkpt>
      <trkpt lat="47.26117" lon="-2.31624">
        <ele>-0.40000000596046</ele>
        <time>2019-11-24T07:57:54.000Z</time>
      </trkpt>
      <trkpt lat="47.26118" lon="-2.31644">
        <ele>-0.40000000596046</ele>
        <time>2019-11-24T07:57:57.000Z</time>
      </trkpt>
      <trkpt lat="47.26121" lon="-2.31659">
        <ele>-0.40000000596046</ele>
        <time>2019-11-24T07:57:59.000Z</time>
      </trkpt>
      <trkpt lat="47.26126" lon="-2.31688">
        <ele>-0.40000000596046</ele>
        <time>2019-11-24T07:58:03.000Z</time>
      </trkpt>
      <trkpt lat="47.26131" lon="-2.31735">
        <ele>-0.40000000596046</ele>
        <time>2019-11-24T07:58:09.000Z</time>
      </trkpt>
      <trkpt lat="47.26136" lon="-2.31781">
        <ele>-0.40000000596046</ele>
        <time>2019-11-24T07:58:15.000Z</time>
      </trkpt>
      <trkpt lat="47.26141" lon="-2.31831">
        <ele>-0.40000000596046</ele>
        <time>2019-11-24T07:58:21.000Z</time>
      </trkpt>
      <trkpt lat="47.26142" lon="-2.31839">
        <ele>-0.40000000596046</ele>
        <time>2019-11-24T07:58:22.000Z</time>
      </trkpt>
      <trkpt lat="47.26148" lon="-2.3189">
        <ele>-0.40000000596046</ele>
        <time>2019-11-24T07:58:29.000Z</time>
      </trkpt>
      <trkpt lat="47.26154" lon="-2.31937">
        <ele>-0.40000000596046</ele>
        <time>2019-11-24T07:58:35.000Z</time>
      </trkpt>
      <trkpt lat="47.26159" lon="-2.31989">
        <ele>-0.40000000596046</ele>
        <time>2019-11-24T07:58:42.000Z</time>
      </trkpt>
      <trkpt lat="47.26158" lon="-2.32026">
        <ele>-0.40000000596046</ele>
        <time>2019-11-24T07:58:47.000Z</time>
      </trkpt>
      <trkpt lat="47.26156" lon="-2.32033">
        <ele>-0.40000000596046</ele>
        <time>2019-11-24T07:58:48.000Z</time>
      </trkpt>
      <trkpt lat="47.26149" lon="-2.32063">
        <ele>-0.40000000596046</ele>
        <time>2019-11-24T07:58:52.000Z</time>
      </trkpt>
      <trkpt lat="47.26145" lon="-2.32077">
        <ele>-0.40000000596046</ele>
        <time>2019-11-24T07:58:54.000Z</time>
      </trkpt>
      <trkpt lat="47.26136" lon="-2.32105">
        <ele>-0.40000000596046</ele>
        <time>2019-11-24T07:58:58.000Z</time>
      </trkpt>
      <trkpt lat="47.26132" lon="-2.32119">
        <ele>-0.40000000596046</ele>
        <time>2019-11-24T07:59:00.000Z</time>
      </trkpt>
      <trkpt lat="47.26121" lon="-2.32153">
        <ele>-0.40000000596046</ele>
        <time>2019-11-24T07:59:05.000Z</time>
      </trkpt>
      <trkpt lat="47.26118" lon="-2.32158">
        <ele>-0.40000000596046</ele>
        <time>2019-11-24T07:59:06.000Z</time>
      </trkpt>
      <trkpt lat="47.26108" lon="-2.32184">
        <ele>-0.40000000596046</ele>
        <time>2019-11-24T07:59:10.000Z</time>
      </trkpt>
      <trkpt lat="47.26097" lon="-2.32207">
        <ele>-0.40000000596046</ele>
        <time>2019-11-24T07:59:14.000Z</time>
      </trkpt>
      <trkpt lat="47.26091" lon="-2.32218">
        <ele>-0.40000000596046</ele>
        <time>2019-11-24T07:59:16.000Z</time>
      </trkpt>
      <trkpt lat="47.26084" lon="-2.32228">
        <ele>-0.40000000596046</ele>
        <time>2019-11-24T07:59:18.000Z</time>
      </trkpt>
      <trkpt lat="47.2607" lon="-2.32247">
        <ele>-0.40000000596046</ele>
        <time>2019-11-24T07:59:22.000Z</time>
      </trkpt>
      <trkpt lat="47.26067" lon="-2.32253">
        <ele>-0.40000000596046</ele>
        <time>2019-11-24T07:59:23.000Z</time>
      </trkpt>
      <trkpt lat="47.26063" lon="-2.32258">
        <ele>-0.40000000596046</ele>
        <time>2019-11-24T07:59:24.000Z</time>
      </trkpt>
      <trkpt lat="47.26043" lon="-2.32279">
        <ele>-0.40000000596046</ele>
        <time>2019-11-24T07:59:29.000Z</time>
      </trkpt>
      <trkpt lat="47.26011" lon="-2.32315">
        <ele>-0.40000000596046</ele>
        <time>2019-11-24T07:59:37.000Z</time>
      </trkpt>
      <trkpt lat="47.25985" lon="-2.32349">
        <ele>-0.40000000596046</ele>
        <time>2019-11-24T07:59:44.000Z</time>
      </trkpt>
      <trkpt lat="47.25959" lon="-2.32384">
        <ele>-0.40000000596046</ele>
        <time>2019-11-24T07:59:51.000Z</time>
      </trkpt>
      <trkpt lat="47.25937" lon="-2.32413">
        <ele>-0.40000000596046</ele>
        <time>2019-11-24T07:59:57.000Z</time>
      </trkpt>
      <trkpt lat="47.25921" lon="-2.32434">
        <ele>-0.80000001192093</ele>
        <time>2019-11-24T08:00:01.000Z</time>
      </trkpt>
      <trkpt lat="47.25917" lon="-2.32439">
        <ele>-1.3999999761581</ele>
        <time>2019-11-24T08:00:02.000Z</time>
      </trkpt>
      <trkpt lat="47.25914" lon="-2.32443">
        <ele>-1.7999999523163</ele>
        <time>2019-11-24T08:00:03.000Z</time>
      </trkpt>
      <trkpt lat="47.2591" lon="-2.32448">
        <ele>-2.2000000476837</ele>
        <time>2019-11-24T08:00:04.000Z</time>
      </trkpt>
      <trkpt lat="47.25906" lon="-2.32453">
        <ele>-2.5999999046326</ele>
        <time>2019-11-24T08:00:05.000Z</time>
      </trkpt>
      <trkpt lat="47.2589" lon="-2.32469">
        <ele>-2.5999999046326</ele>
        <time>2019-11-24T08:00:09.000Z</time>
      </trkpt>
      <trkpt lat="47.25876" lon="-2.32476">
        <ele>-2.5999999046326</ele>
        <time>2019-11-24T08:00:12.000Z</time>
      </trkpt>
      <trkpt lat="47.25846" lon="-2.32476">
        <ele>-2.5999999046326</ele>
        <time>2019-11-24T08:00:18.000Z</time>
      </trkpt>
      <trkpt lat="47.25821" lon="-2.32465">
        <ele>-2.5999999046326</ele>
        <time>2019-11-24T08:00:23.000Z</time>
      </trkpt>
      <trkpt lat="47.25816" lon="-2.32462">
        <ele>-2.5999999046326</ele>
        <time>2019-11-24T08:00:24.000Z</time>
      </trkpt>
      <trkpt lat="47.25802" lon="-2.32457">
        <ele>-2.5999999046326</ele>
        <time>2019-11-24T08:00:27.000Z</time>
      </trkpt>
      <trkpt lat="47.25793" lon="-2.32458">
        <ele>-2.5999999046326</ele>
        <time>2019-11-24T08:00:29.000Z</time>
      </trkpt>
      <trkpt lat="47.25778" lon="-2.32449">
        <ele>-2.5999999046326</ele>
        <time>2019-11-24T08:00:33.000Z</time>
      </trkpt>
      <trkpt lat="47.25761" lon="-2.32426">
        <ele>-2.5999999046326</ele>
        <time>2019-11-24T08:00:38.000Z</time>
      </trkpt>
      <trkpt lat="47.25746" lon="-2.32426">
        <ele>-2.5999999046326</ele>
        <time>2019-11-24T08:00:41.000Z</time>
      </trkpt>
      <trkpt lat="47.25702" lon="-2.32424">
        <ele>-2.5999999046326</ele>
        <time>2019-11-24T08:00:49.000Z</time>
      </trkpt>
      <trkpt lat="47.25673" lon="-2.32422">
        <ele>-2.5999999046326</ele>
        <time>2019-11-24T08:00:55.000Z</time>
      </trkpt>
      <trkpt lat="47.25669" lon="-2.32422">
        <ele>-2.5999999046326</ele>
        <time>2019-11-24T08:00:56.000Z</time>
      </trkpt>
      <trkpt lat="47.2566" lon="-2.32437">
        <ele>-2.5999999046326</ele>
        <time>2019-11-24T08:00:59.000Z</time>
      </trkpt>
      <trkpt lat="47.25663" lon="-2.32457">
        <ele>-2.5999999046326</ele>
        <time>2019-11-24T08:01:02.000Z</time>
      </trkpt>
      <trkpt lat="47.25666" lon="-2.32468">
        <ele>-2.5999999046326</ele>
        <time>2019-11-24T08:01:04.000Z</time>
      </trkpt>
      <trkpt lat="47.2567" lon="-2.3248">
        <ele>-2.2000000476837</ele>
        <time>2019-11-24T08:01:06.000Z</time>
      </trkpt>
      <trkpt lat="47.25672" lon="-2.32485">
        <ele>-1.6000000238419</ele>
        <time>2019-11-24T08:01:07.000Z</time>
      </trkpt>
      <trkpt lat="47.25673" lon="-2.32491">
        <ele>-1.2000000476837</ele>
        <time>2019-11-24T08:01:08.000Z</time>
      </trkpt>
      <trkpt lat="47.25676" lon="-2.32496">
        <ele>-0.80000001192093</ele>
        <time>2019-11-24T08:01:09.000Z</time>
      </trkpt>
      <trkpt lat="47.25678" lon="-2.32502">
        <ele>-0.40000000596046</ele>
        <time>2019-11-24T08:01:10.000Z</time>
      </trkpt>
      <trkpt lat="47.25682" lon="-2.32513">
        <ele>-0.40000000596046</ele>
        <time>2019-11-24T08:01:12.000Z</time>
      </trkpt>
      <trkpt lat="47.25688" lon="-2.3253">
        <ele>-0.40000000596046</ele>
        <time>2019-11-24T08:01:15.000Z</time>
      </trkpt>
      <trkpt lat="47.25699" lon="-2.32568">
        <ele>9.4</ele>
        <time>2019-11-24T08:01:22.000Z</time>
      </trkpt>
      <trkpt lat="47.25701" lon="-2.32573">
        <ele>0.40000000596046</ele>
        <time>2019-11-24T08:01:23.000Z</time>
      </trkpt>
      <trkpt lat="47.25703" lon="-2.32578">
        <ele>0.80000001192093</ele>
        <time>2019-11-24T08:01:24.000Z</time>
      </trkpt>
      <trkpt lat="47.25705" lon="-2.32582">
        <ele>1.2000000476837</ele>
        <time>2019-11-24T08:01:25.000Z</time>
      </trkpt>
      <trkpt lat="47.25708" lon="-2.32586">
        <ele>1.6000000238419</ele>
        <time>2019-11-24T08:01:26.000Z</time>
      </trkpt>
      <trkpt lat="47.25712" lon="-2.32606">
        <ele>1.6000000238419</ele>
        <time>2019-11-24T08:01:30.000Z</time>
      </trkpt>
      <trkpt lat="47.25714" lon="-2.32624">
        <ele>1.6000000238419</ele>
        <time>2019-11-24T08:01:35.000Z</time>
      </trkpt>
      <trkpt lat="47.25711" lon="-2.32627">
        <ele>1.6000000238419</ele>
        <time>2019-11-24T08:01:36.000Z</time>
      </trkpt>
      <trkpt lat="47.257" lon="-2.32628">
        <ele>1.6000000238419</ele>
        <time>2019-11-24T08:01:39.000Z</time>
      </trkpt>
      <trkpt lat="47.25681" lon="-2.32634">
        <ele>1.6000000238419</ele>
        <time>2019-11-24T08:01:44.000Z</time>
      </trkpt>
      <trkpt lat="47.2567" lon="-2.32639">
        <ele>2</ele>
        <time>2019-11-24T08:01:47.000Z</time>
      </trkpt>
      <trkpt lat="47.25666" lon="-2.32641">
        <ele>2.4000000953674</ele>
        <time>2019-11-24T08:01:48.000Z</time>
      </trkpt>
      <trkpt lat="47.25662" lon="-2.32641">
        <ele>2.7999999523163</ele>
        <time>2019-11-24T08:01:49.000Z</time>
      </trkpt>
      <trkpt lat="47.25658" lon="-2.32643">
        <ele>3.2000000476837</ele>
        <time>2019-11-24T08:01:50.000Z</time>
      </trkpt>
      <trkpt lat="47.25654" lon="-2.32645">
        <ele>3.5999999046326</ele>
        <time>2019-11-24T08:01:51.000Z</time>
      </trkpt>
      <trkpt lat="47.2565" lon="-2.32646">
        <ele>3.5999999046326</ele>
        <time>2019-11-24T08:01:52.000Z</time>
      </trkpt>
      <trkpt lat="47.25617" lon="-2.32661">
        <ele>3.5999999046326</ele>
        <time>2019-11-24T08:02:00.000Z</time>
      </trkpt>
      <trkpt lat="47.25608" lon="-2.32665">
        <ele>4</ele>
        <time>2019-11-24T08:02:02.000Z</time>
      </trkpt>
      <trkpt lat="47.25604" lon="-2.32667">
        <ele>4.5999999046326</ele>
        <time>2019-11-24T08:02:03.000Z</time>
      </trkpt>
      <trkpt lat="47.256" lon="-2.32669">
        <ele>5</ele>
        <time>2019-11-24T08:02:04.000Z</time>
      </trkpt>
      <trkpt lat="47.25595" lon="-2.32671">
        <ele>5.4000000953674</ele>
        <time>2019-11-24T08:02:05.000Z</time>
      </trkpt>
      <trkpt lat="47.25591" lon="-2.32672">
        <ele>5.8000001907349</ele>
        <time>2019-11-24T08:02:06.000Z</time>
      </trkpt>
      <trkpt lat="47.25586" lon="-2.32674">
        <ele>5.8000001907349</ele>
        <time>2019-11-24T08:02:07.000Z</time>
      </trkpt>
      <trkpt lat="47.25548" lon="-2.32689">
        <ele>5.8000001907349</ele>
        <time>2019-11-24T08:02:15.000Z</time>
      </trkpt>
      <trkpt lat="47.25525" lon="-2.327">
        <ele>5.8000001907349</ele>
        <time>2019-11-24T08:02:20.000Z</time>
      </trkpt>
      <trkpt lat="47.25515" lon="-2.327">
        <ele>5.8000001907349</ele>
        <time>2019-11-24T08:02:22.000Z</time>
      </trkpt>
      <trkpt lat="47.25495" lon="-2.32703">
        <ele>5.8000001907349</ele>
        <time>2019-11-24T08:02:26.000Z</time>
      </trkpt>
      <trkpt lat="47.25486" lon="-2.32706">
        <ele>5.8000001907349</ele>
        <time>2019-11-24T08:02:28.000Z</time>
      </trkpt>
      <trkpt lat="47.25473" lon="-2.32718">
        <ele>5.8000001907349</ele>
        <time>2019-11-24T08:02:31.000Z</time>
      </trkpt>
      <trkpt lat="47.25469" lon="-2.32722">
        <ele>5.8000001907349</ele>
        <time>2019-11-24T08:02:32.000Z</time>
      </trkpt>
      <trkpt lat="47.25447" lon="-2.32754">
        <ele>5.8000001907349</ele>
        <time>2019-11-24T08:02:38.000Z</time>
      </trkpt>
      <trkpt lat="47.25435" lon="-2.32776">
        <ele>5.8000001907349</ele>
        <time>2019-11-24T08:02:41.000Z</time>
      </trkpt>
      <trkpt lat="47.25425" lon="-2.32792">
        <ele>5.8000001907349</ele>
        <time>2019-11-24T08:02:44.000Z</time>
      </trkpt>
      <trkpt lat="47.25421" lon="-2.32797">
        <ele>5.8000001907349</ele>
        <time>2019-11-24T08:02:45.000Z</time>
      </trkpt>
      <trkpt lat="47.254" lon="-2.32826">
        <ele>5.4000000953674</ele>
        <time>2019-11-24T08:02:50.000Z</time>
      </trkpt>
      <trkpt lat="47.25396" lon="-2.32832">
        <ele>5</ele>
        <time>2019-11-24T08:02:51.000Z</time>
      </trkpt>
      <trkpt lat="47.25391" lon="-2.32838">
        <ele>4.5999999046326</ele>
        <time>2019-11-24T08:02:52.000Z</time>
      </trkpt>
      <trkpt lat="47.25386" lon="-2.32843">
        <ele>4.1999998092651</ele>
        <time>2019-11-24T08:02:53.000Z</time>
      </trkpt>
      <trkpt lat="47.25382" lon="-2.32848">
        <ele>3.7999999523163</ele>
        <time>2019-11-24T08:02:54.000Z</time>
      </trkpt>
      <trkpt lat="47.2536" lon="-2.32872">
        <ele>3.7999999523163</ele>
        <time>2019-11-24T08:02:59.000Z</time>
      </trkpt>
      <trkpt lat="47.2532" lon="-2.32914">
        <ele>3.7999999523163</ele>
        <time>2019-11-24T08:03:08.000Z</time>
      </trkpt>
      <trkpt lat="47.2531" lon="-2.32928">
        <ele>3.7999999523163</ele>
        <time>2019-11-24T08:03:11.000Z</time>
      </trkpt>
      <trkpt lat="47.25309" lon="-2.32935">
        <ele>3.7999999523163</ele>
        <time>2019-11-24T08:03:12.000Z</time>
      </trkpt>
      <trkpt lat="47.25313" lon="-2.32956">
        <ele>3.7999999523163</ele>
        <time>2019-11-24T08:03:15.000Z</time>
      </trkpt>
      <trkpt lat="47.25317" lon="-2.32968">
        <ele>3.7999999523163</ele>
        <time>2019-11-24T08:03:17.000Z</time>
      </trkpt>
      <trkpt lat="47.25319" lon="-2.32975">
        <ele>3.7999999523163</ele>
        <time>2019-11-24T08:03:18.000Z</time>
      </trkpt>
      <trkpt lat="47.25324" lon="-2.32988">
        <ele>3.7999999523163</ele>
        <time>2019-11-24T08:03:20.000Z</time>
      </trkpt>
      <trkpt lat="47.2534" lon="-2.33026">
        <ele>3.7999999523163</ele>
        <time>2019-11-24T08:03:26.000Z</time>
      </trkpt>
      <trkpt lat="47.25346" lon="-2.33039">
        <ele>3.7999999523163</ele>
        <time>2019-11-24T08:03:28.000Z</time>
      </trkpt>
      <trkpt lat="47.25351" lon="-2.33051">
        <ele>3.7999999523163</ele>
        <time>2019-11-24T08:03:30.000Z</time>
      </trkpt>
      <trkpt lat="47.25362" lon="-2.3308">
        <ele>3.7999999523163</ele>
        <time>2019-11-24T08:03:35.000Z</time>
      </trkpt>
      <trkpt lat="47.25366" lon="-2.3309">
        <ele>3.4000000953674</ele>
        <time>2019-11-24T08:03:37.000Z</time>
      </trkpt>
      <trkpt lat="47.25367" lon="-2.33093">
        <ele>3</ele>
        <time>2019-11-24T08:03:38.000Z</time>
      </trkpt>
      <trkpt lat="47.25368" lon="-2.33095">
        <ele>2.5999999046326</ele>
        <time>2019-11-24T08:03:39.000Z</time>
      </trkpt>
      <trkpt lat="47.25368" lon="-2.33097">
        <ele>2.2000000476837</ele>
        <time>2019-11-24T08:03:40.000Z</time>
      </trkpt>
      <trkpt lat="47.25368" lon="-2.33099">
        <ele>1.7999999523163</ele>
        <time>2019-11-24T08:03:41.000Z</time>
      </trkpt>
      <trkpt lat="47.25368" lon="-2.331">
        <ele>1.7999999523163</ele>
        <time>2019-11-24T08:03:43.000Z</time>
      </trkpt>
      <trkpt lat="47.25368" lon="-2.33103">
        <ele>1.7999999523163</ele>
        <time>2019-11-24T08:10:05.000Z</time>
      </trkpt>
      <trkpt lat="47.2537" lon="-2.33105">
        <ele>1.7999999523163</ele>
        <time>2019-11-24T08:10:06.000Z</time>
      </trkpt>
      <trkpt lat="47.25376" lon="-2.3312">
        <ele>1.7999999523163</ele>
        <time>2019-11-24T08:10:10.000Z</time>
      </trkpt>
      <trkpt lat="47.25378" lon="-2.33124">
        <ele>1.7999999523163</ele>
        <time>2019-11-24T08:10:11.000Z</time>
      </trkpt>
      <trkpt lat="47.25391" lon="-2.3315">
        <ele>1.7999999523163</ele>
        <time>2019-11-24T08:10:17.000Z</time>
      </trkpt>
      <trkpt lat="47.25408" lon="-2.33187">
        <ele>1.7999999523163</ele>
        <time>2019-11-24T08:10:24.000Z</time>
      </trkpt>
      <trkpt lat="47.25426" lon="-2.33227">
        <ele>1.7999999523163</ele>
        <time>2019-11-24T08:10:32.000Z</time>
      </trkpt>
      <trkpt lat="47.25442" lon="-2.33268">
        <ele>1.7999999523163</ele>
        <time>2019-11-24T08:10:39.000Z</time>
      </trkpt>
      <trkpt lat="47.25448" lon="-2.33285">
        <ele>1.7999999523163</ele>
        <time>2019-11-24T08:10:42.000Z</time>
      </trkpt>
      <trkpt lat="47.25449" lon="-2.33298">
        <ele>1.7999999523163</ele>
        <time>2019-11-24T08:10:44.000Z</time>
      </trkpt>
      <trkpt lat="47.25443" lon="-2.33316">
        <ele>1.7999999523163</ele>
        <time>2019-11-24T08:10:47.000Z</time>
      </trkpt>
      <trkpt lat="47.25441" lon="-2.33322">
        <ele>1.7999999523163</ele>
        <time>2019-11-24T08:10:48.000Z</time>
      </trkpt>
      <trkpt lat="47.25433" lon="-2.33344">
        <ele>1.7999999523163</ele>
        <time>2019-11-24T08:10:52.000Z</time>
      </trkpt>
      <trkpt lat="47.25431" lon="-2.33357">
        <ele>1.7999999523163</ele>
        <time>2019-11-24T08:10:54.000Z</time>
      </trkpt>
      <trkpt lat="47.25432" lon="-2.33416">
        <ele>1.7999999523163</ele>
        <time>2019-11-24T08:11:03.000Z</time>
      </trkpt>
      <trkpt lat="47.25432" lon="-2.33449">
        <ele>1.7999999523163</ele>
        <time>2019-11-24T08:11:08.000Z</time>
      </trkpt>
      <trkpt lat="47.25434" lon="-2.33463">
        <ele>1.7999999523163</ele>
        <time>2019-11-24T08:11:10.000Z</time>
      </trkpt>
      <trkpt lat="47.25435" lon="-2.33476">
        <ele>1.7999999523163</ele>
        <time>2019-11-24T08:11:12.000Z</time>
      </trkpt>
      <trkpt lat="47.25442" lon="-2.33499">
        <ele>1.7999999523163</ele>
        <time>2019-11-24T08:11:16.000Z</time>
      </trkpt>
      <trkpt lat="47.25444" lon="-2.33511">
        <ele>1.7999999523163</ele>
        <time>2019-11-24T08:11:18.000Z</time>
      </trkpt>
      <trkpt lat="47.25448" lon="-2.33534">
        <ele>1.7999999523163</ele>
        <time>2019-11-24T08:11:22.000Z</time>
      </trkpt>
      <trkpt lat="47.25454" lon="-2.33558">
        <ele>1.7999999523163</ele>
        <time>2019-11-24T08:11:26.000Z</time>
      </trkpt>
      <trkpt lat="47.25457" lon="-2.33569">
        <ele>1.7999999523163</ele>
        <time>2019-11-24T08:11:28.000Z</time>
      </trkpt>
      <trkpt lat="47.25456" lon="-2.33576">
        <ele>1.7999999523163</ele>
        <time>2019-11-24T08:11:30.000Z</time>
      </trkpt>
      <trkpt lat="47.25453" lon="-2.33578">
        <ele>1.7999999523163</ele>
        <time>2019-11-24T08:11:31.000Z</time>
      </trkpt>
      <trkpt lat="47.25442" lon="-2.33585">
        <ele>1.7999999523163</ele>
        <time>2019-11-24T08:11:35.000Z</time>
      </trkpt>
      <trkpt lat="47.25441" lon="-2.336">
        <ele>1.7999999523163</ele>
        <time>2019-11-24T08:11:38.000Z</time>
      </trkpt>
      <trkpt lat="47.25442" lon="-2.33606">
        <ele>1.7999999523163</ele>
        <time>2019-11-24T08:11:39.000Z</time>
      </trkpt>
      <trkpt lat="47.25446" lon="-2.33628">
        <ele>1.7999999523163</ele>
        <time>2019-11-24T08:11:43.000Z</time>
      </trkpt>
      <trkpt lat="47.25448" lon="-2.33647">
        <ele>1.7999999523163</ele>
        <time>2019-11-24T08:11:46.000Z</time>
      </trkpt>
      <trkpt lat="47.2545" lon="-2.33665">
        <ele>1.7999999523163</ele>
        <time>2019-11-24T08:11:49.000Z</time>
      </trkpt>
      <trkpt lat="47.25451" lon="-2.33672">
        <ele>1.7999999523163</ele>
        <time>2019-11-24T08:11:50.000Z</time>
      </trkpt>
      <trkpt lat="47.25453" lon="-2.3369">
        <ele>1.7999999523163</ele>
        <time>2019-11-24T08:11:53.000Z</time>
      </trkpt>
      <trkpt lat="47.25454" lon="-2.33703">
        <ele>1.7999999523163</ele>
        <time>2019-11-24T08:11:55.000Z</time>
      </trkpt>
      <trkpt lat="47.25457" lon="-2.33736">
        <ele>1.7999999523163</ele>
        <time>2019-11-24T08:12:00.000Z</time>
      </trkpt>
      <trkpt lat="47.2546" lon="-2.33741">
        <ele>1.3999999761581</ele>
        <time>2019-11-24T08:12:01.000Z</time>
      </trkpt>
      <trkpt lat="47.25463" lon="-2.33745">
        <ele>1</ele>
        <time>2019-11-24T08:12:02.000Z</time>
      </trkpt>
      <trkpt lat="47.25467" lon="-2.33748">
        <ele>0.60000002384186</ele>
        <time>2019-11-24T08:12:03.000Z</time>
      </trkpt>
      <trkpt lat="47.25471" lon="-2.33751">
        <ele>0.20000000298023</ele>
        <time>2019-11-24T08:12:04.000Z</time>
      </trkpt>
      <trkpt lat="47.25475" lon="-2.33752">
        <ele>-0.40000000596046</ele>
        <time>2019-11-24T08:12:05.000Z</time>
      </trkpt>
      <trkpt lat="47.25502" lon="-2.33758">
        <ele>-0.40000000596046</ele>
        <time>2019-11-24T08:12:11.000Z</time>
      </trkpt>
      <trkpt lat="47.25538" lon="-2.33758">
        <ele>-0.40000000596046</ele>
        <time>2019-11-24T08:12:19.000Z</time>
      </trkpt>
      <trkpt lat="47.25566" lon="-2.33758">
        <ele>-0.40000000596046</ele>
        <time>2019-11-24T08:12:25.000Z</time>
      </trkpt>
      <trkpt lat="47.2559" lon="-2.33758">
        <ele>0.20000000298023</ele>
        <time>2019-11-24T08:12:30.000Z</time>
      </trkpt>
      <trkpt lat="47.25594" lon="-2.33758">
        <ele>0.60000002384186</ele>
        <time>2019-11-24T08:12:31.000Z</time>
      </trkpt>
      <trkpt lat="47.25599" lon="-2.33759">
        <ele>1</ele>
        <time>2019-11-24T08:12:32.000Z</time>
      </trkpt>
      <trkpt lat="47.25604" lon="-2.3376">
        <ele>1.3999999761581</ele>
        <time>2019-11-24T08:12:33.000Z</time>
      </trkpt>
      <trkpt lat="47.25608" lon="-2.33761">
        <ele>1.7999999523163</ele>
        <time>2019-11-24T08:12:34.000Z</time>
      </trkpt>
      <trkpt lat="47.25621" lon="-2.33768">
        <ele>1.7999999523163</ele>
        <time>2019-11-24T08:12:37.000Z</time>
      </trkpt>
      <trkpt lat="47.2563" lon="-2.33773">
        <ele>1.7999999523163</ele>
        <time>2019-11-24T08:12:39.000Z</time>
      </trkpt>
      <trkpt lat="47.25636" lon="-2.33783">
        <ele>1.7999999523163</ele>
        <time>2019-11-24T08:12:41.000Z</time>
      </trkpt>
      <trkpt lat="47.25644" lon="-2.3382">
        <ele>1.7999999523163</ele>
        <time>2019-11-24T08:12:47.000Z</time>
      </trkpt>
      <trkpt lat="47.25647" lon="-2.33842">
        <ele>1.7999999523163</ele>
        <time>2019-11-24T08:12:50.000Z</time>
      </trkpt>
      <trkpt lat="47.2565" lon="-2.33864">
        <ele>1.7999999523163</ele>
        <time>2019-11-24T08:12:53.000Z</time>
      </trkpt>
      <trkpt lat="47.25659" lon="-2.3392">
        <ele>1.7999999523163</ele>
        <time>2019-11-24T08:13:01.000Z</time>
      </trkpt>
      <trkpt lat="47.25663" lon="-2.3396">
        <ele>1.7999999523163</ele>
        <time>2019-11-24T08:13:07.000Z</time>
      </trkpt>
      <trkpt lat="47.25663" lon="-2.33967">
        <ele>1.7999999523163</ele>
        <time>2019-11-24T08:13:08.000Z</time>
      </trkpt>
      <trkpt lat="47.25661" lon="-2.33979">
        <ele>1.7999999523163</ele>
        <time>2019-11-24T08:13:10.000Z</time>
      </trkpt>
      <trkpt lat="47.25656" lon="-2.34006">
        <ele>1.7999999523163</ele>
        <time>2019-11-24T08:13:14.000Z</time>
      </trkpt>
      <trkpt lat="47.25651" lon="-2.34034">
        <ele>1.7999999523163</ele>
        <time>2019-11-24T08:13:18.000Z</time>
      </trkpt>
      <trkpt lat="47.25649" lon="-2.34049">
        <ele>1.7999999523163</ele>
        <time>2019-11-24T08:13:20.000Z</time>
      </trkpt>
      <trkpt lat="47.25643" lon="-2.34083">
        <ele>1.7999999523163</ele>
        <time>2019-11-24T08:13:25.000Z</time>
      </trkpt>
      <trkpt lat="47.25643" lon="-2.34097">
        <ele>1.7999999523163</ele>
        <time>2019-11-24T08:13:27.000Z</time>
      </trkpt>
      <trkpt lat="47.25644" lon="-2.34111">
        <ele>1.7999999523163</ele>
        <time>2019-11-24T08:13:29.000Z</time>
      </trkpt>
      <trkpt lat="47.25648" lon="-2.34133">
        <ele>1.7999999523163</ele>
        <time>2019-11-24T08:13:32.000Z</time>
      </trkpt>
      <trkpt lat="47.2565" lon="-2.3414">
        <ele>1.7999999523163</ele>
        <time>2019-11-24T08:13:33.000Z</time>
      </trkpt>
      <trkpt lat="47.25667" lon="-2.34174">
        <ele>1.7999999523163</ele>
        <time>2019-11-24T08:13:39.000Z</time>
      </trkpt>
      <trkpt lat="47.25674" lon="-2.34184">
        <ele>1.7999999523163</ele>
        <time>2019-11-24T08:13:41.000Z</time>
      </trkpt>
      <trkpt lat="47.25682" lon="-2.34191">
        <ele>1.3999999761581</ele>
        <time>2019-11-24T08:13:43.000Z</time>
      </trkpt>
      <trkpt lat="47.25687" lon="-2.34191">
        <ele>1</ele>
        <time>2019-11-24T08:13:44.000Z</time>
      </trkpt>
      <trkpt lat="47.25692" lon="-2.34191">
        <ele>0.60000002384186</ele>
        <time>2019-11-24T08:13:45.000Z</time>
      </trkpt>
      <trkpt lat="47.25697" lon="-2.3419">
        <ele>0.20000000298023</ele>
        <time>2019-11-24T08:13:46.000Z</time>
      </trkpt>
      <trkpt lat="47.25703" lon="-2.34189">
        <ele>-0.20000000298023</ele>
        <time>2019-11-24T08:13:47.000Z</time>
      </trkpt>
      <trkpt lat="47.25735" lon="-2.34183">
        <ele>-0.20000000298023</ele>
        <time>2019-11-24T08:13:53.000Z</time>
      </trkpt>
      <trkpt lat="47.25766" lon="-2.34178">
        <ele>-0.20000000298023</ele>
        <time>2019-11-24T08:13:59.000Z</time>
      </trkpt>
      <trkpt lat="47.25775" lon="-2.34177">
        <ele>-0.20000000298023</ele>
        <time>2019-11-24T08:14:01.000Z</time>
      </trkpt>
      <trkpt lat="47.25793" lon="-2.34175">
        <ele>-0.20000000298023</ele>
        <time>2019-11-24T08:14:05.000Z</time>
      </trkpt>
      <trkpt lat="47.25802" lon="-2.34175">
        <ele>-0.20000000298023</ele>
        <time>2019-11-24T08:14:07.000Z</time>
      </trkpt>
      <trkpt lat="47.2582" lon="-2.34179">
        <ele>-0.20000000298023</ele>
        <time>2019-11-24T08:14:11.000Z</time>
      </trkpt>
      <trkpt lat="47.25824" lon="-2.34179">
        <ele>-0.20000000298023</ele>
        <time>2019-11-24T08:14:12.000Z</time>
      </trkpt>
      <trkpt lat="47.25831" lon="-2.34174">
        <ele>-0.20000000298023</ele>
        <time>2019-11-24T08:14:14.000Z</time>
      </trkpt>
      <trkpt lat="47.25835" lon="-2.34162">
        <ele>-0.20000000298023</ele>
        <time>2019-11-24T08:14:16.000Z</time>
      </trkpt>
      <trkpt lat="47.25837" lon="-2.34158">
        <ele>-0.20000000298023</ele>
        <time>2019-11-24T08:14:17.000Z</time>
      </trkpt>
      <trkpt lat="47.25848" lon="-2.3416">
        <ele>-0.20000000298023</ele>
        <time>2019-11-24T08:14:20.000Z</time>
      </trkpt>
      <trkpt lat="47.25856" lon="-2.34165">
        <ele>-0.20000000298023</ele>
        <time>2019-11-24T08:14:22.000Z</time>
      </trkpt>
      <trkpt lat="47.25859" lon="-2.34166">
        <ele>-0.20000000298023</ele>
        <time>2019-11-24T08:14:23.000Z</time>
      </trkpt>
      <trkpt lat="47.25867" lon="-2.34168">
        <ele>-0.20000000298023</ele>
        <time>2019-11-24T08:14:25.000Z</time>
      </trkpt>
      <trkpt lat="47.2587" lon="-2.34167">
        <ele>-0.20000000298023</ele>
        <time>2019-11-24T08:14:26.000Z</time>
      </trkpt>
      <trkpt lat="47.25872" lon="-2.34164">
        <ele>-0.60000002384186</ele>
        <time>2019-11-24T08:14:27.000Z</time>
      </trkpt>
      <trkpt lat="47.25874" lon="-2.34161">
        <ele>-1.2000000476837</ele>
        <time>2019-11-24T08:14:28.000Z</time>
      </trkpt>
      <trkpt lat="47.25876" lon="-2.34157">
        <ele>-1.6000000238419</ele>
        <time>2019-11-24T08:14:29.000Z</time>
      </trkpt>
      <trkpt lat="47.25877" lon="-2.34153">
        <ele>-2</ele>
        <time>2019-11-24T08:14:30.000Z</time>
      </trkpt>
      <trkpt lat="47.25879" lon="-2.3415">
        <ele>-2.4000000953674</ele>
        <time>2019-11-24T08:14:31.000Z</time>
      </trkpt>
      <trkpt lat="47.25882" lon="-2.34148">
        <ele>-2.4000000953674</ele>
        <time>2019-11-24T08:14:32.000Z</time>
      </trkpt>
      <trkpt lat="47.25903" lon="-2.34144">
        <ele>-2.4000000953674</ele>
        <time>2019-11-24T08:14:38.000Z</time>
      </trkpt>
      <trkpt lat="47.25915" lon="-2.3414">
        <ele>-2.4000000953674</ele>
        <time>2019-11-24T08:14:41.000Z</time>
      </trkpt>
      <trkpt lat="47.25927" lon="-2.34132">
        <ele>-2.4000000953674</ele>
        <time>2019-11-24T08:14:44.000Z</time>
      </trkpt>
      <trkpt lat="47.25943" lon="-2.34119">
        <ele>-2.4000000953674</ele>
        <time>2019-11-24T08:14:48.000Z</time>
      </trkpt>
      <trkpt lat="47.25952" lon="-2.34111">
        <ele>-2.4000000953674</ele>
        <time>2019-11-24T08:14:51.000Z</time>
      </trkpt>
      <trkpt lat="47.25969" lon="-2.34112">
        <ele>-2.4000000953674</ele>
        <time>2019-11-24T08:14:55.000Z</time>
      </trkpt>
      <trkpt lat="47.25992" lon="-2.34116">
        <ele>-2.4000000953674</ele>
        <time>2019-11-24T08:15:01.000Z</time>
      </trkpt>
      <trkpt lat="47.26008" lon="-2.34123">
        <ele>-2.4000000953674</ele>
        <time>2019-11-24T08:15:05.000Z</time>
      </trkpt>
      <trkpt lat="47.2602" lon="-2.34129">
        <ele>-2.4000000953674</ele>
        <time>2019-11-24T08:15:08.000Z</time>
      </trkpt>
      <trkpt lat="47.26051" lon="-2.34143">
        <ele>-2.4000000953674</ele>
        <time>2019-11-24T08:15:15.000Z</time>
      </trkpt>
      <trkpt lat="47.26075" lon="-2.34156">
        <ele>-2.4000000953674</ele>
        <time>2019-11-24T08:15:21.000Z</time>
      </trkpt>
      <trkpt lat="47.26082" lon="-2.34161">
        <ele>-2.4000000953674</ele>
        <time>2019-11-24T08:15:23.000Z</time>
      </trkpt>
      <trkpt lat="47.26108" lon="-2.34171">
        <ele>-2.4000000953674</ele>
        <time>2019-11-24T08:15:30.000Z</time>
      </trkpt>
      <trkpt lat="47.26113" lon="-2.34173">
        <ele>-2.4000000953674</ele>
        <time>2019-11-24T08:15:32.000Z</time>
      </trkpt>
      <trkpt lat="47.26117" lon="-2.34167">
        <ele>-2.4000000953674</ele>
        <time>2019-11-24T08:15:34.000Z</time>
      </trkpt>
      <trkpt lat="47.26119" lon="-2.34155">
        <ele>-2.4000000953674</ele>
        <time>2019-11-24T08:15:37.000Z</time>
      </trkpt>
      <trkpt lat="47.26126" lon="-2.34152">
        <ele>-2.4000000953674</ele>
        <time>2019-11-24T08:15:40.000Z</time>
      </trkpt>
      <trkpt lat="47.2613" lon="-2.34153">
        <ele>-2.4000000953674</ele>
        <time>2019-11-24T08:15:41.000Z</time>
      </trkpt>
      <trkpt lat="47.26142" lon="-2.34159">
        <ele>-2.4000000953674</ele>
        <time>2019-11-24T08:15:44.000Z</time>
      </trkpt>
      <trkpt lat="47.2615" lon="-2.34166">
        <ele>-2</ele>
        <time>2019-11-24T08:15:46.000Z</time>
      </trkpt>
      <trkpt lat="47.26153" lon="-2.3417">
        <ele>-1.6000000238419</ele>
        <time>2019-11-24T08:15:47.000Z</time>
      </trkpt>
      <trkpt lat="47.26157" lon="-2.34174">
        <ele>-1.2000000476837</ele>
        <time>2019-11-24T08:15:48.000Z</time>
      </trkpt>
      <trkpt lat="47.26161" lon="-2.34178">
        <ele>-0.80000001192093</ele>
        <time>2019-11-24T08:15:49.000Z</time>
      </trkpt>
      <trkpt lat="47.26165" lon="-2.34182">
        <ele>-0.40000000596046</ele>
        <time>2019-11-24T08:15:50.000Z</time>
      </trkpt>
      <trkpt lat="47.26178" lon="-2.34196">
        <ele>-0.40000000596046</ele>
        <time>2019-11-24T08:15:53.000Z</time>
      </trkpt>
      <trkpt lat="47.26215" lon="-2.34234">
        <ele>-0.40000000596046</ele>
        <time>2019-11-24T08:16:01.000Z</time>
      </trkpt>
      <trkpt lat="47.26254" lon="-2.34276">
        <ele>-0.40000000596046</ele>
        <time>2019-11-24T08:16:10.000Z</time>
      </trkpt>
      <trkpt lat="47.26293" lon="-2.34317">
        <ele>-0.40000000596046</ele>
        <time>2019-11-24T08:16:19.000Z</time>
      </trkpt>
      <trkpt lat="47.2631" lon="-2.34335">
        <ele>-0.40000000596046</ele>
        <time>2019-11-24T08:16:23.000Z</time>
      </trkpt>
      <trkpt lat="47.26322" lon="-2.34346">
        <ele>-0.40000000596046</ele>
        <time>2019-11-24T08:16:26.000Z</time>
      </trkpt>
      <trkpt lat="47.26327" lon="-2.34349">
        <ele>-0.40000000596046</ele>
        <time>2019-11-24T08:16:27.000Z</time>
      </trkpt>
      <trkpt lat="47.26342" lon="-2.34363">
        <ele>-0.40000000596046</ele>
        <time>2019-11-24T08:16:31.000Z</time>
      </trkpt>
      <trkpt lat="47.26346" lon="-2.34368">
        <ele>-0.40000000596046</ele>
        <time>2019-11-24T08:16:32.000Z</time>
      </trkpt>
      <trkpt lat="47.2635" lon="-2.34373">
        <ele>-0.40000000596046</ele>
        <time>2019-11-24T08:16:33.000Z</time>
      </trkpt>
      <trkpt lat="47.26359" lon="-2.34379">
        <ele>-0.40000000596046</ele>
        <time>2019-11-24T08:16:35.000Z</time>
      </trkpt>
      <trkpt lat="47.2639" lon="-2.34405">
        <ele>-0.40000000596046</ele>
        <time>2019-11-24T08:16:42.000Z</time>
      </trkpt>
      <trkpt lat="47.26436" lon="-2.34441">
        <ele>-0.40000000596046</ele>
        <time>2019-11-24T08:16:52.000Z</time>
      </trkpt>
      <trkpt lat="47.26477" lon="-2.34472">
        <ele>-0.40000000596046</ele>
        <time>2019-11-24T08:17:01.000Z</time>
      </trkpt>
      <trkpt lat="47.26517" lon="-2.34503">
        <ele>-0.40000000596046</ele>
        <time>2019-11-24T08:17:10.000Z</time>
      </trkpt>
      <trkpt lat="47.26535" lon="-2.34517">
        <ele>-0.40000000596046</ele>
        <time>2019-11-24T08:17:14.000Z</time>
      </trkpt>
      <trkpt lat="47.26548" lon="-2.34532">
        <ele>-0.40000000596046</ele>
        <time>2019-11-24T08:17:17.000Z</time>
      </trkpt>
      <trkpt lat="47.26583" lon="-2.34571">
        <ele>-0.40000000596046</ele>
        <time>2019-11-24T08:17:25.000Z</time>
      </trkpt>
      <trkpt lat="47.26617" lon="-2.34611">
        <ele>-0.40000000596046</ele>
        <time>2019-11-24T08:17:33.000Z</time>
      </trkpt>
      <trkpt lat="47.26651" lon="-2.34652">
        <ele>-0.40000000596046</ele>
        <time>2019-11-24T08:17:41.000Z</time>
      </trkpt>
      <trkpt lat="47.26689" lon="-2.34698">
        <ele>-0.40000000596046</ele>
        <time>2019-11-24T08:17:50.000Z</time>
      </trkpt>
      <trkpt lat="47.26727" lon="-2.34744">
        <ele>-0.40000000596046</ele>
        <time>2019-11-24T08:17:59.000Z</time>
      </trkpt>
      <trkpt lat="47.2676" lon="-2.34784">
        <ele>-0.40000000596046</ele>
        <time>2019-11-24T08:18:07.000Z</time>
      </trkpt>
      <trkpt lat="47.26788" lon="-2.34821">
        <ele>-0.40000000596046</ele>
        <time>2019-11-24T08:18:14.000Z</time>
      </trkpt>
      <trkpt lat="47.26821" lon="-2.34871">
        <ele>-0.40000000596046</ele>
        <time>2019-11-24T08:18:22.000Z</time>
      </trkpt>
      <trkpt lat="47.26862" lon="-2.34932">
        <ele>-0.40000000596046</ele>
        <time>2019-11-24T08:18:32.000Z</time>
      </trkpt>
      <trkpt lat="47.26866" lon="-2.34938">
        <ele>-0.40000000596046</ele>
        <time>2019-11-24T08:18:33.000Z</time>
      </trkpt>
      <trkpt lat="47.26896" lon="-2.34985">
        <ele>-0.40000000596046</ele>
        <time>2019-11-24T08:18:41.000Z</time>
      </trkpt>
      <trkpt lat="47.26927" lon="-2.3503">
        <ele>-0.40000000596046</ele>
        <time>2019-11-24T08:18:49.000Z</time>
      </trkpt>
      <trkpt lat="47.26962" lon="-2.35084">
        <ele>-0.40000000596046</ele>
        <time>2019-11-24T08:18:58.000Z</time>
      </trkpt>
      <trkpt lat="47.26994" lon="-2.35134">
        <ele>-0.40000000596046</ele>
        <time>2019-11-24T08:19:07.000Z</time>
      </trkpt>
      <trkpt lat="47.27027" lon="-2.35184">
        <ele>-0.40000000596046</ele>
        <time>2019-11-24T08:19:16.000Z</time>
      </trkpt>
      <trkpt lat="47.27057" lon="-2.3523">
        <ele>-0.40000000596046</ele>
        <time>2019-11-24T08:19:24.000Z</time>
      </trkpt>
      <trkpt lat="47.27092" lon="-2.35281">
        <ele>-0.40000000596046</ele>
        <time>2019-11-24T08:19:33.000Z</time>
      </trkpt>
      <trkpt lat="47.27117" lon="-2.35324">
        <ele>-0.40000000596046</ele>
        <time>2019-11-24T08:19:40.000Z</time>
      </trkpt>
      <trkpt lat="47.27148" lon="-2.35379">
        <ele>-0.40000000596046</ele>
        <time>2019-11-24T08:19:49.000Z</time>
      </trkpt>
      <trkpt lat="47.27162" lon="-2.35405">
        <ele>7.7</ele>
        <time>2019-11-24T08:19:53.000Z</time>
      </trkpt>
      <trkpt lat="47.27165" lon="-2.35412">
        <ele>0.40000000596046</ele>
        <time>2019-11-24T08:19:54.000Z</time>
      </trkpt>
      <trkpt lat="47.27168" lon="-2.35419">
        <ele>0.80000001192093</ele>
        <time>2019-11-24T08:19:55.000Z</time>
      </trkpt>
      <trkpt lat="47.27172" lon="-2.35425">
        <ele>1.2000000476837</ele>
        <time>2019-11-24T08:19:56.000Z</time>
      </trkpt>
      <trkpt lat="47.27175" lon="-2.35431">
        <ele>1.6000000238419</ele>
        <time>2019-11-24T08:19:57.000Z</time>
      </trkpt>
      <trkpt lat="47.27196" lon="-2.35469">
        <ele>1.6000000238419</ele>
        <time>2019-11-24T08:20:03.000Z</time>
      </trkpt>
      <trkpt lat="47.27203" lon="-2.35482">
        <ele>1.6000000238419</ele>
        <time>2019-11-24T08:20:05.000Z</time>
      </trkpt>
      <trkpt lat="47.27213" lon="-2.35502">
        <ele>1.6000000238419</ele>
        <time>2019-11-24T08:20:08.000Z</time>
      </trkpt>
      <trkpt lat="47.27234" lon="-2.3555">
        <ele>1.6000000238419</ele>
        <time>2019-11-24T08:20:15.000Z</time>
      </trkpt>
      <trkpt lat="47.27252" lon="-2.35593">
        <ele>1.6000000238419</ele>
        <time>2019-11-24T08:20:21.000Z</time>
      </trkpt>
      <trkpt lat="47.2728" lon="-2.35656">
        <ele>1.6000000238419</ele>
        <time>2019-11-24T08:20:30.000Z</time>
      </trkpt>
      <trkpt lat="47.27303" lon="-2.35701">
        <ele>1.6000000238419</ele>
        <time>2019-11-24T08:20:37.000Z</time>
      </trkpt>
      <trkpt lat="47.27323" lon="-2.35748">
        <ele>1.6000000238419</ele>
        <time>2019-11-24T08:20:44.000Z</time>
      </trkpt>
      <trkpt lat="47.27344" lon="-2.35798">
        <ele>1.6000000238419</ele>
        <time>2019-11-24T08:20:51.000Z</time>
      </trkpt>
      <trkpt lat="47.27362" lon="-2.35847">
        <ele>1.6000000238419</ele>
        <time>2019-11-24T08:20:57.000Z</time>
      </trkpt>
      <trkpt lat="47.27384" lon="-2.35902">
        <ele>1.6000000238419</ele>
        <time>2019-11-24T08:21:04.000Z</time>
      </trkpt>
      <trkpt lat="47.27409" lon="-2.35965">
        <ele>1.6000000238419</ele>
        <time>2019-11-24T08:21:12.000Z</time>
      </trkpt>
      <trkpt lat="47.2743" lon="-2.36016">
        <ele>1.6000000238419</ele>
        <time>2019-11-24T08:21:19.000Z</time>
      </trkpt>
      <trkpt lat="47.27455" lon="-2.36074">
        <ele>1.6000000238419</ele>
        <time>2019-11-24T08:21:27.000Z</time>
      </trkpt>
      <trkpt lat="47.27473" lon="-2.36123">
        <ele>1.6000000238419</ele>
        <time>2019-11-24T08:21:33.000Z</time>
      </trkpt>
      <trkpt lat="47.27492" lon="-2.36181">
        <ele>1.6000000238419</ele>
        <time>2019-11-24T08:21:40.000Z</time>
      </trkpt>
      <trkpt lat="47.27515" lon="-2.36244">
        <ele>1.6000000238419</ele>
        <time>2019-11-24T08:21:48.000Z</time>
      </trkpt>
      <trkpt lat="47.27539" lon="-2.36307">
        <ele>1.6000000238419</ele>
        <time>2019-11-24T08:21:56.000Z</time>
      </trkpt>
      <trkpt lat="47.27556" lon="-2.36354">
        <ele>2</ele>
        <time>2019-11-24T08:22:02.000Z</time>
      </trkpt>
      <trkpt lat="47.27559" lon="-2.36361">
        <ele>2.4000000953674</ele>
        <time>2019-11-24T08:22:03.000Z</time>
      </trkpt>
      <trkpt lat="47.27562" lon="-2.3637">
        <ele>3</ele>
        <time>2019-11-24T08:22:04.000Z</time>
      </trkpt>
      <trkpt lat="47.27565" lon="-2.36377">
        <ele>3.4000000953674</ele>
        <time>2019-11-24T08:22:05.000Z</time>
      </trkpt>
      <trkpt lat="47.27568" lon="-2.36385">
        <ele>3.7999999523163</ele>
        <time>2019-11-24T08:22:06.000Z</time>
      </trkpt>
      <trkpt lat="47.27589" lon="-2.36442">
        <ele>3.7999999523163</ele>
        <time>2019-11-24T08:22:13.000Z</time>
      </trkpt>
      <trkpt lat="47.27608" lon="-2.3649">
        <ele>3.7999999523163</ele>
        <time>2019-11-24T08:22:19.000Z</time>
      </trkpt>
      <trkpt lat="47.27629" lon="-2.36551">
        <ele>3.7999999523163</ele>
        <time>2019-11-24T08:22:27.000Z</time>
      </trkpt>
      <trkpt lat="47.27647" lon="-2.36605">
        <ele>3.7999999523163</ele>
        <time>2019-11-24T08:22:33.000Z</time>
      </trkpt>
      <trkpt lat="47.27673" lon="-2.36683">
        <ele>3.7999999523163</ele>
        <time>2019-11-24T08:22:42.000Z</time>
      </trkpt>
      <trkpt lat="47.27675" lon="-2.36692">
        <ele>3.7999999523163</ele>
        <time>2019-11-24T08:22:43.000Z</time>
      </trkpt>
      <trkpt lat="47.27697" lon="-2.36761">
        <ele>3.7999999523163</ele>
        <time>2019-11-24T08:22:51.000Z</time>
      </trkpt>
      <trkpt lat="47.2772" lon="-2.36838">
        <ele>3.7999999523163</ele>
        <time>2019-11-24T08:23:00.000Z</time>
      </trkpt>
      <trkpt lat="47.27737" lon="-2.36897">
        <ele>3.7999999523163</ele>
        <time>2019-11-24T08:23:07.000Z</time>
      </trkpt>
      <trkpt lat="47.2775" lon="-2.36941">
        <ele>3.7999999523163</ele>
        <time>2019-11-24T08:23:13.000Z</time>
      </trkpt>
      <trkpt lat="47.27763" lon="-2.3699">
        <ele>3.7999999523163</ele>
        <time>2019-11-24T08:23:19.000Z</time>
      </trkpt>
      <trkpt lat="47.27781" lon="-2.37055">
        <ele>3.7999999523163</ele>
        <time>2019-11-24T08:23:27.000Z</time>
      </trkpt>
      <trkpt lat="47.27799" lon="-2.37116">
        <ele>3.7999999523163</ele>
        <time>2019-11-24T08:23:35.000Z</time>
      </trkpt>
      <trkpt lat="47.27811" lon="-2.3716">
        <ele>3.7999999523163</ele>
        <time>2019-11-24T08:23:41.000Z</time>
      </trkpt>
      <trkpt lat="47.27819" lon="-2.37184">
        <ele>3.7999999523163</ele>
        <time>2019-11-24T08:23:45.000Z</time>
      </trkpt>
      <trkpt lat="47.27825" lon="-2.37195">
        <ele>3.7999999523163</ele>
        <time>2019-11-24T08:23:47.000Z</time>
      </trkpt>
      <trkpt lat="47.27826" lon="-2.37201">
        <ele>3.7999999523163</ele>
        <time>2019-11-24T08:23:48.000Z</time>
      </trkpt>
      <trkpt lat="47.27829" lon="-2.37225">
        <ele>3.7999999523163</ele>
        <time>2019-11-24T08:23:51.000Z</time>
      </trkpt>
      <trkpt lat="47.2783" lon="-2.37234">
        <ele>3.7999999523163</ele>
        <time>2019-11-24T08:23:52.000Z</time>
      </trkpt>
      <trkpt lat="47.27837" lon="-2.37262">
        <ele>3.7999999523163</ele>
        <time>2019-11-24T08:23:55.000Z</time>
      </trkpt>
      <trkpt lat="47.27854" lon="-2.37332">
        <ele>3.7999999523163</ele>
        <time>2019-11-24T08:24:02.000Z</time>
      </trkpt>
      <trkpt lat="47.27875" lon="-2.3741">
        <ele>3.7999999523163</ele>
        <time>2019-11-24T08:24:10.000Z</time>
      </trkpt>
      <trkpt lat="47.27878" lon="-2.3742">
        <ele>3.7999999523163</ele>
        <time>2019-11-24T08:24:11.000Z</time>
      </trkpt>
      <trkpt lat="47.27893" lon="-2.37486">
        <ele>3.7999999523163</ele>
        <time>2019-11-24T08:24:18.000Z</time>
      </trkpt>
      <trkpt lat="47.27908" lon="-2.37551">
        <ele>3.7999999523163</ele>
        <time>2019-11-24T08:24:25.000Z</time>
      </trkpt>
      <trkpt lat="47.27926" lon="-2.37619">
        <ele>3.7999999523163</ele>
        <time>2019-11-24T08:24:33.000Z</time>
      </trkpt>
      <trkpt lat="47.27938" lon="-2.37664">
        <ele>3.7999999523163</ele>
        <time>2019-11-24T08:24:39.000Z</time>
      </trkpt>
      <trkpt lat="47.27943" lon="-2.37675">
        <ele>3.7999999523163</ele>
        <time>2019-11-24T08:24:41.000Z</time>
      </trkpt>
      <trkpt lat="47.27949" lon="-2.37686">
        <ele>3.7999999523163</ele>
        <time>2019-11-24T08:24:43.000Z</time>
      </trkpt>
      <trkpt lat="47.27954" lon="-2.37698">
        <ele>3.7999999523163</ele>
        <time>2019-11-24T08:24:45.000Z</time>
      </trkpt>
      <trkpt lat="47.27962" lon="-2.37704">
        <ele>3.7999999523163</ele>
        <time>2019-11-24T08:24:47.000Z</time>
      </trkpt>
      <trkpt lat="47.27974" lon="-2.37716">
        <ele>3.7999999523163</ele>
        <time>2019-11-24T08:24:50.000Z</time>
      </trkpt>
      <trkpt lat="47.27978" lon="-2.37722">
        <ele>3.7999999523163</ele>
        <time>2019-11-24T08:24:51.000Z</time>
      </trkpt>
      <trkpt lat="47.27981" lon="-2.37726">
        <ele>3.7999999523163</ele>
        <time>2019-11-24T08:24:52.000Z</time>
      </trkpt>
      <trkpt lat="47.28006" lon="-2.37763">
        <ele>3.7999999523163</ele>
        <time>2019-11-24T08:24:59.000Z</time>
      </trkpt>
      <trkpt lat="47.2802" lon="-2.37783">
        <ele>3.7999999523163</ele>
        <time>2019-11-24T08:25:04.000Z</time>
      </trkpt>
      <trkpt lat="47.28022" lon="-2.37787">
        <ele>3.7999999523163</ele>
        <time>2019-11-24T08:25:05.000Z</time>
      </trkpt>
      <trkpt lat="47.28032" lon="-2.37802">
        <ele>3.7999999523163</ele>
        <time>2019-11-24T08:25:08.000Z</time>
      </trkpt>
      <trkpt lat="47.28038" lon="-2.37814">
        <ele>3.7999999523163</ele>
        <time>2019-11-24T08:25:10.000Z</time>
      </trkpt>
      <trkpt lat="47.28045" lon="-2.37826">
        <ele>3.7999999523163</ele>
        <time>2019-11-24T08:25:12.000Z</time>
      </trkpt>
      <trkpt lat="47.28057" lon="-2.37841">
        <ele>3.7999999523163</ele>
        <time>2019-11-24T08:25:15.000Z</time>
      </trkpt>
      <trkpt lat="47.28074" lon="-2.37867">
        <ele>3.7999999523163</ele>
        <time>2019-11-24T08:25:20.000Z</time>
      </trkpt>
      <trkpt lat="47.28085" lon="-2.37884">
        <ele>3.7999999523163</ele>
        <time>2019-11-24T08:25:23.000Z</time>
      </trkpt>
      <trkpt lat="47.28097" lon="-2.37901">
        <ele>3.7999999523163</ele>
        <time>2019-11-24T08:25:26.000Z</time>
      </trkpt>
      <trkpt lat="47.28105" lon="-2.37912">
        <ele>3.7999999523163</ele>
        <time>2019-11-24T08:25:28.000Z</time>
      </trkpt>
      <trkpt lat="47.28116" lon="-2.37931">
        <ele>3.7999999523163</ele>
        <time>2019-11-24T08:25:31.000Z</time>
      </trkpt>
      <trkpt lat="47.28139" lon="-2.37964">
        <ele>3.7999999523163</ele>
        <time>2019-11-24T08:25:37.000Z</time>
      </trkpt>
      <trkpt lat="47.28154" lon="-2.37977">
        <ele>3.7999999523163</ele>
        <time>2019-11-24T08:25:42.000Z</time>
      </trkpt>
      <trkpt lat="47.2816" lon="-2.38006">
        <ele>3.7999999523163</ele>
        <time>2019-11-24T08:25:47.000Z</time>
      </trkpt>
      <trkpt lat="47.28164" lon="-2.38025">
        <ele>3.7999999523163</ele>
        <time>2019-11-24T08:25:50.000Z</time>
      </trkpt>
      <trkpt lat="47.28175" lon="-2.38037">
        <ele>3.7999999523163</ele>
        <time>2019-11-24T08:25:53.000Z</time>
      </trkpt>
      <trkpt lat="47.28179" lon="-2.38039">
        <ele>3.7999999523163</ele>
        <time>2019-11-24T08:25:54.000Z</time>
      </trkpt>
      <trkpt lat="47.28183" lon="-2.38042">
        <ele>3.7999999523163</ele>
        <time>2019-11-24T08:25:55.000Z</time>
      </trkpt>
      <trkpt lat="47.28191" lon="-2.38054">
        <ele>3.7999999523163</ele>
        <time>2019-11-24T08:25:57.000Z</time>
      </trkpt>
      <trkpt lat="47.282" lon="-2.38078">
        <ele>3.7999999523163</ele>
        <time>2019-11-24T08:26:00.000Z</time>
      </trkpt>
      <trkpt lat="47.28202" lon="-2.38086">
        <ele>3.7999999523163</ele>
        <time>2019-11-24T08:26:01.000Z</time>
      </trkpt>
      <trkpt lat="47.2822" lon="-2.38138">
        <ele>3.7999999523163</ele>
        <time>2019-11-24T08:26:07.000Z</time>
      </trkpt>
      <trkpt lat="47.28224" lon="-2.38147">
        <ele>3.4000000953674</ele>
        <time>2019-11-24T08:26:08.000Z</time>
      </trkpt>
      <trkpt lat="47.28227" lon="-2.38155">
        <ele>3</ele>
        <time>2019-11-24T08:26:09.000Z</time>
      </trkpt>
      <trkpt lat="47.2823" lon="-2.38163">
        <ele>2.5999999046326</ele>
        <time>2019-11-24T08:26:10.000Z</time>
      </trkpt>
      <trkpt lat="47.28233" lon="-2.38172">
        <ele>1.7999999523163</ele>
        <time>2019-11-24T08:26:11.000Z</time>
      </trkpt>
      <trkpt lat="47.28236" lon="-2.38181">
        <ele>1.7999999523163</ele>
        <time>2019-11-24T08:26:12.000Z</time>
      </trkpt>
      <trkpt lat="47.28254" lon="-2.38228">
        <ele>1.7999999523163</ele>
        <time>2019-11-24T08:26:17.000Z</time>
      </trkpt>
      <trkpt lat="47.2826" lon="-2.38247">
        <ele>1.7999999523163</ele>
        <time>2019-11-24T08:26:19.000Z</time>
      </trkpt>
      <trkpt lat="47.28274" lon="-2.38298">
        <ele>1.7999999523163</ele>
        <time>2019-11-24T08:26:25.000Z</time>
      </trkpt>
      <trkpt lat="47.2829" lon="-2.3835">
        <ele>1.7999999523163</ele>
        <time>2019-11-24T08:26:31.000Z</time>
      </trkpt>
      <trkpt lat="47.28301" lon="-2.3838">
        <ele>1.7999999523163</ele>
        <time>2019-11-24T08:26:35.000Z</time>
      </trkpt>
      <trkpt lat="47.28306" lon="-2.38386">
        <ele>1.7999999523163</ele>
        <time>2019-11-24T08:26:36.000Z</time>
      </trkpt>
      <trkpt lat="47.28322" lon="-2.3842">
        <ele>1.7999999523163</ele>
        <time>2019-11-24T08:26:41.000Z</time>
      </trkpt>
      <trkpt lat="47.28341" lon="-2.38467">
        <ele>1.7999999523163</ele>
        <time>2019-11-24T08:26:47.000Z</time>
      </trkpt>
      <trkpt lat="47.28361" lon="-2.38515">
        <ele>1.7999999523163</ele>
        <time>2019-11-24T08:26:53.000Z</time>
      </trkpt>
      <trkpt lat="47.28387" lon="-2.3857">
        <ele>1.7999999523163</ele>
        <time>2019-11-24T08:27:00.000Z</time>
      </trkpt>
      <trkpt lat="47.28414" lon="-2.3862">
        <ele>1.7999999523163</ele>
        <time>2019-11-24T08:27:07.000Z</time>
      </trkpt>
      <trkpt lat="47.28431" lon="-2.3865">
        <ele>1.7999999523163</ele>
        <time>2019-11-24T08:27:11.000Z</time>
      </trkpt>
      <trkpt lat="47.28435" lon="-2.38658">
        <ele>1.7999999523163</ele>
        <time>2019-11-24T08:27:12.000Z</time>
      </trkpt>
      <trkpt lat="47.28461" lon="-2.38687">
        <ele>1.7999999523163</ele>
        <time>2019-11-24T08:27:17.000Z</time>
      </trkpt>
      <trkpt lat="47.28482" lon="-2.38704">
        <ele>1.7999999523163</ele>
        <time>2019-11-24T08:27:21.000Z</time>
      </trkpt>
      <trkpt lat="47.28504" lon="-2.38729">
        <ele>1.7999999523163</ele>
        <time>2019-11-24T08:27:26.000Z</time>
      </trkpt>
      <trkpt lat="47.28508" lon="-2.38734">
        <ele>1.7999999523163</ele>
        <time>2019-11-24T08:27:27.000Z</time>
      </trkpt>
      <trkpt lat="47.28519" lon="-2.38753">
        <ele>1.7999999523163</ele>
        <time>2019-11-24T08:27:30.000Z</time>
      </trkpt>
      <trkpt lat="47.28523" lon="-2.38761">
        <ele>1.7999999523163</ele>
        <time>2019-11-24T08:27:31.000Z</time>
      </trkpt>
      <trkpt lat="47.28548" lon="-2.38803">
        <ele>1.7999999523163</ele>
        <time>2019-11-24T08:27:37.000Z</time>
      </trkpt>
      <trkpt lat="47.28577" lon="-2.38856">
        <ele>1.7999999523163</ele>
        <time>2019-11-24T08:27:44.000Z</time>
      </trkpt>
      <trkpt lat="47.2861" lon="-2.38909">
        <ele>1.7999999523163</ele>
        <time>2019-11-24T08:27:52.000Z</time>
      </trkpt>
      <trkpt lat="47.28633" lon="-2.38946">
        <ele>1.7999999523163</ele>
        <time>2019-11-24T08:27:58.000Z</time>
      </trkpt>
      <trkpt lat="47.28635" lon="-2.38953">
        <ele>1.7999999523163</ele>
        <time>2019-11-24T08:27:59.000Z</time>
      </trkpt>
      <trkpt lat="47.28647" lon="-2.38979">
        <ele>1.7999999523163</ele>
        <time>2019-11-24T08:28:03.000Z</time>
      </trkpt>
      <trkpt lat="47.2867" lon="-2.39026">
        <ele>1.7999999523163</ele>
        <time>2019-11-24T08:28:10.000Z</time>
      </trkpt>
      <trkpt lat="47.28688" lon="-2.39062">
        <ele>1.7999999523163</ele>
        <time>2019-11-24T08:28:16.000Z</time>
      </trkpt>
      <trkpt lat="47.28692" lon="-2.39068">
        <ele>1.7999999523163</ele>
        <time>2019-11-24T08:28:17.000Z</time>
      </trkpt>
      <trkpt lat="47.28706" lon="-2.39089">
        <ele>1.7999999523163</ele>
        <time>2019-11-24T08:28:21.000Z</time>
      </trkpt>
      <trkpt lat="47.28707" lon="-2.39096">
        <ele>1.7999999523163</ele>
        <time>2019-11-24T08:28:22.000Z</time>
      </trkpt>
      <trkpt lat="47.28707" lon="-2.39119">
        <ele>1.7999999523163</ele>
        <time>2019-11-24T08:28:25.000Z</time>
      </trkpt>
      <trkpt lat="47.28709" lon="-2.39135">
        <ele>1.7999999523163</ele>
        <time>2019-11-24T08:28:27.000Z</time>
      </trkpt>
      <trkpt lat="47.28715" lon="-2.3915">
        <ele>1.7999999523163</ele>
        <time>2019-11-24T08:28:29.000Z</time>
      </trkpt>
      <trkpt lat="47.28737" lon="-2.39197">
        <ele>1.7999999523163</ele>
        <time>2019-11-24T08:28:36.000Z</time>
      </trkpt>
      <trkpt lat="47.28748" lon="-2.39218">
        <ele>1.7999999523163</ele>
        <time>2019-11-24T08:28:41.000Z</time>
      </trkpt>
      <trkpt lat="47.2875" lon="-2.39224">
        <ele>1.7999999523163</ele>
        <time>2019-11-24T08:28:42.000Z</time>
      </trkpt>
      <trkpt lat="47.28761" lon="-2.39246">
        <ele>1.7999999523163</ele>
        <time>2019-11-24T08:28:46.000Z</time>
      </trkpt>
      <trkpt lat="47.28784" lon="-2.39285">
        <ele>1.7999999523163</ele>
        <time>2019-11-24T08:28:53.000Z</time>
      </trkpt>
      <trkpt lat="47.28797" lon="-2.39313">
        <ele>2.5999999046326</ele>
        <time>2019-11-24T08:28:57.000Z</time>
      </trkpt>
      <trkpt lat="47.288" lon="-2.39321">
        <ele>3</ele>
        <time>2019-11-24T08:28:58.000Z</time>
      </trkpt>
      <trkpt lat="47.28803" lon="-2.39328">
        <ele>3.4000000953674</ele>
        <time>2019-11-24T08:28:59.000Z</time>
      </trkpt>
      <trkpt lat="47.28806" lon="-2.39335">
        <ele>3.7999999523163</ele>
        <time>2019-11-24T08:29:00.000Z</time>
      </trkpt>
      <trkpt lat="47.28826" lon="-2.39375">
        <ele>4.1999998092651</ele>
        <time>2019-11-24T08:29:06.000Z</time>
      </trkpt>
      <trkpt lat="47.2883" lon="-2.3938">
        <ele>4.5999999046326</ele>
        <time>2019-11-24T08:29:07.000Z</time>
      </trkpt>
      <trkpt lat="47.28834" lon="-2.39385">
        <ele>5</ele>
        <time>2019-11-24T08:29:08.000Z</time>
      </trkpt>
      <trkpt lat="47.28839" lon="-2.39389">
        <ele>5.5999999046326</ele>
        <time>2019-11-24T08:29:09.000Z</time>
      </trkpt>
      <trkpt lat="47.28843" lon="-2.39392">
        <ele>6</ele>
        <time>2019-11-24T08:29:10.000Z</time>
      </trkpt>
      <trkpt lat="47.28852" lon="-2.39398">
        <ele>6</ele>
        <time>2019-11-24T08:29:12.000Z</time>
      </trkpt>
      <trkpt lat="47.28857" lon="-2.39399">
        <ele>6.4000000953674</ele>
        <time>2019-11-24T08:29:13.000Z</time>
      </trkpt>
      <trkpt lat="47.28861" lon="-2.394">
        <ele>6.8000001907349</ele>
        <time>2019-11-24T08:29:14.000Z</time>
      </trkpt>
      <trkpt lat="47.28866" lon="-2.39402">
        <ele>7.1999998092651</ele>
        <time>2019-11-24T08:29:15.000Z</time>
      </trkpt>
      <trkpt lat="47.28872" lon="-2.39403">
        <ele>7.5999999046326</ele>
        <time>2019-11-24T08:29:16.000Z</time>
      </trkpt>
      <trkpt lat="47.28877" lon="-2.39404">
        <ele>8</ele>
        <time>2019-11-24T08:29:17.000Z</time>
      </trkpt>
      <trkpt lat="47.28888" lon="-2.39408">
        <ele>8</ele>
        <time>2019-11-24T08:29:19.000Z</time>
      </trkpt>
      <trkpt lat="47.28933" lon="-2.39424">
        <ele>8</ele>
        <time>2019-11-24T08:29:26.000Z</time>
      </trkpt>
      <trkpt lat="47.28961" lon="-2.39433">
        <ele>7.5999999046326</ele>
        <time>2019-11-24T08:29:30.000Z</time>
      </trkpt>
      <trkpt lat="47.28968" lon="-2.39436">
        <ele>7.1999998092651</ele>
        <time>2019-11-24T08:29:31.000Z</time>
      </trkpt>
      <trkpt lat="47.28975" lon="-2.39439">
        <ele>6.8000001907349</ele>
        <time>2019-11-24T08:29:32.000Z</time>
      </trkpt>
      <trkpt lat="47.28982" lon="-2.39441">
        <ele>6.4000000953674</ele>
        <time>2019-11-24T08:29:33.000Z</time>
      </trkpt>
      <trkpt lat="47.2899" lon="-2.39444">
        <ele>6</ele>
        <time>2019-11-24T08:29:34.000Z</time>
      </trkpt>
      <trkpt lat="47.29038" lon="-2.39469">
        <ele>6</ele>
        <time>2019-11-24T08:29:41.000Z</time>
      </trkpt>
      <trkpt lat="47.29045" lon="-2.39472">
        <ele>5.5999999046326</ele>
        <time>2019-11-24T08:29:42.000Z</time>
      </trkpt>
      <trkpt lat="47.29052" lon="-2.39476">
        <ele>5.1999998092651</ele>
        <time>2019-11-24T08:29:43.000Z</time>
      </trkpt>
      <trkpt lat="47.29059" lon="-2.3948">
        <ele>4.8000001907349</ele>
        <time>2019-11-24T08:29:44.000Z</time>
      </trkpt>
      <trkpt lat="47.29066" lon="-2.39485">
        <ele>4.1999998092651</ele>
        <time>2019-11-24T08:29:45.000Z</time>
      </trkpt>
      <trkpt lat="47.29073" lon="-2.39489">
        <ele>3.7999999523163</ele>
        <time>2019-11-24T08:29:46.000Z</time>
      </trkpt>
      <trkpt lat="47.291" lon="-2.39506">
        <ele>3.7999999523163</ele>
        <time>2019-11-24T08:29:50.000Z</time>
      </trkpt>
      <trkpt lat="47.29106" lon="-2.39509">
        <ele>3.4000000953674</ele>
        <time>2019-11-24T08:29:51.000Z</time>
      </trkpt>
      <trkpt lat="47.29112" lon="-2.39511">
        <ele>3</ele>
        <time>2019-11-24T08:29:52.000Z</time>
      </trkpt>
      <trkpt lat="47.29117" lon="-2.3951">
        <ele>2.5999999046326</ele>
        <time>2019-11-24T08:29:53.000Z</time>
      </trkpt>
      <trkpt lat="47.29123" lon="-2.39507">
        <ele>2.2000000476837</ele>
        <time>2019-11-24T08:29:54.000Z</time>
      </trkpt>
      <trkpt lat="47.29127" lon="-2.39502">
        <ele>1.7999999523163</ele>
        <time>2019-11-24T08:29:55.000Z</time>
      </trkpt>
      <trkpt lat="47.29133" lon="-2.39487">
        <ele>1.7999999523163</ele>
        <time>2019-11-24T08:29:57.000Z</time>
      </trkpt>
      <trkpt lat="47.29137" lon="-2.39465">
        <ele>1.7999999523163</ele>
        <time>2019-11-24T08:30:00.000Z</time>
      </trkpt>
      <trkpt lat="47.29148" lon="-2.39463">
        <ele>1.7999999523163</ele>
        <time>2019-11-24T08:30:03.000Z</time>
      </trkpt>
      <trkpt lat="47.29152" lon="-2.39463">
        <ele>1.7999999523163</ele>
        <time>2019-11-24T08:30:04.000Z</time>
      </trkpt>
      <trkpt lat="47.2916" lon="-2.39465">
        <ele>1.7999999523163</ele>
        <time>2019-11-24T08:30:06.000Z</time>
      </trkpt>
      <trkpt lat="47.2917" lon="-2.39469">
        <ele>1.7999999523163</ele>
        <time>2019-11-24T08:30:08.000Z</time>
      </trkpt>
      <trkpt lat="47.292" lon="-2.3948">
        <ele>1.7999999523163</ele>
        <time>2019-11-24T08:30:13.000Z</time>
      </trkpt>
      <trkpt lat="47.29248" lon="-2.39487">
        <ele>1.7999999523163</ele>
        <time>2019-11-24T08:30:20.000Z</time>
      </trkpt>
      <trkpt lat="47.29297" lon="-2.39496">
        <ele>1.7999999523163</ele>
        <time>2019-11-24T08:30:27.000Z</time>
      </trkpt>
      <trkpt lat="47.29343" lon="-2.39506">
        <ele>1.7999999523163</ele>
        <time>2019-11-24T08:30:34.000Z</time>
      </trkpt>
      <trkpt lat="47.29401" lon="-2.39516">
        <ele>1.7999999523163</ele>
        <time>2019-11-24T08:30:43.000Z</time>
      </trkpt>
      <trkpt lat="47.29456" lon="-2.39528">
        <ele>1.7999999523163</ele>
        <time>2019-11-24T08:30:52.000Z</time>
      </trkpt>
      <trkpt lat="47.29511" lon="-2.39537">
        <ele>1.7999999523163</ele>
        <time>2019-11-24T08:31:01.000Z</time>
      </trkpt>
      <trkpt lat="47.29546" lon="-2.39544">
        <ele>1.7999999523163</ele>
        <time>2019-11-24T08:31:07.000Z</time>
      </trkpt>
      <trkpt lat="47.2956" lon="-2.39548">
        <ele>2.2000000476837</ele>
        <time>2019-11-24T08:31:10.000Z</time>
      </trkpt>
      <trkpt lat="47.29565" lon="-2.39547">
        <ele>2.5999999046326</ele>
        <time>2019-11-24T08:31:11.000Z</time>
      </trkpt>
      <trkpt lat="47.29569" lon="-2.39547">
        <ele>3</ele>
        <time>2019-11-24T08:31:13.000Z</time>
      </trkpt>
      <trkpt lat="47.29573" lon="-2.39548">
        <ele>3.4000000953674</ele>
        <time>2019-11-24T08:31:14.000Z</time>
      </trkpt>
      <trkpt lat="47.29576" lon="-2.39548">
        <ele>4</ele>
        <time>2019-11-24T08:31:15.000Z</time>
      </trkpt>
      <trkpt lat="47.29586" lon="-2.39549">
        <ele>4.4000000953674</ele>
        <time>2019-11-24T08:31:18.000Z</time>
      </trkpt>
      <trkpt lat="47.2959" lon="-2.3955">
        <ele>4.8000001907349</ele>
        <time>2019-11-24T08:31:19.000Z</time>
      </trkpt>
      <trkpt lat="47.29593" lon="-2.3955">
        <ele>5.1999998092651</ele>
        <time>2019-11-24T08:31:20.000Z</time>
      </trkpt>
      <trkpt lat="47.29597" lon="-2.39551">
        <ele>5.8000001907349</ele>
        <time>2019-11-24T08:31:21.000Z</time>
      </trkpt>
      <trkpt lat="47.29602" lon="-2.39551">
        <ele>6.1999998092651</ele>
        <time>2019-11-24T08:31:22.000Z</time>
      </trkpt>
      <trkpt lat="47.29611" lon="-2.39553">
        <ele>6.1999998092651</ele>
        <time>2019-11-24T08:31:24.000Z</time>
      </trkpt>
      <trkpt lat="47.29623" lon="-2.39557">
        <ele>6.1999998092651</ele>
        <time>2019-11-24T08:31:28.000Z</time>
      </trkpt>
      <trkpt lat="47.29626" lon="-2.39559">
        <ele>6.1999998092651</ele>
        <time>2019-11-24T08:31:30.000Z</time>
      </trkpt>
      <trkpt lat="47.29625" lon="-2.39562">
        <ele>5.8000001907349</ele>
        <time>2019-11-24T08:31:32.000Z</time>
      </trkpt>
      <trkpt lat="47.29622" lon="-2.39562">
        <ele>5.4000000953674</ele>
        <time>2019-11-24T08:31:33.000Z</time>
      </trkpt>
      <trkpt lat="47.29619" lon="-2.39563">
        <ele>5</ele>
        <time>2019-11-24T08:31:34.000Z</time>
      </trkpt>
      <trkpt lat="47.29614" lon="-2.39565">
        <ele>4.5999999046326</ele>
        <time>2019-11-24T08:31:35.000Z</time>
      </trkpt>
      <trkpt lat="47.29612" lon="-2.39568">
        <ele>4</ele>
        <time>2019-11-24T08:31:36.000Z</time>
      </trkpt>
      <trkpt lat="47.29616" lon="-2.39576">
        <ele>4</ele>
        <time>2019-11-24T08:31:38.000Z</time>
      </trkpt>
      <trkpt lat="47.29618" lon="-2.39577">
        <ele>3.5999999046326</ele>
        <time>2019-11-24T08:31:39.000Z</time>
      </trkpt>
      <trkpt lat="47.29623" lon="-2.39576">
        <ele>3.2000000476837</ele>
        <time>2019-11-24T08:31:40.000Z</time>
      </trkpt>
      <trkpt lat="47.29627" lon="-2.39578">
        <ele>2.7999999523163</ele>
        <time>2019-11-24T08:31:41.000Z</time>
      </trkpt>
      <trkpt lat="47.2963" lon="-2.3958">
        <ele>2.4000000953674</ele>
        <time>2019-11-24T08:31:42.000Z</time>
      </trkpt>
      <trkpt lat="47.29632" lon="-2.39585">
        <ele>2</ele>
        <time>2019-11-24T08:31:43.000Z</time>
      </trkpt>
      <trkpt lat="47.29633" lon="-2.39596">
        <ele>1.6000000238419</ele>
        <time>2019-11-24T08:31:45.000Z</time>
      </trkpt>
      <trkpt lat="47.29632" lon="-2.39602">
        <ele>0.80000001192093</ele>
        <time>2019-11-24T08:31:46.000Z</time>
      </trkpt>
      <trkpt lat="47.29632" lon="-2.39609">
        <ele>0.40000000596046</ele>
        <time>2019-11-24T08:31:47.000Z</time>
      </trkpt>
      <trkpt lat="47.29632" lon="-2.39616">
        <ele>3.8</ele>
        <time>2019-11-24T08:31:48.000Z</time>
      </trkpt>
      <trkpt lat="47.2963" lon="-2.39641">
        <ele>3.7</ele>
        <time>2019-11-24T08:31:51.000Z</time>
      </trkpt>
      <trkpt lat="47.29617" lon="-2.39671">
        <ele>4</ele>
        <time>2019-11-24T08:31:55.000Z</time>
      </trkpt>
      <trkpt lat="47.29608" lon="-2.39685">
        <ele>3.9</ele>
        <time>2019-11-24T08:31:57.000Z</time>
      </trkpt>
      <trkpt lat="47.29599" lon="-2.39706">
        <ele>3.6</ele>
        <time>2019-11-24T08:32:00.000Z</time>
      </trkpt>
      <trkpt lat="47.29599" lon="-2.39712">
        <ele>3.6</ele>
        <time>2019-11-24T08:32:01.000Z</time>
      </trkpt>
      <trkpt lat="47.29605" lon="-2.39727">
        <ele>3.8</ele>
        <time>2019-11-24T08:32:04.000Z</time>
      </trkpt>
      <trkpt lat="47.29607" lon="-2.39732">
        <ele>3.9</ele>
        <time>2019-11-24T08:32:05.000Z</time>
      </trkpt>
      <trkpt lat="47.29615" lon="-2.3975">
        <ele>4.1</ele>
        <time>2019-11-24T08:32:08.000Z</time>
      </trkpt>
      <trkpt lat="47.29616" lon="-2.39756">
        <ele>4.2</ele>
        <time>2019-11-24T08:32:09.000Z</time>
      </trkpt>
      <trkpt lat="47.29618" lon="-2.39763">
        <ele>4.4</ele>
        <time>2019-11-24T08:32:10.000Z</time>
      </trkpt>
      <trkpt lat="47.29616" lon="-2.39782">
        <ele>4.7</ele>
        <time>2019-11-24T08:32:13.000Z</time>
      </trkpt>
      <trkpt lat="47.2961" lon="-2.39792">
        <ele>5</ele>
        <time>2019-11-24T08:32:15.000Z</time>
      </trkpt>
      <trkpt lat="47.29605" lon="-2.39802">
        <ele>5.6</ele>
        <time>2019-11-24T08:32:17.000Z</time>
      </trkpt>
      <trkpt lat="47.29606" lon="-2.3982">
        <ele>5.9</ele>
        <time>2019-11-24T08:32:20.000Z</time>
      </trkpt>
      <trkpt lat="47.29614" lon="-2.39842">
        <ele>6.1</ele>
        <time>2019-11-24T08:32:24.000Z</time>
      </trkpt>
      <trkpt lat="47.29611" lon="-2.39858">
        <ele>6</ele>
        <time>2019-11-24T08:32:27.000Z</time>
      </trkpt>
      <trkpt lat="47.29609" lon="-2.39863">
        <ele>6.1</ele>
        <time>2019-11-24T08:32:28.000Z</time>
      </trkpt>
      <trkpt lat="47.29606" lon="-2.39871">
        <ele>6.2</ele>
        <time>2019-11-24T08:32:29.000Z</time>
      </trkpt>
      <trkpt lat="47.29607" lon="-2.39885">
        <ele>6.2</ele>
        <time>2019-11-24T08:32:31.000Z</time>
      </trkpt>
      <trkpt lat="47.29615" lon="-2.39902">
        <ele>6.7</ele>
        <time>2019-11-24T08:32:34.000Z</time>
      </trkpt>
      <trkpt lat="47.29627" lon="-2.39925">
        <ele>0.40000000596046</ele>
        <time>2019-11-24T08:32:38.000Z</time>
      </trkpt>
      <trkpt lat="47.29629" lon="-2.3993">
        <ele>0.80000001192093</ele>
        <time>2019-11-24T08:32:39.000Z</time>
      </trkpt>
      <trkpt lat="47.29632" lon="-2.39935">
        <ele>1.2000000476837</ele>
        <time>2019-11-24T08:32:40.000Z</time>
      </trkpt>
      <trkpt lat="47.29634" lon="-2.3994">
        <ele>1.6000000238419</ele>
        <time>2019-11-24T08:32:41.000Z</time>
      </trkpt>
      <trkpt lat="47.29636" lon="-2.39945">
        <ele>2</ele>
        <time>2019-11-24T08:32:42.000Z</time>
      </trkpt>
      <trkpt lat="47.29639" lon="-2.39954">
        <ele>2</ele>
        <time>2019-11-24T08:32:44.000Z</time>
      </trkpt>
      <trkpt lat="47.29648" lon="-2.39981">
        <ele>2</ele>
        <time>2019-11-24T08:32:50.000Z</time>
      </trkpt>
      <trkpt lat="47.29645" lon="-2.39987">
        <ele>2.4000000953674</ele>
        <time>2019-11-24T08:32:51.000Z</time>
      </trkpt>
      <trkpt lat="47.29641" lon="-2.39991">
        <ele>2.7999999523163</ele>
        <time>2019-11-24T08:32:52.000Z</time>
      </trkpt>
      <trkpt lat="47.29636" lon="-2.39995">
        <ele>3.5999999046326</ele>
        <time>2019-11-24T08:32:53.000Z</time>
      </trkpt>
      <trkpt lat="47.29632" lon="-2.39999">
        <ele>4</ele>
        <time>2019-11-24T08:32:54.000Z</time>
      </trkpt>
      <trkpt lat="47.29622" lon="-2.40007">
        <ele>4</ele>
        <time>2019-11-24T08:32:56.000Z</time>
      </trkpt>
      <trkpt lat="47.29617" lon="-2.40022">
        <ele>4</ele>
        <time>2019-11-24T08:32:58.000Z</time>
      </trkpt>
      <trkpt lat="47.29623" lon="-2.40043">
        <ele>4</ele>
        <time>2019-11-24T08:33:01.000Z</time>
      </trkpt>
      <trkpt lat="47.29625" lon="-2.40047">
        <ele>4</ele>
        <time>2019-11-24T08:33:02.000Z</time>
      </trkpt>
      <trkpt lat="47.29627" lon="-2.40051">
        <ele>4</ele>
        <time>2019-11-24T08:33:04.000Z</time>
      </trkpt>
      <trkpt lat="47.29631" lon="-2.40065">
        <ele>4</ele>
        <time>2019-11-24T08:33:09.000Z</time>
      </trkpt>
      <trkpt lat="47.29632" lon="-2.40067">
        <ele>4</ele>
        <time>2019-11-24T08:33:10.000Z</time>
      </trkpt>
      <trkpt lat="47.29635" lon="-2.40069">
        <ele>4</ele>
        <time>2019-11-24T08:33:12.000Z</time>
      </trkpt>
      <trkpt lat="47.29642" lon="-2.4007">
        <ele>4</ele>
        <time>2019-11-24T08:33:16.000Z</time>
      </trkpt>
      <trkpt lat="47.29643" lon="-2.40073">
        <ele>4</ele>
        <time>2019-11-24T08:33:17.000Z</time>
      </trkpt>
      <trkpt lat="47.29647" lon="-2.40095">
        <ele>4</ele>
        <time>2019-11-24T08:33:22.000Z</time>
      </trkpt>
      <trkpt lat="47.29654" lon="-2.40132">
        <ele>4</ele>
        <time>2019-11-24T08:33:30.000Z</time>
      </trkpt>
      <trkpt lat="47.29655" lon="-2.40135">
        <ele>4</ele>
        <time>2019-11-24T08:33:31.000Z</time>
      </trkpt>
      <trkpt lat="47.29661" lon="-2.40144">
        <ele>4.4000000953674</ele>
        <time>2019-11-24T08:33:34.000Z</time>
      </trkpt>
      <trkpt lat="47.29663" lon="-2.40147">
        <ele>4.8000001907349</ele>
        <time>2019-11-24T08:33:35.000Z</time>
      </trkpt>
      <trkpt lat="47.29664" lon="-2.40152">
        <ele>5.1999998092651</ele>
        <time>2019-11-24T08:33:36.000Z</time>
      </trkpt>
      <trkpt lat="47.29665" lon="-2.40157">
        <ele>5.5999999046326</ele>
        <time>2019-11-24T08:33:37.000Z</time>
      </trkpt>
      <trkpt lat="47.29665" lon="-2.40162">
        <ele>6</ele>
        <time>2019-11-24T08:33:38.000Z</time>
      </trkpt>
      <trkpt lat="47.29671" lon="-2.40202">
        <ele>6</ele>
        <time>2019-11-24T08:33:44.000Z</time>
      </trkpt>
      <trkpt lat="47.29676" lon="-2.40244">
        <ele>6.4000000953674</ele>
        <time>2019-11-24T08:33:50.000Z</time>
      </trkpt>
      <trkpt lat="47.29677" lon="-2.40251">
        <ele>6.8000001907349</ele>
        <time>2019-11-24T08:33:51.000Z</time>
      </trkpt>
      <trkpt lat="47.29677" lon="-2.40257">
        <ele>7.4000000953674</ele>
        <time>2019-11-24T08:33:52.000Z</time>
      </trkpt>
      <trkpt lat="47.29677" lon="-2.40263">
        <ele>7.8000001907349</ele>
        <time>2019-11-24T08:33:53.000Z</time>
      </trkpt>
      <trkpt lat="47.29677" lon="-2.40269">
        <ele>8.1999998092651</ele>
        <time>2019-11-24T08:33:54.000Z</time>
      </trkpt>
      <trkpt lat="47.29676" lon="-2.40283">
        <ele>8.1999998092651</ele>
        <time>2019-11-24T08:33:57.000Z</time>
      </trkpt>
      <trkpt lat="47.29672" lon="-2.40286">
        <ele>8.6000003814697</ele>
        <time>2019-11-24T08:33:58.000Z</time>
      </trkpt>
      <trkpt lat="47.29669" lon="-2.40289">
        <ele>9</ele>
        <time>2019-11-24T08:33:59.000Z</time>
      </trkpt>
      <trkpt lat="47.29666" lon="-2.40292">
        <ele>9.3999996185303</ele>
        <time>2019-11-24T08:34:00.000Z</time>
      </trkpt>
      <trkpt lat="47.29664" lon="-2.40295">
        <ele>9.8000001907349</ele>
        <time>2019-11-24T08:34:01.000Z</time>
      </trkpt>
      <trkpt lat="47.29663" lon="-2.403">
        <ele>10.199999809265</ele>
        <time>2019-11-24T08:34:02.000Z</time>
      </trkpt>
      <trkpt lat="47.29666" lon="-2.40311">
        <ele>10.199999809265</ele>
        <time>2019-11-24T08:34:04.000Z</time>
      </trkpt>
      <trkpt lat="47.29667" lon="-2.40316">
        <ele>10.199999809265</ele>
        <time>2019-11-24T08:34:05.000Z</time>
      </trkpt>
      <trkpt lat="47.29673" lon="-2.40332">
        <ele>10.199999809265</ele>
        <time>2019-11-24T08:34:08.000Z</time>
      </trkpt>
      <trkpt lat="47.29678" lon="-2.40344">
        <ele>10.199999809265</ele>
        <time>2019-11-24T08:34:10.000Z</time>
      </trkpt>
      <trkpt lat="47.2968" lon="-2.4035">
        <ele>10.199999809265</ele>
        <time>2019-11-24T08:34:11.000Z</time>
      </trkpt>
      <trkpt lat="47.29686" lon="-2.4037">
        <ele>10.199999809265</ele>
        <time>2019-11-24T08:34:14.000Z</time>
      </trkpt>
      <trkpt lat="47.29701" lon="-2.40385">
        <ele>10.199999809265</ele>
        <time>2019-11-24T08:34:18.000Z</time>
      </trkpt>
      <trkpt lat="47.29711" lon="-2.40393">
        <ele>10.199999809265</ele>
        <time>2019-11-24T08:34:22.000Z</time>
      </trkpt>
      <trkpt lat="47.29714" lon="-2.404">
        <ele>10.199999809265</ele>
        <time>2019-11-24T08:34:24.000Z</time>
      </trkpt>
      <trkpt lat="47.29716" lon="-2.40406">
        <ele>10.199999809265</ele>
        <time>2019-11-24T08:34:25.000Z</time>
      </trkpt>
      <trkpt lat="47.29719" lon="-2.40414">
        <ele>10.199999809265</ele>
        <time>2019-11-24T08:34:26.000Z</time>
      </trkpt>
      <trkpt lat="47.2973" lon="-2.4045">
        <ele>9.8000001907349</ele>
        <time>2019-11-24T08:34:30.000Z</time>
      </trkpt>
      <trkpt lat="47.29733" lon="-2.40458">
        <ele>9.3999996185303</ele>
        <time>2019-11-24T08:34:31.000Z</time>
      </trkpt>
      <trkpt lat="47.29735" lon="-2.40464">
        <ele>8.3999996185303</ele>
        <time>2019-11-24T08:34:32.000Z</time>
      </trkpt>
      <trkpt lat="47.29737" lon="-2.40468">
        <ele>8</ele>
        <time>2019-11-24T08:34:33.000Z</time>
      </trkpt>
      <trkpt lat="47.29738" lon="-2.40473">
        <ele>8</ele>
        <time>2019-11-24T08:34:35.000Z</time>
      </trkpt>
      <trkpt lat="47.2974" lon="-2.40479">
        <ele>8</ele>
        <time>2019-11-24T08:34:40.000Z</time>
      </trkpt>
      <trkpt lat="47.29738" lon="-2.40471">
        <ele>8</ele>
        <time>2019-11-24T08:34:44.000Z</time>
      </trkpt>
      <trkpt lat="47.29734" lon="-2.40465">
        <ele>8</ele>
        <time>2019-11-24T08:34:46.000Z</time>
      </trkpt>
      <trkpt lat="47.29727" lon="-2.40446">
        <ele>8</ele>
        <time>2019-11-24T08:34:50.000Z</time>
      </trkpt>
      <trkpt lat="47.29715" lon="-2.40413">
        <ele>8</ele>
        <time>2019-11-24T08:34:56.000Z</time>
      </trkpt>
      <trkpt lat="47.29714" lon="-2.40408">
        <ele>8</ele>
        <time>2019-11-24T08:34:57.000Z</time>
      </trkpt>
      <trkpt lat="47.29711" lon="-2.40389">
        <ele>8</ele>
        <time>2019-11-24T08:35:02.000Z</time>
      </trkpt>
      <trkpt lat="47.29712" lon="-2.40387">
        <ele>8.3999996185303</ele>
        <time>2019-11-24T08:35:03.000Z</time>
      </trkpt>
      <trkpt lat="47.29714" lon="-2.40385">
        <ele>8.8000001907349</ele>
        <time>2019-11-24T08:35:04.000Z</time>
      </trkpt>
      <trkpt lat="47.29715" lon="-2.40383">
        <ele>9.1999998092651</ele>
        <time>2019-11-24T08:35:05.000Z</time>
      </trkpt>
      <trkpt lat="47.29717" lon="-2.40381">
        <ele>9.6000003814697</ele>
        <time>2019-11-24T08:35:06.000Z</time>
      </trkpt>
      <trkpt lat="47.2972" lon="-2.40379">
        <ele>10</ele>
        <time>2019-11-24T08:35:07.000Z</time>
      </trkpt>
      <trkpt lat="47.29741" lon="-2.40365">
        <ele>10</ele>
        <time>2019-11-24T08:35:12.000Z</time>
      </trkpt>
      <trkpt lat="47.29765" lon="-2.40349">
        <ele>10</ele>
        <time>2019-11-24T08:35:18.000Z</time>
      </trkpt>
      <trkpt lat="47.29772" lon="-2.40349">
        <ele>10</ele>
        <time>2019-11-24T08:35:20.000Z</time>
      </trkpt>
      <trkpt lat="47.29775" lon="-2.4035">
        <ele>10</ele>
        <time>2019-11-24T08:35:21.000Z</time>
      </trkpt>
      <trkpt lat="47.29779" lon="-2.40365">
        <ele>10</ele>
        <time>2019-11-24T08:35:24.000Z</time>
      </trkpt>
      <trkpt lat="47.2978" lon="-2.40377">
        <ele>10</ele>
        <time>2019-11-24T08:35:26.000Z</time>
      </trkpt>
      <trkpt lat="47.2978" lon="-2.40401">
        <ele>10</ele>
        <time>2019-11-24T08:35:29.000Z</time>
      </trkpt>
      <trkpt lat="47.2978" lon="-2.40409">
        <ele>9.6000003814697</ele>
        <time>2019-11-24T08:35:30.000Z</time>
      </trkpt>
      <trkpt lat="47.2978" lon="-2.40419">
        <ele>9.1999998092651</ele>
        <time>2019-11-24T08:35:31.000Z</time>
      </trkpt>
      <trkpt lat="47.2978" lon="-2.40429">
        <ele>8.8000001907349</ele>
        <time>2019-11-24T08:35:32.000Z</time>
      </trkpt>
      <trkpt lat="47.2978" lon="-2.40438">
        <ele>8.3999996185303</ele>
        <time>2019-11-24T08:35:33.000Z</time>
      </trkpt>
      <trkpt lat="47.29781" lon="-2.40447">
        <ele>8</ele>
        <time>2019-11-24T08:35:34.000Z</time>
      </trkpt>
      <trkpt lat="47.29782" lon="-2.40458">
        <ele>8</ele>
        <time>2019-11-24T08:35:35.000Z</time>
      </trkpt>
      <trkpt lat="47.29787" lon="-2.40487">
        <ele>7.5999999046326</ele>
        <time>2019-11-24T08:35:38.000Z</time>
      </trkpt>
      <trkpt lat="47.29789" lon="-2.40496">
        <ele>7.1999998092651</ele>
        <time>2019-11-24T08:35:39.000Z</time>
      </trkpt>
      <trkpt lat="47.29791" lon="-2.40506">
        <ele>6.8000001907349</ele>
        <time>2019-11-24T08:35:40.000Z</time>
      </trkpt>
      <trkpt lat="47.29793" lon="-2.40515">
        <ele>6.4000000953674</ele>
        <time>2019-11-24T08:35:41.000Z</time>
      </trkpt>
      <trkpt lat="47.29796" lon="-2.40525">
        <ele>6</ele>
        <time>2019-11-24T08:35:42.000Z</time>
      </trkpt>
      <trkpt lat="47.29806" lon="-2.4058">
        <ele>5.5999999046326</ele>
        <time>2019-11-24T08:35:48.000Z</time>
      </trkpt>
      <trkpt lat="47.29809" lon="-2.40587">
        <ele>5.1999998092651</ele>
        <time>2019-11-24T08:35:49.000Z</time>
      </trkpt>
      <trkpt lat="47.29811" lon="-2.40594">
        <ele>4.8000001907349</ele>
        <time>2019-11-24T08:35:50.000Z</time>
      </trkpt>
      <trkpt lat="47.29815" lon="-2.40599">
        <ele>4.4000000953674</ele>
        <time>2019-11-24T08:35:51.000Z</time>
      </trkpt>
      <trkpt lat="47.2982" lon="-2.40603">
        <ele>4</ele>
        <time>2019-11-24T08:35:52.000Z</time>
      </trkpt>
      <trkpt lat="47.29834" lon="-2.40612">
        <ele>4</ele>
        <time>2019-11-24T08:35:55.000Z</time>
      </trkpt>
      <trkpt lat="47.29852" lon="-2.40631">
        <ele>4</ele>
        <time>2019-11-24T08:35:59.000Z</time>
      </trkpt>
      <trkpt lat="47.29899" lon="-2.40674">
        <ele>4</ele>
        <time>2019-11-24T08:36:08.000Z</time>
      </trkpt>
      <trkpt lat="47.29904" lon="-2.40679">
        <ele>4</ele>
        <time>2019-11-24T08:36:09.000Z</time>
      </trkpt>
      <trkpt lat="47.29909" lon="-2.40684">
        <ele>4.4000000953674</ele>
        <time>2019-11-24T08:36:10.000Z</time>
      </trkpt>
      <trkpt lat="47.29915" lon="-2.40689">
        <ele>5.1999998092651</ele>
        <time>2019-11-24T08:36:11.000Z</time>
      </trkpt>
      <trkpt lat="47.29921" lon="-2.40695">
        <ele>5.5999999046326</ele>
        <time>2019-11-24T08:36:12.000Z</time>
      </trkpt>
      <trkpt lat="47.29927" lon="-2.407">
        <ele>6</ele>
        <time>2019-11-24T08:36:13.000Z</time>
      </trkpt>
      <trkpt lat="47.29945" lon="-2.40716">
        <ele>6</ele>
        <time>2019-11-24T08:36:16.000Z</time>
      </trkpt>
      <trkpt lat="47.29993" lon="-2.40763">
        <ele>6</ele>
        <time>2019-11-24T08:36:24.000Z</time>
      </trkpt>
      <trkpt lat="47.29999" lon="-2.40768">
        <ele>6</ele>
        <time>2019-11-24T08:36:25.000Z</time>
      </trkpt>
      <trkpt lat="47.30049" lon="-2.40812">
        <ele>6</ele>
        <time>2019-11-24T08:36:33.000Z</time>
      </trkpt>
      <trkpt lat="47.30055" lon="-2.40818">
        <ele>6</ele>
        <time>2019-11-24T08:36:34.000Z</time>
      </trkpt>
      <trkpt lat="47.30086" lon="-2.40847">
        <ele>5.5999999046326</ele>
        <time>2019-11-24T08:36:39.000Z</time>
      </trkpt>
      <trkpt lat="47.30092" lon="-2.40852">
        <ele>5.1999998092651</ele>
        <time>2019-11-24T08:36:40.000Z</time>
      </trkpt>
      <trkpt lat="47.30099" lon="-2.40858">
        <ele>4.8000001907349</ele>
        <time>2019-11-24T08:36:41.000Z</time>
      </trkpt>
      <trkpt lat="47.30105" lon="-2.40863">
        <ele>4.4000000953674</ele>
        <time>2019-11-24T08:36:42.000Z</time>
      </trkpt>
      <trkpt lat="47.30111" lon="-2.40868">
        <ele>4</ele>
        <time>2019-11-24T08:36:43.000Z</time>
      </trkpt>
      <trkpt lat="47.30153" lon="-2.40899">
        <ele>4</ele>
        <time>2019-11-24T08:36:50.000Z</time>
      </trkpt>
      <trkpt lat="47.30197" lon="-2.40922">
        <ele>4</ele>
        <time>2019-11-24T08:36:57.000Z</time>
      </trkpt>
      <trkpt lat="47.30218" lon="-2.40932">
        <ele>4</ele>
        <time>2019-11-24T08:37:01.000Z</time>
      </trkpt>
      <trkpt lat="47.30221" lon="-2.40937">
        <ele>4</ele>
        <time>2019-11-24T08:37:02.000Z</time>
      </trkpt>
      <trkpt lat="47.30227" lon="-2.4096">
        <ele>4</ele>
        <time>2019-11-24T08:37:05.000Z</time>
      </trkpt>
      <trkpt lat="47.30239" lon="-2.40988">
        <ele>4</ele>
        <time>2019-11-24T08:37:09.000Z</time>
      </trkpt>
      <trkpt lat="47.30249" lon="-2.40999">
        <ele>4</ele>
        <time>2019-11-24T08:37:11.000Z</time>
      </trkpt>
      <trkpt lat="47.30263" lon="-2.41017">
        <ele>4</ele>
        <time>2019-11-24T08:37:14.000Z</time>
      </trkpt>
      <trkpt lat="47.30272" lon="-2.41041">
        <ele>4</ele>
        <time>2019-11-24T08:37:17.000Z</time>
      </trkpt>
      <trkpt lat="47.30273" lon="-2.41061">
        <ele>4</ele>
        <time>2019-11-24T08:37:19.000Z</time>
      </trkpt>
      <trkpt lat="47.30273" lon="-2.41071">
        <ele>3.4000000953674</ele>
        <time>2019-11-24T08:37:20.000Z</time>
      </trkpt>
      <trkpt lat="47.30274" lon="-2.41081">
        <ele>3</ele>
        <time>2019-11-24T08:37:21.000Z</time>
      </trkpt>
      <trkpt lat="47.30276" lon="-2.41091">
        <ele>2.5999999046326</ele>
        <time>2019-11-24T08:37:22.000Z</time>
      </trkpt>
      <trkpt lat="47.3028" lon="-2.411">
        <ele>2.2000000476837</ele>
        <time>2019-11-24T08:37:23.000Z</time>
      </trkpt>
      <trkpt lat="47.30284" lon="-2.41108">
        <ele>1.6000000238419</ele>
        <time>2019-11-24T08:37:24.000Z</time>
      </trkpt>
      <trkpt lat="47.30306" lon="-2.41131">
        <ele>1.6000000238419</ele>
        <time>2019-11-24T08:37:28.000Z</time>
      </trkpt>
      <trkpt lat="47.30326" lon="-2.41139">
        <ele>1.2000000476837</ele>
        <time>2019-11-24T08:37:31.000Z</time>
      </trkpt>
      <trkpt lat="47.30334" lon="-2.41142">
        <ele>0.80000001192093</ele>
        <time>2019-11-24T08:37:32.000Z</time>
      </trkpt>
      <trkpt lat="47.30341" lon="-2.41145">
        <ele>0.40000000596046</ele>
        <time>2019-11-24T08:37:33.000Z</time>
      </trkpt>
      <trkpt lat="47.30348" lon="-2.41147">
        <ele>3.5</ele>
        <time>2019-11-24T08:37:34.000Z</time>
      </trkpt>
      <trkpt lat="47.30355" lon="-2.4115">
        <ele>-0.40000000596046</ele>
        <time>2019-11-24T08:37:35.000Z</time>
      </trkpt>
      <trkpt lat="47.30376" lon="-2.41157">
        <ele>-0.40000000596046</ele>
        <time>2019-11-24T08:37:38.000Z</time>
      </trkpt>
      <trkpt lat="47.30383" lon="-2.41157">
        <ele>-0.40000000596046</ele>
        <time>2019-11-24T08:37:39.000Z</time>
      </trkpt>
      <trkpt lat="47.30411" lon="-2.41156">
        <ele>-0.40000000596046</ele>
        <time>2019-11-24T08:37:43.000Z</time>
      </trkpt>
      <trkpt lat="47.30432" lon="-2.41158">
        <ele>-0.40000000596046</ele>
        <time>2019-11-24T08:37:46.000Z</time>
      </trkpt>
      <trkpt lat="47.30443" lon="-2.41166">
        <ele>-0.40000000596046</ele>
        <time>2019-11-24T08:37:48.000Z</time>
      </trkpt>
      <trkpt lat="47.30454" lon="-2.41189">
        <ele>-0.40000000596046</ele>
        <time>2019-11-24T08:37:51.000Z</time>
      </trkpt>
      <trkpt lat="47.30456" lon="-2.41208">
        <ele>-0.40000000596046</ele>
        <time>2019-11-24T08:37:53.000Z</time>
      </trkpt>
      <trkpt lat="47.30461" lon="-2.41247">
        <ele>-0.40000000596046</ele>
        <time>2019-11-24T08:37:57.000Z</time>
      </trkpt>
      <trkpt lat="47.30475" lon="-2.41315">
        <ele>-0.40000000596046</ele>
        <time>2019-11-24T08:38:04.000Z</time>
      </trkpt>
      <trkpt lat="47.30478" lon="-2.41323">
        <ele>-0.40000000596046</ele>
        <time>2019-11-24T08:38:05.000Z</time>
      </trkpt>
      <trkpt lat="47.30486" lon="-2.4136">
        <ele>-0.40000000596046</ele>
        <time>2019-11-24T08:38:09.000Z</time>
      </trkpt>
      <trkpt lat="47.30502" lon="-2.41432">
        <ele>-0.40000000596046</ele>
        <time>2019-11-24T08:38:17.000Z</time>
      </trkpt>
      <trkpt lat="47.30505" lon="-2.4145">
        <ele>-0.40000000596046</ele>
        <time>2019-11-24T08:38:19.000Z</time>
      </trkpt>
      <trkpt lat="47.30502" lon="-2.41467">
        <ele>-0.40000000596046</ele>
        <time>2019-11-24T08:38:21.000Z</time>
      </trkpt>
      <trkpt lat="47.30493" lon="-2.4149">
        <ele>-0.40000000596046</ele>
        <time>2019-11-24T08:38:24.000Z</time>
      </trkpt>
      <trkpt lat="47.30489" lon="-2.41498">
        <ele>-0.40000000596046</ele>
        <time>2019-11-24T08:38:25.000Z</time>
      </trkpt>
      <trkpt lat="47.30487" lon="-2.41506">
        <ele>-0.40000000596046</ele>
        <time>2019-11-24T08:38:26.000Z</time>
      </trkpt>
      <trkpt lat="47.30486" lon="-2.41525">
        <ele>-0.40000000596046</ele>
        <time>2019-11-24T08:38:28.000Z</time>
      </trkpt>
      <trkpt lat="47.30494" lon="-2.41551">
        <ele>-0.40000000596046</ele>
        <time>2019-11-24T08:38:31.000Z</time>
      </trkpt>
      <trkpt lat="47.30497" lon="-2.4156">
        <ele>-0.40000000596046</ele>
        <time>2019-11-24T08:38:32.000Z</time>
      </trkpt>
      <trkpt lat="47.30501" lon="-2.41577">
        <ele>-0.40000000596046</ele>
        <time>2019-11-24T08:38:34.000Z</time>
      </trkpt>
      <trkpt lat="47.30502" lon="-2.41586">
        <ele>-0.40000000596046</ele>
        <time>2019-11-24T08:38:35.000Z</time>
      </trkpt>
      <trkpt lat="47.3051" lon="-2.41642">
        <ele>-0.40000000596046</ele>
        <time>2019-11-24T08:38:41.000Z</time>
      </trkpt>
      <trkpt lat="47.30515" lon="-2.41659">
        <ele>-0.40000000596046</ele>
        <time>2019-11-24T08:38:43.000Z</time>
      </trkpt>
      <trkpt lat="47.30526" lon="-2.41681">
        <ele>-0.40000000596046</ele>
        <time>2019-11-24T08:38:46.000Z</time>
      </trkpt>
      <trkpt lat="47.30554" lon="-2.41719">
        <ele>-0.40000000596046</ele>
        <time>2019-11-24T08:38:52.000Z</time>
      </trkpt>
      <trkpt lat="47.30578" lon="-2.41761">
        <ele>-0.40000000596046</ele>
        <time>2019-11-24T08:38:58.000Z</time>
      </trkpt>
      <trkpt lat="47.3058" lon="-2.41769">
        <ele>-0.40000000596046</ele>
        <time>2019-11-24T08:38:59.000Z</time>
      </trkpt>
      <trkpt lat="47.30601" lon="-2.41825">
        <ele>-0.40000000596046</ele>
        <time>2019-11-24T08:39:06.000Z</time>
      </trkpt>
      <trkpt lat="47.30625" lon="-2.41878">
        <ele>-0.40000000596046</ele>
        <time>2019-11-24T08:39:13.000Z</time>
      </trkpt>
      <trkpt lat="47.30645" lon="-2.41944">
        <ele>-0.40000000596046</ele>
        <time>2019-11-24T08:39:21.000Z</time>
      </trkpt>
      <trkpt lat="47.30649" lon="-2.41952">
        <ele>-0.40000000596046</ele>
        <time>2019-11-24T08:39:22.000Z</time>
      </trkpt>
      <trkpt lat="47.30663" lon="-2.41983">
        <ele>-0.40000000596046</ele>
        <time>2019-11-24T08:39:26.000Z</time>
      </trkpt>
      <trkpt lat="47.3069" lon="-2.42021">
        <ele>-0.40000000596046</ele>
        <time>2019-11-24T08:39:32.000Z</time>
      </trkpt>
      <trkpt lat="47.30716" lon="-2.42046">
        <ele>-0.40000000596046</ele>
        <time>2019-11-24T08:39:37.000Z</time>
      </trkpt>
      <trkpt lat="47.30722" lon="-2.42049">
        <ele>-0.40000000596046</ele>
        <time>2019-11-24T08:39:38.000Z</time>
      </trkpt>
      <trkpt lat="47.30727" lon="-2.42054">
        <ele>-0.40000000596046</ele>
        <time>2019-11-24T08:39:39.000Z</time>
      </trkpt>
      <trkpt lat="47.3074" lon="-2.42071">
        <ele>-0.40000000596046</ele>
        <time>2019-11-24T08:39:42.000Z</time>
      </trkpt>
      <trkpt lat="47.30759" lon="-2.42105">
        <ele>-0.40000000596046</ele>
        <time>2019-11-24T08:39:47.000Z</time>
      </trkpt>
      <trkpt lat="47.30781" lon="-2.42147">
        <ele>-0.40000000596046</ele>
        <time>2019-11-24T08:39:53.000Z</time>
      </trkpt>
      <trkpt lat="47.30807" lon="-2.42192">
        <ele>-0.40000000596046</ele>
        <time>2019-11-24T08:40:00.000Z</time>
      </trkpt>
      <trkpt lat="47.30833" lon="-2.42208">
        <ele>-0.40000000596046</ele>
        <time>2019-11-24T08:40:05.000Z</time>
      </trkpt>
      <trkpt lat="47.30844" lon="-2.42209">
        <ele>-0.40000000596046</ele>
        <time>2019-11-24T08:40:07.000Z</time>
      </trkpt>
      <trkpt lat="47.30859" lon="-2.42209">
        <ele>-0.40000000596046</ele>
        <time>2019-11-24T08:40:10.000Z</time>
      </trkpt>
      <trkpt lat="47.30863" lon="-2.42205">
        <ele>-0.40000000596046</ele>
        <time>2019-11-24T08:40:11.000Z</time>
      </trkpt>
      <trkpt lat="47.30876" lon="-2.42208">
        <ele>-0.40000000596046</ele>
        <time>2019-11-24T08:40:14.000Z</time>
      </trkpt>
      <trkpt lat="47.30883" lon="-2.42218">
        <ele>-0.40000000596046</ele>
        <time>2019-11-24T08:40:16.000Z</time>
      </trkpt>
      <trkpt lat="47.3089" lon="-2.42228">
        <ele>-0.40000000596046</ele>
        <time>2019-11-24T08:40:18.000Z</time>
      </trkpt>
      <trkpt lat="47.30898" lon="-2.42239">
        <ele>-0.40000000596046</ele>
        <time>2019-11-24T08:40:20.000Z</time>
      </trkpt>
      <trkpt lat="47.30907" lon="-2.42248">
        <ele>-0.40000000596046</ele>
        <time>2019-11-24T08:40:22.000Z</time>
      </trkpt>
      <trkpt lat="47.30911" lon="-2.42251">
        <ele>-0.40000000596046</ele>
        <time>2019-11-24T08:40:23.000Z</time>
      </trkpt>
      <trkpt lat="47.30939" lon="-2.42272">
        <ele>-0.40000000596046</ele>
        <time>2019-11-24T08:40:29.000Z</time>
      </trkpt>
      <trkpt lat="47.30949" lon="-2.42302">
        <ele>-0.40000000596046</ele>
        <time>2019-11-24T08:40:33.000Z</time>
      </trkpt>
      <trkpt lat="47.30951" lon="-2.4231">
        <ele>-0.40000000596046</ele>
        <time>2019-11-24T08:40:34.000Z</time>
      </trkpt>
      <trkpt lat="47.30962" lon="-2.42367">
        <ele>-0.40000000596046</ele>
        <time>2019-11-24T08:40:41.000Z</time>
      </trkpt>
      <trkpt lat="47.30976" lon="-2.42425">
        <ele>-0.40000000596046</ele>
        <time>2019-11-24T08:40:48.000Z</time>
      </trkpt>
      <trkpt lat="47.30992" lon="-2.42491">
        <ele>-0.40000000596046</ele>
        <time>2019-11-24T08:40:56.000Z</time>
      </trkpt>
      <trkpt lat="47.31011" lon="-2.42565">
        <ele>-0.40000000596046</ele>
        <time>2019-11-24T08:41:05.000Z</time>
      </trkpt>
      <trkpt lat="47.31027" lon="-2.42634">
        <ele>-0.40000000596046</ele>
        <time>2019-11-24T08:41:13.000Z</time>
      </trkpt>
      <trkpt lat="47.31044" lon="-2.42696">
        <ele>-0.40000000596046</ele>
        <time>2019-11-24T08:41:21.000Z</time>
      </trkpt>
      <trkpt lat="47.31048" lon="-2.42709">
        <ele>-0.40000000596046</ele>
        <time>2019-11-24T08:41:23.000Z</time>
      </trkpt>
      <trkpt lat="47.31049" lon="-2.42724">
        <ele>-0.40000000596046</ele>
        <time>2019-11-24T08:41:26.000Z</time>
      </trkpt>
      <trkpt lat="47.31043" lon="-2.42742">
        <ele>-0.40000000596046</ele>
        <time>2019-11-24T08:41:30.000Z</time>
      </trkpt>
      <trkpt lat="47.31039" lon="-2.42746">
        <ele>-0.40000000596046</ele>
        <time>2019-11-24T08:41:31.000Z</time>
      </trkpt>
      <trkpt lat="47.31029" lon="-2.42751">
        <ele>-0.40000000596046</ele>
        <time>2019-11-24T08:41:33.000Z</time>
      </trkpt>
      <trkpt lat="47.31018" lon="-2.42755">
        <ele>-0.40000000596046</ele>
        <time>2019-11-24T08:41:35.000Z</time>
      </trkpt>
      <trkpt lat="47.31" lon="-2.42757">
        <ele>-0.40000000596046</ele>
        <time>2019-11-24T08:41:38.000Z</time>
      </trkpt>
      <trkpt lat="47.30956" lon="-2.42763">
        <ele>-0.40000000596046</ele>
        <time>2019-11-24T08:41:45.000Z</time>
      </trkpt>
      <trkpt lat="47.30911" lon="-2.4277">
        <ele>-0.40000000596046</ele>
        <time>2019-11-24T08:41:52.000Z</time>
      </trkpt>
      <trkpt lat="47.30905" lon="-2.42771">
        <ele>-0.40000000596046</ele>
        <time>2019-11-24T08:41:53.000Z</time>
      </trkpt>
      <trkpt lat="47.30899" lon="-2.42771">
        <ele>-0.40000000596046</ele>
        <time>2019-11-24T08:41:54.000Z</time>
      </trkpt>
      <trkpt lat="47.30874" lon="-2.42774">
        <ele>-0.40000000596046</ele>
        <time>2019-11-24T08:41:58.000Z</time>
      </trkpt>
      <trkpt lat="47.30829" lon="-2.4278">
        <ele>-0.40000000596046</ele>
        <time>2019-11-24T08:42:05.000Z</time>
      </trkpt>
      <trkpt lat="47.30823" lon="-2.4278">
        <ele>-0.40000000596046</ele>
        <time>2019-11-24T08:42:06.000Z</time>
      </trkpt>
      <trkpt lat="47.30774" lon="-2.42786">
        <ele>-0.40000000596046</ele>
        <time>2019-11-24T08:42:14.000Z</time>
      </trkpt>
      <trkpt lat="47.30737" lon="-2.42795">
        <ele>-0.40000000596046</ele>
        <time>2019-11-24T08:42:20.000Z</time>
      </trkpt>
      <trkpt lat="47.30724" lon="-2.42803">
        <ele>-0.40000000596046</ele>
        <time>2019-11-24T08:42:22.000Z</time>
      </trkpt>
      <trkpt lat="47.30707" lon="-2.42817">
        <ele>-0.40000000596046</ele>
        <time>2019-11-24T08:42:25.000Z</time>
      </trkpt>
      <trkpt lat="47.30702" lon="-2.42822">
        <ele>-0.40000000596046</ele>
        <time>2019-11-24T08:42:26.000Z</time>
      </trkpt>
      <trkpt lat="47.30685" lon="-2.42837">
        <ele>-0.40000000596046</ele>
        <time>2019-11-24T08:42:29.000Z</time>
      </trkpt>
      <trkpt lat="47.30678" lon="-2.42843">
        <ele>-0.40000000596046</ele>
        <time>2019-11-24T08:42:30.000Z</time>
      </trkpt>
      <trkpt lat="47.30631" lon="-2.42881">
        <ele>-0.40000000596046</ele>
        <time>2019-11-24T08:42:38.000Z</time>
      </trkpt>
      <trkpt lat="47.30586" lon="-2.42918">
        <ele>-0.40000000596046</ele>
        <time>2019-11-24T08:42:46.000Z</time>
      </trkpt>
      <trkpt lat="47.30547" lon="-2.4295">
        <ele>-0.40000000596046</ele>
        <time>2019-11-24T08:42:53.000Z</time>
      </trkpt>
      <trkpt lat="47.30515" lon="-2.42978">
        <ele>-0.40000000596046</ele>
        <time>2019-11-24T08:42:59.000Z</time>
      </trkpt>
      <trkpt lat="47.30498" lon="-2.42992">
        <ele>-0.40000000596046</ele>
        <time>2019-11-24T08:43:02.000Z</time>
      </trkpt>
      <trkpt lat="47.30482" lon="-2.43007">
        <ele>-0.40000000596046</ele>
        <time>2019-11-24T08:43:05.000Z</time>
      </trkpt>
      <trkpt lat="47.30451" lon="-2.43033">
        <ele>-0.40000000596046</ele>
        <time>2019-11-24T08:43:11.000Z</time>
      </trkpt>
      <trkpt lat="47.3041" lon="-2.43057">
        <ele>-0.40000000596046</ele>
        <time>2019-11-24T08:43:18.000Z</time>
      </trkpt>
      <trkpt lat="47.30367" lon="-2.43064">
        <ele>-0.40000000596046</ele>
        <time>2019-11-24T08:43:25.000Z</time>
      </trkpt>
      <trkpt lat="47.30343" lon="-2.4307">
        <ele>-0.40000000596046</ele>
        <time>2019-11-24T08:43:29.000Z</time>
      </trkpt>
      <trkpt lat="47.30336" lon="-2.43072">
        <ele>-0.40000000596046</ele>
        <time>2019-11-24T08:43:30.000Z</time>
      </trkpt>
      <trkpt lat="47.30318" lon="-2.43074">
        <ele>-0.40000000596046</ele>
        <time>2019-11-24T08:43:33.000Z</time>
      </trkpt>
      <trkpt lat="47.30306" lon="-2.43076">
        <ele>-0.40000000596046</ele>
        <time>2019-11-24T08:43:35.000Z</time>
      </trkpt>
      <trkpt lat="47.30283" lon="-2.43075">
        <ele>-0.40000000596046</ele>
        <time>2019-11-24T08:43:39.000Z</time>
      </trkpt>
      <trkpt lat="47.30278" lon="-2.43074">
        <ele>-0.40000000596046</ele>
        <time>2019-11-24T08:43:40.000Z</time>
      </trkpt>
      <trkpt lat="47.30269" lon="-2.43081">
        <ele>-0.80000001192093</ele>
        <time>2019-11-24T08:43:43.000Z</time>
      </trkpt>
      <trkpt lat="47.30269" lon="-2.43083">
        <ele>-1.2000000476837</ele>
        <time>2019-11-24T08:43:44.000Z</time>
      </trkpt>
      <trkpt lat="47.30269" lon="-2.43085">
        <ele>-1.6000000238419</ele>
        <time>2019-11-24T08:43:45.000Z</time>
      </trkpt>
      <trkpt lat="47.30269" lon="-2.43087">
        <ele>-2</ele>
        <time>2019-11-24T08:43:46.000Z</time>
      </trkpt>
      <trkpt lat="47.3027" lon="-2.43088">
        <ele>-2.5999999046326</ele>
        <time>2019-11-24T08:43:47.000Z</time>
      </trkpt>
      <trkpt lat="47.30275" lon="-2.43101">
        <ele>-2.5999999046326</ele>
        <time>2019-11-24T08:43:53.000Z</time>
      </trkpt>
      <trkpt lat="47.30276" lon="-2.43113">
        <ele>-2.5999999046326</ele>
        <time>2019-11-24T08:43:55.000Z</time>
      </trkpt>
      <trkpt lat="47.30277" lon="-2.43125">
        <ele>-2.5999999046326</ele>
        <time>2019-11-24T08:43:57.000Z</time>
      </trkpt>
      <trkpt lat="47.30287" lon="-2.43148">
        <ele>-2.5999999046326</ele>
        <time>2019-11-24T08:44:01.000Z</time>
      </trkpt>
      <trkpt lat="47.30297" lon="-2.43153">
        <ele>-2.5999999046326</ele>
        <time>2019-11-24T08:44:03.000Z</time>
      </trkpt>
      <trkpt lat="47.30307" lon="-2.43159">
        <ele>-2.5999999046326</ele>
        <time>2019-11-24T08:44:05.000Z</time>
      </trkpt>
      <trkpt lat="47.30312" lon="-2.43163">
        <ele>-2.5999999046326</ele>
        <time>2019-11-24T08:44:06.000Z</time>
      </trkpt>
      <trkpt lat="47.30337" lon="-2.43195">
        <ele>-2.5999999046326</ele>
        <time>2019-11-24T08:44:12.000Z</time>
      </trkpt>
      <trkpt lat="47.30357" lon="-2.43225">
        <ele>-2.5999999046326</ele>
        <time>2019-11-24T08:44:17.000Z</time>
      </trkpt>
      <trkpt lat="47.30361" lon="-2.43229">
        <ele>-2.5999999046326</ele>
        <time>2019-11-24T08:44:18.000Z</time>
      </trkpt>
      <trkpt lat="47.30377" lon="-2.43238">
        <ele>-2.5999999046326</ele>
        <time>2019-11-24T08:44:21.000Z</time>
      </trkpt>
      <trkpt lat="47.30383" lon="-2.4324">
        <ele>-2.5999999046326</ele>
        <time>2019-11-24T08:44:22.000Z</time>
      </trkpt>
      <trkpt lat="47.30388" lon="-2.43243">
        <ele>-2.5999999046326</ele>
        <time>2019-11-24T08:44:23.000Z</time>
      </trkpt>
      <trkpt lat="47.30395" lon="-2.43255">
        <ele>-2.5999999046326</ele>
        <time>2019-11-24T08:44:25.000Z</time>
      </trkpt>
      <trkpt lat="47.30403" lon="-2.43279">
        <ele>-2.5999999046326</ele>
        <time>2019-11-24T08:44:28.000Z</time>
      </trkpt>
      <trkpt lat="47.30407" lon="-2.43295">
        <ele>-2.5999999046326</ele>
        <time>2019-11-24T08:44:30.000Z</time>
      </trkpt>
      <trkpt lat="47.30421" lon="-2.4336">
        <ele>-2.5999999046326</ele>
        <time>2019-11-24T08:44:38.000Z</time>
      </trkpt>
      <trkpt lat="47.30429" lon="-2.43407">
        <ele>-2.5999999046326</ele>
        <time>2019-11-24T08:44:44.000Z</time>
      </trkpt>
      <trkpt lat="47.30432" lon="-2.43414">
        <ele>-2.5999999046326</ele>
        <time>2019-11-24T08:44:45.000Z</time>
      </trkpt>
      <trkpt lat="47.30447" lon="-2.4342">
        <ele>-2.5999999046326</ele>
        <time>2019-11-24T08:44:48.000Z</time>
      </trkpt>
      <trkpt lat="47.30457" lon="-2.43418">
        <ele>-2.5999999046326</ele>
        <time>2019-11-24T08:44:50.000Z</time>
      </trkpt>
      <trkpt lat="47.30474" lon="-2.43413">
        <ele>-2.5999999046326</ele>
        <time>2019-11-24T08:44:53.000Z</time>
      </trkpt>
      <trkpt lat="47.30504" lon="-2.43414">
        <ele>-2.5999999046326</ele>
        <time>2019-11-24T08:44:58.000Z</time>
      </trkpt>
      <trkpt lat="47.30546" lon="-2.43421">
        <ele>-2.5999999046326</ele>
        <time>2019-11-24T08:45:05.000Z</time>
      </trkpt>
      <trkpt lat="47.30564" lon="-2.43423">
        <ele>-2.5999999046326</ele>
        <time>2019-11-24T08:45:08.000Z</time>
      </trkpt>
      <trkpt lat="47.30582" lon="-2.4342">
        <ele>-2.5999999046326</ele>
        <time>2019-11-24T08:45:11.000Z</time>
      </trkpt>
      <trkpt lat="47.30629" lon="-2.43408">
        <ele>-2.5999999046326</ele>
        <time>2019-11-24T08:45:19.000Z</time>
      </trkpt>
      <trkpt lat="47.30677" lon="-2.43398">
        <ele>-2.5999999046326</ele>
        <time>2019-11-24T08:45:27.000Z</time>
      </trkpt>
      <trkpt lat="47.30688" lon="-2.43396">
        <ele>-2.5999999046326</ele>
        <time>2019-11-24T08:45:29.000Z</time>
      </trkpt>
      <trkpt lat="47.30705" lon="-2.43393">
        <ele>-2.5999999046326</ele>
        <time>2019-11-24T08:45:32.000Z</time>
      </trkpt>
      <trkpt lat="47.30749" lon="-2.43392">
        <ele>-2.5999999046326</ele>
        <time>2019-11-24T08:45:39.000Z</time>
      </trkpt>
      <trkpt lat="47.3078" lon="-2.43392">
        <ele>-2.5999999046326</ele>
        <time>2019-11-24T08:45:44.000Z</time>
      </trkpt>
      <trkpt lat="47.30804" lon="-2.43392">
        <ele>-2.5999999046326</ele>
        <time>2019-11-24T08:45:48.000Z</time>
      </trkpt>
      <trkpt lat="47.30816" lon="-2.43389">
        <ele>-2.5999999046326</ele>
        <time>2019-11-24T08:45:50.000Z</time>
      </trkpt>
      <trkpt lat="47.30851" lon="-2.43375">
        <ele>-2.5999999046326</ele>
        <time>2019-11-24T08:45:56.000Z</time>
      </trkpt>
      <trkpt lat="47.30885" lon="-2.43358">
        <ele>-2.5999999046326</ele>
        <time>2019-11-24T08:46:02.000Z</time>
      </trkpt>
      <trkpt lat="47.30935" lon="-2.43336">
        <ele>-2.5999999046326</ele>
        <time>2019-11-24T08:46:11.000Z</time>
      </trkpt>
      <trkpt lat="47.30979" lon="-2.43318">
        <ele>-2.5999999046326</ele>
        <time>2019-11-24T08:46:19.000Z</time>
      </trkpt>
      <trkpt lat="47.31" lon="-2.43306">
        <ele>-2.5999999046326</ele>
        <time>2019-11-24T08:46:23.000Z</time>
      </trkpt>
      <trkpt lat="47.3101" lon="-2.43297">
        <ele>-2.5999999046326</ele>
        <time>2019-11-24T08:46:25.000Z</time>
      </trkpt>
      <trkpt lat="47.31039" lon="-2.43258">
        <ele>-2.5999999046326</ele>
        <time>2019-11-24T08:46:32.000Z</time>
      </trkpt>
      <trkpt lat="47.31043" lon="-2.43253">
        <ele>-2.5999999046326</ele>
        <time>2019-11-24T08:46:33.000Z</time>
      </trkpt>
      <trkpt lat="47.31051" lon="-2.43242">
        <ele>-2.2000000476837</ele>
        <time>2019-11-24T08:46:35.000Z</time>
      </trkpt>
      <trkpt lat="47.31055" lon="-2.43237">
        <ele>-1.6000000238419</ele>
        <time>2019-11-24T08:46:36.000Z</time>
      </trkpt>
      <trkpt lat="47.31059" lon="-2.43232">
        <ele>-1.2000000476837</ele>
        <time>2019-11-24T08:46:37.000Z</time>
      </trkpt>
      <trkpt lat="47.31063" lon="-2.43228">
        <ele>-0.80000001192093</ele>
        <time>2019-11-24T08:46:38.000Z</time>
      </trkpt>
      <trkpt lat="47.31068" lon="-2.43223">
        <ele>-0.40000000596046</ele>
        <time>2019-11-24T08:46:39.000Z</time>
      </trkpt>
      <trkpt lat="47.31073" lon="-2.4322">
        <ele>-0.40000000596046</ele>
        <time>2019-11-24T08:46:40.000Z</time>
      </trkpt>
      <trkpt lat="47.31082" lon="-2.43212">
        <ele>-0.40000000596046</ele>
        <time>2019-11-24T08:46:42.000Z</time>
      </trkpt>
      <trkpt lat="47.31091" lon="-2.43204">
        <ele>-0.40000000596046</ele>
        <time>2019-11-24T08:46:44.000Z</time>
      </trkpt>
      <trkpt lat="47.31102" lon="-2.43193">
        <ele>-0.40000000596046</ele>
        <time>2019-11-24T08:46:47.000Z</time>
      </trkpt>
      <trkpt lat="47.3111" lon="-2.43191">
        <ele>-0.40000000596046</ele>
        <time>2019-11-24T08:46:49.000Z</time>
      </trkpt>
      <trkpt lat="47.31122" lon="-2.432">
        <ele>-0.40000000596046</ele>
        <time>2019-11-24T08:46:52.000Z</time>
      </trkpt>
      <trkpt lat="47.31134" lon="-2.43217">
        <ele>-0.40000000596046</ele>
        <time>2019-11-24T08:46:55.000Z</time>
      </trkpt>
      <trkpt lat="47.31142" lon="-2.4323">
        <ele>-0.40000000596046</ele>
        <time>2019-11-24T08:46:57.000Z</time>
      </trkpt>
      <trkpt lat="47.31178" lon="-2.43289">
        <ele>-0.40000000596046</ele>
        <time>2019-11-24T08:47:06.000Z</time>
      </trkpt>
      <trkpt lat="47.31195" lon="-2.43333">
        <ele>-0.40000000596046</ele>
        <time>2019-11-24T08:47:12.000Z</time>
      </trkpt>
      <trkpt lat="47.31198" lon="-2.43349">
        <ele>-0.40000000596046</ele>
        <time>2019-11-24T08:47:14.000Z</time>
      </trkpt>
      <trkpt lat="47.31205" lon="-2.4336">
        <ele>-0.40000000596046</ele>
        <time>2019-11-24T08:47:16.000Z</time>
      </trkpt>
      <trkpt lat="47.31221" lon="-2.4336">
        <ele>-0.40000000596046</ele>
        <time>2019-11-24T08:47:19.000Z</time>
      </trkpt>
      <trkpt lat="47.31226" lon="-2.43358">
        <ele>-0.40000000596046</ele>
        <time>2019-11-24T08:47:20.000Z</time>
      </trkpt>
      <trkpt lat="47.31253" lon="-2.43344">
        <ele>-0.40000000596046</ele>
        <time>2019-11-24T08:47:25.000Z</time>
      </trkpt>
      <trkpt lat="47.31264" lon="-2.43339">
        <ele>-0.40000000596046</ele>
        <time>2019-11-24T08:47:27.000Z</time>
      </trkpt>
      <trkpt lat="47.31306" lon="-2.43323">
        <ele>-0.40000000596046</ele>
        <time>2019-11-24T08:47:35.000Z</time>
      </trkpt>
      <trkpt lat="47.31356" lon="-2.4331">
        <ele>-0.40000000596046</ele>
        <time>2019-11-24T08:47:44.000Z</time>
      </trkpt>
      <trkpt lat="47.31366" lon="-2.43307">
        <ele>7</ele>
        <time>2019-11-24T08:47:46.000Z</time>
      </trkpt>
      <trkpt lat="47.31372" lon="-2.43306">
        <ele>0.40000000596046</ele>
        <time>2019-11-24T08:47:47.000Z</time>
      </trkpt>
      <trkpt lat="47.31377" lon="-2.43304">
        <ele>0.80000001192093</ele>
        <time>2019-11-24T08:47:48.000Z</time>
      </trkpt>
      <trkpt lat="47.31382" lon="-2.43302">
        <ele>1.2000000476837</ele>
        <time>2019-11-24T08:47:49.000Z</time>
      </trkpt>
      <trkpt lat="47.31388" lon="-2.43301">
        <ele>1.6000000238419</ele>
        <time>2019-11-24T08:47:50.000Z</time>
      </trkpt>
      <trkpt lat="47.31404" lon="-2.43297">
        <ele>1.6000000238419</ele>
        <time>2019-11-24T08:47:53.000Z</time>
      </trkpt>
      <trkpt lat="47.31446" lon="-2.43286">
        <ele>1.6000000238419</ele>
        <time>2019-11-24T08:48:01.000Z</time>
      </trkpt>
      <trkpt lat="47.31489" lon="-2.43276">
        <ele>1.6000000238419</ele>
        <time>2019-11-24T08:48:09.000Z</time>
      </trkpt>
      <trkpt lat="47.31526" lon="-2.43267">
        <ele>1.6000000238419</ele>
        <time>2019-11-24T08:48:16.000Z</time>
      </trkpt>
      <trkpt lat="47.31531" lon="-2.43265">
        <ele>2</ele>
        <time>2019-11-24T08:48:17.000Z</time>
      </trkpt>
      <trkpt lat="47.31537" lon="-2.43264">
        <ele>2.4000000953674</ele>
        <time>2019-11-24T08:48:18.000Z</time>
      </trkpt>
      <trkpt lat="47.31542" lon="-2.43262">
        <ele>2.7999999523163</ele>
        <time>2019-11-24T08:48:19.000Z</time>
      </trkpt>
      <trkpt lat="47.31548" lon="-2.43261">
        <ele>3.4000000953674</ele>
        <time>2019-11-24T08:48:20.000Z</time>
      </trkpt>
      <trkpt lat="47.31553" lon="-2.43259">
        <ele>3.7999999523163</ele>
        <time>2019-11-24T08:48:21.000Z</time>
      </trkpt>
      <trkpt lat="47.31559" lon="-2.43257">
        <ele>3.7999999523163</ele>
        <time>2019-11-24T08:48:22.000Z</time>
      </trkpt>
      <trkpt lat="47.31569" lon="-2.43252">
        <ele>3.7999999523163</ele>
        <time>2019-11-24T08:48:24.000Z</time>
      </trkpt>
      <trkpt lat="47.31612" lon="-2.43234">
        <ele>3.7999999523163</ele>
        <time>2019-11-24T08:48:32.000Z</time>
      </trkpt>
      <trkpt lat="47.31643" lon="-2.43215">
        <ele>3.7999999523163</ele>
        <time>2019-11-24T08:48:38.000Z</time>
      </trkpt>
      <trkpt lat="47.31651" lon="-2.43206">
        <ele>4.1999998092651</ele>
        <time>2019-11-24T08:48:40.000Z</time>
      </trkpt>
      <trkpt lat="47.31655" lon="-2.43201">
        <ele>4.5999999046326</ele>
        <time>2019-11-24T08:48:41.000Z</time>
      </trkpt>
      <trkpt lat="47.31659" lon="-2.43196">
        <ele>5</ele>
        <time>2019-11-24T08:48:42.000Z</time>
      </trkpt>
      <trkpt lat="47.31663" lon="-2.43191">
        <ele>5.4000000953674</ele>
        <time>2019-11-24T08:48:43.000Z</time>
      </trkpt>
      <trkpt lat="47.31667" lon="-2.43187">
        <ele>5.8000001907349</ele>
        <time>2019-11-24T08:48:44.000Z</time>
      </trkpt>
      <trkpt lat="47.31698" lon="-2.4315">
        <ele>6.1999998092651</ele>
        <time>2019-11-24T08:48:52.000Z</time>
      </trkpt>
      <trkpt lat="47.31702" lon="-2.43146">
        <ele>6.5999999046326</ele>
        <time>2019-11-24T08:48:53.000Z</time>
      </trkpt>
      <trkpt lat="47.31705" lon="-2.43142">
        <ele>7</ele>
        <time>2019-11-24T08:48:54.000Z</time>
      </trkpt>
      <trkpt lat="47.31709" lon="-2.43139">
        <ele>7.4000000953674</ele>
        <time>2019-11-24T08:48:55.000Z</time>
      </trkpt>
      <trkpt lat="47.31712" lon="-2.43135">
        <ele>7.8000001907349</ele>
        <time>2019-11-24T08:48:56.000Z</time>
      </trkpt>
      <trkpt lat="47.31726" lon="-2.43119">
        <ele>8.3999996185303</ele>
        <time>2019-11-24T08:49:00.000Z</time>
      </trkpt>
      <trkpt lat="47.3173" lon="-2.43115">
        <ele>8.8000001907349</ele>
        <time>2019-11-24T08:49:01.000Z</time>
      </trkpt>
      <trkpt lat="47.31733" lon="-2.43111">
        <ele>9.1999998092651</ele>
        <time>2019-11-24T08:49:02.000Z</time>
      </trkpt>
      <trkpt lat="47.31736" lon="-2.43107">
        <ele>9.6000003814697</ele>
        <time>2019-11-24T08:49:03.000Z</time>
      </trkpt>
      <trkpt lat="47.3174" lon="-2.43103">
        <ele>10</ele>
        <time>2019-11-24T08:49:04.000Z</time>
      </trkpt>
      <trkpt lat="47.31757" lon="-2.43083">
        <ele>10</ele>
        <time>2019-11-24T08:49:09.000Z</time>
      </trkpt>
      <trkpt lat="47.3176" lon="-2.43079">
        <ele>10.39999961853</ele>
        <time>2019-11-24T08:49:10.000Z</time>
      </trkpt>
      <trkpt lat="47.31763" lon="-2.43075">
        <ele>10.800000190735</ele>
        <time>2019-11-24T08:49:11.000Z</time>
      </trkpt>
      <trkpt lat="47.31766" lon="-2.43071">
        <ele>11.199999809265</ele>
        <time>2019-11-24T08:49:12.000Z</time>
      </trkpt>
      <trkpt lat="47.3177" lon="-2.43068">
        <ele>11.60000038147</ele>
        <time>2019-11-24T08:49:13.000Z</time>
      </trkpt>
      <trkpt lat="47.31773" lon="-2.43064">
        <ele>12</ele>
        <time>2019-11-24T08:49:14.000Z</time>
      </trkpt>
      <trkpt lat="47.31777" lon="-2.43061">
        <ele>12</ele>
        <time>2019-11-24T08:49:15.000Z</time>
      </trkpt>
      <trkpt lat="47.3178" lon="-2.43057">
        <ele>12.39999961853</ele>
        <time>2019-11-24T08:49:16.000Z</time>
      </trkpt>
      <trkpt lat="47.31783" lon="-2.43054">
        <ele>12.800000190735</ele>
        <time>2019-11-24T08:49:17.000Z</time>
      </trkpt>
      <trkpt lat="47.31786" lon="-2.4305">
        <ele>13.39999961853</ele>
        <time>2019-11-24T08:49:18.000Z</time>
      </trkpt>
      <trkpt lat="47.31789" lon="-2.43047">
        <ele>13.800000190735</ele>
        <time>2019-11-24T08:49:19.000Z</time>
      </trkpt>
      <trkpt lat="47.31792" lon="-2.43043">
        <ele>14.199999809265</ele>
        <time>2019-11-24T08:49:20.000Z</time>
      </trkpt>
      <trkpt lat="47.31798" lon="-2.43036">
        <ele>14.199999809265</ele>
        <time>2019-11-24T08:49:22.000Z</time>
      </trkpt>
      <trkpt lat="47.31801" lon="-2.43033">
        <ele>14.60000038147</ele>
        <time>2019-11-24T08:49:23.000Z</time>
      </trkpt>
      <trkpt lat="47.31804" lon="-2.4303">
        <ele>15</ele>
        <time>2019-11-24T08:49:24.000Z</time>
      </trkpt>
      <trkpt lat="47.31807" lon="-2.43028">
        <ele>15.39999961853</ele>
        <time>2019-11-24T08:49:25.000Z</time>
      </trkpt>
      <trkpt lat="47.3181" lon="-2.43026">
        <ele>15.800000190735</ele>
        <time>2019-11-24T08:49:26.000Z</time>
      </trkpt>
      <trkpt lat="47.31812" lon="-2.43023">
        <ele>16.200000762939</ele>
        <time>2019-11-24T08:49:27.000Z</time>
      </trkpt>
      <trkpt lat="47.31814" lon="-2.43021">
        <ele>16.200000762939</ele>
        <time>2019-11-24T08:49:28.000Z</time>
      </trkpt>
      <trkpt lat="47.3182" lon="-2.43017">
        <ele>16.60000038147</ele>
        <time>2019-11-24T08:49:31.000Z</time>
      </trkpt>
      <trkpt lat="47.31822" lon="-2.43016">
        <ele>17</ele>
        <time>2019-11-24T08:49:32.000Z</time>
      </trkpt>
      <trkpt lat="47.31824" lon="-2.43015">
        <ele>17.60000038147</ele>
        <time>2019-11-24T08:49:33.000Z</time>
      </trkpt>
      <trkpt lat="47.31826" lon="-2.43015">
        <ele>18</ele>
        <time>2019-11-24T08:49:34.000Z</time>
      </trkpt>
      <trkpt lat="47.31828" lon="-2.43016">
        <ele>18.39999961853</ele>
        <time>2019-11-24T08:49:35.000Z</time>
      </trkpt>
      <trkpt lat="47.31837" lon="-2.43016">
        <ele>18.39999961853</ele>
        <time>2019-11-24T08:49:38.000Z</time>
      </trkpt>
      <trkpt lat="47.31856" lon="-2.43013">
        <ele>18.39999961853</ele>
        <time>2019-11-24T08:49:44.000Z</time>
      </trkpt>
      <trkpt lat="47.31859" lon="-2.43014">
        <ele>18.39999961853</ele>
        <time>2019-11-24T08:49:45.000Z</time>
      </trkpt>
      <trkpt lat="47.31862" lon="-2.4302">
        <ele>18.39999961853</ele>
        <time>2019-11-24T08:49:47.000Z</time>
      </trkpt>
      <trkpt lat="47.31863" lon="-2.43033">
        <ele>18.39999961853</ele>
        <time>2019-11-24T08:49:49.000Z</time>
      </trkpt>
      <trkpt lat="47.31863" lon="-2.43041">
        <ele>18.39999961853</ele>
        <time>2019-11-24T08:49:50.000Z</time>
      </trkpt>
      <trkpt lat="47.31863" lon="-2.43059">
        <ele>18.39999961853</ele>
        <time>2019-11-24T08:49:52.000Z</time>
      </trkpt>
      <trkpt lat="47.31861" lon="-2.43076">
        <ele>18.39999961853</ele>
        <time>2019-11-24T08:49:54.000Z</time>
      </trkpt>
      <trkpt lat="47.31856" lon="-2.43093">
        <ele>18</ele>
        <time>2019-11-24T08:49:58.000Z</time>
      </trkpt>
      <trkpt lat="47.31855" lon="-2.43094">
        <ele>17.39999961853</ele>
        <time>2019-11-24T08:49:59.000Z</time>
      </trkpt>
      <trkpt lat="47.31855" lon="-2.43095">
        <ele>17</ele>
        <time>2019-11-24T08:50:00.000Z</time>
      </trkpt>
      <trkpt lat="47.31857" lon="-2.4309">
        <ele>16</ele>
        <time>2019-11-24T08:50:18.000Z</time>
      </trkpt>
      <trkpt lat="47.31858" lon="-2.43087">
        <ele>16</ele>
        <time>2019-11-24T08:50:19.000Z</time>
      </trkpt>
      <trkpt lat="47.31862" lon="-2.43066">
        <ele>16</ele>
        <time>2019-11-24T08:50:25.000Z</time>
      </trkpt>
      <trkpt lat="47.31863" lon="-2.43046">
        <ele>16</ele>
        <time>2019-11-24T08:50:30.000Z</time>
      </trkpt>
      <trkpt lat="47.31863" lon="-2.43029">
        <ele>16.39999961853</ele>
        <time>2019-11-24T08:50:34.000Z</time>
      </trkpt>
      <trkpt lat="47.31863" lon="-2.43025">
        <ele>16.799999237061</ele>
        <time>2019-11-24T08:50:35.000Z</time>
      </trkpt>
      <trkpt lat="47.31863" lon="-2.43022">
        <ele>17.200000762939</ele>
        <time>2019-11-24T08:50:36.000Z</time>
      </trkpt>
      <trkpt lat="47.31864" lon="-2.43019">
        <ele>17.799999237061</ele>
        <time>2019-11-24T08:50:37.000Z</time>
      </trkpt>
      <trkpt lat="47.31864" lon="-2.43016">
        <ele>18.200000762939</ele>
        <time>2019-11-24T08:50:38.000Z</time>
      </trkpt>
      <trkpt lat="47.31869" lon="-2.4301">
        <ele>18.200000762939</ele>
        <time>2019-11-24T08:50:41.000Z</time>
      </trkpt>
      <trkpt lat="47.31871" lon="-2.43008">
        <ele>18.60000038147</ele>
        <time>2019-11-24T08:50:42.000Z</time>
      </trkpt>
      <trkpt lat="47.31873" lon="-2.43006">
        <ele>19</ele>
        <time>2019-11-24T08:50:43.000Z</time>
      </trkpt>
      <trkpt lat="47.31876" lon="-2.43004">
        <ele>19.39999961853</ele>
        <time>2019-11-24T08:50:44.000Z</time>
      </trkpt>
      <trkpt lat="47.31879" lon="-2.43002">
        <ele>19.799999237061</ele>
        <time>2019-11-24T08:50:45.000Z</time>
      </trkpt>
      <trkpt lat="47.31882" lon="-2.43">
        <ele>20.200000762939</ele>
        <time>2019-11-24T08:50:46.000Z</time>
      </trkpt>
      <trkpt lat="47.31901" lon="-2.42981">
        <ele>20.200000762939</ele>
        <time>2019-11-24T08:50:52.000Z</time>
      </trkpt>
      <trkpt lat="47.3192" lon="-2.42958">
        <ele>20.200000762939</ele>
        <time>2019-11-24T08:50:59.000Z</time>
      </trkpt>
      <trkpt lat="47.31931" lon="-2.42944">
        <ele>20.60000038147</ele>
        <time>2019-11-24T08:51:03.000Z</time>
      </trkpt>
      <trkpt lat="47.31934" lon="-2.42941">
        <ele>21</ele>
        <time>2019-11-24T08:51:04.000Z</time>
      </trkpt>
      <trkpt lat="47.31937" lon="-2.42937">
        <ele>21.39999961853</ele>
        <time>2019-11-24T08:51:05.000Z</time>
      </trkpt>
      <trkpt lat="47.31939" lon="-2.42934">
        <ele>21.799999237061</ele>
        <time>2019-11-24T08:51:06.000Z</time>
      </trkpt>
      <trkpt lat="47.31943" lon="-2.4293">
        <ele>22.200000762939</ele>
        <time>2019-11-24T08:51:07.000Z</time>
      </trkpt>
      <trkpt lat="47.31967" lon="-2.429">
        <ele>22.200000762939</ele>
        <time>2019-11-24T08:51:15.000Z</time>
      </trkpt>
      <trkpt lat="47.31979" lon="-2.42885">
        <ele>22.60000038147</ele>
        <time>2019-11-24T08:51:19.000Z</time>
      </trkpt>
      <trkpt lat="47.31982" lon="-2.42882">
        <ele>23</ele>
        <time>2019-11-24T08:51:20.000Z</time>
      </trkpt>
      <trkpt lat="47.31985" lon="-2.42878">
        <ele>23.39999961853</ele>
        <time>2019-11-24T08:51:21.000Z</time>
      </trkpt>
      <trkpt lat="47.31988" lon="-2.42874">
        <ele>23.799999237061</ele>
        <time>2019-11-24T08:51:22.000Z</time>
      </trkpt>
      <trkpt lat="47.3199" lon="-2.4287">
        <ele>24.39999961853</ele>
        <time>2019-11-24T08:51:23.000Z</time>
      </trkpt>
      <trkpt lat="47.31993" lon="-2.42867">
        <ele>24.39999961853</ele>
        <time>2019-11-24T08:51:24.000Z</time>
      </trkpt>
      <trkpt lat="47.31999" lon="-2.42864">
        <ele>24.39999961853</ele>
        <time>2019-11-24T08:51:26.000Z</time>
      </trkpt>
      <trkpt lat="47.32002" lon="-2.42866">
        <ele>24.39999961853</ele>
        <time>2019-11-24T08:51:27.000Z</time>
      </trkpt>
      <trkpt lat="47.32007" lon="-2.42883">
        <ele>24.39999961853</ele>
        <time>2019-11-24T08:51:31.000Z</time>
      </trkpt>
      <trkpt lat="47.32006" lon="-2.42889">
        <ele>24.799999237061</ele>
        <time>2019-11-24T08:51:32.000Z</time>
      </trkpt>
      <trkpt lat="47.32005" lon="-2.42894">
        <ele>25.200000762939</ele>
        <time>2019-11-24T08:51:33.000Z</time>
      </trkpt>
      <trkpt lat="47.32005" lon="-2.429">
        <ele>25.60000038147</ele>
        <time>2019-11-24T08:51:34.000Z</time>
      </trkpt>
      <trkpt lat="47.32004" lon="-2.42906">
        <ele>26</ele>
        <time>2019-11-24T08:51:35.000Z</time>
      </trkpt>
      <trkpt lat="47.32004" lon="-2.42911">
        <ele>26.39999961853</ele>
        <time>2019-11-24T08:51:36.000Z</time>
      </trkpt>
      <trkpt lat="47.32003" lon="-2.42917">
        <ele>26.39999961853</ele>
        <time>2019-11-24T08:51:37.000Z</time>
      </trkpt>
      <trkpt lat="47.32" lon="-2.42952">
        <ele>27.200000762939</ele>
        <time>2019-11-24T08:51:43.000Z</time>
      </trkpt>
      <trkpt lat="47.32" lon="-2.42958">
        <ele>27.60000038147</ele>
        <time>2019-11-24T08:51:44.000Z</time>
      </trkpt>
      <trkpt lat="47.32" lon="-2.42964">
        <ele>28</ele>
        <time>2019-11-24T08:51:45.000Z</time>
      </trkpt>
      <trkpt lat="47.32" lon="-2.4297">
        <ele>28.39999961853</ele>
        <time>2019-11-24T08:51:46.000Z</time>
      </trkpt>
      <trkpt lat="47.32" lon="-2.42991">
        <ele>28.39999961853</ele>
        <time>2019-11-24T08:51:49.000Z</time>
      </trkpt>
      <trkpt lat="47.32003" lon="-2.43032">
        <ele>28.39999961853</ele>
        <time>2019-11-24T08:51:54.000Z</time>
      </trkpt>
      <trkpt lat="47.32008" lon="-2.43059">
        <ele>28</ele>
        <time>2019-11-24T08:51:57.000Z</time>
      </trkpt>
      <trkpt lat="47.32009" lon="-2.43068">
        <ele>27.60000038147</ele>
        <time>2019-11-24T08:51:58.000Z</time>
      </trkpt>
      <trkpt lat="47.32011" lon="-2.43078">
        <ele>27.200000762939</ele>
        <time>2019-11-24T08:51:59.000Z</time>
      </trkpt>
      <trkpt lat="47.32013" lon="-2.43088">
        <ele>26.60000038147</ele>
        <time>2019-11-24T08:52:00.000Z</time>
      </trkpt>
      <trkpt lat="47.32015" lon="-2.43098">
        <ele>26.200000762939</ele>
        <time>2019-11-24T08:52:01.000Z</time>
      </trkpt>
      <trkpt lat="47.32026" lon="-2.43148">
        <ele>25.799999237061</ele>
        <time>2019-11-24T08:52:06.000Z</time>
      </trkpt>
      <trkpt lat="47.32028" lon="-2.43158">
        <ele>25.39999961853</ele>
        <time>2019-11-24T08:52:07.000Z</time>
      </trkpt>
      <trkpt lat="47.3203" lon="-2.43168">
        <ele>24.39999961853</ele>
        <time>2019-11-24T08:52:08.000Z</time>
      </trkpt>
      <trkpt lat="47.32032" lon="-2.43178">
        <ele>24</ele>
        <time>2019-11-24T08:52:09.000Z</time>
      </trkpt>
      <trkpt lat="47.32039" lon="-2.4321">
        <ele>24</ele>
        <time>2019-11-24T08:52:13.000Z</time>
      </trkpt>
      <trkpt lat="47.32042" lon="-2.4322">
        <ele>24</ele>
        <time>2019-11-24T08:52:16.000Z</time>
      </trkpt>
      <trkpt lat="47.32042" lon="-2.43227">
        <ele>24</ele>
        <time>2019-11-24T08:52:19.000Z</time>
      </trkpt>
      <trkpt lat="47.32039" lon="-2.43235">
        <ele>24</ele>
        <time>2019-11-24T08:52:21.000Z</time>
      </trkpt>
      <trkpt lat="47.32023" lon="-2.43253">
        <ele>23.60000038147</ele>
        <time>2019-11-24T08:52:26.000Z</time>
      </trkpt>
      <trkpt lat="47.32019" lon="-2.43256">
        <ele>23.200000762939</ele>
        <time>2019-11-24T08:52:27.000Z</time>
      </trkpt>
      <trkpt lat="47.32014" lon="-2.4326">
        <ele>22.799999237061</ele>
        <time>2019-11-24T08:52:28.000Z</time>
      </trkpt>
      <trkpt lat="47.32009" lon="-2.43263">
        <ele>22.200000762939</ele>
        <time>2019-11-24T08:52:29.000Z</time>
      </trkpt>
      <trkpt lat="47.32003" lon="-2.43265">
        <ele>21.799999237061</ele>
        <time>2019-11-24T08:52:30.000Z</time>
      </trkpt>
      <trkpt lat="47.31998" lon="-2.43268">
        <ele>21.799999237061</ele>
        <time>2019-11-24T08:52:31.000Z</time>
      </trkpt>
      <trkpt lat="47.31988" lon="-2.43273">
        <ele>21.39999961853</ele>
        <time>2019-11-24T08:52:33.000Z</time>
      </trkpt>
      <trkpt lat="47.31984" lon="-2.43277">
        <ele>21</ele>
        <time>2019-11-24T08:52:34.000Z</time>
      </trkpt>
      <trkpt lat="47.31981" lon="-2.43282">
        <ele>20.60000038147</ele>
        <time>2019-11-24T08:52:35.000Z</time>
      </trkpt>
      <trkpt lat="47.3198" lon="-2.43289">
        <ele>20.200000762939</ele>
        <time>2019-11-24T08:52:36.000Z</time>
      </trkpt>
      <trkpt lat="47.31979" lon="-2.43296">
        <ele>19.799999237061</ele>
        <time>2019-11-24T08:52:37.000Z</time>
      </trkpt>
      <trkpt lat="47.31979" lon="-2.43303">
        <ele>19.799999237061</ele>
        <time>2019-11-24T08:52:38.000Z</time>
      </trkpt>
      <trkpt lat="47.31972" lon="-2.43354">
        <ele>19.39999961853</ele>
        <time>2019-11-24T08:52:44.000Z</time>
      </trkpt>
      <trkpt lat="47.3197" lon="-2.43363">
        <ele>19</ele>
        <time>2019-11-24T08:52:45.000Z</time>
      </trkpt>
      <trkpt lat="47.31967" lon="-2.43372">
        <ele>18.60000038147</ele>
        <time>2019-11-24T08:52:46.000Z</time>
      </trkpt>
      <trkpt lat="47.31964" lon="-2.43382">
        <ele>18</ele>
        <time>2019-11-24T08:52:47.000Z</time>
      </trkpt>
      <trkpt lat="47.31961" lon="-2.43391">
        <ele>17.60000038147</ele>
        <time>2019-11-24T08:52:48.000Z</time>
      </trkpt>
      <trkpt lat="47.31954" lon="-2.4341">
        <ele>17.60000038147</ele>
        <time>2019-11-24T08:52:50.000Z</time>
      </trkpt>
      <trkpt lat="47.31947" lon="-2.4343">
        <ele>17.200000762939</ele>
        <time>2019-11-24T08:52:52.000Z</time>
      </trkpt>
      <trkpt lat="47.31944" lon="-2.43441">
        <ele>16.799999237061</ele>
        <time>2019-11-24T08:52:53.000Z</time>
      </trkpt>
      <trkpt lat="47.3194" lon="-2.43451">
        <ele>16.39999961853</ele>
        <time>2019-11-24T08:52:54.000Z</time>
      </trkpt>
      <trkpt lat="47.31937" lon="-2.43462">
        <ele>15.800000190735</ele>
        <time>2019-11-24T08:52:55.000Z</time>
      </trkpt>
      <trkpt lat="47.31934" lon="-2.43472">
        <ele>15.39999961853</ele>
        <time>2019-11-24T08:52:56.000Z</time>
      </trkpt>
      <trkpt lat="47.31931" lon="-2.43483">
        <ele>15.39999961853</ele>
        <time>2019-11-24T08:52:57.000Z</time>
      </trkpt>
      <trkpt lat="47.31929" lon="-2.43495">
        <ele>14.60000038147</ele>
        <time>2019-11-24T08:52:58.000Z</time>
      </trkpt>
      <trkpt lat="47.31928" lon="-2.43506">
        <ele>14.199999809265</ele>
        <time>2019-11-24T08:52:59.000Z</time>
      </trkpt>
      <trkpt lat="47.31928" lon="-2.43518">
        <ele>13.60000038147</ele>
        <time>2019-11-24T08:53:00.000Z</time>
      </trkpt>
      <trkpt lat="47.31928" lon="-2.4353">
        <ele>13.199999809265</ele>
        <time>2019-11-24T08:53:01.000Z</time>
      </trkpt>
      <trkpt lat="47.31929" lon="-2.43542">
        <ele>13.199999809265</ele>
        <time>2019-11-24T08:53:02.000Z</time>
      </trkpt>
      <trkpt lat="47.31929" lon="-2.43576">
        <ele>13.199999809265</ele>
        <time>2019-11-24T08:53:05.000Z</time>
      </trkpt>
      <trkpt lat="47.31927" lon="-2.43587">
        <ele>13.199999809265</ele>
        <time>2019-11-24T08:53:06.000Z</time>
      </trkpt>
      <trkpt lat="47.31923" lon="-2.43596">
        <ele>12.800000190735</ele>
        <time>2019-11-24T08:53:07.000Z</time>
      </trkpt>
      <trkpt lat="47.31918" lon="-2.43603">
        <ele>12.39999961853</ele>
        <time>2019-11-24T08:53:08.000Z</time>
      </trkpt>
      <trkpt lat="47.31913" lon="-2.4361">
        <ele>12</ele>
        <time>2019-11-24T08:53:09.000Z</time>
      </trkpt>
      <trkpt lat="47.31906" lon="-2.43615">
        <ele>11.39999961853</ele>
        <time>2019-11-24T08:53:10.000Z</time>
      </trkpt>
      <trkpt lat="47.319" lon="-2.4362">
        <ele>11</ele>
        <time>2019-11-24T08:53:11.000Z</time>
      </trkpt>
      <trkpt lat="47.31895" lon="-2.43626">
        <ele>10.39999961853</ele>
        <time>2019-11-24T08:53:12.000Z</time>
      </trkpt>
      <trkpt lat="47.31892" lon="-2.43634">
        <ele>9.8000001907349</ele>
        <time>2019-11-24T08:53:13.000Z</time>
      </trkpt>
      <trkpt lat="47.31891" lon="-2.43643">
        <ele>9.1999998092651</ele>
        <time>2019-11-24T08:53:14.000Z</time>
      </trkpt>
      <trkpt lat="47.31891" lon="-2.43651">
        <ele>8.8000001907349</ele>
        <time>2019-11-24T08:53:15.000Z</time>
      </trkpt>
      <trkpt lat="47.31894" lon="-2.43659">
        <ele>8.1999998092651</ele>
        <time>2019-11-24T08:53:16.000Z</time>
      </trkpt>
      <trkpt lat="47.31897" lon="-2.43666">
        <ele>7.8000001907349</ele>
        <time>2019-11-24T08:53:17.000Z</time>
      </trkpt>
      <trkpt lat="47.31902" lon="-2.43673">
        <ele>7.4000000953674</ele>
        <time>2019-11-24T08:53:18.000Z</time>
      </trkpt>
      <trkpt lat="47.31905" lon="-2.4368">
        <ele>7</ele>
        <time>2019-11-24T08:53:19.000Z</time>
      </trkpt>
      <trkpt lat="47.3191" lon="-2.43688">
        <ele>6.5999999046326</ele>
        <time>2019-11-24T08:53:20.000Z</time>
      </trkpt>
      <trkpt lat="47.31932" lon="-2.43738">
        <ele>6.5999999046326</ele>
        <time>2019-11-24T08:53:26.000Z</time>
      </trkpt>
      <trkpt lat="47.31952" lon="-2.43794">
        <ele>6.5999999046326</ele>
        <time>2019-11-24T08:53:33.000Z</time>
      </trkpt>
      <trkpt lat="47.31973" lon="-2.43832">
        <ele>6.5999999046326</ele>
        <time>2019-11-24T08:53:39.000Z</time>
      </trkpt>
      <trkpt lat="47.31978" lon="-2.43836">
        <ele>6.5999999046326</ele>
        <time>2019-11-24T08:53:40.000Z</time>
      </trkpt>
      <trkpt lat="47.31987" lon="-2.43837">
        <ele>6.5999999046326</ele>
        <time>2019-11-24T08:53:42.000Z</time>
      </trkpt>
      <trkpt lat="47.31992" lon="-2.43835">
        <ele>7</ele>
        <time>2019-11-24T08:53:43.000Z</time>
      </trkpt>
      <trkpt lat="47.31996" lon="-2.43831">
        <ele>7.4000000953674</ele>
        <time>2019-11-24T08:53:44.000Z</time>
      </trkpt>
      <trkpt lat="47.31999" lon="-2.43828">
        <ele>7.8000001907349</ele>
        <time>2019-11-24T08:53:45.000Z</time>
      </trkpt>
      <trkpt lat="47.32003" lon="-2.43823">
        <ele>8.1999998092651</ele>
        <time>2019-11-24T08:53:46.000Z</time>
      </trkpt>
      <trkpt lat="47.32006" lon="-2.43819">
        <ele>8.8000001907349</ele>
        <time>2019-11-24T08:53:47.000Z</time>
      </trkpt>
      <trkpt lat="47.32012" lon="-2.43812">
        <ele>9.1999998092651</ele>
        <time>2019-11-24T08:53:49.000Z</time>
      </trkpt>
      <trkpt lat="47.32015" lon="-2.43809">
        <ele>9.6000003814697</ele>
        <time>2019-11-24T08:53:50.000Z</time>
      </trkpt>
      <trkpt lat="47.32019" lon="-2.43806">
        <ele>10</ele>
        <time>2019-11-24T08:53:51.000Z</time>
      </trkpt>
      <trkpt lat="47.32023" lon="-2.43803">
        <ele>10.60000038147</ele>
        <time>2019-11-24T08:53:52.000Z</time>
      </trkpt>
      <trkpt lat="47.32027" lon="-2.43801">
        <ele>11</ele>
        <time>2019-11-24T08:53:53.000Z</time>
      </trkpt>
      <trkpt lat="47.32035" lon="-2.43801">
        <ele>11.39999961853</ele>
        <time>2019-11-24T08:53:55.000Z</time>
      </trkpt>
      <trkpt lat="47.32038" lon="-2.43805">
        <ele>11.800000190735</ele>
        <time>2019-11-24T08:53:56.000Z</time>
      </trkpt>
      <trkpt lat="47.32041" lon="-2.43809">
        <ele>12.39999961853</ele>
        <time>2019-11-24T08:53:57.000Z</time>
      </trkpt>
      <trkpt lat="47.32044" lon="-2.43815">
        <ele>12.800000190735</ele>
        <time>2019-11-24T08:53:58.000Z</time>
      </trkpt>
      <trkpt lat="47.32046" lon="-2.43819">
        <ele>13.199999809265</ele>
        <time>2019-11-24T08:53:59.000Z</time>
      </trkpt>
      <trkpt lat="47.32049" lon="-2.43824">
        <ele>13.199999809265</ele>
        <time>2019-11-24T08:54:00.000Z</time>
      </trkpt>
      <trkpt lat="47.32055" lon="-2.43835">
        <ele>13.60000038147</ele>
        <time>2019-11-24T08:54:02.000Z</time>
      </trkpt>
      <trkpt lat="47.32058" lon="-2.43841">
        <ele>14</ele>
        <time>2019-11-24T08:54:03.000Z</time>
      </trkpt>
      <trkpt lat="47.3206" lon="-2.43846">
        <ele>14.39999961853</ele>
        <time>2019-11-24T08:54:04.000Z</time>
      </trkpt>
      <trkpt lat="47.32063" lon="-2.43851">
        <ele>14.800000190735</ele>
        <time>2019-11-24T08:54:05.000Z</time>
      </trkpt>
      <trkpt lat="47.32066" lon="-2.43857">
        <ele>15.39999961853</ele>
        <time>2019-11-24T08:54:06.000Z</time>
      </trkpt>
      <trkpt lat="47.32068" lon="-2.43862">
        <ele>15.39999961853</ele>
        <time>2019-11-24T08:54:07.000Z</time>
      </trkpt>
      <trkpt lat="47.32088" lon="-2.43892">
        <ele>15.39999961853</ele>
        <time>2019-11-24T08:54:13.000Z</time>
      </trkpt>
      <trkpt lat="47.32107" lon="-2.43905">
        <ele>15.39999961853</ele>
        <time>2019-11-24T08:54:18.000Z</time>
      </trkpt>
      <trkpt lat="47.32111" lon="-2.43907">
        <ele>15.800000190735</ele>
        <time>2019-11-24T08:54:19.000Z</time>
      </trkpt>
      <trkpt lat="47.32114" lon="-2.4391">
        <ele>16.200000762939</ele>
        <time>2019-11-24T08:54:20.000Z</time>
      </trkpt>
      <trkpt lat="47.32118" lon="-2.43912">
        <ele>16.60000038147</ele>
        <time>2019-11-24T08:54:21.000Z</time>
      </trkpt>
      <trkpt lat="47.32122" lon="-2.43914">
        <ele>17</ele>
        <time>2019-11-24T08:54:22.000Z</time>
      </trkpt>
      <trkpt lat="47.32126" lon="-2.43916">
        <ele>17.39999961853</ele>
        <time>2019-11-24T08:54:23.000Z</time>
      </trkpt>
      <trkpt lat="47.32129" lon="-2.43919">
        <ele>17.39999961853</ele>
        <time>2019-11-24T08:54:24.000Z</time>
      </trkpt>
      <trkpt lat="47.32132" lon="-2.43923">
        <ele>17.39999961853</ele>
        <time>2019-11-24T08:54:25.000Z</time>
      </trkpt>
      <trkpt lat="47.3214" lon="-2.43933">
        <ele>17.799999237061</ele>
        <time>2019-11-24T08:54:28.000Z</time>
      </trkpt>
      <trkpt lat="47.32143" lon="-2.43937">
        <ele>18.39999961853</ele>
        <time>2019-11-24T08:54:29.000Z</time>
      </trkpt>
      <trkpt lat="47.32145" lon="-2.43941">
        <ele>18.799999237061</ele>
        <time>2019-11-24T08:54:30.000Z</time>
      </trkpt>
      <trkpt lat="47.32147" lon="-2.43945">
        <ele>19.200000762939</ele>
        <time>2019-11-24T08:54:31.000Z</time>
      </trkpt>
      <trkpt lat="47.3215" lon="-2.43949">
        <ele>19.60000038147</ele>
        <time>2019-11-24T08:54:32.000Z</time>
      </trkpt>
      <trkpt lat="47.3216" lon="-2.43964">
        <ele>20</ele>
        <time>2019-11-24T08:54:36.000Z</time>
      </trkpt>
      <trkpt lat="47.32162" lon="-2.43968">
        <ele>20.60000038147</ele>
        <time>2019-11-24T08:54:37.000Z</time>
      </trkpt>
      <trkpt lat="47.32165" lon="-2.43972">
        <ele>21</ele>
        <time>2019-11-24T08:54:38.000Z</time>
      </trkpt>
      <trkpt lat="47.32168" lon="-2.43975">
        <ele>21.39999961853</ele>
        <time>2019-11-24T08:54:39.000Z</time>
      </trkpt>
      <trkpt lat="47.32171" lon="-2.43979">
        <ele>21.799999237061</ele>
        <time>2019-11-24T08:54:40.000Z</time>
      </trkpt>
      <trkpt lat="47.32193" lon="-2.44006">
        <ele>21.799999237061</ele>
        <time>2019-11-24T08:54:47.000Z</time>
      </trkpt>
      <trkpt lat="47.32199" lon="-2.44013">
        <ele>22.200000762939</ele>
        <time>2019-11-24T08:54:49.000Z</time>
      </trkpt>
      <trkpt lat="47.32202" lon="-2.44017">
        <ele>22.60000038147</ele>
        <time>2019-11-24T08:54:50.000Z</time>
      </trkpt>
      <trkpt lat="47.32205" lon="-2.44021">
        <ele>23</ele>
        <time>2019-11-24T08:54:51.000Z</time>
      </trkpt>
      <trkpt lat="47.32208" lon="-2.44024">
        <ele>23.39999961853</ele>
        <time>2019-11-24T08:54:52.000Z</time>
      </trkpt>
      <trkpt lat="47.32211" lon="-2.44028">
        <ele>23.799999237061</ele>
        <time>2019-11-24T08:54:53.000Z</time>
      </trkpt>
      <trkpt lat="47.32215" lon="-2.44032">
        <ele>23.799999237061</ele>
        <time>2019-11-24T08:54:54.000Z</time>
      </trkpt>
      <trkpt lat="47.32229" lon="-2.44043">
        <ele>23.799999237061</ele>
        <time>2019-11-24T08:54:58.000Z</time>
      </trkpt>
      <trkpt lat="47.32247" lon="-2.44047">
        <ele>23.799999237061</ele>
        <time>2019-11-24T08:55:03.000Z</time>
      </trkpt>
      <trkpt lat="47.32261" lon="-2.44047">
        <ele>23.799999237061</ele>
        <time>2019-11-24T08:55:06.000Z</time>
      </trkpt>
      <trkpt lat="47.32274" lon="-2.44049">
        <ele>24.200000762939</ele>
        <time>2019-11-24T08:55:09.000Z</time>
      </trkpt>
      <trkpt lat="47.32279" lon="-2.4405">
        <ele>24.60000038147</ele>
        <time>2019-11-24T08:55:10.000Z</time>
      </trkpt>
      <trkpt lat="47.32283" lon="-2.4405">
        <ele>25.200000762939</ele>
        <time>2019-11-24T08:55:11.000Z</time>
      </trkpt>
      <trkpt lat="47.32287" lon="-2.44051">
        <ele>25.60000038147</ele>
        <time>2019-11-24T08:55:12.000Z</time>
      </trkpt>
      <trkpt lat="47.32291" lon="-2.44052">
        <ele>26</ele>
        <time>2019-11-24T08:55:13.000Z</time>
      </trkpt>
      <trkpt lat="47.32294" lon="-2.44054">
        <ele>26</ele>
        <time>2019-11-24T08:55:14.000Z</time>
      </trkpt>
      <trkpt lat="47.32322" lon="-2.44064">
        <ele>26</ele>
        <time>2019-11-24T08:55:20.000Z</time>
      </trkpt>
      <trkpt lat="47.32342" lon="-2.44069">
        <ele>26.39999961853</ele>
        <time>2019-11-24T08:55:25.000Z</time>
      </trkpt>
      <trkpt lat="47.32346" lon="-2.4407">
        <ele>27.200000762939</ele>
        <time>2019-11-24T08:55:26.000Z</time>
      </trkpt>
      <trkpt lat="47.32351" lon="-2.44071">
        <ele>27.60000038147</ele>
        <time>2019-11-24T08:55:27.000Z</time>
      </trkpt>
      <trkpt lat="47.32355" lon="-2.44071">
        <ele>28</ele>
        <time>2019-11-24T08:55:28.000Z</time>
      </trkpt>
      <trkpt lat="47.32364" lon="-2.4407">
        <ele>28</ele>
        <time>2019-11-24T08:55:30.000Z</time>
      </trkpt>
      <trkpt lat="47.32375" lon="-2.44064">
        <ele>28</ele>
        <time>2019-11-24T08:55:33.000Z</time>
      </trkpt>
      <trkpt lat="47.32387" lon="-2.44058">
        <ele>28.39999961853</ele>
        <time>2019-11-24T08:55:36.000Z</time>
      </trkpt>
      <trkpt lat="47.32391" lon="-2.44056">
        <ele>28.799999237061</ele>
        <time>2019-11-24T08:55:37.000Z</time>
      </trkpt>
      <trkpt lat="47.32394" lon="-2.44055">
        <ele>29.200000762939</ele>
        <time>2019-11-24T08:55:38.000Z</time>
      </trkpt>
      <trkpt lat="47.32398" lon="-2.44053">
        <ele>29.60000038147</ele>
        <time>2019-11-24T08:55:39.000Z</time>
      </trkpt>
      <trkpt lat="47.32402" lon="-2.44051">
        <ele>30</ele>
        <time>2019-11-24T08:55:40.000Z</time>
      </trkpt>
      <trkpt lat="47.32405" lon="-2.44049">
        <ele>30</ele>
        <time>2019-11-24T08:55:41.000Z</time>
      </trkpt>
      <trkpt lat="47.32432" lon="-2.44031">
        <ele>30.39999961853</ele>
        <time>2019-11-24T08:55:48.000Z</time>
      </trkpt>
      <trkpt lat="47.32436" lon="-2.44029">
        <ele>31</ele>
        <time>2019-11-24T08:55:49.000Z</time>
      </trkpt>
      <trkpt lat="47.3244" lon="-2.44027">
        <ele>31.39999961853</ele>
        <time>2019-11-24T08:55:50.000Z</time>
      </trkpt>
      <trkpt lat="47.32444" lon="-2.44026">
        <ele>32.200000762939</ele>
        <time>2019-11-24T08:55:51.000Z</time>
      </trkpt>
      <trkpt lat="47.32448" lon="-2.44023">
        <ele>32.200000762939</ele>
        <time>2019-11-24T08:55:52.000Z</time>
      </trkpt>
      <trkpt lat="47.32464" lon="-2.4401">
        <ele>32.200000762939</ele>
        <time>2019-11-24T08:55:56.000Z</time>
      </trkpt>
      <trkpt lat="47.32473" lon="-2.44005">
        <ele>32.200000762939</ele>
        <time>2019-11-24T08:55:58.000Z</time>
      </trkpt>
      <trkpt lat="47.32483" lon="-2.43998">
        <ele>32.599998474121</ele>
        <time>2019-11-24T08:56:01.000Z</time>
      </trkpt>
      <trkpt lat="47.32486" lon="-2.43995">
        <ele>33</ele>
        <time>2019-11-24T08:56:02.000Z</time>
      </trkpt>
      <trkpt lat="47.32489" lon="-2.43994">
        <ele>33.400001525879</ele>
        <time>2019-11-24T08:56:03.000Z</time>
      </trkpt>
      <trkpt lat="47.32492" lon="-2.43992">
        <ele>33.799999237061</ele>
        <time>2019-11-24T08:56:04.000Z</time>
      </trkpt>
      <trkpt lat="47.32496" lon="-2.43991">
        <ele>34.200000762939</ele>
        <time>2019-11-24T08:56:05.000Z</time>
      </trkpt>
      <trkpt lat="47.32503" lon="-2.43987">
        <ele>34.200000762939</ele>
        <time>2019-11-24T08:56:08.000Z</time>
      </trkpt>
      <trkpt lat="47.32507" lon="-2.43987">
        <ele>34.200000762939</ele>
        <time>2019-11-24T08:56:10.000Z</time>
      </trkpt>
      <trkpt lat="47.32509" lon="-2.43992">
        <ele>34.200000762939</ele>
        <time>2019-11-24T08:56:12.000Z</time>
      </trkpt>
      <trkpt lat="47.32515" lon="-2.43999">
        <ele>34.200000762939</ele>
        <time>2019-11-24T08:56:14.000Z</time>
      </trkpt>
      <trkpt lat="47.32522" lon="-2.44008">
        <ele>34.200000762939</ele>
        <time>2019-11-24T08:56:16.000Z</time>
      </trkpt>
      <trkpt lat="47.32539" lon="-2.44023">
        <ele>34.200000762939</ele>
        <time>2019-11-24T08:56:20.000Z</time>
      </trkpt>
      <trkpt lat="47.32547" lon="-2.44027">
        <ele>34.200000762939</ele>
        <time>2019-11-24T08:56:22.000Z</time>
      </trkpt>
      <trkpt lat="47.32559" lon="-2.44032">
        <ele>34.200000762939</ele>
        <time>2019-11-24T08:56:25.000Z</time>
      </trkpt>
      <trkpt lat="47.32566" lon="-2.44036">
        <ele>34.200000762939</ele>
        <time>2019-11-24T08:56:27.000Z</time>
      </trkpt>
      <trkpt lat="47.32571" lon="-2.44041">
        <ele>34.200000762939</ele>
        <time>2019-11-24T08:56:29.000Z</time>
      </trkpt>
      <trkpt lat="47.3257" lon="-2.44047">
        <ele>34.200000762939</ele>
        <time>2019-11-24T08:56:31.000Z</time>
      </trkpt>
      <trkpt lat="47.32562" lon="-2.44063">
        <ele>34.200000762939</ele>
        <time>2019-11-24T08:56:35.000Z</time>
      </trkpt>
      <trkpt lat="47.3256" lon="-2.44068">
        <ele>34.200000762939</ele>
        <time>2019-11-24T08:56:36.000Z</time>
      </trkpt>
      <trkpt lat="47.32558" lon="-2.44075">
        <ele>34.599998474121</ele>
        <time>2019-11-24T08:56:37.000Z</time>
      </trkpt>
      <trkpt lat="47.32556" lon="-2.44082">
        <ele>35</ele>
        <time>2019-11-24T08:56:38.000Z</time>
      </trkpt>
      <trkpt lat="47.32554" lon="-2.4409">
        <ele>35.400001525879</ele>
        <time>2019-11-24T08:56:39.000Z</time>
      </trkpt>
      <trkpt lat="47.32552" lon="-2.44098">
        <ele>36.400001525879</ele>
        <time>2019-11-24T08:56:40.000Z</time>
      </trkpt>
      <trkpt lat="47.32549" lon="-2.44105">
        <ele>36.400001525879</ele>
        <time>2019-11-24T08:56:41.000Z</time>
      </trkpt>
      <trkpt lat="47.32541" lon="-2.44135">
        <ele>36.400001525879</ele>
        <time>2019-11-24T08:56:45.000Z</time>
      </trkpt>
      <trkpt lat="47.32536" lon="-2.44149">
        <ele>36.400001525879</ele>
        <time>2019-11-24T08:56:47.000Z</time>
      </trkpt>
      <trkpt lat="47.32524" lon="-2.44193">
        <ele>36.400001525879</ele>
        <time>2019-11-24T08:56:53.000Z</time>
      </trkpt>
      <trkpt lat="47.32525" lon="-2.442">
        <ele>36.400001525879</ele>
        <time>2019-11-24T08:56:54.000Z</time>
      </trkpt>
      <trkpt lat="47.32533" lon="-2.44216">
        <ele>36.400001525879</ele>
        <time>2019-11-24T08:56:57.000Z</time>
      </trkpt>
      <trkpt lat="47.32548" lon="-2.44243">
        <ele>36.400001525879</ele>
        <time>2019-11-24T08:57:02.000Z</time>
      </trkpt>
      <trkpt lat="47.32558" lon="-2.4426">
        <ele>36.400001525879</ele>
        <time>2019-11-24T08:57:05.000Z</time>
      </trkpt>
      <trkpt lat="47.32561" lon="-2.44276">
        <ele>36.400001525879</ele>
        <time>2019-11-24T08:57:07.000Z</time>
      </trkpt>
      <trkpt lat="47.32563" lon="-2.44293">
        <ele>36</ele>
        <time>2019-11-24T08:57:09.000Z</time>
      </trkpt>
      <trkpt lat="47.32566" lon="-2.44301">
        <ele>35.599998474121</ele>
        <time>2019-11-24T08:57:10.000Z</time>
      </trkpt>
      <trkpt lat="47.32568" lon="-2.44309">
        <ele>35.200000762939</ele>
        <time>2019-11-24T08:57:11.000Z</time>
      </trkpt>
      <trkpt lat="47.32571" lon="-2.44316">
        <ele>34.799999237061</ele>
        <time>2019-11-24T08:57:12.000Z</time>
      </trkpt>
      <trkpt lat="47.32574" lon="-2.44323">
        <ele>34.400001525879</ele>
        <time>2019-11-24T08:57:13.000Z</time>
      </trkpt>
      <trkpt lat="47.32581" lon="-2.44343">
        <ele>34.400001525879</ele>
        <time>2019-11-24T08:57:16.000Z</time>
      </trkpt>
      <trkpt lat="47.32583" lon="-2.44348">
        <ele>34.400001525879</ele>
        <time>2019-11-24T08:57:17.000Z</time>
      </trkpt>
      <trkpt lat="47.32592" lon="-2.44369">
        <ele>34.400001525879</ele>
        <time>2019-11-24T08:57:21.000Z</time>
      </trkpt>
      <trkpt lat="47.32596" lon="-2.44373">
        <ele>34.400001525879</ele>
        <time>2019-11-24T08:57:22.000Z</time>
      </trkpt>
      <trkpt lat="47.32606" lon="-2.44382">
        <ele>34.400001525879</ele>
        <time>2019-11-24T08:57:25.000Z</time>
      </trkpt>
      <trkpt lat="47.32617" lon="-2.44387">
        <ele>34.400001525879</ele>
        <time>2019-11-24T08:57:29.000Z</time>
      </trkpt>
      <trkpt lat="47.32619" lon="-2.44391">
        <ele>34.400001525879</ele>
        <time>2019-11-24T08:57:30.000Z</time>
      </trkpt>
      <trkpt lat="47.32626" lon="-2.44407">
        <ele>34.400001525879</ele>
        <time>2019-11-24T08:57:34.000Z</time>
      </trkpt>
      <trkpt lat="47.3264" lon="-2.4444">
        <ele>34.400001525879</ele>
        <time>2019-11-24T08:57:40.000Z</time>
      </trkpt>
      <trkpt lat="47.32651" lon="-2.44473">
        <ele>34.400001525879</ele>
        <time>2019-11-24T08:57:45.000Z</time>
      </trkpt>
      <trkpt lat="47.32653" lon="-2.44479">
        <ele>34.799999237061</ele>
        <time>2019-11-24T08:57:46.000Z</time>
      </trkpt>
      <trkpt lat="47.32654" lon="-2.44484">
        <ele>35.200000762939</ele>
        <time>2019-11-24T08:57:47.000Z</time>
      </trkpt>
      <trkpt lat="47.32657" lon="-2.44489">
        <ele>35.599998474121</ele>
        <time>2019-11-24T08:57:48.000Z</time>
      </trkpt>
      <trkpt lat="47.32659" lon="-2.44492">
        <ele>36</ele>
        <time>2019-11-24T08:57:49.000Z</time>
      </trkpt>
      <trkpt lat="47.32662" lon="-2.44494">
        <ele>36.400001525879</ele>
        <time>2019-11-24T08:57:50.000Z</time>
      </trkpt>
      <trkpt lat="47.32664" lon="-2.44494">
        <ele>36.400001525879</ele>
        <time>2019-11-24T08:57:51.000Z</time>
      </trkpt>
      <trkpt lat="47.32667" lon="-2.44494">
        <ele>36.400001525879</ele>
        <time>2019-11-24T08:57:53.000Z</time>
      </trkpt>
      <trkpt lat="47.32674" lon="-2.44497">
        <ele>36.400001525879</ele>
        <time>2019-11-24T08:57:59.000Z</time>
      </trkpt>
      <trkpt lat="47.32673" lon="-2.445">
        <ele>36.400001525879</ele>
        <time>2019-11-24T08:58:03.000Z</time>
      </trkpt>
      <trkpt lat="47.3267" lon="-2.44507">
        <ele>36.400001525879</ele>
        <time>2019-11-24T08:58:59.000Z</time>
      </trkpt>
      <trkpt lat="47.32663" lon="-2.4452">
        <ele>36.400001525879</ele>
        <time>2019-11-24T08:59:03.000Z</time>
      </trkpt>
      <trkpt lat="47.32646" lon="-2.44551">
        <ele>36.400001525879</ele>
        <time>2019-11-24T08:59:09.000Z</time>
      </trkpt>
      <trkpt lat="47.32627" lon="-2.44585">
        <ele>36.400001525879</ele>
        <time>2019-11-24T08:59:15.000Z</time>
      </trkpt>
      <trkpt lat="47.32616" lon="-2.44602">
        <ele>36</ele>
        <time>2019-11-24T08:59:18.000Z</time>
      </trkpt>
      <trkpt lat="47.32612" lon="-2.44608">
        <ele>35.599998474121</ele>
        <time>2019-11-24T08:59:19.000Z</time>
      </trkpt>
      <trkpt lat="47.32608" lon="-2.44615">
        <ele>35</ele>
        <time>2019-11-24T08:59:20.000Z</time>
      </trkpt>
      <trkpt lat="47.32604" lon="-2.44621">
        <ele>34.599998474121</ele>
        <time>2019-11-24T08:59:21.000Z</time>
      </trkpt>
      <trkpt lat="47.326" lon="-2.44627">
        <ele>34.200000762939</ele>
        <time>2019-11-24T08:59:22.000Z</time>
      </trkpt>
      <trkpt lat="47.32596" lon="-2.44632">
        <ele>34.200000762939</ele>
        <time>2019-11-24T08:59:23.000Z</time>
      </trkpt>
      <trkpt lat="47.3258" lon="-2.44653">
        <ele>34.200000762939</ele>
        <time>2019-11-24T08:59:27.000Z</time>
      </trkpt>
      <trkpt lat="47.32575" lon="-2.44659">
        <ele>33.799999237061</ele>
        <time>2019-11-24T08:59:28.000Z</time>
      </trkpt>
      <trkpt lat="47.3257" lon="-2.44666">
        <ele>33.200000762939</ele>
        <time>2019-11-24T08:59:29.000Z</time>
      </trkpt>
      <trkpt lat="47.32565" lon="-2.44673">
        <ele>32.799999237061</ele>
        <time>2019-11-24T08:59:30.000Z</time>
      </trkpt>
      <trkpt lat="47.32561" lon="-2.44679">
        <ele>32.400001525879</ele>
        <time>2019-11-24T08:59:31.000Z</time>
      </trkpt>
      <trkpt lat="47.32557" lon="-2.44685">
        <ele>32</ele>
        <time>2019-11-24T08:59:32.000Z</time>
      </trkpt>
      <trkpt lat="47.32552" lon="-2.44692">
        <ele>31.60000038147</ele>
        <time>2019-11-24T08:59:33.000Z</time>
      </trkpt>
      <trkpt lat="47.32547" lon="-2.44698">
        <ele>30.60000038147</ele>
        <time>2019-11-24T08:59:34.000Z</time>
      </trkpt>
      <trkpt lat="47.32543" lon="-2.44704">
        <ele>30.200000762939</ele>
        <time>2019-11-24T08:59:35.000Z</time>
      </trkpt>
      <trkpt lat="47.32539" lon="-2.4471">
        <ele>29.799999237061</ele>
        <time>2019-11-24T08:59:36.000Z</time>
      </trkpt>
      <trkpt lat="47.32536" lon="-2.44716">
        <ele>29.799999237061</ele>
        <time>2019-11-24T08:59:37.000Z</time>
      </trkpt>
      <trkpt lat="47.32534" lon="-2.44722">
        <ele>29.39999961853</ele>
        <time>2019-11-24T08:59:38.000Z</time>
      </trkpt>
      <trkpt lat="47.32532" lon="-2.44728">
        <ele>28.799999237061</ele>
        <time>2019-11-24T08:59:39.000Z</time>
      </trkpt>
      <trkpt lat="47.32531" lon="-2.44734">
        <ele>28.39999961853</ele>
        <time>2019-11-24T08:59:40.000Z</time>
      </trkpt>
      <trkpt lat="47.32529" lon="-2.44739">
        <ele>28</ele>
        <time>2019-11-24T08:59:41.000Z</time>
      </trkpt>
      <trkpt lat="47.32526" lon="-2.44742">
        <ele>27.60000038147</ele>
        <time>2019-11-24T08:59:42.000Z</time>
      </trkpt>
      <trkpt lat="47.3252" lon="-2.44745">
        <ele>27.60000038147</ele>
        <time>2019-11-24T08:59:44.000Z</time>
      </trkpt>
      <trkpt lat="47.32517" lon="-2.44747">
        <ele>27.200000762939</ele>
        <time>2019-11-24T08:59:45.000Z</time>
      </trkpt>
      <trkpt lat="47.32514" lon="-2.44749">
        <ele>26.799999237061</ele>
        <time>2019-11-24T08:59:46.000Z</time>
      </trkpt>
      <trkpt lat="47.32512" lon="-2.4475">
        <ele>26.39999961853</ele>
        <time>2019-11-24T08:59:47.000Z</time>
      </trkpt>
      <trkpt lat="47.32509" lon="-2.44753">
        <ele>26</ele>
        <time>2019-11-24T08:59:48.000Z</time>
      </trkpt>
      <trkpt lat="47.32505" lon="-2.44756">
        <ele>25.60000038147</ele>
        <time>2019-11-24T08:59:49.000Z</time>
      </trkpt>
      <trkpt lat="47.32486" lon="-2.44772">
        <ele>25.200000762939</ele>
        <time>2019-11-24T08:59:53.000Z</time>
      </trkpt>
      <trkpt lat="47.3248" lon="-2.44776">
        <ele>24.60000038147</ele>
        <time>2019-11-24T08:59:54.000Z</time>
      </trkpt>
      <trkpt lat="47.32473" lon="-2.44781">
        <ele>24.200000762939</ele>
        <time>2019-11-24T08:59:55.000Z</time>
      </trkpt>
      <trkpt lat="47.32466" lon="-2.44785">
        <ele>23.799999237061</ele>
        <time>2019-11-24T08:59:56.000Z</time>
      </trkpt>
      <trkpt lat="47.32459" lon="-2.4479">
        <ele>23.39999961853</ele>
        <time>2019-11-24T08:59:57.000Z</time>
      </trkpt>
      <trkpt lat="47.32452" lon="-2.44795">
        <ele>23.39999961853</ele>
        <time>2019-11-24T08:59:58.000Z</time>
      </trkpt>
      <trkpt lat="47.32429" lon="-2.44811">
        <ele>22.799999237061</ele>
        <time>2019-11-24T09:00:01.000Z</time>
      </trkpt>
      <trkpt lat="47.32421" lon="-2.44817">
        <ele>22.39999961853</ele>
        <time>2019-11-24T09:00:02.000Z</time>
      </trkpt>
      <trkpt lat="47.32414" lon="-2.44822">
        <ele>22</ele>
        <time>2019-11-24T09:00:03.000Z</time>
      </trkpt>
      <trkpt lat="47.32407" lon="-2.44827">
        <ele>21.60000038147</ele>
        <time>2019-11-24T09:00:04.000Z</time>
      </trkpt>
      <trkpt lat="47.32399" lon="-2.44832">
        <ele>21.200000762939</ele>
        <time>2019-11-24T09:00:05.000Z</time>
      </trkpt>
      <trkpt lat="47.32385" lon="-2.44842">
        <ele>21.200000762939</ele>
        <time>2019-11-24T09:00:07.000Z</time>
      </trkpt>
      <trkpt lat="47.32377" lon="-2.44848">
        <ele>20.799999237061</ele>
        <time>2019-11-24T09:00:08.000Z</time>
      </trkpt>
      <trkpt lat="47.3237" lon="-2.44853">
        <ele>20.200000762939</ele>
        <time>2019-11-24T09:00:09.000Z</time>
      </trkpt>
      <trkpt lat="47.32363" lon="-2.44859">
        <ele>19.799999237061</ele>
        <time>2019-11-24T09:00:10.000Z</time>
      </trkpt>
      <trkpt lat="47.32357" lon="-2.44865">
        <ele>19.39999961853</ele>
        <time>2019-11-24T09:00:11.000Z</time>
      </trkpt>
      <trkpt lat="47.3235" lon="-2.44871">
        <ele>19</ele>
        <time>2019-11-24T09:00:12.000Z</time>
      </trkpt>
      <trkpt lat="47.32339" lon="-2.44885">
        <ele>19</ele>
        <time>2019-11-24T09:00:14.000Z</time>
      </trkpt>
      <trkpt lat="47.32307" lon="-2.44928">
        <ele>19</ele>
        <time>2019-11-24T09:00:20.000Z</time>
      </trkpt>
      <trkpt lat="47.32279" lon="-2.4496">
        <ele>18.60000038147</ele>
        <time>2019-11-24T09:00:25.000Z</time>
      </trkpt>
      <trkpt lat="47.32274" lon="-2.44967">
        <ele>18.200000762939</ele>
        <time>2019-11-24T09:00:26.000Z</time>
      </trkpt>
      <trkpt lat="47.32268" lon="-2.44973">
        <ele>17.799999237061</ele>
        <time>2019-11-24T09:00:27.000Z</time>
      </trkpt>
      <trkpt lat="47.32262" lon="-2.4498">
        <ele>17.39999961853</ele>
        <time>2019-11-24T09:00:28.000Z</time>
      </trkpt>
      <trkpt lat="47.32256" lon="-2.44986">
        <ele>17</ele>
        <time>2019-11-24T09:00:29.000Z</time>
      </trkpt>
      <trkpt lat="47.32243" lon="-2.45">
        <ele>16.60000038147</ele>
        <time>2019-11-24T09:00:31.000Z</time>
      </trkpt>
      <trkpt lat="47.32236" lon="-2.45008">
        <ele>16.200000762939</ele>
        <time>2019-11-24T09:00:32.000Z</time>
      </trkpt>
      <trkpt lat="47.3223" lon="-2.45015">
        <ele>15.800000190735</ele>
        <time>2019-11-24T09:00:33.000Z</time>
      </trkpt>
      <trkpt lat="47.32224" lon="-2.45021">
        <ele>15</ele>
        <time>2019-11-24T09:00:34.000Z</time>
      </trkpt>
      <trkpt lat="47.3222" lon="-2.45027">
        <ele>14.39999961853</ele>
        <time>2019-11-24T09:00:35.000Z</time>
      </trkpt>
      <trkpt lat="47.32217" lon="-2.45033">
        <ele>13.39999961853</ele>
        <time>2019-11-24T09:00:36.000Z</time>
      </trkpt>
      <trkpt lat="47.32217" lon="-2.45039">
        <ele>12.60000038147</ele>
        <time>2019-11-24T09:00:37.000Z</time>
      </trkpt>
      <trkpt lat="47.32219" lon="-2.45045">
        <ele>11.800000190735</ele>
        <time>2019-11-24T09:00:38.000Z</time>
      </trkpt>
      <trkpt lat="47.32221" lon="-2.4505">
        <ele>11</ele>
        <time>2019-11-24T09:00:39.000Z</time>
      </trkpt>
      <trkpt lat="47.32225" lon="-2.45056">
        <ele>10</ele>
        <time>2019-11-24T09:00:40.000Z</time>
      </trkpt>
      <trkpt lat="47.32227" lon="-2.45062">
        <ele>10</ele>
        <time>2019-11-24T09:00:41.000Z</time>
      </trkpt>
      <trkpt lat="47.32236" lon="-2.4508">
        <ele>10</ele>
        <time>2019-11-24T09:00:44.000Z</time>
      </trkpt>
      <trkpt lat="47.32253" lon="-2.45124">
        <ele>10</ele>
        <time>2019-11-24T09:00:50.000Z</time>
      </trkpt>
      <trkpt lat="47.32261" lon="-2.45149">
        <ele>9.6000003814697</ele>
        <time>2019-11-24T09:00:53.000Z</time>
      </trkpt>
      <trkpt lat="47.32264" lon="-2.45158">
        <ele>9.1999998092651</ele>
        <time>2019-11-24T09:00:54.000Z</time>
      </trkpt>
      <trkpt lat="47.32266" lon="-2.45167">
        <ele>8.8000001907349</ele>
        <time>2019-11-24T09:00:55.000Z</time>
      </trkpt>
      <trkpt lat="47.32268" lon="-2.45177">
        <ele>8.3999996185303</ele>
        <time>2019-11-24T09:00:56.000Z</time>
      </trkpt>
      <trkpt lat="47.3227" lon="-2.45186">
        <ele>8</ele>
        <time>2019-11-24T09:00:57.000Z</time>
      </trkpt>
      <trkpt lat="47.32274" lon="-2.45195">
        <ele>7.5999999046326</ele>
        <time>2019-11-24T09:00:58.000Z</time>
      </trkpt>
      <trkpt lat="47.32278" lon="-2.45205">
        <ele>7</ele>
        <time>2019-11-24T09:00:59.000Z</time>
      </trkpt>
      <trkpt lat="47.32282" lon="-2.45214">
        <ele>6.5999999046326</ele>
        <time>2019-11-24T09:01:00.000Z</time>
      </trkpt>
      <trkpt lat="47.32287" lon="-2.45223">
        <ele>6.1999998092651</ele>
        <time>2019-11-24T09:01:01.000Z</time>
      </trkpt>
      <trkpt lat="47.32291" lon="-2.4523">
        <ele>5.5999999046326</ele>
        <time>2019-11-24T09:01:02.000Z</time>
      </trkpt>
      <trkpt lat="47.32295" lon="-2.45238">
        <ele>5.1999998092651</ele>
        <time>2019-11-24T09:01:03.000Z</time>
      </trkpt>
      <trkpt lat="47.32298" lon="-2.45246">
        <ele>4.5999999046326</ele>
        <time>2019-11-24T09:01:04.000Z</time>
      </trkpt>
      <trkpt lat="47.32301" lon="-2.45252">
        <ele>4.1999998092651</ele>
        <time>2019-11-24T09:01:05.000Z</time>
      </trkpt>
      <trkpt lat="47.32303" lon="-2.45259">
        <ele>3.5999999046326</ele>
        <time>2019-11-24T09:01:06.000Z</time>
      </trkpt>
      <trkpt lat="47.32308" lon="-2.45277">
        <ele>3.5999999046326</ele>
        <time>2019-11-24T09:01:09.000Z</time>
      </trkpt>
      <trkpt lat="47.32311" lon="-2.45289">
        <ele>4</ele>
        <time>2019-11-24T09:01:11.000Z</time>
      </trkpt>
      <trkpt lat="47.32313" lon="-2.45295">
        <ele>4.5999999046326</ele>
        <time>2019-11-24T09:01:12.000Z</time>
      </trkpt>
      <trkpt lat="47.32314" lon="-2.453">
        <ele>5.4000000953674</ele>
        <time>2019-11-24T09:01:13.000Z</time>
      </trkpt>
      <trkpt lat="47.32315" lon="-2.45306">
        <ele>5.8000001907349</ele>
        <time>2019-11-24T09:01:14.000Z</time>
      </trkpt>
      <trkpt lat="47.32317" lon="-2.45319">
        <ele>5.8000001907349</ele>
        <time>2019-11-24T09:01:16.000Z</time>
      </trkpt>
      <trkpt lat="47.32318" lon="-2.45354">
        <ele>5.8000001907349</ele>
        <time>2019-11-24T09:01:21.000Z</time>
      </trkpt>
      <trkpt lat="47.32321" lon="-2.45386">
        <ele>5.8000001907349</ele>
        <time>2019-11-24T09:01:25.000Z</time>
      </trkpt>
      <trkpt lat="47.32321" lon="-2.45397">
        <ele>5.4000000953674</ele>
        <time>2019-11-24T09:01:27.000Z</time>
      </trkpt>
      <trkpt lat="47.32318" lon="-2.45402">
        <ele>5</ele>
        <time>2019-11-24T09:01:28.000Z</time>
      </trkpt>
      <trkpt lat="47.32316" lon="-2.45409">
        <ele>4.5999999046326</ele>
        <time>2019-11-24T09:01:29.000Z</time>
      </trkpt>
      <trkpt lat="47.32316" lon="-2.45417">
        <ele>4.1999998092651</ele>
        <time>2019-11-24T09:01:30.000Z</time>
      </trkpt>
      <trkpt lat="47.32318" lon="-2.45426">
        <ele>3.5999999046326</ele>
        <time>2019-11-24T09:01:31.000Z</time>
      </trkpt>
      <trkpt lat="47.32321" lon="-2.45431">
        <ele>3.5999999046326</ele>
        <time>2019-11-24T09:01:32.000Z</time>
      </trkpt>
      <trkpt lat="47.32325" lon="-2.45437">
        <ele>3.5999999046326</ele>
        <time>2019-11-24T09:01:33.000Z</time>
      </trkpt>
      <trkpt lat="47.32331" lon="-2.45449">
        <ele>3.5999999046326</ele>
        <time>2019-11-24T09:01:35.000Z</time>
      </trkpt>
      <trkpt lat="47.3234" lon="-2.45462">
        <ele>3.5999999046326</ele>
        <time>2019-11-24T09:01:38.000Z</time>
      </trkpt>
      <trkpt lat="47.3235" lon="-2.45479">
        <ele>3.5999999046326</ele>
        <time>2019-11-24T09:01:43.000Z</time>
      </trkpt>
      <trkpt lat="47.32358" lon="-2.45489">
        <ele>3.5999999046326</ele>
        <time>2019-11-24T09:01:49.000Z</time>
      </trkpt>
      <trkpt lat="47.32366" lon="-2.45503">
        <ele>3.5999999046326</ele>
        <time>2019-11-24T09:01:55.000Z</time>
      </trkpt>
      <trkpt lat="47.32378" lon="-2.45519">
        <ele>3.5999999046326</ele>
        <time>2019-11-24T09:02:01.000Z</time>
      </trkpt>
      <trkpt lat="47.32385" lon="-2.4553">
        <ele>3.5999999046326</ele>
        <time>2019-11-24T09:02:06.000Z</time>
      </trkpt>
      <trkpt lat="47.32393" lon="-2.45547">
        <ele>3.5999999046326</ele>
        <time>2019-11-24T09:02:13.000Z</time>
      </trkpt>
      <trkpt lat="47.32403" lon="-2.45563">
        <ele>3.5999999046326</ele>
        <time>2019-11-24T09:02:20.000Z</time>
      </trkpt>
      <trkpt lat="47.32413" lon="-2.45578">
        <ele>3.5999999046326</ele>
        <time>2019-11-24T09:02:26.000Z</time>
      </trkpt>
      <trkpt lat="47.32417" lon="-2.45584">
        <ele>3.5999999046326</ele>
        <time>2019-11-24T09:02:29.000Z</time>
      </trkpt>
      <trkpt lat="47.32417" lon="-2.45591">
        <ele>3.5999999046326</ele>
        <time>2019-11-24T09:02:31.000Z</time>
      </trkpt>
      <trkpt lat="47.32422" lon="-2.4561">
        <ele>3.5999999046326</ele>
        <time>2019-11-24T09:02:38.000Z</time>
      </trkpt>
      <trkpt lat="47.32427" lon="-2.45621">
        <ele>3.5999999046326</ele>
        <time>2019-11-24T09:02:44.000Z</time>
      </trkpt>
      <trkpt lat="47.32431" lon="-2.45629">
        <ele>3.5999999046326</ele>
        <time>2019-11-24T09:02:48.000Z</time>
      </trkpt>
      <trkpt lat="47.32433" lon="-2.45633">
        <ele>3.5999999046326</ele>
        <time>2019-11-24T09:02:50.000Z</time>
      </trkpt>
      <trkpt lat="47.32443" lon="-2.4565">
        <ele>3.5999999046326</ele>
        <time>2019-11-24T09:02:58.000Z</time>
      </trkpt>
      <trkpt lat="47.32456" lon="-2.45667">
        <ele>3.5999999046326</ele>
        <time>2019-11-24T09:03:05.000Z</time>
      </trkpt>
      <trkpt lat="47.32468" lon="-2.45688">
        <ele>3.5999999046326</ele>
        <time>2019-11-24T09:03:11.000Z</time>
      </trkpt>
      <trkpt lat="47.32474" lon="-2.45698">
        <ele>3.2000000476837</ele>
        <time>2019-11-24T09:03:14.000Z</time>
      </trkpt>
      <trkpt lat="47.32476" lon="-2.45702">
        <ele>2.7999999523163</ele>
        <time>2019-11-24T09:03:15.000Z</time>
      </trkpt>
      <trkpt lat="47.32478" lon="-2.45705">
        <ele>2</ele>
        <time>2019-11-24T09:03:16.000Z</time>
      </trkpt>
      <trkpt lat="47.3248" lon="-2.45708">
        <ele>1.6000000238419</ele>
        <time>2019-11-24T09:03:17.000Z</time>
      </trkpt>
      <trkpt lat="47.32484" lon="-2.45715">
        <ele>1.6000000238419</ele>
        <time>2019-11-24T09:03:19.000Z</time>
      </trkpt>
      <trkpt lat="47.32496" lon="-2.45737">
        <ele>1.6000000238419</ele>
        <time>2019-11-24T09:03:26.000Z</time>
      </trkpt>
      <trkpt lat="47.32509" lon="-2.4576">
        <ele>1.6000000238419</ele>
        <time>2019-11-24T09:03:34.000Z</time>
      </trkpt>
      <trkpt lat="47.32519" lon="-2.45779">
        <ele>1.6000000238419</ele>
        <time>2019-11-24T09:03:41.000Z</time>
      </trkpt>
      <trkpt lat="47.32532" lon="-2.458">
        <ele>1.6000000238419</ele>
        <time>2019-11-24T09:03:49.000Z</time>
      </trkpt>
      <trkpt lat="47.3254" lon="-2.45813">
        <ele>1.6000000238419</ele>
        <time>2019-11-24T09:03:55.000Z</time>
      </trkpt>
      <trkpt lat="47.3255" lon="-2.45825">
        <ele>1.6000000238419</ele>
        <time>2019-11-24T09:04:02.000Z</time>
      </trkpt>
      <trkpt lat="47.32557" lon="-2.45836">
        <ele>1.6000000238419</ele>
        <time>2019-11-24T09:04:08.000Z</time>
      </trkpt>
      <trkpt lat="47.32563" lon="-2.4585">
        <ele>1.6000000238419</ele>
        <time>2019-11-24T09:04:14.000Z</time>
      </trkpt>
      <trkpt lat="47.32571" lon="-2.45865">
        <ele>1.6000000238419</ele>
        <time>2019-11-24T09:04:21.000Z</time>
      </trkpt>
      <trkpt lat="47.32576" lon="-2.45872">
        <ele>1.6000000238419</ele>
        <time>2019-11-24T09:04:27.000Z</time>
      </trkpt>
      <trkpt lat="47.32578" lon="-2.45876">
        <ele>1.6000000238419</ele>
        <time>2019-11-24T09:04:35.000Z</time>
      </trkpt>
      <trkpt lat="47.32583" lon="-2.45883">
        <ele>1.6000000238419</ele>
        <time>2019-11-24T09:04:38.000Z</time>
      </trkpt>
      <trkpt lat="47.32601" lon="-2.45905">
        <ele>1.6000000238419</ele>
        <time>2019-11-24T09:04:45.000Z</time>
      </trkpt>
      <trkpt lat="47.32619" lon="-2.4593">
        <ele>1.6000000238419</ele>
        <time>2019-11-24T09:04:51.000Z</time>
      </trkpt>
      <trkpt lat="47.32635" lon="-2.45957">
        <ele>1.6000000238419</ele>
        <time>2019-11-24T09:04:58.000Z</time>
      </trkpt>
      <trkpt lat="47.32654" lon="-2.45975">
        <ele>1.6000000238419</ele>
        <time>2019-11-24T09:05:04.000Z</time>
      </trkpt>
      <trkpt lat="47.32666" lon="-2.45985">
        <ele>1.6000000238419</ele>
        <time>2019-11-24T09:05:09.000Z</time>
      </trkpt>
      <trkpt lat="47.32676" lon="-2.45992">
        <ele>1.6000000238419</ele>
        <time>2019-11-24T09:05:14.000Z</time>
      </trkpt>
      <trkpt lat="47.32684" lon="-2.46003">
        <ele>1.6000000238419</ele>
        <time>2019-11-24T09:05:19.000Z</time>
      </trkpt>
      <trkpt lat="47.32688" lon="-2.46014">
        <ele>1.6000000238419</ele>
        <time>2019-11-24T09:05:23.000Z</time>
      </trkpt>
      <trkpt lat="47.3269" lon="-2.46016">
        <ele>1.6000000238419</ele>
        <time>2019-11-24T09:05:24.000Z</time>
      </trkpt>
      <trkpt lat="47.327" lon="-2.46029">
        <ele>1.6000000238419</ele>
        <time>2019-11-24T09:05:30.000Z</time>
      </trkpt>
      <trkpt lat="47.32709" lon="-2.46044">
        <ele>1.6000000238419</ele>
        <time>2019-11-24T09:05:36.000Z</time>
      </trkpt>
      <trkpt lat="47.32711" lon="-2.46045">
        <ele>2</ele>
        <time>2019-11-24T09:05:37.000Z</time>
      </trkpt>
      <trkpt lat="47.32713" lon="-2.46046">
        <ele>2.4000000953674</ele>
        <time>2019-11-24T09:05:38.000Z</time>
      </trkpt>
      <trkpt lat="47.32714" lon="-2.46048">
        <ele>2.7999999523163</ele>
        <time>2019-11-24T09:05:39.000Z</time>
      </trkpt>
      <trkpt lat="47.32715" lon="-2.46049">
        <ele>3.2000000476837</ele>
        <time>2019-11-24T09:05:40.000Z</time>
      </trkpt>
      <trkpt lat="47.32716" lon="-2.46052">
        <ele>3.5999999046326</ele>
        <time>2019-11-24T09:05:41.000Z</time>
      </trkpt>
      <trkpt lat="47.32721" lon="-2.46057">
        <ele>3.5999999046326</ele>
        <time>2019-11-24T09:05:45.000Z</time>
      </trkpt>
      <trkpt lat="47.32723" lon="-2.4606">
        <ele>3.5999999046326</ele>
        <time>2019-11-24T09:05:47.000Z</time>
      </trkpt>
      <trkpt lat="47.32729" lon="-2.46066">
        <ele>3.5999999046326</ele>
        <time>2019-11-24T09:05:51.000Z</time>
      </trkpt>
      <trkpt lat="47.3273" lon="-2.46067">
        <ele>3.5999999046326</ele>
        <time>2019-11-24T09:05:52.000Z</time>
      </trkpt>
      <trkpt lat="47.32739" lon="-2.46077">
        <ele>3.5999999046326</ele>
        <time>2019-11-24T09:05:58.000Z</time>
      </trkpt>
      <trkpt lat="47.32748" lon="-2.46089">
        <ele>3.5999999046326</ele>
        <time>2019-11-24T09:06:04.000Z</time>
      </trkpt>
      <trkpt lat="47.32753" lon="-2.46098">
        <ele>3.5999999046326</ele>
        <time>2019-11-24T09:06:09.000Z</time>
      </trkpt>
      <trkpt lat="47.32757" lon="-2.46105">
        <ele>5.5999999046326</ele>
        <time>2019-11-24T09:06:19.000Z</time>
      </trkpt>
      <trkpt lat="47.32759" lon="-2.46111">
        <ele>5.5999999046326</ele>
        <time>2019-11-24T09:06:22.000Z</time>
      </trkpt>
      <trkpt lat="47.32761" lon="-2.46117">
        <ele>5.5999999046326</ele>
        <time>2019-11-24T09:06:24.000Z</time>
      </trkpt>
      <trkpt lat="47.32765" lon="-2.46128">
        <ele>5.5999999046326</ele>
        <time>2019-11-24T09:06:27.000Z</time>
      </trkpt>
      <trkpt lat="47.32769" lon="-2.46138">
        <ele>6</ele>
        <time>2019-11-24T09:06:30.000Z</time>
      </trkpt>
      <trkpt lat="47.32771" lon="-2.46144">
        <ele>6.4000000953674</ele>
        <time>2019-11-24T09:06:31.000Z</time>
      </trkpt>
      <trkpt lat="47.32772" lon="-2.46149">
        <ele>6.8000001907349</ele>
        <time>2019-11-24T09:06:32.000Z</time>
      </trkpt>
      <trkpt lat="47.32773" lon="-2.46152">
        <ele>7.1999998092651</ele>
        <time>2019-11-24T09:06:33.000Z</time>
      </trkpt>
      <trkpt lat="47.32776" lon="-2.46155">
        <ele>7.5999999046326</ele>
        <time>2019-11-24T09:06:34.000Z</time>
      </trkpt>
      <trkpt lat="47.32784" lon="-2.46164">
        <ele>7.5999999046326</ele>
        <time>2019-11-24T09:06:38.000Z</time>
      </trkpt>
      <trkpt lat="47.32791" lon="-2.46172">
        <ele>7.5999999046326</ele>
        <time>2019-11-24T09:06:43.000Z</time>
      </trkpt>
      <trkpt lat="47.32803" lon="-2.46182">
        <ele>7.5999999046326</ele>
        <time>2019-11-24T09:06:48.000Z</time>
      </trkpt>
      <trkpt lat="47.32817" lon="-2.4619">
        <ele>8</ele>
        <time>2019-11-24T09:06:52.000Z</time>
      </trkpt>
      <trkpt lat="47.3282" lon="-2.4619">
        <ele>8.3999996185303</ele>
        <time>2019-11-24T09:06:53.000Z</time>
      </trkpt>
      <trkpt lat="47.32824" lon="-2.4619">
        <ele>8.8000001907349</ele>
        <time>2019-11-24T09:06:54.000Z</time>
      </trkpt>
      <trkpt lat="47.32827" lon="-2.46189">
        <ele>9.3999996185303</ele>
        <time>2019-11-24T09:06:55.000Z</time>
      </trkpt>
      <trkpt lat="47.3283" lon="-2.46187">
        <ele>9.8000001907349</ele>
        <time>2019-11-24T09:06:56.000Z</time>
      </trkpt>
      <trkpt lat="47.32839" lon="-2.46183">
        <ele>9.8000001907349</ele>
        <time>2019-11-24T09:06:59.000Z</time>
      </trkpt>
      <trkpt lat="47.3285" lon="-2.46178">
        <ele>10.199999809265</ele>
        <time>2019-11-24T09:07:03.000Z</time>
      </trkpt>
      <trkpt lat="47.32853" lon="-2.46177">
        <ele>10.60000038147</ele>
        <time>2019-11-24T09:07:04.000Z</time>
      </trkpt>
      <trkpt lat="47.32855" lon="-2.46176">
        <ele>11</ele>
        <time>2019-11-24T09:07:05.000Z</time>
      </trkpt>
      <trkpt lat="47.32858" lon="-2.46174">
        <ele>11.39999961853</ele>
        <time>2019-11-24T09:07:06.000Z</time>
      </trkpt>
      <trkpt lat="47.3286" lon="-2.46173">
        <ele>11.800000190735</ele>
        <time>2019-11-24T09:07:07.000Z</time>
      </trkpt>
      <trkpt lat="47.32872" lon="-2.46166">
        <ele>12.199999809265</ele>
        <time>2019-11-24T09:07:12.000Z</time>
      </trkpt>
      <trkpt lat="47.32875" lon="-2.46164">
        <ele>12.800000190735</ele>
        <time>2019-11-24T09:07:13.000Z</time>
      </trkpt>
      <trkpt lat="47.32877" lon="-2.46162">
        <ele>13.199999809265</ele>
        <time>2019-11-24T09:07:14.000Z</time>
      </trkpt>
      <trkpt lat="47.32879" lon="-2.46161">
        <ele>13.60000038147</ele>
        <time>2019-11-24T09:07:15.000Z</time>
      </trkpt>
      <trkpt lat="47.32882" lon="-2.4616">
        <ele>14</ele>
        <time>2019-11-24T09:07:16.000Z</time>
      </trkpt>
      <trkpt lat="47.32891" lon="-2.46154">
        <ele>14</ele>
        <time>2019-11-24T09:07:20.000Z</time>
      </trkpt>
      <trkpt lat="47.32899" lon="-2.46152">
        <ele>14.800000190735</ele>
        <time>2019-11-24T09:07:24.000Z</time>
      </trkpt>
      <trkpt lat="47.32901" lon="-2.46153">
        <ele>15.199999809265</ele>
        <time>2019-11-24T09:07:25.000Z</time>
      </trkpt>
      <trkpt lat="47.32903" lon="-2.46155">
        <ele>15.60000038147</ele>
        <time>2019-11-24T09:07:26.000Z</time>
      </trkpt>
      <trkpt lat="47.32905" lon="-2.46159">
        <ele>16.200000762939</ele>
        <time>2019-11-24T09:07:27.000Z</time>
      </trkpt>
      <trkpt lat="47.32909" lon="-2.46167">
        <ele>16.200000762939</ele>
        <time>2019-11-24T09:07:29.000Z</time>
      </trkpt>
      <trkpt lat="47.32921" lon="-2.46206">
        <ele>16.200000762939</ele>
        <time>2019-11-24T09:07:36.000Z</time>
      </trkpt>
      <trkpt lat="47.32935" lon="-2.46256">
        <ele>16.200000762939</ele>
        <time>2019-11-24T09:07:44.000Z</time>
      </trkpt>
      <trkpt lat="47.32947" lon="-2.46302">
        <ele>16.200000762939</ele>
        <time>2019-11-24T09:07:52.000Z</time>
      </trkpt>
      <trkpt lat="47.32949" lon="-2.46308">
        <ele>16.200000762939</ele>
        <time>2019-11-24T09:07:53.000Z</time>
      </trkpt>
      <trkpt lat="47.32958" lon="-2.46337">
        <ele>16.200000762939</ele>
        <time>2019-11-24T09:07:57.000Z</time>
      </trkpt>
      <trkpt lat="47.3296" lon="-2.46345">
        <ele>15.60000038147</ele>
        <time>2019-11-24T09:07:58.000Z</time>
      </trkpt>
      <trkpt lat="47.32962" lon="-2.46353">
        <ele>15.199999809265</ele>
        <time>2019-11-24T09:07:59.000Z</time>
      </trkpt>
      <trkpt lat="47.32963" lon="-2.46361">
        <ele>14.800000190735</ele>
        <time>2019-11-24T09:08:00.000Z</time>
      </trkpt>
      <trkpt lat="47.32964" lon="-2.4637">
        <ele>14.39999961853</ele>
        <time>2019-11-24T09:08:01.000Z</time>
      </trkpt>
      <trkpt lat="47.32965" lon="-2.4638">
        <ele>14</ele>
        <time>2019-11-24T09:08:02.000Z</time>
      </trkpt>
      <trkpt lat="47.32965" lon="-2.4639">
        <ele>13.60000038147</ele>
        <time>2019-11-24T09:08:03.000Z</time>
      </trkpt>
      <trkpt lat="47.32966" lon="-2.46402">
        <ele>13.199999809265</ele>
        <time>2019-11-24T09:08:04.000Z</time>
      </trkpt>
      <trkpt lat="47.32966" lon="-2.46414">
        <ele>12.60000038147</ele>
        <time>2019-11-24T09:08:05.000Z</time>
      </trkpt>
      <trkpt lat="47.32966" lon="-2.46426">
        <ele>12.199999809265</ele>
        <time>2019-11-24T09:08:06.000Z</time>
      </trkpt>
      <trkpt lat="47.32965" lon="-2.4644">
        <ele>11.60000038147</ele>
        <time>2019-11-24T09:08:07.000Z</time>
      </trkpt>
      <trkpt lat="47.32965" lon="-2.46454">
        <ele>11</ele>
        <time>2019-11-24T09:08:08.000Z</time>
      </trkpt>
      <trkpt lat="47.32963" lon="-2.46468">
        <ele>10.39999961853</ele>
        <time>2019-11-24T09:08:09.000Z</time>
      </trkpt>
      <trkpt lat="47.32963" lon="-2.46482">
        <ele>9.6000003814697</ele>
        <time>2019-11-24T09:08:10.000Z</time>
      </trkpt>
      <trkpt lat="47.32963" lon="-2.46496">
        <ele>8.8000001907349</ele>
        <time>2019-11-24T09:08:11.000Z</time>
      </trkpt>
      <trkpt lat="47.32962" lon="-2.46509">
        <ele>8</ele>
        <time>2019-11-24T09:08:12.000Z</time>
      </trkpt>
      <trkpt lat="47.32961" lon="-2.4652">
        <ele>6.4000000953674</ele>
        <time>2019-11-24T09:08:13.000Z</time>
      </trkpt>
      <trkpt lat="47.3296" lon="-2.46532">
        <ele>5.5999999046326</ele>
        <time>2019-11-24T09:08:14.000Z</time>
      </trkpt>
      <trkpt lat="47.32959" lon="-2.46542">
        <ele>4.8000001907349</ele>
        <time>2019-11-24T09:08:15.000Z</time>
      </trkpt>
      <trkpt lat="47.32958" lon="-2.46551">
        <ele>4.1999998092651</ele>
        <time>2019-11-24T09:08:16.000Z</time>
      </trkpt>
      <trkpt lat="47.3296" lon="-2.46559">
        <ele>3.5999999046326</ele>
        <time>2019-11-24T09:08:17.000Z</time>
      </trkpt>
      <trkpt lat="47.32963" lon="-2.46563">
        <ele>3</ele>
        <time>2019-11-24T09:08:18.000Z</time>
      </trkpt>
      <trkpt lat="47.32968" lon="-2.46565">
        <ele>2.4000000953674</ele>
        <time>2019-11-24T09:08:19.000Z</time>
      </trkpt>
      <trkpt lat="47.32971" lon="-2.46564">
        <ele>1.7999999523163</ele>
        <time>2019-11-24T09:08:20.000Z</time>
      </trkpt>
      <trkpt lat="47.32981" lon="-2.46558">
        <ele>1.7999999523163</ele>
        <time>2019-11-24T09:08:23.000Z</time>
      </trkpt>
      <trkpt lat="47.32988" lon="-2.46555">
        <ele>1.7999999523163</ele>
        <time>2019-11-24T09:08:25.000Z</time>
      </trkpt>
      <trkpt lat="47.32991" lon="-2.46554">
        <ele>2.2000000476837</ele>
        <time>2019-11-24T09:08:26.000Z</time>
      </trkpt>
      <trkpt lat="47.32994" lon="-2.46553">
        <ele>2.7999999523163</ele>
        <time>2019-11-24T09:08:27.000Z</time>
      </trkpt>
      <trkpt lat="47.32997" lon="-2.46551">
        <ele>3.2000000476837</ele>
        <time>2019-11-24T09:08:28.000Z</time>
      </trkpt>
      <trkpt lat="47.33001" lon="-2.4655">
        <ele>3.5999999046326</ele>
        <time>2019-11-24T09:08:29.000Z</time>
      </trkpt>
      <trkpt lat="47.33004" lon="-2.46548">
        <ele>4</ele>
        <time>2019-11-24T09:08:30.000Z</time>
      </trkpt>
      <trkpt lat="47.3301" lon="-2.46545">
        <ele>4</ele>
        <time>2019-11-24T09:08:32.000Z</time>
      </trkpt>
      <trkpt lat="47.33013" lon="-2.46544">
        <ele>4.4000000953674</ele>
        <time>2019-11-24T09:08:33.000Z</time>
      </trkpt>
      <trkpt lat="47.33017" lon="-2.46542">
        <ele>4.8000001907349</ele>
        <time>2019-11-24T09:08:34.000Z</time>
      </trkpt>
      <trkpt lat="47.3302" lon="-2.46541">
        <ele>5.1999998092651</ele>
        <time>2019-11-24T09:08:35.000Z</time>
      </trkpt>
      <trkpt lat="47.33023" lon="-2.46539">
        <ele>5.5999999046326</ele>
        <time>2019-11-24T09:08:36.000Z</time>
      </trkpt>
      <trkpt lat="47.33026" lon="-2.46538">
        <ele>6.1999998092651</ele>
        <time>2019-11-24T09:08:37.000Z</time>
      </trkpt>
      <trkpt lat="47.33034" lon="-2.46538">
        <ele>6.1999998092651</ele>
        <time>2019-11-24T09:08:39.000Z</time>
      </trkpt>
      <trkpt lat="47.33051" lon="-2.46534">
        <ele>6.1999998092651</ele>
        <time>2019-11-24T09:08:44.000Z</time>
      </trkpt>
      <trkpt lat="47.33061" lon="-2.4653">
        <ele>6.5999999046326</ele>
        <time>2019-11-24T09:08:47.000Z</time>
      </trkpt>
      <trkpt lat="47.33063" lon="-2.46528">
        <ele>7</ele>
        <time>2019-11-24T09:08:48.000Z</time>
      </trkpt>
      <trkpt lat="47.33066" lon="-2.46527">
        <ele>7.4000000953674</ele>
        <time>2019-11-24T09:08:49.000Z</time>
      </trkpt>
      <trkpt lat="47.33069" lon="-2.46526">
        <ele>7.8000001907349</ele>
        <time>2019-11-24T09:08:50.000Z</time>
      </trkpt>
      <trkpt lat="47.33072" lon="-2.46525">
        <ele>8.1999998092651</ele>
        <time>2019-11-24T09:08:51.000Z</time>
      </trkpt>
      <trkpt lat="47.33087" lon="-2.46518">
        <ele>8.6000003814697</ele>
        <time>2019-11-24T09:08:57.000Z</time>
      </trkpt>
      <trkpt lat="47.3309" lon="-2.46517">
        <ele>9</ele>
        <time>2019-11-24T09:08:58.000Z</time>
      </trkpt>
      <trkpt lat="47.33093" lon="-2.46515">
        <ele>9.3999996185303</ele>
        <time>2019-11-24T09:08:59.000Z</time>
      </trkpt>
      <trkpt lat="47.33096" lon="-2.46513">
        <ele>9.8000001907349</ele>
        <time>2019-11-24T09:09:00.000Z</time>
      </trkpt>
      <trkpt lat="47.33099" lon="-2.46512">
        <ele>10.199999809265</ele>
        <time>2019-11-24T09:09:01.000Z</time>
      </trkpt>
      <trkpt lat="47.33106" lon="-2.46507">
        <ele>10.60000038147</ele>
        <time>2019-11-24T09:09:04.000Z</time>
      </trkpt>
      <trkpt lat="47.33108" lon="-2.46505">
        <ele>11.199999809265</ele>
        <time>2019-11-24T09:09:05.000Z</time>
      </trkpt>
      <trkpt lat="47.3311" lon="-2.46503">
        <ele>11.60000038147</ele>
        <time>2019-11-24T09:09:06.000Z</time>
      </trkpt>
      <trkpt lat="47.33113" lon="-2.46502">
        <ele>12</ele>
        <time>2019-11-24T09:09:07.000Z</time>
      </trkpt>
      <trkpt lat="47.33115" lon="-2.465">
        <ele>12.39999961853</ele>
        <time>2019-11-24T09:09:08.000Z</time>
      </trkpt>
      <trkpt lat="47.33123" lon="-2.46498">
        <ele>12.39999961853</ele>
        <time>2019-11-24T09:09:11.000Z</time>
      </trkpt>
      <trkpt lat="47.33137" lon="-2.46494">
        <ele>12.800000190735</ele>
        <time>2019-11-24T09:09:16.000Z</time>
      </trkpt>
      <trkpt lat="47.3314" lon="-2.46494">
        <ele>13.199999809265</ele>
        <time>2019-11-24T09:09:17.000Z</time>
      </trkpt>
      <trkpt lat="47.33143" lon="-2.46494">
        <ele>13.60000038147</ele>
        <time>2019-11-24T09:09:18.000Z</time>
      </trkpt>
      <trkpt lat="47.33146" lon="-2.46494">
        <ele>14</ele>
        <time>2019-11-24T09:09:19.000Z</time>
      </trkpt>
      <trkpt lat="47.33149" lon="-2.46493">
        <ele>14.39999961853</ele>
        <time>2019-11-24T09:09:20.000Z</time>
      </trkpt>
      <trkpt lat="47.33158" lon="-2.46491">
        <ele>14.39999961853</ele>
        <time>2019-11-24T09:09:23.000Z</time>
      </trkpt>
      <trkpt lat="47.33173" lon="-2.46485">
        <ele>15</ele>
        <time>2019-11-24T09:09:29.000Z</time>
      </trkpt>
      <trkpt lat="47.33175" lon="-2.46484">
        <ele>15.39999961853</ele>
        <time>2019-11-24T09:09:30.000Z</time>
      </trkpt>
      <trkpt lat="47.33178" lon="-2.46482">
        <ele>15.800000190735</ele>
        <time>2019-11-24T09:09:31.000Z</time>
      </trkpt>
      <trkpt lat="47.3318" lon="-2.46481">
        <ele>16.200000762939</ele>
        <time>2019-11-24T09:09:32.000Z</time>
      </trkpt>
      <trkpt lat="47.33182" lon="-2.4648">
        <ele>16.60000038147</ele>
        <time>2019-11-24T09:09:33.000Z</time>
      </trkpt>
      <trkpt lat="47.33189" lon="-2.46476">
        <ele>16.60000038147</ele>
        <time>2019-11-24T09:09:37.000Z</time>
      </trkpt>
      <trkpt lat="47.33194" lon="-2.46475">
        <ele>17</ele>
        <time>2019-11-24T09:09:40.000Z</time>
      </trkpt>
      <trkpt lat="47.33196" lon="-2.46475">
        <ele>17.39999961853</ele>
        <time>2019-11-24T09:09:41.000Z</time>
      </trkpt>
      <trkpt lat="47.33198" lon="-2.46475">
        <ele>17.799999237061</ele>
        <time>2019-11-24T09:09:42.000Z</time>
      </trkpt>
      <trkpt lat="47.332" lon="-2.46475">
        <ele>18.200000762939</ele>
        <time>2019-11-24T09:09:43.000Z</time>
      </trkpt>
      <trkpt lat="47.33202" lon="-2.46475">
        <ele>18.799999237061</ele>
        <time>2019-11-24T09:09:44.000Z</time>
      </trkpt>
      <trkpt lat="47.33211" lon="-2.46475">
        <ele>18.799999237061</ele>
        <time>2019-11-24T09:09:48.000Z</time>
      </trkpt>
      <trkpt lat="47.33216" lon="-2.46472">
        <ele>19.200000762939</ele>
        <time>2019-11-24T09:09:51.000Z</time>
      </trkpt>
      <trkpt lat="47.33218" lon="-2.46472">
        <ele>20</ele>
        <time>2019-11-24T09:09:52.000Z</time>
      </trkpt>
      <trkpt lat="47.3322" lon="-2.46471">
        <ele>20.39999961853</ele>
        <time>2019-11-24T09:09:53.000Z</time>
      </trkpt>
      <trkpt lat="47.33222" lon="-2.4647">
        <ele>20.799999237061</ele>
        <time>2019-11-24T09:09:54.000Z</time>
      </trkpt>
      <trkpt lat="47.33228" lon="-2.46461">
        <ele>20.799999237061</ele>
        <time>2019-11-24T09:09:58.000Z</time>
      </trkpt>
      <trkpt lat="47.33234" lon="-2.4645">
        <ele>21.200000762939</ele>
        <time>2019-11-24T09:10:02.000Z</time>
      </trkpt>
      <trkpt lat="47.33235" lon="-2.46448">
        <ele>21.799999237061</ele>
        <time>2019-11-24T09:10:03.000Z</time>
      </trkpt>
      <trkpt lat="47.33236" lon="-2.46445">
        <ele>22.200000762939</ele>
        <time>2019-11-24T09:10:04.000Z</time>
      </trkpt>
      <trkpt lat="47.33238" lon="-2.46442">
        <ele>22.60000038147</ele>
        <time>2019-11-24T09:10:05.000Z</time>
      </trkpt>
      <trkpt lat="47.33239" lon="-2.4644">
        <ele>23</ele>
        <time>2019-11-24T09:10:06.000Z</time>
      </trkpt>
      <trkpt lat="47.33249" lon="-2.46432">
        <ele>23</ele>
        <time>2019-11-24T09:10:11.000Z</time>
      </trkpt>
      <trkpt lat="47.3326" lon="-2.46431">
        <ele>23.39999961853</ele>
        <time>2019-11-24T09:10:16.000Z</time>
      </trkpt>
      <trkpt lat="47.33262" lon="-2.46431">
        <ele>24.200000762939</ele>
        <time>2019-11-24T09:10:17.000Z</time>
      </trkpt>
      <trkpt lat="47.33265" lon="-2.46431">
        <ele>24.60000038147</ele>
        <time>2019-11-24T09:10:18.000Z</time>
      </trkpt>
      <trkpt lat="47.33268" lon="-2.46432">
        <ele>25.200000762939</ele>
        <time>2019-11-24T09:10:19.000Z</time>
      </trkpt>
      <trkpt lat="47.33276" lon="-2.46439">
        <ele>25.200000762939</ele>
        <time>2019-11-24T09:10:23.000Z</time>
      </trkpt>
      <trkpt lat="47.33283" lon="-2.46457">
        <ele>25.200000762939</ele>
        <time>2019-11-24T09:10:28.000Z</time>
      </trkpt>
      <trkpt lat="47.33288" lon="-2.46494">
        <ele>25.200000762939</ele>
        <time>2019-11-24T09:10:33.000Z</time>
      </trkpt>
      <trkpt lat="47.33292" lon="-2.46537">
        <ele>25.200000762939</ele>
        <time>2019-11-24T09:10:41.000Z</time>
      </trkpt>
      <trkpt lat="47.33294" lon="-2.46555">
        <ele>24.60000038147</ele>
        <time>2019-11-24T09:10:43.000Z</time>
      </trkpt>
      <trkpt lat="47.33296" lon="-2.46564">
        <ele>24.200000762939</ele>
        <time>2019-11-24T09:10:44.000Z</time>
      </trkpt>
      <trkpt lat="47.33297" lon="-2.46573">
        <ele>23.799999237061</ele>
        <time>2019-11-24T09:10:45.000Z</time>
      </trkpt>
      <trkpt lat="47.33299" lon="-2.46582">
        <ele>23.39999961853</ele>
        <time>2019-11-24T09:10:46.000Z</time>
      </trkpt>
      <trkpt lat="47.33301" lon="-2.4659">
        <ele>23</ele>
        <time>2019-11-24T09:10:47.000Z</time>
      </trkpt>
      <trkpt lat="47.33305" lon="-2.46597">
        <ele>23</ele>
        <time>2019-11-24T09:10:48.000Z</time>
      </trkpt>
      <trkpt lat="47.33316" lon="-2.46614">
        <ele>23</ele>
        <time>2019-11-24T09:10:51.000Z</time>
      </trkpt>
      <trkpt lat="47.3332" lon="-2.46618">
        <ele>23</ele>
        <time>2019-11-24T09:10:52.000Z</time>
      </trkpt>
      <trkpt lat="47.33331" lon="-2.4664">
        <ele>23</ele>
        <time>2019-11-24T09:10:57.000Z</time>
      </trkpt>
      <trkpt lat="47.3333" lon="-2.46642">
        <ele>22.60000038147</ele>
        <time>2019-11-24T09:10:58.000Z</time>
      </trkpt>
      <trkpt lat="47.33329" lon="-2.46646">
        <ele>22.200000762939</ele>
        <time>2019-11-24T09:10:59.000Z</time>
      </trkpt>
      <trkpt lat="47.33328" lon="-2.4665">
        <ele>21.799999237061</ele>
        <time>2019-11-24T09:11:00.000Z</time>
      </trkpt>
      <trkpt lat="47.33329" lon="-2.46653">
        <ele>21.39999961853</ele>
        <time>2019-11-24T09:11:01.000Z</time>
      </trkpt>
      <trkpt lat="47.3333" lon="-2.46655">
        <ele>21</ele>
        <time>2019-11-24T09:11:02.000Z</time>
      </trkpt>
      <trkpt lat="47.33335" lon="-2.46656">
        <ele>21</ele>
        <time>2019-11-24T09:11:05.000Z</time>
      </trkpt>
      <trkpt lat="47.33337" lon="-2.46655">
        <ele>21</ele>
        <time>2019-11-24T09:11:06.000Z</time>
      </trkpt>
      <trkpt lat="47.33349" lon="-2.46652">
        <ele>21</ele>
        <time>2019-11-24T09:11:12.000Z</time>
      </trkpt>
      <trkpt lat="47.33362" lon="-2.46645">
        <ele>21</ele>
        <time>2019-11-24T09:11:19.000Z</time>
      </trkpt>
      <trkpt lat="47.33371" lon="-2.46638">
        <ele>21</ele>
        <time>2019-11-24T09:11:24.000Z</time>
      </trkpt>
      <trkpt lat="47.33382" lon="-2.46623">
        <ele>21</ele>
        <time>2019-11-24T09:11:31.000Z</time>
      </trkpt>
      <trkpt lat="47.33384" lon="-2.4662">
        <ele>21.39999961853</ele>
        <time>2019-11-24T09:11:32.000Z</time>
      </trkpt>
      <trkpt lat="47.33386" lon="-2.46618">
        <ele>21.799999237061</ele>
        <time>2019-11-24T09:11:33.000Z</time>
      </trkpt>
      <trkpt lat="47.33388" lon="-2.46616">
        <ele>22.200000762939</ele>
        <time>2019-11-24T09:11:34.000Z</time>
      </trkpt>
      <trkpt lat="47.3339" lon="-2.46614">
        <ele>22.60000038147</ele>
        <time>2019-11-24T09:11:35.000Z</time>
      </trkpt>
      <trkpt lat="47.33392" lon="-2.46612">
        <ele>23</ele>
        <time>2019-11-24T09:11:36.000Z</time>
      </trkpt>
      <trkpt lat="47.33394" lon="-2.4661">
        <ele>23</ele>
        <time>2019-11-24T09:11:37.000Z</time>
      </trkpt>
      <trkpt lat="47.33407" lon="-2.46598">
        <ele>23</ele>
        <time>2019-11-24T09:11:43.000Z</time>
      </trkpt>
      <trkpt lat="47.33411" lon="-2.46595">
        <ele>23.39999961853</ele>
        <time>2019-11-24T09:11:45.000Z</time>
      </trkpt>
      <trkpt lat="47.33414" lon="-2.46593">
        <ele>23.799999237061</ele>
        <time>2019-11-24T09:11:46.000Z</time>
      </trkpt>
      <trkpt lat="47.33416" lon="-2.46591">
        <ele>24.200000762939</ele>
        <time>2019-11-24T09:11:47.000Z</time>
      </trkpt>
      <trkpt lat="47.33418" lon="-2.4659">
        <ele>24.799999237061</ele>
        <time>2019-11-24T09:11:48.000Z</time>
      </trkpt>
      <trkpt lat="47.33421" lon="-2.46588">
        <ele>25.200000762939</ele>
        <time>2019-11-24T09:11:49.000Z</time>
      </trkpt>
      <trkpt lat="47.33423" lon="-2.46587">
        <ele>25.200000762939</ele>
        <time>2019-11-24T09:11:50.000Z</time>
      </trkpt>
      <trkpt lat="47.33441" lon="-2.46579">
        <ele>26</ele>
        <time>2019-11-24T09:11:56.000Z</time>
      </trkpt>
      <trkpt lat="47.33443" lon="-2.46577">
        <ele>26.39999961853</ele>
        <time>2019-11-24T09:11:57.000Z</time>
      </trkpt>
      <trkpt lat="47.33446" lon="-2.46574">
        <ele>26.799999237061</ele>
        <time>2019-11-24T09:11:58.000Z</time>
      </trkpt>
      <trkpt lat="47.33449" lon="-2.46572">
        <ele>27.39999961853</ele>
        <time>2019-11-24T09:11:59.000Z</time>
      </trkpt>
      <trkpt lat="47.33451" lon="-2.4657">
        <ele>27.39999961853</ele>
        <time>2019-11-24T09:12:00.000Z</time>
      </trkpt>
      <trkpt lat="47.33461" lon="-2.46558">
        <ele>27.39999961853</ele>
        <time>2019-11-24T09:12:05.000Z</time>
      </trkpt>
      <trkpt lat="47.33462" lon="-2.46555">
        <ele>27.799999237061</ele>
        <time>2019-11-24T09:12:06.000Z</time>
      </trkpt>
      <trkpt lat="47.33464" lon="-2.46553">
        <ele>28.200000762939</ele>
        <time>2019-11-24T09:12:07.000Z</time>
      </trkpt>
      <trkpt lat="47.33465" lon="-2.46551">
        <ele>28.60000038147</ele>
        <time>2019-11-24T09:12:08.000Z</time>
      </trkpt>
      <trkpt lat="47.33468" lon="-2.46549">
        <ele>29</ele>
        <time>2019-11-24T09:12:09.000Z</time>
      </trkpt>
      <trkpt lat="47.3347" lon="-2.46547">
        <ele>29.39999961853</ele>
        <time>2019-11-24T09:12:10.000Z</time>
      </trkpt>
      <trkpt lat="47.33473" lon="-2.46543">
        <ele>29.39999961853</ele>
        <time>2019-11-24T09:12:12.000Z</time>
      </trkpt>
      <trkpt lat="47.33487" lon="-2.46525">
        <ele>29.39999961853</ele>
        <time>2019-11-24T09:12:18.000Z</time>
      </trkpt>
      <trkpt lat="47.33493" lon="-2.46517">
        <ele>30.200000762939</ele>
        <time>2019-11-24T09:12:21.000Z</time>
      </trkpt>
      <trkpt lat="47.33495" lon="-2.46514">
        <ele>30.60000038147</ele>
        <time>2019-11-24T09:12:22.000Z</time>
      </trkpt>
      <trkpt lat="47.33497" lon="-2.46512">
        <ele>31</ele>
        <time>2019-11-24T09:12:23.000Z</time>
      </trkpt>
      <trkpt lat="47.33499" lon="-2.4651">
        <ele>31.39999961853</ele>
        <time>2019-11-24T09:12:24.000Z</time>
      </trkpt>
      <trkpt lat="47.33512" lon="-2.465">
        <ele>31.39999961853</ele>
        <time>2019-11-24T09:12:29.000Z</time>
      </trkpt>
      <trkpt lat="47.33518" lon="-2.46494">
        <ele>31.799999237061</ele>
        <time>2019-11-24T09:12:32.000Z</time>
      </trkpt>
      <trkpt lat="47.3352" lon="-2.46493">
        <ele>32.200000762939</ele>
        <time>2019-11-24T09:12:33.000Z</time>
      </trkpt>
      <trkpt lat="47.33522" lon="-2.46492">
        <ele>32.599998474121</ele>
        <time>2019-11-24T09:12:34.000Z</time>
      </trkpt>
      <trkpt lat="47.33523" lon="-2.46492">
        <ele>33</ele>
        <time>2019-11-24T09:12:35.000Z</time>
      </trkpt>
      <trkpt lat="47.33525" lon="-2.46492">
        <ele>33.400001525879</ele>
        <time>2019-11-24T09:12:36.000Z</time>
      </trkpt>
      <trkpt lat="47.33531" lon="-2.46494">
        <ele>33.400001525879</ele>
        <time>2019-11-24T09:12:39.000Z</time>
      </trkpt>
      <trkpt lat="47.33536" lon="-2.46494">
        <ele>33.400001525879</ele>
        <time>2019-11-24T09:12:44.000Z</time>
      </trkpt>
      <trkpt lat="47.33538" lon="-2.46495">
        <ele>35.599998474121</ele>
        <time>2019-11-24T09:13:31.000Z</time>
      </trkpt>
      <trkpt lat="47.33543" lon="-2.46519">
        <ele>35.599998474121</ele>
        <time>2019-11-24T09:13:34.000Z</time>
      </trkpt>
      <trkpt lat="47.33545" lon="-2.46527">
        <ele>35.200000762939</ele>
        <time>2019-11-24T09:13:35.000Z</time>
      </trkpt>
      <trkpt lat="47.33546" lon="-2.46535">
        <ele>34.799999237061</ele>
        <time>2019-11-24T09:13:36.000Z</time>
      </trkpt>
      <trkpt lat="47.33547" lon="-2.46543">
        <ele>34.400001525879</ele>
        <time>2019-11-24T09:13:37.000Z</time>
      </trkpt>
      <trkpt lat="47.33548" lon="-2.4655">
        <ele>33.799999237061</ele>
        <time>2019-11-24T09:13:38.000Z</time>
      </trkpt>
      <trkpt lat="47.3355" lon="-2.46558">
        <ele>33.400001525879</ele>
        <time>2019-11-24T09:13:39.000Z</time>
      </trkpt>
      <trkpt lat="47.33552" lon="-2.46565">
        <ele>33.400001525879</ele>
        <time>2019-11-24T09:13:40.000Z</time>
      </trkpt>
      <trkpt lat="47.33556" lon="-2.46572">
        <ele>33.400001525879</ele>
        <time>2019-11-24T09:13:41.000Z</time>
      </trkpt>
      <trkpt lat="47.33561" lon="-2.46585">
        <ele>33.400001525879</ele>
        <time>2019-11-24T09:13:43.000Z</time>
      </trkpt>
      <trkpt lat="47.33574" lon="-2.46603">
        <ele>33.400001525879</ele>
        <time>2019-11-24T09:13:47.000Z</time>
      </trkpt>
      <trkpt lat="47.33576" lon="-2.46608">
        <ele>33.400001525879</ele>
        <time>2019-11-24T09:13:48.000Z</time>
      </trkpt>
      <trkpt lat="47.33578" lon="-2.46613">
        <ele>33.400001525879</ele>
        <time>2019-11-24T09:13:49.000Z</time>
      </trkpt>
      <trkpt lat="47.33585" lon="-2.46636">
        <ele>33.400001525879</ele>
        <time>2019-11-24T09:13:53.000Z</time>
      </trkpt>
      <trkpt lat="47.33601" lon="-2.46681">
        <ele>33.400001525879</ele>
        <time>2019-11-24T09:14:00.000Z</time>
      </trkpt>
      <trkpt lat="47.33616" lon="-2.46721">
        <ele>33.400001525879</ele>
        <time>2019-11-24T09:14:07.000Z</time>
      </trkpt>
      <trkpt lat="47.33619" lon="-2.46747">
        <ele>33.400001525879</ele>
        <time>2019-11-24T09:14:12.000Z</time>
      </trkpt>
      <trkpt lat="47.33618" lon="-2.46751">
        <ele>33.400001525879</ele>
        <time>2019-11-24T09:14:13.000Z</time>
      </trkpt>
      <trkpt lat="47.33611" lon="-2.46759">
        <ele>33.400001525879</ele>
        <time>2019-11-24T09:14:15.000Z</time>
      </trkpt>
      <trkpt lat="47.33604" lon="-2.46766">
        <ele>33.400001525879</ele>
        <time>2019-11-24T09:14:17.000Z</time>
      </trkpt>
      <trkpt lat="47.33601" lon="-2.46769">
        <ele>33</ele>
        <time>2019-11-24T09:14:18.000Z</time>
      </trkpt>
      <trkpt lat="47.33597" lon="-2.46773">
        <ele>32.599998474121</ele>
        <time>2019-11-24T09:14:19.000Z</time>
      </trkpt>
      <trkpt lat="47.33593" lon="-2.46776">
        <ele>32.200000762939</ele>
        <time>2019-11-24T09:14:20.000Z</time>
      </trkpt>
      <trkpt lat="47.33591" lon="-2.46778">
        <ele>31.60000038147</ele>
        <time>2019-11-24T09:14:21.000Z</time>
      </trkpt>
      <trkpt lat="47.3359" lon="-2.4678">
        <ele>31.200000762939</ele>
        <time>2019-11-24T09:14:22.000Z</time>
      </trkpt>
      <trkpt lat="47.3359" lon="-2.46781">
        <ele>31.200000762939</ele>
        <time>2019-11-24T09:14:23.000Z</time>
      </trkpt>
      <trkpt lat="47.33589" lon="-2.46783">
        <ele>30.799999237061</ele>
        <time>2019-11-24T09:14:24.000Z</time>
      </trkpt>
      <trkpt lat="47.33588" lon="-2.46784">
        <ele>30.39999961853</ele>
        <time>2019-11-24T09:14:25.000Z</time>
      </trkpt>
      <trkpt lat="47.33587" lon="-2.46785">
        <ele>30</ele>
        <time>2019-11-24T09:14:26.000Z</time>
      </trkpt>
      <trkpt lat="47.33586" lon="-2.46786">
        <ele>29.60000038147</ele>
        <time>2019-11-24T09:14:27.000Z</time>
      </trkpt>
      <trkpt lat="47.33586" lon="-2.46786">
        <ele>29</ele>
        <time>2019-11-24T09:14:28.000Z</time>
      </trkpt>
      <trkpt lat="47.33586" lon="-2.46786">
        <ele>29</ele>
        <time>2019-11-24T09:14:29.000Z</time>
      </trkpt>
      <trkpt lat="47.33582" lon="-2.4679">
        <ele>29</ele>
        <time>2019-11-24T09:14:33.000Z</time>
      </trkpt>
      <trkpt lat="47.3358" lon="-2.46792">
        <ele>29</ele>
        <time>2019-11-24T09:14:35.000Z</time>
      </trkpt>
      <trkpt lat="47.33579" lon="-2.46792">
        <ele>29</ele>
        <time>2019-11-24T09:14:37.000Z</time>
      </trkpt>
      <trkpt lat="47.33577" lon="-2.46796">
        <ele>29</ele>
        <time>2019-11-24T09:15:32.000Z</time>
      </trkpt>
      <trkpt lat="47.33575" lon="-2.46799">
        <ele>28.60000038147</ele>
        <time>2019-11-24T09:15:33.000Z</time>
      </trkpt>
      <trkpt lat="47.33574" lon="-2.46802">
        <ele>28.200000762939</ele>
        <time>2019-11-24T09:15:34.000Z</time>
      </trkpt>
      <trkpt lat="47.33571" lon="-2.46804">
        <ele>27.799999237061</ele>
        <time>2019-11-24T09:15:35.000Z</time>
      </trkpt>
      <trkpt lat="47.33568" lon="-2.46808">
        <ele>27</ele>
        <time>2019-11-24T09:15:36.000Z</time>
      </trkpt>
      <trkpt lat="47.33561" lon="-2.46814">
        <ele>27</ele>
        <time>2019-11-24T09:15:38.000Z</time>
      </trkpt>
      <trkpt lat="47.3355" lon="-2.46825">
        <ele>26.60000038147</ele>
        <time>2019-11-24T09:15:41.000Z</time>
      </trkpt>
      <trkpt lat="47.33546" lon="-2.46829">
        <ele>26.200000762939</ele>
        <time>2019-11-24T09:15:42.000Z</time>
      </trkpt>
      <trkpt lat="47.33542" lon="-2.46834">
        <ele>25.799999237061</ele>
        <time>2019-11-24T09:15:43.000Z</time>
      </trkpt>
      <trkpt lat="47.33538" lon="-2.46838">
        <ele>25.39999961853</ele>
        <time>2019-11-24T09:15:44.000Z</time>
      </trkpt>
      <trkpt lat="47.33536" lon="-2.46841">
        <ele>25</ele>
        <time>2019-11-24T09:15:45.000Z</time>
      </trkpt>
      <trkpt lat="47.33534" lon="-2.46857">
        <ele>25</ele>
        <time>2019-11-24T09:15:48.000Z</time>
      </trkpt>
      <trkpt lat="47.33536" lon="-2.46866">
        <ele>24.39999961853</ele>
        <time>2019-11-24T09:15:50.000Z</time>
      </trkpt>
      <trkpt lat="47.33536" lon="-2.4687">
        <ele>24</ele>
        <time>2019-11-24T09:15:51.000Z</time>
      </trkpt>
      <trkpt lat="47.33536" lon="-2.46872">
        <ele>23.60000038147</ele>
        <time>2019-11-24T09:15:52.000Z</time>
      </trkpt>
      <trkpt lat="47.33535" lon="-2.46875">
        <ele>23.200000762939</ele>
        <time>2019-11-24T09:15:53.000Z</time>
      </trkpt>
      <trkpt lat="47.33534" lon="-2.46876">
        <ele>22.60000038147</ele>
        <time>2019-11-24T09:15:54.000Z</time>
      </trkpt>
      <trkpt lat="47.33522" lon="-2.46891">
        <ele>22.60000038147</ele>
        <time>2019-11-24T09:16:00.000Z</time>
      </trkpt>
      <trkpt lat="47.33519" lon="-2.46894">
        <ele>21.799999237061</ele>
        <time>2019-11-24T09:16:01.000Z</time>
      </trkpt>
      <trkpt lat="47.33516" lon="-2.46897">
        <ele>21.39999961853</ele>
        <time>2019-11-24T09:16:02.000Z</time>
      </trkpt>
      <trkpt lat="47.33513" lon="-2.469">
        <ele>21</ele>
        <time>2019-11-24T09:16:03.000Z</time>
      </trkpt>
      <trkpt lat="47.3351" lon="-2.46903">
        <ele>20.60000038147</ele>
        <time>2019-11-24T09:16:04.000Z</time>
      </trkpt>
      <trkpt lat="47.33504" lon="-2.4691">
        <ele>20.60000038147</ele>
        <time>2019-11-24T09:16:06.000Z</time>
      </trkpt>
      <trkpt lat="47.33488" lon="-2.46922">
        <ele>20.60000038147</ele>
        <time>2019-11-24T09:16:11.000Z</time>
      </trkpt>
      <trkpt lat="47.33485" lon="-2.46924">
        <ele>20.200000762939</ele>
        <time>2019-11-24T09:16:12.000Z</time>
      </trkpt>
      <trkpt lat="47.33482" lon="-2.46927">
        <ele>19.799999237061</ele>
        <time>2019-11-24T09:16:13.000Z</time>
      </trkpt>
      <trkpt lat="47.3348" lon="-2.46929">
        <ele>19.39999961853</ele>
        <time>2019-11-24T09:16:14.000Z</time>
      </trkpt>
      <trkpt lat="47.33478" lon="-2.4693">
        <ele>19</ele>
        <time>2019-11-24T09:16:15.000Z</time>
      </trkpt>
      <trkpt lat="47.33477" lon="-2.46932">
        <ele>18.60000038147</ele>
        <time>2019-11-24T09:16:16.000Z</time>
      </trkpt>
      <trkpt lat="47.33467" lon="-2.46949">
        <ele>18.60000038147</ele>
        <time>2019-11-24T09:16:21.000Z</time>
      </trkpt>
      <trkpt lat="47.33456" lon="-2.46966">
        <ele>18.60000038147</ele>
        <time>2019-11-24T09:16:25.000Z</time>
      </trkpt>
      <trkpt lat="47.33447" lon="-2.46981">
        <ele>18.60000038147</ele>
        <time>2019-11-24T09:16:28.000Z</time>
      </trkpt>
      <trkpt lat="47.3344" lon="-2.46991">
        <ele>18.200000762939</ele>
        <time>2019-11-24T09:16:30.000Z</time>
      </trkpt>
      <trkpt lat="47.33437" lon="-2.46996">
        <ele>17.799999237061</ele>
        <time>2019-11-24T09:16:31.000Z</time>
      </trkpt>
      <trkpt lat="47.33433" lon="-2.47001">
        <ele>17.39999961853</ele>
        <time>2019-11-24T09:16:32.000Z</time>
      </trkpt>
      <trkpt lat="47.3343" lon="-2.47007">
        <ele>17</ele>
        <time>2019-11-24T09:16:33.000Z</time>
      </trkpt>
      <trkpt lat="47.33425" lon="-2.47012">
        <ele>16.60000038147</ele>
        <time>2019-11-24T09:16:34.000Z</time>
      </trkpt>
      <trkpt lat="47.33418" lon="-2.47024">
        <ele>16.60000038147</ele>
        <time>2019-11-24T09:16:36.000Z</time>
      </trkpt>
      <trkpt lat="47.33415" lon="-2.47031">
        <ele>16.60000038147</ele>
        <time>2019-11-24T09:16:37.000Z</time>
      </trkpt>
      <trkpt lat="47.33403" lon="-2.4706">
        <ele>16.60000038147</ele>
        <time>2019-11-24T09:16:41.000Z</time>
      </trkpt>
      <trkpt lat="47.33396" lon="-2.47082">
        <ele>16.60000038147</ele>
        <time>2019-11-24T09:16:44.000Z</time>
      </trkpt>
      <trkpt lat="47.33393" lon="-2.47098">
        <ele>16.60000038147</ele>
        <time>2019-11-24T09:16:46.000Z</time>
      </trkpt>
      <trkpt lat="47.33392" lon="-2.47106">
        <ele>16.60000038147</ele>
        <time>2019-11-24T09:16:47.000Z</time>
      </trkpt>
      <trkpt lat="47.33391" lon="-2.47114">
        <ele>16.200000762939</ele>
        <time>2019-11-24T09:16:48.000Z</time>
      </trkpt>
      <trkpt lat="47.33389" lon="-2.47121">
        <ele>15.800000190735</ele>
        <time>2019-11-24T09:16:49.000Z</time>
      </trkpt>
      <trkpt lat="47.33387" lon="-2.47129">
        <ele>14.800000190735</ele>
        <time>2019-11-24T09:16:50.000Z</time>
      </trkpt>
      <trkpt lat="47.33384" lon="-2.47135">
        <ele>14.39999961853</ele>
        <time>2019-11-24T09:16:51.000Z</time>
      </trkpt>
      <trkpt lat="47.33377" lon="-2.47148">
        <ele>14.39999961853</ele>
        <time>2019-11-24T09:16:54.000Z</time>
      </trkpt>
      <trkpt lat="47.33372" lon="-2.47158">
        <ele>14.39999961853</ele>
        <time>2019-11-24T09:16:56.000Z</time>
      </trkpt>
      <trkpt lat="47.33372" lon="-2.4718">
        <ele>14.39999961853</ele>
        <time>2019-11-24T09:16:59.000Z</time>
      </trkpt>
      <trkpt lat="47.33379" lon="-2.47225">
        <ele>14.39999961853</ele>
        <time>2019-11-24T09:17:05.000Z</time>
      </trkpt>
      <trkpt lat="47.33382" lon="-2.4725">
        <ele>14.39999961853</ele>
        <time>2019-11-24T09:17:08.000Z</time>
      </trkpt>
      <trkpt lat="47.33388" lon="-2.47309">
        <ele>14.39999961853</ele>
        <time>2019-11-24T09:17:15.000Z</time>
      </trkpt>
      <trkpt lat="47.33393" lon="-2.47348">
        <ele>14.39999961853</ele>
        <time>2019-11-24T09:17:20.000Z</time>
      </trkpt>
      <trkpt lat="47.33395" lon="-2.47355">
        <ele>14.39999961853</ele>
        <time>2019-11-24T09:17:21.000Z</time>
      </trkpt>
      <trkpt lat="47.33411" lon="-2.47411">
        <ele>14.39999961853</ele>
        <time>2019-11-24T09:17:28.000Z</time>
      </trkpt>
      <trkpt lat="47.33425" lon="-2.4747">
        <ele>14.39999961853</ele>
        <time>2019-11-24T09:17:36.000Z</time>
      </trkpt>
      <trkpt lat="47.33437" lon="-2.47505">
        <ele>14.39999961853</ele>
        <time>2019-11-24T09:17:41.000Z</time>
      </trkpt>
      <trkpt lat="47.33439" lon="-2.47513">
        <ele>14.39999961853</ele>
        <time>2019-11-24T09:17:42.000Z</time>
      </trkpt>
      <trkpt lat="47.33464" lon="-2.47567">
        <ele>14.39999961853</ele>
        <time>2019-11-24T09:17:49.000Z</time>
      </trkpt>
      <trkpt lat="47.33487" lon="-2.47605">
        <ele>14.39999961853</ele>
        <time>2019-11-24T09:17:54.000Z</time>
      </trkpt>
      <trkpt lat="47.33508" lon="-2.47628">
        <ele>14.39999961853</ele>
        <time>2019-11-24T09:17:58.000Z</time>
      </trkpt>
      <trkpt lat="47.33515" lon="-2.47643">
        <ele>14.39999961853</ele>
        <time>2019-11-24T09:18:00.000Z</time>
      </trkpt>
      <trkpt lat="47.33525" lon="-2.47665">
        <ele>14.39999961853</ele>
        <time>2019-11-24T09:18:03.000Z</time>
      </trkpt>
      <trkpt lat="47.33529" lon="-2.47671">
        <ele>14.39999961853</ele>
        <time>2019-11-24T09:18:04.000Z</time>
      </trkpt>
      <trkpt lat="47.33544" lon="-2.4768">
        <ele>14.39999961853</ele>
        <time>2019-11-24T09:18:07.000Z</time>
      </trkpt>
      <trkpt lat="47.3355" lon="-2.47683">
        <ele>14.39999961853</ele>
        <time>2019-11-24T09:18:08.000Z</time>
      </trkpt>
      <trkpt lat="47.33554" lon="-2.47686">
        <ele>14.39999961853</ele>
        <time>2019-11-24T09:18:09.000Z</time>
      </trkpt>
      <trkpt lat="47.33565" lon="-2.47698">
        <ele>14.39999961853</ele>
        <time>2019-11-24T09:18:12.000Z</time>
      </trkpt>
      <trkpt lat="47.33579" lon="-2.47703">
        <ele>14.39999961853</ele>
        <time>2019-11-24T09:18:15.000Z</time>
      </trkpt>
      <trkpt lat="47.33584" lon="-2.47703">
        <ele>14.39999961853</ele>
        <time>2019-11-24T09:18:16.000Z</time>
      </trkpt>
      <trkpt lat="47.33602" lon="-2.47692">
        <ele>14.39999961853</ele>
        <time>2019-11-24T09:18:20.000Z</time>
      </trkpt>
      <trkpt lat="47.3361" lon="-2.47683">
        <ele>14.39999961853</ele>
        <time>2019-11-24T09:18:22.000Z</time>
      </trkpt>
      <trkpt lat="47.33626" lon="-2.47666">
        <ele>14.39999961853</ele>
        <time>2019-11-24T09:18:26.000Z</time>
      </trkpt>
      <trkpt lat="47.33653" lon="-2.47645">
        <ele>14.39999961853</ele>
        <time>2019-11-24T09:18:32.000Z</time>
      </trkpt>
      <trkpt lat="47.33658" lon="-2.47641">
        <ele>14.800000190735</ele>
        <time>2019-11-24T09:18:33.000Z</time>
      </trkpt>
      <trkpt lat="47.33663" lon="-2.47638">
        <ele>15.199999809265</ele>
        <time>2019-11-24T09:18:34.000Z</time>
      </trkpt>
      <trkpt lat="47.33668" lon="-2.47635">
        <ele>15.60000038147</ele>
        <time>2019-11-24T09:18:35.000Z</time>
      </trkpt>
      <trkpt lat="47.33672" lon="-2.47632">
        <ele>16</ele>
        <time>2019-11-24T09:18:36.000Z</time>
      </trkpt>
      <trkpt lat="47.33677" lon="-2.47629">
        <ele>16.39999961853</ele>
        <time>2019-11-24T09:18:37.000Z</time>
      </trkpt>
      <trkpt lat="47.33686" lon="-2.47624">
        <ele>16.39999961853</ele>
        <time>2019-11-24T09:18:39.000Z</time>
      </trkpt>
      <trkpt lat="47.33723" lon="-2.47619">
        <ele>16.39999961853</ele>
        <time>2019-11-24T09:18:46.000Z</time>
      </trkpt>
      <trkpt lat="47.33738" lon="-2.47623">
        <ele>16.39999961853</ele>
        <time>2019-11-24T09:18:50.000Z</time>
      </trkpt>
      <trkpt lat="47.33754" lon="-2.47636">
        <ele>16.39999961853</ele>
        <time>2019-11-24T09:18:55.000Z</time>
      </trkpt>
      <trkpt lat="47.33761" lon="-2.47652">
        <ele>16.39999961853</ele>
        <time>2019-11-24T09:18:58.000Z</time>
      </trkpt>
      <trkpt lat="47.33768" lon="-2.4767">
        <ele>16.39999961853</ele>
        <time>2019-11-24T09:19:01.000Z</time>
      </trkpt>
      <trkpt lat="47.33777" lon="-2.47681">
        <ele>16.39999961853</ele>
        <time>2019-11-24T09:19:03.000Z</time>
      </trkpt>
      <trkpt lat="47.33791" lon="-2.47699">
        <ele>16</ele>
        <time>2019-11-24T09:19:06.000Z</time>
      </trkpt>
      <trkpt lat="47.33795" lon="-2.47705">
        <ele>15.60000038147</ele>
        <time>2019-11-24T09:19:07.000Z</time>
      </trkpt>
      <trkpt lat="47.338" lon="-2.47711">
        <ele>15</ele>
        <time>2019-11-24T09:19:08.000Z</time>
      </trkpt>
      <trkpt lat="47.33804" lon="-2.47717">
        <ele>14.60000038147</ele>
        <time>2019-11-24T09:19:09.000Z</time>
      </trkpt>
      <trkpt lat="47.33809" lon="-2.47723">
        <ele>14.199999809265</ele>
        <time>2019-11-24T09:19:10.000Z</time>
      </trkpt>
      <trkpt lat="47.33827" lon="-2.47744">
        <ele>14.199999809265</ele>
        <time>2019-11-24T09:19:14.000Z</time>
      </trkpt>
      <trkpt lat="47.33845" lon="-2.47767">
        <ele>13.39999961853</ele>
        <time>2019-11-24T09:19:19.000Z</time>
      </trkpt>
      <trkpt lat="47.33848" lon="-2.4777">
        <ele>13</ele>
        <time>2019-11-24T09:19:20.000Z</time>
      </trkpt>
      <trkpt lat="47.33849" lon="-2.47771">
        <ele>12.39999961853</ele>
        <time>2019-11-24T09:19:21.000Z</time>
      </trkpt>
      <trkpt lat="47.33851" lon="-2.47772">
        <ele>12</ele>
        <time>2019-11-24T09:19:22.000Z</time>
      </trkpt>
      <trkpt lat="47.33853" lon="-2.47773">
        <ele>12</ele>
        <time>2019-11-24T09:19:23.000Z</time>
      </trkpt>
      <trkpt lat="47.33862" lon="-2.47768">
        <ele>12</ele>
        <time>2019-11-24T09:19:28.000Z</time>
      </trkpt>
      <trkpt lat="47.33872" lon="-2.47748">
        <ele>12</ele>
        <time>2019-11-24T09:19:34.000Z</time>
      </trkpt>
      <trkpt lat="47.33888" lon="-2.47721">
        <ele>12</ele>
        <time>2019-11-24T09:19:41.000Z</time>
      </trkpt>
      <trkpt lat="47.33901" lon="-2.47694">
        <ele>12</ele>
        <time>2019-11-24T09:19:48.000Z</time>
      </trkpt>
      <trkpt lat="47.3391" lon="-2.4768">
        <ele>12.39999961853</ele>
        <time>2019-11-24T09:19:52.000Z</time>
      </trkpt>
      <trkpt lat="47.33913" lon="-2.47677">
        <ele>13</ele>
        <time>2019-11-24T09:19:53.000Z</time>
      </trkpt>
      <trkpt lat="47.33915" lon="-2.47673">
        <ele>13.39999961853</ele>
        <time>2019-11-24T09:19:54.000Z</time>
      </trkpt>
      <trkpt lat="47.33918" lon="-2.47669">
        <ele>13.800000190735</ele>
        <time>2019-11-24T09:19:55.000Z</time>
      </trkpt>
      <trkpt lat="47.33921" lon="-2.47665">
        <ele>14.199999809265</ele>
        <time>2019-11-24T09:19:56.000Z</time>
      </trkpt>
      <trkpt lat="47.33928" lon="-2.47649">
        <ele>14.199999809265</ele>
        <time>2019-11-24T09:20:00.000Z</time>
      </trkpt>
      <trkpt lat="47.33934" lon="-2.47625">
        <ele>14.60000038147</ele>
        <time>2019-11-24T09:20:06.000Z</time>
      </trkpt>
      <trkpt lat="47.33935" lon="-2.4762">
        <ele>15</ele>
        <time>2019-11-24T09:20:07.000Z</time>
      </trkpt>
      <trkpt lat="47.33937" lon="-2.47615">
        <ele>15.800000190735</ele>
        <time>2019-11-24T09:20:08.000Z</time>
      </trkpt>
      <trkpt lat="47.33938" lon="-2.47611">
        <ele>16.200000762939</ele>
        <time>2019-11-24T09:20:09.000Z</time>
      </trkpt>
      <trkpt lat="47.33941" lon="-2.47599">
        <ele>16.200000762939</ele>
        <time>2019-11-24T09:20:12.000Z</time>
      </trkpt>
      <trkpt lat="47.33952" lon="-2.47566">
        <ele>16.200000762939</ele>
        <time>2019-11-24T09:20:19.000Z</time>
      </trkpt>
      <trkpt lat="47.33955" lon="-2.47561">
        <ele>16.60000038147</ele>
        <time>2019-11-24T09:20:20.000Z</time>
      </trkpt>
      <trkpt lat="47.33957" lon="-2.47558">
        <ele>17</ele>
        <time>2019-11-24T09:20:21.000Z</time>
      </trkpt>
      <trkpt lat="47.33958" lon="-2.47554">
        <ele>17.39999961853</ele>
        <time>2019-11-24T09:20:22.000Z</time>
      </trkpt>
      <trkpt lat="47.3396" lon="-2.47551">
        <ele>18</ele>
        <time>2019-11-24T09:20:23.000Z</time>
      </trkpt>
      <trkpt lat="47.33961" lon="-2.47547">
        <ele>18.39999961853</ele>
        <time>2019-11-24T09:20:24.000Z</time>
      </trkpt>
      <trkpt lat="47.33976" lon="-2.47527">
        <ele>18.799999237061</ele>
        <time>2019-11-24T09:20:30.000Z</time>
      </trkpt>
      <trkpt lat="47.33979" lon="-2.47525">
        <ele>19.200000762939</ele>
        <time>2019-11-24T09:20:31.000Z</time>
      </trkpt>
      <trkpt lat="47.33981" lon="-2.47522">
        <ele>19.60000038147</ele>
        <time>2019-11-24T09:20:32.000Z</time>
      </trkpt>
      <trkpt lat="47.33983" lon="-2.47519">
        <ele>20.39999961853</ele>
        <time>2019-11-24T09:20:33.000Z</time>
      </trkpt>
      <trkpt lat="47.33991" lon="-2.47512">
        <ele>20.39999961853</ele>
        <time>2019-11-24T09:20:36.000Z</time>
      </trkpt>
      <trkpt lat="47.34004" lon="-2.47499">
        <ele>20.799999237061</ele>
        <time>2019-11-24T09:20:41.000Z</time>
      </trkpt>
      <trkpt lat="47.34006" lon="-2.47496">
        <ele>21.200000762939</ele>
        <time>2019-11-24T09:20:42.000Z</time>
      </trkpt>
      <trkpt lat="47.34009" lon="-2.47494">
        <ele>21.60000038147</ele>
        <time>2019-11-24T09:20:43.000Z</time>
      </trkpt>
      <trkpt lat="47.34012" lon="-2.47491">
        <ele>22</ele>
        <time>2019-11-24T09:20:44.000Z</time>
      </trkpt>
      <trkpt lat="47.34014" lon="-2.47489">
        <ele>22.60000038147</ele>
        <time>2019-11-24T09:20:45.000Z</time>
      </trkpt>
      <trkpt lat="47.34025" lon="-2.47478">
        <ele>22.60000038147</ele>
        <time>2019-11-24T09:20:49.000Z</time>
      </trkpt>
      <trkpt lat="47.34044" lon="-2.47464">
        <ele>22.60000038147</ele>
        <time>2019-11-24T09:20:55.000Z</time>
      </trkpt>
      <trkpt lat="47.34052" lon="-2.47456">
        <ele>23.39999961853</ele>
        <time>2019-11-24T09:20:58.000Z</time>
      </trkpt>
      <trkpt lat="47.34054" lon="-2.47453">
        <ele>23.799999237061</ele>
        <time>2019-11-24T09:20:59.000Z</time>
      </trkpt>
      <trkpt lat="47.34057" lon="-2.4745">
        <ele>24.200000762939</ele>
        <time>2019-11-24T09:21:00.000Z</time>
      </trkpt>
      <trkpt lat="47.34059" lon="-2.47447">
        <ele>24.60000038147</ele>
        <time>2019-11-24T09:21:01.000Z</time>
      </trkpt>
      <trkpt lat="47.34062" lon="-2.47444">
        <ele>24.60000038147</ele>
        <time>2019-11-24T09:21:02.000Z</time>
      </trkpt>
      <trkpt lat="47.34078" lon="-2.47421">
        <ele>24.60000038147</ele>
        <time>2019-11-24T09:21:10.000Z</time>
      </trkpt>
      <trkpt lat="47.34082" lon="-2.47412">
        <ele>24.60000038147</ele>
        <time>2019-11-24T09:21:15.000Z</time>
      </trkpt>
      <trkpt lat="47.34085" lon="-2.47408">
        <ele>25</ele>
        <time>2019-11-24T09:21:17.000Z</time>
      </trkpt>
      <trkpt lat="47.34086" lon="-2.47406">
        <ele>25.39999961853</ele>
        <time>2019-11-24T09:21:18.000Z</time>
      </trkpt>
      <trkpt lat="47.34087" lon="-2.47403">
        <ele>25.799999237061</ele>
        <time>2019-11-24T09:21:19.000Z</time>
      </trkpt>
      <trkpt lat="47.34088" lon="-2.474">
        <ele>26.200000762939</ele>
        <time>2019-11-24T09:21:20.000Z</time>
      </trkpt>
      <trkpt lat="47.3409" lon="-2.47397">
        <ele>26.60000038147</ele>
        <time>2019-11-24T09:21:21.000Z</time>
      </trkpt>
      <trkpt lat="47.34092" lon="-2.47395">
        <ele>26.60000038147</ele>
        <time>2019-11-24T09:21:22.000Z</time>
      </trkpt>
      <trkpt lat="47.34097" lon="-2.47384">
        <ele>26.60000038147</ele>
        <time>2019-11-24T09:21:26.000Z</time>
      </trkpt>
      <trkpt lat="47.34105" lon="-2.47363">
        <ele>26.60000038147</ele>
        <time>2019-11-24T09:21:31.000Z</time>
      </trkpt>
      <trkpt lat="47.34113" lon="-2.47347">
        <ele>27.200000762939</ele>
        <time>2019-11-24T09:21:35.000Z</time>
      </trkpt>
      <trkpt lat="47.34115" lon="-2.47344">
        <ele>27.60000038147</ele>
        <time>2019-11-24T09:21:36.000Z</time>
      </trkpt>
      <trkpt lat="47.34116" lon="-2.4734">
        <ele>28</ele>
        <time>2019-11-24T09:21:37.000Z</time>
      </trkpt>
      <trkpt lat="47.34117" lon="-2.47336">
        <ele>28.39999961853</ele>
        <time>2019-11-24T09:21:38.000Z</time>
      </trkpt>
      <trkpt lat="47.34119" lon="-2.47332">
        <ele>28.799999237061</ele>
        <time>2019-11-24T09:21:39.000Z</time>
      </trkpt>
      <trkpt lat="47.34126" lon="-2.47314">
        <ele>28.799999237061</ele>
        <time>2019-11-24T09:21:44.000Z</time>
      </trkpt>
      <trkpt lat="47.3413" lon="-2.47305">
        <ele>29.60000038147</ele>
        <time>2019-11-24T09:21:47.000Z</time>
      </trkpt>
      <trkpt lat="47.34133" lon="-2.47301">
        <ele>30.200000762939</ele>
        <time>2019-11-24T09:21:48.000Z</time>
      </trkpt>
      <trkpt lat="47.34135" lon="-2.47296">
        <ele>30.60000038147</ele>
        <time>2019-11-24T09:21:49.000Z</time>
      </trkpt>
      <trkpt lat="47.34138" lon="-2.47292">
        <ele>31</ele>
        <time>2019-11-24T09:21:50.000Z</time>
      </trkpt>
      <trkpt lat="47.34158" lon="-2.47273">
        <ele>31</ele>
        <time>2019-11-24T09:21:56.000Z</time>
      </trkpt>
      <trkpt lat="47.34174" lon="-2.47255">
        <ele>31.39999961853</ele>
        <time>2019-11-24T09:22:01.000Z</time>
      </trkpt>
      <trkpt lat="47.34177" lon="-2.4725">
        <ele>31.799999237061</ele>
        <time>2019-11-24T09:22:02.000Z</time>
      </trkpt>
      <trkpt lat="47.3418" lon="-2.47246">
        <ele>32.200000762939</ele>
        <time>2019-11-24T09:22:03.000Z</time>
      </trkpt>
      <trkpt lat="47.34184" lon="-2.47242">
        <ele>32.599998474121</ele>
        <time>2019-11-24T09:22:04.000Z</time>
      </trkpt>
      <trkpt lat="47.34187" lon="-2.47239">
        <ele>33</ele>
        <time>2019-11-24T09:22:05.000Z</time>
      </trkpt>
      <trkpt lat="47.34203" lon="-2.47223">
        <ele>33</ele>
        <time>2019-11-24T09:22:10.000Z</time>
      </trkpt>
      <trkpt lat="47.34223" lon="-2.47199">
        <ele>33</ele>
        <time>2019-11-24T09:22:17.000Z</time>
      </trkpt>
      <trkpt lat="47.34232" lon="-2.47189">
        <ele>33.400001525879</ele>
        <time>2019-11-24T09:22:20.000Z</time>
      </trkpt>
      <trkpt lat="47.34234" lon="-2.47186">
        <ele>33.799999237061</ele>
        <time>2019-11-24T09:22:21.000Z</time>
      </trkpt>
      <trkpt lat="47.34237" lon="-2.47183">
        <ele>34.200000762939</ele>
        <time>2019-11-24T09:22:22.000Z</time>
      </trkpt>
      <trkpt lat="47.34239" lon="-2.47181">
        <ele>34.599998474121</ele>
        <time>2019-11-24T09:22:23.000Z</time>
      </trkpt>
      <trkpt lat="47.34241" lon="-2.47178">
        <ele>35</ele>
        <time>2019-11-24T09:22:24.000Z</time>
      </trkpt>
      <trkpt lat="47.3425" lon="-2.47162">
        <ele>35</ele>
        <time>2019-11-24T09:22:29.000Z</time>
      </trkpt>
      <trkpt lat="47.3426" lon="-2.47149">
        <ele>35</ele>
        <time>2019-11-24T09:22:34.000Z</time>
      </trkpt>
      <trkpt lat="47.34277" lon="-2.47132">
        <ele>35</ele>
        <time>2019-11-24T09:22:41.000Z</time>
      </trkpt>
      <trkpt lat="47.34298" lon="-2.47117">
        <ele>35</ele>
        <time>2019-11-24T09:22:48.000Z</time>
      </trkpt>
      <trkpt lat="47.34325" lon="-2.47102">
        <ele>35</ele>
        <time>2019-11-24T09:22:57.000Z</time>
      </trkpt>
      <trkpt lat="47.3435" lon="-2.47082">
        <ele>35</ele>
        <time>2019-11-24T09:23:06.000Z</time>
      </trkpt>
      <trkpt lat="47.34371" lon="-2.47068">
        <ele>35</ele>
        <time>2019-11-24T09:23:14.000Z</time>
      </trkpt>
      <trkpt lat="47.34385" lon="-2.47066">
        <ele>35</ele>
        <time>2019-11-24T09:23:20.000Z</time>
      </trkpt>
      <trkpt lat="47.34386" lon="-2.47066">
        <ele>35</ele>
        <time>2019-11-24T09:23:22.000Z</time>
      </trkpt>
      <trkpt lat="47.34391" lon="-2.4706">
        <ele>35</ele>
        <time>2019-11-24T09:23:47.000Z</time>
      </trkpt>
      <trkpt lat="47.34391" lon="-2.47059">
        <ele>35</ele>
        <time>2019-11-24T09:23:48.000Z</time>
      </trkpt>
      <trkpt lat="47.34394" lon="-2.47057">
        <ele>35</ele>
        <time>2019-11-24T09:23:51.000Z</time>
      </trkpt>
      <trkpt lat="47.34396" lon="-2.47056">
        <ele>35</ele>
        <time>2019-11-24T09:23:54.000Z</time>
      </trkpt>
      <trkpt lat="47.34398" lon="-2.47054">
        <ele>35</ele>
        <time>2019-11-24T09:23:58.000Z</time>
      </trkpt>
      <trkpt lat="47.34403" lon="-2.47051">
        <ele>35</ele>
        <time>2019-11-24T09:24:00.000Z</time>
      </trkpt>
      <trkpt lat="47.34422" lon="-2.4704">
        <ele>35</ele>
        <time>2019-11-24T09:24:07.000Z</time>
      </trkpt>
      <trkpt lat="47.3444" lon="-2.47031">
        <ele>35</ele>
        <time>2019-11-24T09:24:14.000Z</time>
      </trkpt>
      <trkpt lat="47.34454" lon="-2.47021">
        <ele>35</ele>
        <time>2019-11-24T09:24:20.000Z</time>
      </trkpt>
      <trkpt lat="47.34472" lon="-2.4701">
        <ele>35</ele>
        <time>2019-11-24T09:24:26.000Z</time>
      </trkpt>
      <trkpt lat="47.34493" lon="-2.47">
        <ele>35</ele>
        <time>2019-11-24T09:24:33.000Z</time>
      </trkpt>
      <trkpt lat="47.34512" lon="-2.46989">
        <ele>35</ele>
        <time>2019-11-24T09:24:40.000Z</time>
      </trkpt>
      <trkpt lat="47.3453" lon="-2.46979">
        <ele>35</ele>
        <time>2019-11-24T09:24:46.000Z</time>
      </trkpt>
      <trkpt lat="47.34541" lon="-2.46972">
        <ele>35</ele>
        <time>2019-11-24T09:24:51.000Z</time>
      </trkpt>
      <trkpt lat="47.34558" lon="-2.46964">
        <ele>35</ele>
        <time>2019-11-24T09:24:56.000Z</time>
      </trkpt>
      <trkpt lat="47.34577" lon="-2.46949">
        <ele>35</ele>
        <time>2019-11-24T09:25:02.000Z</time>
      </trkpt>
      <trkpt lat="47.34595" lon="-2.46932">
        <ele>35</ele>
        <time>2019-11-24T09:25:08.000Z</time>
      </trkpt>
      <trkpt lat="47.34611" lon="-2.4692">
        <ele>35</ele>
        <time>2019-11-24T09:25:14.000Z</time>
      </trkpt>
      <trkpt lat="47.34623" lon="-2.46911">
        <ele>35</ele>
        <time>2019-11-24T09:25:20.000Z</time>
      </trkpt>
      <trkpt lat="47.34628" lon="-2.46907">
        <ele>35</ele>
        <time>2019-11-24T09:25:25.000Z</time>
      </trkpt>
      <trkpt lat="47.34636" lon="-2.46907">
        <ele>35</ele>
        <time>2019-11-24T09:25:31.000Z</time>
      </trkpt>
      <trkpt lat="47.34644" lon="-2.46905">
        <ele>35</ele>
        <time>2019-11-24T09:25:36.000Z</time>
      </trkpt>
      <trkpt lat="47.34653" lon="-2.469">
        <ele>35</ele>
        <time>2019-11-24T09:25:43.000Z</time>
      </trkpt>
      <trkpt lat="47.34654" lon="-2.46899">
        <ele>35</ele>
        <time>2019-11-24T09:25:44.000Z</time>
      </trkpt>
      <trkpt lat="47.34656" lon="-2.46899">
        <ele>35</ele>
        <time>2019-11-24T09:25:46.000Z</time>
      </trkpt>
      <trkpt lat="47.3466" lon="-2.46898">
        <ele>35</ele>
        <time>2019-11-24T09:25:48.000Z</time>
      </trkpt>
      <trkpt lat="47.34662" lon="-2.46895">
        <ele>35</ele>
        <time>2019-11-24T09:25:50.000Z</time>
      </trkpt>
      <trkpt lat="47.34664" lon="-2.46894">
        <ele>35</ele>
        <time>2019-11-24T09:25:51.000Z</time>
      </trkpt>
      <trkpt lat="47.34667" lon="-2.46893">
        <ele>35</ele>
        <time>2019-11-24T09:25:53.000Z</time>
      </trkpt>
      <trkpt lat="47.3468" lon="-2.46893">
        <ele>35</ele>
        <time>2019-11-24T09:25:59.000Z</time>
      </trkpt>
      <trkpt lat="47.34688" lon="-2.46891">
        <ele>35</ele>
        <time>2019-11-24T09:26:04.000Z</time>
      </trkpt>
      <trkpt lat="47.34697" lon="-2.46888">
        <ele>35</ele>
        <time>2019-11-24T09:26:10.000Z</time>
      </trkpt>
      <trkpt lat="47.34711" lon="-2.46887">
        <ele>35</ele>
        <time>2019-11-24T09:26:18.000Z</time>
      </trkpt>
      <trkpt lat="47.34722" lon="-2.46888">
        <ele>35</ele>
        <time>2019-11-24T09:26:24.000Z</time>
      </trkpt>
      <trkpt lat="47.3473" lon="-2.46884">
        <ele>35</ele>
        <time>2019-11-24T09:26:29.000Z</time>
      </trkpt>
      <trkpt lat="47.3474" lon="-2.46877">
        <ele>35</ele>
        <time>2019-11-24T09:26:36.000Z</time>
      </trkpt>
      <trkpt lat="47.34746" lon="-2.46874">
        <ele>35</ele>
        <time>2019-11-24T09:26:40.000Z</time>
      </trkpt>
      <trkpt lat="47.34748" lon="-2.46874">
        <ele>35</ele>
        <time>2019-11-24T09:26:42.000Z</time>
      </trkpt>
      <trkpt lat="47.34755" lon="-2.46869">
        <ele>35</ele>
        <time>2019-11-24T09:26:47.000Z</time>
      </trkpt>
      <trkpt lat="47.34757" lon="-2.46868">
        <ele>35</ele>
        <time>2019-11-24T09:26:48.000Z</time>
      </trkpt>
      <trkpt lat="47.3476" lon="-2.46867">
        <ele>35.400001525879</ele>
        <time>2019-11-24T09:26:50.000Z</time>
      </trkpt>
      <trkpt lat="47.34762" lon="-2.46866">
        <ele>35.799999237061</ele>
        <time>2019-11-24T09:26:51.000Z</time>
      </trkpt>
      <trkpt lat="47.34764" lon="-2.46865">
        <ele>36.200000762939</ele>
        <time>2019-11-24T09:26:52.000Z</time>
      </trkpt>
      <trkpt lat="47.34766" lon="-2.46864">
        <ele>36.599998474121</ele>
        <time>2019-11-24T09:26:53.000Z</time>
      </trkpt>
      <trkpt lat="47.34768" lon="-2.46863">
        <ele>37</ele>
        <time>2019-11-24T09:26:54.000Z</time>
      </trkpt>
      <trkpt lat="47.34777" lon="-2.46861">
        <ele>37</ele>
        <time>2019-11-24T09:27:00.000Z</time>
      </trkpt>
      <trkpt lat="47.34789" lon="-2.46854">
        <ele>37</ele>
        <time>2019-11-24T09:27:08.000Z</time>
      </trkpt>
      <trkpt lat="47.34796" lon="-2.46848">
        <ele>37</ele>
        <time>2019-11-24T09:27:13.000Z</time>
      </trkpt>
      <trkpt lat="47.34809" lon="-2.46846">
        <ele>37</ele>
        <time>2019-11-24T09:27:19.000Z</time>
      </trkpt>
      <trkpt lat="47.34816" lon="-2.46843">
        <ele>37</ele>
        <time>2019-11-24T09:27:23.000Z</time>
      </trkpt>
      <trkpt lat="47.34826" lon="-2.46839">
        <ele>37</ele>
        <time>2019-11-24T09:27:29.000Z</time>
      </trkpt>
      <trkpt lat="47.34837" lon="-2.46834">
        <ele>37</ele>
        <time>2019-11-24T09:27:35.000Z</time>
      </trkpt>
      <trkpt lat="47.34841" lon="-2.46832">
        <ele>37</ele>
        <time>2019-11-24T09:27:37.000Z</time>
      </trkpt>
      <trkpt lat="47.34844" lon="-2.4683">
        <ele>37</ele>
        <time>2019-11-24T09:27:39.000Z</time>
      </trkpt>
      <trkpt lat="47.34855" lon="-2.46825">
        <ele>37</ele>
        <time>2019-11-24T09:27:45.000Z</time>
      </trkpt>
      <trkpt lat="47.34863" lon="-2.46822">
        <ele>37</ele>
        <time>2019-11-24T09:27:51.000Z</time>
      </trkpt>
      <trkpt lat="47.34869" lon="-2.4682">
        <ele>37</ele>
        <time>2019-11-24T09:27:56.000Z</time>
      </trkpt>
      <trkpt lat="47.34871" lon="-2.46822">
        <ele>37</ele>
        <time>2019-11-24T09:27:59.000Z</time>
      </trkpt>
      <trkpt lat="47.34872" lon="-2.46829">
        <ele>37</ele>
        <time>2019-11-24T09:28:12.000Z</time>
      </trkpt>
      <trkpt lat="47.34873" lon="-2.46835">
        <ele>37</ele>
        <time>2019-11-24T09:28:14.000Z</time>
      </trkpt>
      <trkpt lat="47.34876" lon="-2.4686">
        <ele>37</ele>
        <time>2019-11-24T09:28:20.000Z</time>
      </trkpt>
      <trkpt lat="47.34883" lon="-2.46888">
        <ele>37</ele>
        <time>2019-11-24T09:28:27.000Z</time>
      </trkpt>
      <trkpt lat="47.34889" lon="-2.46921">
        <ele>37</ele>
        <time>2019-11-24T09:28:34.000Z</time>
      </trkpt>
      <trkpt lat="47.34894" lon="-2.46965">
        <ele>37</ele>
        <time>2019-11-24T09:28:41.000Z</time>
      </trkpt>
      <trkpt lat="47.34896" lon="-2.46991">
        <ele>37</ele>
        <time>2019-11-24T09:28:45.000Z</time>
      </trkpt>
      <trkpt lat="47.349" lon="-2.47003">
        <ele>37</ele>
        <time>2019-11-24T09:28:47.000Z</time>
      </trkpt>
      <trkpt lat="47.34903" lon="-2.47022">
        <ele>37</ele>
        <time>2019-11-24T09:28:50.000Z</time>
      </trkpt>
      <trkpt lat="47.34909" lon="-2.47046">
        <ele>37</ele>
        <time>2019-11-24T09:28:54.000Z</time>
      </trkpt>
      <trkpt lat="47.34911" lon="-2.47051">
        <ele>37</ele>
        <time>2019-11-24T09:28:55.000Z</time>
      </trkpt>
      <trkpt lat="47.34924" lon="-2.47081">
        <ele>37</ele>
        <time>2019-11-24T09:29:00.000Z</time>
      </trkpt>
      <trkpt lat="47.34943" lon="-2.47132">
        <ele>37</ele>
        <time>2019-11-24T09:29:07.000Z</time>
      </trkpt>
      <trkpt lat="47.34965" lon="-2.4719">
        <ele>37</ele>
        <time>2019-11-24T09:29:14.000Z</time>
      </trkpt>
      <trkpt lat="47.34978" lon="-2.47227">
        <ele>36.599998474121</ele>
        <time>2019-11-24T09:29:18.000Z</time>
      </trkpt>
      <trkpt lat="47.34981" lon="-2.47236">
        <ele>36.200000762939</ele>
        <time>2019-11-24T09:29:19.000Z</time>
      </trkpt>
      <trkpt lat="47.34984" lon="-2.47245">
        <ele>35.799999237061</ele>
        <time>2019-11-24T09:29:20.000Z</time>
      </trkpt>
      <trkpt lat="47.34987" lon="-2.47254">
        <ele>35.400001525879</ele>
        <time>2019-11-24T09:29:21.000Z</time>
      </trkpt>
      <trkpt lat="47.34991" lon="-2.47263">
        <ele>35</ele>
        <time>2019-11-24T09:29:22.000Z</time>
      </trkpt>
      <trkpt lat="47.35007" lon="-2.47317">
        <ele>34.599998474121</ele>
        <time>2019-11-24T09:29:28.000Z</time>
      </trkpt>
      <trkpt lat="47.3501" lon="-2.47326">
        <ele>34.200000762939</ele>
        <time>2019-11-24T09:29:29.000Z</time>
      </trkpt>
      <trkpt lat="47.35013" lon="-2.47334">
        <ele>33.799999237061</ele>
        <time>2019-11-24T09:29:30.000Z</time>
      </trkpt>
      <trkpt lat="47.35015" lon="-2.47343">
        <ele>33.400001525879</ele>
        <time>2019-11-24T09:29:31.000Z</time>
      </trkpt>
      <trkpt lat="47.35016" lon="-2.47351">
        <ele>33</ele>
        <time>2019-11-24T09:29:32.000Z</time>
      </trkpt>
      <trkpt lat="47.35018" lon="-2.47368">
        <ele>33</ele>
        <time>2019-11-24T09:29:34.000Z</time>
      </trkpt>
      <trkpt lat="47.35023" lon="-2.47418">
        <ele>33</ele>
        <time>2019-11-24T09:29:40.000Z</time>
      </trkpt>
      <trkpt lat="47.35024" lon="-2.47426">
        <ele>33</ele>
        <time>2019-11-24T09:29:41.000Z</time>
      </trkpt>
      <trkpt lat="47.35026" lon="-2.47449">
        <ele>33</ele>
        <time>2019-11-24T09:29:44.000Z</time>
      </trkpt>
      <trkpt lat="47.35027" lon="-2.47456">
        <ele>33</ele>
        <time>2019-11-24T09:29:45.000Z</time>
      </trkpt>
      <trkpt lat="47.35029" lon="-2.47505">
        <ele>33</ele>
        <time>2019-11-24T09:29:51.000Z</time>
      </trkpt>
      <trkpt lat="47.35034" lon="-2.47546">
        <ele>33</ele>
        <time>2019-11-24T09:29:56.000Z</time>
      </trkpt>
      <trkpt lat="47.35039" lon="-2.47613">
        <ele>33</ele>
        <time>2019-11-24T09:30:04.000Z</time>
      </trkpt>
      <trkpt lat="47.35043" lon="-2.47663">
        <ele>33</ele>
        <time>2019-11-24T09:30:11.000Z</time>
      </trkpt>
      <trkpt lat="47.35046" lon="-2.4772">
        <ele>33</ele>
        <time>2019-11-24T09:30:19.000Z</time>
      </trkpt>
      <trkpt lat="47.35042" lon="-2.47781">
        <ele>33</ele>
        <time>2019-11-24T09:30:26.000Z</time>
      </trkpt>
      <trkpt lat="47.35042" lon="-2.47791">
        <ele>32.599998474121</ele>
        <time>2019-11-24T09:30:27.000Z</time>
      </trkpt>
      <trkpt lat="47.35042" lon="-2.47799">
        <ele>32</ele>
        <time>2019-11-24T09:30:28.000Z</time>
      </trkpt>
      <trkpt lat="47.35041" lon="-2.47809">
        <ele>31.60000038147</ele>
        <time>2019-11-24T09:30:29.000Z</time>
      </trkpt>
      <trkpt lat="47.3504" lon="-2.47818">
        <ele>31.200000762939</ele>
        <time>2019-11-24T09:30:30.000Z</time>
      </trkpt>
      <trkpt lat="47.3504" lon="-2.47827">
        <ele>30.799999237061</ele>
        <time>2019-11-24T09:30:31.000Z</time>
      </trkpt>
      <trkpt lat="47.35037" lon="-2.47897">
        <ele>30.799999237061</ele>
        <time>2019-11-24T09:30:39.000Z</time>
      </trkpt>
      <trkpt lat="47.35035" lon="-2.47958">
        <ele>30.799999237061</ele>
        <time>2019-11-24T09:30:46.000Z</time>
      </trkpt>
      <trkpt lat="47.35035" lon="-2.48018">
        <ele>30.799999237061</ele>
        <time>2019-11-24T09:30:53.000Z</time>
      </trkpt>
      <trkpt lat="47.35034" lon="-2.4805">
        <ele>30.799999237061</ele>
        <time>2019-11-24T09:30:57.000Z</time>
      </trkpt>
      <trkpt lat="47.35033" lon="-2.48065">
        <ele>30.799999237061</ele>
        <time>2019-11-24T09:30:59.000Z</time>
      </trkpt>
      <trkpt lat="47.35032" lon="-2.48073">
        <ele>30.799999237061</ele>
        <time>2019-11-24T09:31:00.000Z</time>
      </trkpt>
      <trkpt lat="47.35037" lon="-2.48095">
        <ele>30.799999237061</ele>
        <time>2019-11-24T09:31:03.000Z</time>
      </trkpt>
      <trkpt lat="47.35051" lon="-2.48142">
        <ele>30.799999237061</ele>
        <time>2019-11-24T09:31:10.000Z</time>
      </trkpt>
      <trkpt lat="47.35058" lon="-2.4816">
        <ele>30.799999237061</ele>
        <time>2019-11-24T09:31:13.000Z</time>
      </trkpt>
      <trkpt lat="47.35067" lon="-2.48176">
        <ele>30.799999237061</ele>
        <time>2019-11-24T09:31:16.000Z</time>
      </trkpt>
      <trkpt lat="47.3507" lon="-2.48181">
        <ele>31.200000762939</ele>
        <time>2019-11-24T09:31:17.000Z</time>
      </trkpt>
      <trkpt lat="47.35073" lon="-2.48185">
        <ele>31.60000038147</ele>
        <time>2019-11-24T09:31:18.000Z</time>
      </trkpt>
      <trkpt lat="47.35076" lon="-2.4819">
        <ele>32</ele>
        <time>2019-11-24T09:31:19.000Z</time>
      </trkpt>
      <trkpt lat="47.35079" lon="-2.48195">
        <ele>32.400001525879</ele>
        <time>2019-11-24T09:31:20.000Z</time>
      </trkpt>
      <trkpt lat="47.35081" lon="-2.482">
        <ele>32.799999237061</ele>
        <time>2019-11-24T09:31:21.000Z</time>
      </trkpt>
      <trkpt lat="47.35087" lon="-2.48214">
        <ele>32.799999237061</ele>
        <time>2019-11-24T09:31:24.000Z</time>
      </trkpt>
      <trkpt lat="47.35095" lon="-2.48227">
        <ele>32.799999237061</ele>
        <time>2019-11-24T09:31:27.000Z</time>
      </trkpt>
      <trkpt lat="47.35099" lon="-2.48227">
        <ele>32.799999237061</ele>
        <time>2019-11-24T09:31:28.000Z</time>
      </trkpt>
      <trkpt lat="47.35114" lon="-2.4822">
        <ele>32.400001525879</ele>
        <time>2019-11-24T09:31:31.000Z</time>
      </trkpt>
      <trkpt lat="47.35119" lon="-2.48216">
        <ele>32</ele>
        <time>2019-11-24T09:31:32.000Z</time>
      </trkpt>
      <trkpt lat="47.35124" lon="-2.48213">
        <ele>31.60000038147</ele>
        <time>2019-11-24T09:31:33.000Z</time>
      </trkpt>
      <trkpt lat="47.35129" lon="-2.48209">
        <ele>31.200000762939</ele>
        <time>2019-11-24T09:31:34.000Z</time>
      </trkpt>
      <trkpt lat="47.35135" lon="-2.48204">
        <ele>30.799999237061</ele>
        <time>2019-11-24T09:31:35.000Z</time>
      </trkpt>
      <trkpt lat="47.35146" lon="-2.48194">
        <ele>30.799999237061</ele>
        <time>2019-11-24T09:31:37.000Z</time>
      </trkpt>
      <trkpt lat="47.35155" lon="-2.48182">
        <ele>30.799999237061</ele>
        <time>2019-11-24T09:31:39.000Z</time>
      </trkpt>
      <trkpt lat="47.35163" lon="-2.48166">
        <ele>30.39999961853</ele>
        <time>2019-11-24T09:31:41.000Z</time>
      </trkpt>
      <trkpt lat="47.35167" lon="-2.48159">
        <ele>30</ele>
        <time>2019-11-24T09:31:42.000Z</time>
      </trkpt>
      <trkpt lat="47.35172" lon="-2.48152">
        <ele>29.39999961853</ele>
        <time>2019-11-24T09:31:43.000Z</time>
      </trkpt>
      <trkpt lat="47.35176" lon="-2.48145">
        <ele>29</ele>
        <time>2019-11-24T09:31:44.000Z</time>
      </trkpt>
      <trkpt lat="47.35181" lon="-2.48139">
        <ele>28.60000038147</ele>
        <time>2019-11-24T09:31:45.000Z</time>
      </trkpt>
      <trkpt lat="47.35192" lon="-2.48128">
        <ele>28.60000038147</ele>
        <time>2019-11-24T09:31:47.000Z</time>
      </trkpt>
      <trkpt lat="47.35226" lon="-2.48087">
        <ele>28.60000038147</ele>
        <time>2019-11-24T09:31:54.000Z</time>
      </trkpt>
      <trkpt lat="47.35244" lon="-2.48067">
        <ele>28.60000038147</ele>
        <time>2019-11-24T09:31:58.000Z</time>
      </trkpt>
      <trkpt lat="47.35254" lon="-2.48061">
        <ele>28.60000038147</ele>
        <time>2019-11-24T09:32:00.000Z</time>
      </trkpt>
      <trkpt lat="47.35281" lon="-2.48055">
        <ele>28.60000038147</ele>
        <time>2019-11-24T09:32:05.000Z</time>
      </trkpt>
      <trkpt lat="47.35317" lon="-2.48046">
        <ele>28.60000038147</ele>
        <time>2019-11-24T09:32:11.000Z</time>
      </trkpt>
      <trkpt lat="47.35328" lon="-2.48041">
        <ele>28.200000762939</ele>
        <time>2019-11-24T09:32:13.000Z</time>
      </trkpt>
      <trkpt lat="47.35333" lon="-2.48038">
        <ele>27.799999237061</ele>
        <time>2019-11-24T09:32:14.000Z</time>
      </trkpt>
      <trkpt lat="47.35338" lon="-2.48036">
        <ele>27.39999961853</ele>
        <time>2019-11-24T09:32:15.000Z</time>
      </trkpt>
      <trkpt lat="47.35343" lon="-2.48034">
        <ele>27</ele>
        <time>2019-11-24T09:32:16.000Z</time>
      </trkpt>
      <trkpt lat="47.35349" lon="-2.48031">
        <ele>26.60000038147</ele>
        <time>2019-11-24T09:32:17.000Z</time>
      </trkpt>
      <trkpt lat="47.35369" lon="-2.48019">
        <ele>26.60000038147</ele>
        <time>2019-11-24T09:32:22.000Z</time>
      </trkpt>
      <trkpt lat="47.3539" lon="-2.48003">
        <ele>26.60000038147</ele>
        <time>2019-11-24T09:32:28.000Z</time>
      </trkpt>
      <trkpt lat="47.35419" lon="-2.47976">
        <ele>26.60000038147</ele>
        <time>2019-11-24T09:32:35.000Z</time>
      </trkpt>
      <trkpt lat="47.35426" lon="-2.47968">
        <ele>26.60000038147</ele>
        <time>2019-11-24T09:32:37.000Z</time>
      </trkpt>
      <trkpt lat="47.35432" lon="-2.4796">
        <ele>26.60000038147</ele>
        <time>2019-11-24T09:32:39.000Z</time>
      </trkpt>
      <trkpt lat="47.35436" lon="-2.47956">
        <ele>26.60000038147</ele>
        <time>2019-11-24T09:32:40.000Z</time>
      </trkpt>
      <trkpt lat="47.35458" lon="-2.47933">
        <ele>26.60000038147</ele>
        <time>2019-11-24T09:32:47.000Z</time>
      </trkpt>
      <trkpt lat="47.35462" lon="-2.47929">
        <ele>27</ele>
        <time>2019-11-24T09:32:48.000Z</time>
      </trkpt>
      <trkpt lat="47.35465" lon="-2.47925">
        <ele>27.39999961853</ele>
        <time>2019-11-24T09:32:49.000Z</time>
      </trkpt>
      <trkpt lat="47.35468" lon="-2.4792">
        <ele>27.799999237061</ele>
        <time>2019-11-24T09:32:50.000Z</time>
      </trkpt>
      <trkpt lat="47.35471" lon="-2.47916">
        <ele>28.200000762939</ele>
        <time>2019-11-24T09:32:51.000Z</time>
      </trkpt>
      <trkpt lat="47.35474" lon="-2.47912">
        <ele>28.60000038147</ele>
        <time>2019-11-24T09:32:52.000Z</time>
      </trkpt>
      <trkpt lat="47.35477" lon="-2.47907">
        <ele>28.60000038147</ele>
        <time>2019-11-24T09:32:53.000Z</time>
      </trkpt>
      <trkpt lat="47.35498" lon="-2.47875">
        <ele>28.60000038147</ele>
        <time>2019-11-24T09:33:00.000Z</time>
      </trkpt>
      <trkpt lat="47.35518" lon="-2.47845">
        <ele>28.60000038147</ele>
        <time>2019-11-24T09:33:07.000Z</time>
      </trkpt>
      <trkpt lat="47.35532" lon="-2.47825">
        <ele>29</ele>
        <time>2019-11-24T09:33:11.000Z</time>
      </trkpt>
      <trkpt lat="47.35535" lon="-2.47821">
        <ele>29.39999961853</ele>
        <time>2019-11-24T09:33:12.000Z</time>
      </trkpt>
      <trkpt lat="47.35539" lon="-2.47817">
        <ele>29.799999237061</ele>
        <time>2019-11-24T09:33:13.000Z</time>
      </trkpt>
      <trkpt lat="47.35543" lon="-2.47813">
        <ele>30.200000762939</ele>
        <time>2019-11-24T09:33:14.000Z</time>
      </trkpt>
      <trkpt lat="47.35546" lon="-2.47809">
        <ele>30.60000038147</ele>
        <time>2019-11-24T09:33:15.000Z</time>
      </trkpt>
      <trkpt lat="47.35567" lon="-2.47793">
        <ele>30.60000038147</ele>
        <time>2019-11-24T09:33:20.000Z</time>
      </trkpt>
      <trkpt lat="47.35594" lon="-2.47775">
        <ele>30.60000038147</ele>
        <time>2019-11-24T09:33:26.000Z</time>
      </trkpt>
      <trkpt lat="47.35616" lon="-2.47761">
        <ele>30.60000038147</ele>
        <time>2019-11-24T09:33:31.000Z</time>
      </trkpt>
      <trkpt lat="47.35619" lon="-2.47758">
        <ele>30.60000038147</ele>
        <time>2019-11-24T09:33:32.000Z</time>
      </trkpt>
      <trkpt lat="47.35635" lon="-2.47747">
        <ele>30.60000038147</ele>
        <time>2019-11-24T09:33:36.000Z</time>
      </trkpt>
      <trkpt lat="47.35646" lon="-2.47736">
        <ele>30.60000038147</ele>
        <time>2019-11-24T09:33:39.000Z</time>
      </trkpt>
      <trkpt lat="47.35652" lon="-2.47728">
        <ele>30.60000038147</ele>
        <time>2019-11-24T09:33:41.000Z</time>
      </trkpt>
      <trkpt lat="47.35679" lon="-2.47695">
        <ele>30.60000038147</ele>
        <time>2019-11-24T09:33:49.000Z</time>
      </trkpt>
      <trkpt lat="47.35683" lon="-2.47692">
        <ele>30.60000038147</ele>
        <time>2019-11-24T09:33:50.000Z</time>
      </trkpt>
      <trkpt lat="47.35697" lon="-2.47685">
        <ele>30.60000038147</ele>
        <time>2019-11-24T09:33:53.000Z</time>
      </trkpt>
      <trkpt lat="47.35702" lon="-2.47683">
        <ele>30.60000038147</ele>
        <time>2019-11-24T09:33:54.000Z</time>
      </trkpt>
      <trkpt lat="47.35732" lon="-2.47671">
        <ele>30.60000038147</ele>
        <time>2019-11-24T09:34:00.000Z</time>
      </trkpt>
      <trkpt lat="47.35754" lon="-2.47653">
        <ele>30.60000038147</ele>
        <time>2019-11-24T09:34:05.000Z</time>
      </trkpt>
      <trkpt lat="47.35758" lon="-2.47649">
        <ele>30.60000038147</ele>
        <time>2019-11-24T09:34:06.000Z</time>
      </trkpt>
      <trkpt lat="47.35782" lon="-2.47634">
        <ele>30.60000038147</ele>
        <time>2019-11-24T09:34:11.000Z</time>
      </trkpt>
      <trkpt lat="47.35818" lon="-2.47625">
        <ele>30.60000038147</ele>
        <time>2019-11-24T09:34:18.000Z</time>
      </trkpt>
      <trkpt lat="47.35839" lon="-2.47621">
        <ele>30.60000038147</ele>
        <time>2019-11-24T09:34:22.000Z</time>
      </trkpt>
      <trkpt lat="47.35848" lon="-2.47616">
        <ele>30.60000038147</ele>
        <time>2019-11-24T09:34:24.000Z</time>
      </trkpt>
      <trkpt lat="47.35872" lon="-2.47608">
        <ele>30.60000038147</ele>
        <time>2019-11-24T09:34:29.000Z</time>
      </trkpt>
      <trkpt lat="47.35901" lon="-2.47601">
        <ele>30.60000038147</ele>
        <time>2019-11-24T09:34:35.000Z</time>
      </trkpt>
      <trkpt lat="47.35935" lon="-2.47596">
        <ele>30.200000762939</ele>
        <time>2019-11-24T09:34:42.000Z</time>
      </trkpt>
      <trkpt lat="47.35939" lon="-2.47596">
        <ele>29.799999237061</ele>
        <time>2019-11-24T09:34:43.000Z</time>
      </trkpt>
      <trkpt lat="47.35943" lon="-2.47595">
        <ele>29.39999961853</ele>
        <time>2019-11-24T09:34:44.000Z</time>
      </trkpt>
      <trkpt lat="47.35947" lon="-2.47594">
        <ele>29</ele>
        <time>2019-11-24T09:34:45.000Z</time>
      </trkpt>
      <trkpt lat="47.3595" lon="-2.47594">
        <ele>28.60000038147</ele>
        <time>2019-11-24T09:34:46.000Z</time>
      </trkpt>
      <trkpt lat="47.35957" lon="-2.47595">
        <ele>28.60000038147</ele>
        <time>2019-11-24T09:34:48.000Z</time>
      </trkpt>
      <trkpt lat="47.35983" lon="-2.47591">
        <ele>28.60000038147</ele>
        <time>2019-11-24T09:34:55.000Z</time>
      </trkpt>
      <trkpt lat="47.3601" lon="-2.47592">
        <ele>28.60000038147</ele>
        <time>2019-11-24T09:35:01.000Z</time>
      </trkpt>
      <trkpt lat="47.3604" lon="-2.47593">
        <ele>28.60000038147</ele>
        <time>2019-11-24T09:35:08.000Z</time>
      </trkpt>
      <trkpt lat="47.36048" lon="-2.47592">
        <ele>28.60000038147</ele>
        <time>2019-11-24T09:35:10.000Z</time>
      </trkpt>
      <trkpt lat="47.36065" lon="-2.47589">
        <ele>28.60000038147</ele>
        <time>2019-11-24T09:35:14.000Z</time>
      </trkpt>
      <trkpt lat="47.36074" lon="-2.47588">
        <ele>28.200000762939</ele>
        <time>2019-11-24T09:35:16.000Z</time>
      </trkpt>
      <trkpt lat="47.36078" lon="-2.47587">
        <ele>27.799999237061</ele>
        <time>2019-11-24T09:35:17.000Z</time>
      </trkpt>
      <trkpt lat="47.36082" lon="-2.47586">
        <ele>27.39999961853</ele>
        <time>2019-11-24T09:35:18.000Z</time>
      </trkpt>
      <trkpt lat="47.36086" lon="-2.47585">
        <ele>27</ele>
        <time>2019-11-24T09:35:19.000Z</time>
      </trkpt>
      <trkpt lat="47.3609" lon="-2.47583">
        <ele>26.60000038147</ele>
        <time>2019-11-24T09:35:20.000Z</time>
      </trkpt>
      <trkpt lat="47.36103" lon="-2.47578">
        <ele>26.60000038147</ele>
        <time>2019-11-24T09:35:24.000Z</time>
      </trkpt>
      <trkpt lat="47.36112" lon="-2.47576">
        <ele>26.60000038147</ele>
        <time>2019-11-24T09:35:26.000Z</time>
      </trkpt>
      <trkpt lat="47.36128" lon="-2.47573">
        <ele>26.60000038147</ele>
        <time>2019-11-24T09:35:30.000Z</time>
      </trkpt>
      <trkpt lat="47.36147" lon="-2.47565">
        <ele>26.60000038147</ele>
        <time>2019-11-24T09:35:35.000Z</time>
      </trkpt>
      <trkpt lat="47.36164" lon="-2.47556">
        <ele>26.60000038147</ele>
        <time>2019-11-24T09:35:40.000Z</time>
      </trkpt>
      <trkpt lat="47.36186" lon="-2.47556">
        <ele>26.60000038147</ele>
        <time>2019-11-24T09:35:45.000Z</time>
      </trkpt>
      <trkpt lat="47.36216" lon="-2.47556">
        <ele>26.60000038147</ele>
        <time>2019-11-24T09:35:52.000Z</time>
      </trkpt>
      <trkpt lat="47.36235" lon="-2.47557">
        <ele>26.60000038147</ele>
        <time>2019-11-24T09:35:57.000Z</time>
      </trkpt>
      <trkpt lat="47.36259" lon="-2.47551">
        <ele>26.60000038147</ele>
        <time>2019-11-24T09:36:03.000Z</time>
      </trkpt>
      <trkpt lat="47.36289" lon="-2.47547">
        <ele>26.60000038147</ele>
        <time>2019-11-24T09:36:10.000Z</time>
      </trkpt>
      <trkpt lat="47.3631" lon="-2.47548">
        <ele>26.60000038147</ele>
        <time>2019-11-24T09:36:15.000Z</time>
      </trkpt>
      <trkpt lat="47.36335" lon="-2.47557">
        <ele>26.60000038147</ele>
        <time>2019-11-24T09:36:22.000Z</time>
      </trkpt>
      <trkpt lat="47.36358" lon="-2.47565">
        <ele>26.60000038147</ele>
        <time>2019-11-24T09:36:28.000Z</time>
      </trkpt>
      <trkpt lat="47.36375" lon="-2.47572">
        <ele>26.60000038147</ele>
        <time>2019-11-24T09:36:33.000Z</time>
      </trkpt>
      <trkpt lat="47.36398" lon="-2.47582">
        <ele>26.60000038147</ele>
        <time>2019-11-24T09:36:39.000Z</time>
      </trkpt>
      <trkpt lat="47.36429" lon="-2.47594">
        <ele>26.60000038147</ele>
        <time>2019-11-24T09:36:47.000Z</time>
      </trkpt>
      <trkpt lat="47.36433" lon="-2.47595">
        <ele>26.60000038147</ele>
        <time>2019-11-24T09:36:48.000Z</time>
      </trkpt>
      <trkpt lat="47.36459" lon="-2.47605">
        <ele>26.60000038147</ele>
        <time>2019-11-24T09:36:55.000Z</time>
      </trkpt>
      <trkpt lat="47.36474" lon="-2.47614">
        <ele>26.60000038147</ele>
        <time>2019-11-24T09:37:00.000Z</time>
      </trkpt>
      <trkpt lat="47.36497" lon="-2.47628">
        <ele>26.60000038147</ele>
        <time>2019-11-24T09:37:07.000Z</time>
      </trkpt>
      <trkpt lat="47.36514" lon="-2.47644">
        <ele>26.60000038147</ele>
        <time>2019-11-24T09:37:13.000Z</time>
      </trkpt>
      <trkpt lat="47.36527" lon="-2.47654">
        <ele>26.60000038147</ele>
        <time>2019-11-24T09:37:19.000Z</time>
      </trkpt>
      <trkpt lat="47.36546" lon="-2.47644">
        <ele>26.60000038147</ele>
        <time>2019-11-24T09:37:26.000Z</time>
      </trkpt>
      <trkpt lat="47.36551" lon="-2.47641">
        <ele>26.60000038147</ele>
        <time>2019-11-24T09:37:30.000Z</time>
      </trkpt>
      <trkpt lat="47.36555" lon="-2.47641">
        <ele>26.60000038147</ele>
        <time>2019-11-24T09:37:42.000Z</time>
      </trkpt>
      <trkpt lat="47.3656" lon="-2.47639">
        <ele>26.60000038147</ele>
        <time>2019-11-24T09:37:44.000Z</time>
      </trkpt>
      <trkpt lat="47.3658" lon="-2.47627">
        <ele>26.60000038147</ele>
        <time>2019-11-24T09:37:50.000Z</time>
      </trkpt>
      <trkpt lat="47.36613" lon="-2.47608">
        <ele>26.60000038147</ele>
        <time>2019-11-24T09:37:58.000Z</time>
      </trkpt>
      <trkpt lat="47.36634" lon="-2.47591">
        <ele>26.60000038147</ele>
        <time>2019-11-24T09:38:04.000Z</time>
      </trkpt>
      <trkpt lat="47.36665" lon="-2.4756">
        <ele>26.60000038147</ele>
        <time>2019-11-24T09:38:12.000Z</time>
      </trkpt>
      <trkpt lat="47.3669" lon="-2.47527">
        <ele>26.60000038147</ele>
        <time>2019-11-24T09:38:19.000Z</time>
      </trkpt>
      <trkpt lat="47.367" lon="-2.47514">
        <ele>26.60000038147</ele>
        <time>2019-11-24T09:38:22.000Z</time>
      </trkpt>
      <trkpt lat="47.3671" lon="-2.47502">
        <ele>26.60000038147</ele>
        <time>2019-11-24T09:38:25.000Z</time>
      </trkpt>
      <trkpt lat="47.36713" lon="-2.47498">
        <ele>26.60000038147</ele>
        <time>2019-11-24T09:38:26.000Z</time>
      </trkpt>
      <trkpt lat="47.36717" lon="-2.47495">
        <ele>26.60000038147</ele>
        <time>2019-11-24T09:38:27.000Z</time>
      </trkpt>
      <trkpt lat="47.36726" lon="-2.47495">
        <ele>26.60000038147</ele>
        <time>2019-11-24T09:38:29.000Z</time>
      </trkpt>
      <trkpt lat="47.36738" lon="-2.47508">
        <ele>26.60000038147</ele>
        <time>2019-11-24T09:38:32.000Z</time>
      </trkpt>
      <trkpt lat="47.36741" lon="-2.47513">
        <ele>26.60000038147</ele>
        <time>2019-11-24T09:38:33.000Z</time>
      </trkpt>
      <trkpt lat="47.36762" lon="-2.47549">
        <ele>26.60000038147</ele>
        <time>2019-11-24T09:38:39.000Z</time>
      </trkpt>
      <trkpt lat="47.36793" lon="-2.47606">
        <ele>26.60000038147</ele>
        <time>2019-11-24T09:38:48.000Z</time>
      </trkpt>
      <trkpt lat="47.36822" lon="-2.47659">
        <ele>26.60000038147</ele>
        <time>2019-11-24T09:38:56.000Z</time>
      </trkpt>
      <trkpt lat="47.3683" lon="-2.4768">
        <ele>26.60000038147</ele>
        <time>2019-11-24T09:38:59.000Z</time>
      </trkpt>
      <trkpt lat="47.36836" lon="-2.47702">
        <ele>26.60000038147</ele>
        <time>2019-11-24T09:39:02.000Z</time>
      </trkpt>
      <trkpt lat="47.36838" lon="-2.47717">
        <ele>26.60000038147</ele>
        <time>2019-11-24T09:39:04.000Z</time>
      </trkpt>
      <trkpt lat="47.36839" lon="-2.47748">
        <ele>26.60000038147</ele>
        <time>2019-11-24T09:39:08.000Z</time>
      </trkpt>
      <trkpt lat="47.3684" lon="-2.47811">
        <ele>26.60000038147</ele>
        <time>2019-11-24T09:39:16.000Z</time>
      </trkpt>
      <trkpt lat="47.3684" lon="-2.47867">
        <ele>26.60000038147</ele>
        <time>2019-11-24T09:39:23.000Z</time>
      </trkpt>
      <trkpt lat="47.36839" lon="-2.47933">
        <ele>26.60000038147</ele>
        <time>2019-11-24T09:39:31.000Z</time>
      </trkpt>
      <trkpt lat="47.36841" lon="-2.47981">
        <ele>26.60000038147</ele>
        <time>2019-11-24T09:39:37.000Z</time>
      </trkpt>
      <trkpt lat="47.36839" lon="-2.48013">
        <ele>26.60000038147</ele>
        <time>2019-11-24T09:39:41.000Z</time>
      </trkpt>
      <trkpt lat="47.36838" lon="-2.4803">
        <ele>26.60000038147</ele>
        <time>2019-11-24T09:39:43.000Z</time>
      </trkpt>
      <trkpt lat="47.36836" lon="-2.48089">
        <ele>26.60000038147</ele>
        <time>2019-11-24T09:39:50.000Z</time>
      </trkpt>
      <trkpt lat="47.36835" lon="-2.48097">
        <ele>27</ele>
        <time>2019-11-24T09:39:51.000Z</time>
      </trkpt>
      <trkpt lat="47.36835" lon="-2.48106">
        <ele>27.39999961853</ele>
        <time>2019-11-24T09:39:52.000Z</time>
      </trkpt>
      <trkpt lat="47.36835" lon="-2.48114">
        <ele>27.799999237061</ele>
        <time>2019-11-24T09:39:53.000Z</time>
      </trkpt>
      <trkpt lat="47.36835" lon="-2.48122">
        <ele>28.60000038147</ele>
        <time>2019-11-24T09:39:54.000Z</time>
      </trkpt>
      <trkpt lat="47.36834" lon="-2.48131">
        <ele>28.60000038147</ele>
        <time>2019-11-24T09:39:55.000Z</time>
      </trkpt>
      <trkpt lat="47.36833" lon="-2.48139">
        <ele>28.60000038147</ele>
        <time>2019-11-24T09:39:56.000Z</time>
      </trkpt>
      <trkpt lat="47.36828" lon="-2.48196">
        <ele>28.60000038147</ele>
        <time>2019-11-24T09:40:03.000Z</time>
      </trkpt>
      <trkpt lat="47.36824" lon="-2.48219">
        <ele>28.60000038147</ele>
        <time>2019-11-24T09:40:06.000Z</time>
      </trkpt>
      <trkpt lat="47.36822" lon="-2.48235">
        <ele>28.60000038147</ele>
        <time>2019-11-24T09:40:08.000Z</time>
      </trkpt>
      <trkpt lat="47.36811" lon="-2.48245">
        <ele>28.60000038147</ele>
        <time>2019-11-24T09:40:11.000Z</time>
      </trkpt>
      <trkpt lat="47.36791" lon="-2.48257">
        <ele>28.60000038147</ele>
        <time>2019-11-24T09:40:16.000Z</time>
      </trkpt>
      <trkpt lat="47.3676" lon="-2.48266">
        <ele>28.60000038147</ele>
        <time>2019-11-24T09:40:22.000Z</time>
      </trkpt>
      <trkpt lat="47.36731" lon="-2.48274">
        <ele>28.60000038147</ele>
        <time>2019-11-24T09:40:27.000Z</time>
      </trkpt>
      <trkpt lat="47.36726" lon="-2.48275">
        <ele>28.200000762939</ele>
        <time>2019-11-24T09:40:28.000Z</time>
      </trkpt>
      <trkpt lat="47.3672" lon="-2.48276">
        <ele>27.799999237061</ele>
        <time>2019-11-24T09:40:29.000Z</time>
      </trkpt>
      <trkpt lat="47.36715" lon="-2.48275">
        <ele>27.39999961853</ele>
        <time>2019-11-24T09:40:30.000Z</time>
      </trkpt>
      <trkpt lat="47.36709" lon="-2.48275">
        <ele>27</ele>
        <time>2019-11-24T09:40:31.000Z</time>
      </trkpt>
      <trkpt lat="47.36704" lon="-2.48274">
        <ele>26.39999961853</ele>
        <time>2019-11-24T09:40:32.000Z</time>
      </trkpt>
      <trkpt lat="47.3669" lon="-2.48272">
        <ele>26.39999961853</ele>
        <time>2019-11-24T09:40:35.000Z</time>
      </trkpt>
      <trkpt lat="47.36683" lon="-2.48274">
        <ele>26.39999961853</ele>
        <time>2019-11-24T09:40:37.000Z</time>
      </trkpt>
      <trkpt lat="47.36679" lon="-2.48277">
        <ele>26.39999961853</ele>
        <time>2019-11-24T09:40:39.000Z</time>
      </trkpt>
      <trkpt lat="47.36675" lon="-2.48279">
        <ele>26.39999961853</ele>
        <time>2019-11-24T09:40:41.000Z</time>
      </trkpt>
      <trkpt lat="47.36664" lon="-2.48288">
        <ele>26.39999961853</ele>
        <time>2019-11-24T09:40:46.000Z</time>
      </trkpt>
      <trkpt lat="47.36647" lon="-2.48292">
        <ele>26.39999961853</ele>
        <time>2019-11-24T09:40:52.000Z</time>
      </trkpt>
      <trkpt lat="47.36637" lon="-2.48281">
        <ele>26.39999961853</ele>
        <time>2019-11-24T09:40:56.000Z</time>
      </trkpt>
      <trkpt lat="47.36625" lon="-2.48263">
        <ele>26.39999961853</ele>
        <time>2019-11-24T09:41:01.000Z</time>
      </trkpt>
      <trkpt lat="47.36611" lon="-2.48259">
        <ele>26.39999961853</ele>
        <time>2019-11-24T09:41:05.000Z</time>
      </trkpt>
      <trkpt lat="47.36588" lon="-2.4826">
        <ele>26.39999961853</ele>
        <time>2019-11-24T09:41:11.000Z</time>
      </trkpt>
      <trkpt lat="47.36565" lon="-2.48268">
        <ele>26.39999961853</ele>
        <time>2019-11-24T09:41:17.000Z</time>
      </trkpt>
      <trkpt lat="47.36546" lon="-2.48284">
        <ele>26.39999961853</ele>
        <time>2019-11-24T09:41:23.000Z</time>
      </trkpt>
      <trkpt lat="47.36528" lon="-2.48297">
        <ele>26.39999961853</ele>
        <time>2019-11-24T09:41:29.000Z</time>
      </trkpt>
      <trkpt lat="47.36518" lon="-2.48303">
        <ele>26.39999961853</ele>
        <time>2019-11-24T09:41:34.000Z</time>
      </trkpt>
      <trkpt lat="47.3651" lon="-2.4831">
        <ele>26.39999961853</ele>
        <time>2019-11-24T09:41:38.000Z</time>
      </trkpt>
      <trkpt lat="47.36508" lon="-2.48312">
        <ele>26.39999961853</ele>
        <time>2019-11-24T09:41:39.000Z</time>
      </trkpt>
      <trkpt lat="47.36494" lon="-2.48322">
        <ele>26.39999961853</ele>
        <time>2019-11-24T09:41:45.000Z</time>
      </trkpt>
      <trkpt lat="47.3648" lon="-2.48333">
        <ele>26.39999961853</ele>
        <time>2019-11-24T09:41:50.000Z</time>
      </trkpt>
      <trkpt lat="47.36462" lon="-2.48348">
        <ele>26.39999961853</ele>
        <time>2019-11-24T09:41:56.000Z</time>
      </trkpt>
      <trkpt lat="47.36447" lon="-2.4836">
        <ele>26.39999961853</ele>
        <time>2019-11-24T09:42:02.000Z</time>
      </trkpt>
      <trkpt lat="47.3644" lon="-2.48376">
        <ele>26.39999961853</ele>
        <time>2019-11-24T09:42:07.000Z</time>
      </trkpt>
      <trkpt lat="47.36441" lon="-2.48394">
        <ele>26.39999961853</ele>
        <time>2019-11-24T09:42:10.000Z</time>
      </trkpt>
      <trkpt lat="47.36442" lon="-2.484">
        <ele>26.39999961853</ele>
        <time>2019-11-24T09:42:11.000Z</time>
      </trkpt>
      <trkpt lat="47.36442" lon="-2.48415">
        <ele>26.39999961853</ele>
        <time>2019-11-24T09:42:13.000Z</time>
      </trkpt>
      <trkpt lat="47.36443" lon="-2.4844">
        <ele>26.39999961853</ele>
        <time>2019-11-24T09:42:16.000Z</time>
      </trkpt>
      <trkpt lat="47.36448" lon="-2.48498">
        <ele>26.39999961853</ele>
        <time>2019-11-24T09:42:23.000Z</time>
      </trkpt>
      <trkpt lat="47.36454" lon="-2.48559">
        <ele>26.39999961853</ele>
        <time>2019-11-24T09:42:30.000Z</time>
      </trkpt>
      <trkpt lat="47.36461" lon="-2.48621">
        <ele>26.39999961853</ele>
        <time>2019-11-24T09:42:37.000Z</time>
      </trkpt>
      <trkpt lat="47.36468" lon="-2.48693">
        <ele>26.39999961853</ele>
        <time>2019-11-24T09:42:45.000Z</time>
      </trkpt>
      <trkpt lat="47.3647" lon="-2.4871">
        <ele>25.60000038147</ele>
        <time>2019-11-24T09:42:47.000Z</time>
      </trkpt>
      <trkpt lat="47.36471" lon="-2.48719">
        <ele>25.200000762939</ele>
        <time>2019-11-24T09:42:48.000Z</time>
      </trkpt>
      <trkpt lat="47.36472" lon="-2.48728">
        <ele>24.799999237061</ele>
        <time>2019-11-24T09:42:49.000Z</time>
      </trkpt>
      <trkpt lat="47.36473" lon="-2.48737">
        <ele>24.39999961853</ele>
        <time>2019-11-24T09:42:50.000Z</time>
      </trkpt>
      <trkpt lat="47.36475" lon="-2.48756">
        <ele>24.39999961853</ele>
        <time>2019-11-24T09:42:52.000Z</time>
      </trkpt>
      <trkpt lat="47.36482" lon="-2.48829">
        <ele>24.39999961853</ele>
        <time>2019-11-24T09:43:00.000Z</time>
      </trkpt>
      <trkpt lat="47.36488" lon="-2.48912">
        <ele>24.39999961853</ele>
        <time>2019-11-24T09:43:09.000Z</time>
      </trkpt>
      <trkpt lat="47.36491" lon="-2.48946">
        <ele>24</ele>
        <time>2019-11-24T09:43:13.000Z</time>
      </trkpt>
      <trkpt lat="47.36492" lon="-2.48954">
        <ele>23.60000038147</ele>
        <time>2019-11-24T09:43:14.000Z</time>
      </trkpt>
      <trkpt lat="47.36493" lon="-2.48962">
        <ele>23.200000762939</ele>
        <time>2019-11-24T09:43:15.000Z</time>
      </trkpt>
      <trkpt lat="47.36493" lon="-2.48969">
        <ele>22.799999237061</ele>
        <time>2019-11-24T09:43:16.000Z</time>
      </trkpt>
      <trkpt lat="47.36495" lon="-2.48975">
        <ele>22.39999961853</ele>
        <time>2019-11-24T09:43:17.000Z</time>
      </trkpt>
      <trkpt lat="47.36499" lon="-2.48982">
        <ele>22.39999961853</ele>
        <time>2019-11-24T09:43:19.000Z</time>
      </trkpt>
      <trkpt lat="47.36505" lon="-2.48986">
        <ele>22.39999961853</ele>
        <time>2019-11-24T09:43:21.000Z</time>
      </trkpt>
      <trkpt lat="47.36513" lon="-2.48987">
        <ele>22.39999961853</ele>
        <time>2019-11-24T09:43:23.000Z</time>
      </trkpt>
      <trkpt lat="47.36531" lon="-2.48991">
        <ele>22.39999961853</ele>
        <time>2019-11-24T09:43:27.000Z</time>
      </trkpt>
      <trkpt lat="47.36536" lon="-2.48993">
        <ele>22.39999961853</ele>
        <time>2019-11-24T09:43:28.000Z</time>
      </trkpt>
      <trkpt lat="47.36546" lon="-2.49009">
        <ele>22.39999961853</ele>
        <time>2019-11-24T09:43:31.000Z</time>
      </trkpt>
      <trkpt lat="47.36549" lon="-2.49014">
        <ele>22.39999961853</ele>
        <time>2019-11-24T09:43:32.000Z</time>
      </trkpt>
      <trkpt lat="47.36551" lon="-2.4902">
        <ele>21.799999237061</ele>
        <time>2019-11-24T09:43:33.000Z</time>
      </trkpt>
      <trkpt lat="47.36552" lon="-2.49026">
        <ele>21.39999961853</ele>
        <time>2019-11-24T09:43:34.000Z</time>
      </trkpt>
      <trkpt lat="47.36554" lon="-2.49032">
        <ele>21</ele>
        <time>2019-11-24T09:43:35.000Z</time>
      </trkpt>
      <trkpt lat="47.36555" lon="-2.49037">
        <ele>20.200000762939</ele>
        <time>2019-11-24T09:43:36.000Z</time>
      </trkpt>
      <trkpt lat="47.36556" lon="-2.49059">
        <ele>20.200000762939</ele>
        <time>2019-11-24T09:43:41.000Z</time>
      </trkpt>
      <trkpt lat="47.3655" lon="-2.49063">
        <ele>20.200000762939</ele>
        <time>2019-11-24T09:43:45.000Z</time>
      </trkpt>
      <trkpt lat="47.36546" lon="-2.4907">
        <ele>20.200000762939</ele>
        <time>2019-11-24T09:43:49.000Z</time>
      </trkpt>
      <trkpt lat="47.36542" lon="-2.49076">
        <ele>20.200000762939</ele>
        <time>2019-11-24T09:43:52.000Z</time>
      </trkpt>
      <trkpt lat="47.36532" lon="-2.49089">
        <ele>20.200000762939</ele>
        <time>2019-11-24T09:43:58.000Z</time>
      </trkpt>
      <trkpt lat="47.36516" lon="-2.49104">
        <ele>20.200000762939</ele>
        <time>2019-11-24T09:44:06.000Z</time>
      </trkpt>
      <trkpt lat="47.36505" lon="-2.49115">
        <ele>20.200000762939</ele>
        <time>2019-11-24T09:44:14.000Z</time>
      </trkpt>
      <trkpt lat="47.36498" lon="-2.49123">
        <ele>20.200000762939</ele>
        <time>2019-11-24T09:44:20.000Z</time>
      </trkpt>
      <trkpt lat="47.36489" lon="-2.49129">
        <ele>20.200000762939</ele>
        <time>2019-11-24T09:44:27.000Z</time>
      </trkpt>
      <trkpt lat="47.3648" lon="-2.49141">
        <ele>20.200000762939</ele>
        <time>2019-11-24T09:44:34.000Z</time>
      </trkpt>
      <trkpt lat="47.36476" lon="-2.49152">
        <ele>20.200000762939</ele>
        <time>2019-11-24T09:44:39.000Z</time>
      </trkpt>
      <trkpt lat="47.36473" lon="-2.4916">
        <ele>20.200000762939</ele>
        <time>2019-11-24T09:44:44.000Z</time>
      </trkpt>
      <trkpt lat="47.36473" lon="-2.4916">
        <ele>20.200000762939</ele>
        <time>2019-11-24T09:44:45.000Z</time>
      </trkpt>
      <trkpt lat="47.36476" lon="-2.49162">
        <ele>20.200000762939</ele>
        <time>2019-11-24T09:54:07.000Z</time>
      </trkpt>
      <trkpt lat="47.36477" lon="-2.49166">
        <ele>20.200000762939</ele>
        <time>2019-11-24T09:54:09.000Z</time>
      </trkpt>
      <trkpt lat="47.3648" lon="-2.49173">
        <ele>20.200000762939</ele>
        <time>2019-11-24T09:54:13.000Z</time>
      </trkpt>
      <trkpt lat="47.36486" lon="-2.49165">
        <ele>20.200000762939</ele>
        <time>2019-11-24T09:54:17.000Z</time>
      </trkpt>
      <trkpt lat="47.36489" lon="-2.49163">
        <ele>20.200000762939</ele>
        <time>2019-11-24T09:54:18.000Z</time>
      </trkpt>
      <trkpt lat="47.36498" lon="-2.49154">
        <ele>20.200000762939</ele>
        <time>2019-11-24T09:54:22.000Z</time>
      </trkpt>
      <trkpt lat="47.36515" lon="-2.49139">
        <ele>20.200000762939</ele>
        <time>2019-11-24T09:54:28.000Z</time>
      </trkpt>
      <trkpt lat="47.36515" lon="-2.49121">
        <ele>20.200000762939</ele>
        <time>2019-11-24T09:54:32.000Z</time>
      </trkpt>
      <trkpt lat="47.36514" lon="-2.49108">
        <ele>20.200000762939</ele>
        <time>2019-11-24T09:54:36.000Z</time>
      </trkpt>
      <trkpt lat="47.36523" lon="-2.49098">
        <ele>20.200000762939</ele>
        <time>2019-11-24T09:54:41.000Z</time>
      </trkpt>
      <trkpt lat="47.36524" lon="-2.49097">
        <ele>20.200000762939</ele>
        <time>2019-11-24T09:54:42.000Z</time>
      </trkpt>
      <trkpt lat="47.36531" lon="-2.4909">
        <ele>20.200000762939</ele>
        <time>2019-11-24T09:54:46.000Z</time>
      </trkpt>
      <trkpt lat="47.36543" lon="-2.49075">
        <ele>20.200000762939</ele>
        <time>2019-11-24T09:54:53.000Z</time>
      </trkpt>
      <trkpt lat="47.36551" lon="-2.4906">
        <ele>20.200000762939</ele>
        <time>2019-11-24T09:55:00.000Z</time>
      </trkpt>
      <trkpt lat="47.36554" lon="-2.49059">
        <ele>20.200000762939</ele>
        <time>2019-11-24T09:55:02.000Z</time>
      </trkpt>
      <trkpt lat="47.36559" lon="-2.49064">
        <ele>20.200000762939</ele>
        <time>2019-11-24T09:55:05.000Z</time>
      </trkpt>
      <trkpt lat="47.36562" lon="-2.4907">
        <ele>20.200000762939</ele>
        <time>2019-11-24T09:55:07.000Z</time>
      </trkpt>
      <trkpt lat="47.36566" lon="-2.4908">
        <ele>20.200000762939</ele>
        <time>2019-11-24T09:55:10.000Z</time>
      </trkpt>
      <trkpt lat="47.36568" lon="-2.49084">
        <ele>20.200000762939</ele>
        <time>2019-11-24T09:55:11.000Z</time>
      </trkpt>
      <trkpt lat="47.36576" lon="-2.49106">
        <ele>20.200000762939</ele>
        <time>2019-11-24T09:55:16.000Z</time>
      </trkpt>
      <trkpt lat="47.36595" lon="-2.49126">
        <ele>20.200000762939</ele>
        <time>2019-11-24T09:55:21.000Z</time>
      </trkpt>
      <trkpt lat="47.36611" lon="-2.49142">
        <ele>20.200000762939</ele>
        <time>2019-11-24T09:55:26.000Z</time>
      </trkpt>
      <trkpt lat="47.36626" lon="-2.49156">
        <ele>20.200000762939</ele>
        <time>2019-11-24T09:55:31.000Z</time>
      </trkpt>
      <trkpt lat="47.36642" lon="-2.49164">
        <ele>20.200000762939</ele>
        <time>2019-11-24T09:55:37.000Z</time>
      </trkpt>
      <trkpt lat="47.36651" lon="-2.49167">
        <ele>20.200000762939</ele>
        <time>2019-11-24T09:55:42.000Z</time>
      </trkpt>
      <trkpt lat="47.36659" lon="-2.49169">
        <ele>20.200000762939</ele>
        <time>2019-11-24T09:55:48.000Z</time>
      </trkpt>
      <trkpt lat="47.36665" lon="-2.49169">
        <ele>20.200000762939</ele>
        <time>2019-11-24T09:55:52.000Z</time>
      </trkpt>
      <trkpt lat="47.36669" lon="-2.49165">
        <ele>20.200000762939</ele>
        <time>2019-11-24T09:55:54.000Z</time>
      </trkpt>
      <trkpt lat="47.36673" lon="-2.49161">
        <ele>20.200000762939</ele>
        <time>2019-11-24T09:55:56.000Z</time>
      </trkpt>
      <trkpt lat="47.3668" lon="-2.49155">
        <ele>20.60000038147</ele>
        <time>2019-11-24T09:55:59.000Z</time>
      </trkpt>
      <trkpt lat="47.36683" lon="-2.49153">
        <ele>21</ele>
        <time>2019-11-24T09:56:00.000Z</time>
      </trkpt>
      <trkpt lat="47.36685" lon="-2.4915">
        <ele>21.39999961853</ele>
        <time>2019-11-24T09:56:01.000Z</time>
      </trkpt>
      <trkpt lat="47.36687" lon="-2.49147">
        <ele>21.799999237061</ele>
        <time>2019-11-24T09:56:02.000Z</time>
      </trkpt>
      <trkpt lat="47.3669" lon="-2.49144">
        <ele>22.200000762939</ele>
        <time>2019-11-24T09:56:03.000Z</time>
      </trkpt>
      <trkpt lat="47.36693" lon="-2.4914">
        <ele>22.200000762939</ele>
        <time>2019-11-24T09:56:04.000Z</time>
      </trkpt>
      <trkpt lat="47.36696" lon="-2.49136">
        <ele>22.200000762939</ele>
        <time>2019-11-24T09:56:05.000Z</time>
      </trkpt>
      <trkpt lat="47.367" lon="-2.49117">
        <ele>22.200000762939</ele>
        <time>2019-11-24T09:56:08.000Z</time>
      </trkpt>
      <trkpt lat="47.36693" lon="-2.4909">
        <ele>22.200000762939</ele>
        <time>2019-11-24T09:56:12.000Z</time>
      </trkpt>
      <trkpt lat="47.36677" lon="-2.49041">
        <ele>22.200000762939</ele>
        <time>2019-11-24T09:56:19.000Z</time>
      </trkpt>
      <trkpt lat="47.36676" lon="-2.49033">
        <ele>22.200000762939</ele>
        <time>2019-11-24T09:56:20.000Z</time>
      </trkpt>
      <trkpt lat="47.36676" lon="-2.49009">
        <ele>22.200000762939</ele>
        <time>2019-11-24T09:56:23.000Z</time>
      </trkpt>
      <trkpt lat="47.36684" lon="-2.48991">
        <ele>22.200000762939</ele>
        <time>2019-11-24T09:56:26.000Z</time>
      </trkpt>
      <trkpt lat="47.36692" lon="-2.48981">
        <ele>22.200000762939</ele>
        <time>2019-11-24T09:56:28.000Z</time>
      </trkpt>
      <trkpt lat="47.36705" lon="-2.48968">
        <ele>22.200000762939</ele>
        <time>2019-11-24T09:56:31.000Z</time>
      </trkpt>
      <trkpt lat="47.36713" lon="-2.48959">
        <ele>22.200000762939</ele>
        <time>2019-11-24T09:56:33.000Z</time>
      </trkpt>
      <trkpt lat="47.36723" lon="-2.4894">
        <ele>22.200000762939</ele>
        <time>2019-11-24T09:56:36.000Z</time>
      </trkpt>
      <trkpt lat="47.36729" lon="-2.48907">
        <ele>22.200000762939</ele>
        <time>2019-11-24T09:56:41.000Z</time>
      </trkpt>
      <trkpt lat="47.36735" lon="-2.48847">
        <ele>22.200000762939</ele>
        <time>2019-11-24T09:56:49.000Z</time>
      </trkpt>
      <trkpt lat="47.36741" lon="-2.4879">
        <ele>22.200000762939</ele>
        <time>2019-11-24T09:56:57.000Z</time>
      </trkpt>
      <trkpt lat="47.36753" lon="-2.48732">
        <ele>22.200000762939</ele>
        <time>2019-11-24T09:57:05.000Z</time>
      </trkpt>
      <trkpt lat="47.36765" lon="-2.48692">
        <ele>22.200000762939</ele>
        <time>2019-11-24T09:57:11.000Z</time>
      </trkpt>
      <trkpt lat="47.36779" lon="-2.48647">
        <ele>22.200000762939</ele>
        <time>2019-11-24T09:57:18.000Z</time>
      </trkpt>
      <trkpt lat="47.3679" lon="-2.48603">
        <ele>22.200000762939</ele>
        <time>2019-11-24T09:57:24.000Z</time>
      </trkpt>
      <trkpt lat="47.36794" lon="-2.48549">
        <ele>22.200000762939</ele>
        <time>2019-11-24T09:57:31.000Z</time>
      </trkpt>
      <trkpt lat="47.36793" lon="-2.48498">
        <ele>22.60000038147</ele>
        <time>2019-11-24T09:57:38.000Z</time>
      </trkpt>
      <trkpt lat="47.36793" lon="-2.48491">
        <ele>23</ele>
        <time>2019-11-24T09:57:39.000Z</time>
      </trkpt>
      <trkpt lat="47.36793" lon="-2.48483">
        <ele>23.39999961853</ele>
        <time>2019-11-24T09:57:40.000Z</time>
      </trkpt>
      <trkpt lat="47.36794" lon="-2.48475">
        <ele>23.799999237061</ele>
        <time>2019-11-24T09:57:41.000Z</time>
      </trkpt>
      <trkpt lat="47.36794" lon="-2.48468">
        <ele>24.200000762939</ele>
        <time>2019-11-24T09:57:42.000Z</time>
      </trkpt>
      <trkpt lat="47.36798" lon="-2.48445">
        <ele>24.200000762939</ele>
        <time>2019-11-24T09:57:45.000Z</time>
      </trkpt>
      <trkpt lat="47.36809" lon="-2.48394">
        <ele>24.200000762939</ele>
        <time>2019-11-24T09:57:52.000Z</time>
      </trkpt>
      <trkpt lat="47.3681" lon="-2.48386">
        <ele>24.200000762939</ele>
        <time>2019-11-24T09:57:53.000Z</time>
      </trkpt>
      <trkpt lat="47.36815" lon="-2.48328">
        <ele>25</ele>
        <time>2019-11-24T09:58:01.000Z</time>
      </trkpt>
      <trkpt lat="47.36816" lon="-2.48321">
        <ele>25.39999961853</ele>
        <time>2019-11-24T09:58:02.000Z</time>
      </trkpt>
      <trkpt lat="47.36817" lon="-2.48313">
        <ele>25.799999237061</ele>
        <time>2019-11-24T09:58:03.000Z</time>
      </trkpt>
      <trkpt lat="47.36818" lon="-2.48306">
        <ele>26.39999961853</ele>
        <time>2019-11-24T09:58:04.000Z</time>
      </trkpt>
      <trkpt lat="47.36822" lon="-2.48278">
        <ele>26.39999961853</ele>
        <time>2019-11-24T09:58:08.000Z</time>
      </trkpt>
      <trkpt lat="47.36827" lon="-2.48254">
        <ele>26.39999961853</ele>
        <time>2019-11-24T09:58:13.000Z</time>
      </trkpt>
      <trkpt lat="47.36834" lon="-2.48246">
        <ele>26.39999961853</ele>
        <time>2019-11-24T09:58:16.000Z</time>
      </trkpt>
      <trkpt lat="47.36837" lon="-2.48246">
        <ele>26.39999961853</ele>
        <time>2019-11-24T09:58:17.000Z</time>
      </trkpt>
      <trkpt lat="47.3686" lon="-2.48249">
        <ele>26.39999961853</ele>
        <time>2019-11-24T09:58:22.000Z</time>
      </trkpt>
      <trkpt lat="47.36884" lon="-2.48247">
        <ele>26.39999961853</ele>
        <time>2019-11-24T09:58:27.000Z</time>
      </trkpt>
      <trkpt lat="47.369" lon="-2.48242">
        <ele>26.799999237061</ele>
        <time>2019-11-24T09:58:30.000Z</time>
      </trkpt>
      <trkpt lat="47.36905" lon="-2.4824">
        <ele>27.200000762939</ele>
        <time>2019-11-24T09:58:31.000Z</time>
      </trkpt>
      <trkpt lat="47.3691" lon="-2.48237">
        <ele>27.60000038147</ele>
        <time>2019-11-24T09:58:32.000Z</time>
      </trkpt>
      <trkpt lat="47.36915" lon="-2.48235">
        <ele>28</ele>
        <time>2019-11-24T09:58:33.000Z</time>
      </trkpt>
      <trkpt lat="47.3692" lon="-2.48233">
        <ele>28.39999961853</ele>
        <time>2019-11-24T09:58:34.000Z</time>
      </trkpt>
      <trkpt lat="47.36946" lon="-2.4822">
        <ele>28.39999961853</ele>
        <time>2019-11-24T09:58:39.000Z</time>
      </trkpt>
      <trkpt lat="47.36973" lon="-2.48206">
        <ele>28.39999961853</ele>
        <time>2019-11-24T09:58:44.000Z</time>
      </trkpt>
      <trkpt lat="47.36994" lon="-2.48195">
        <ele>28.39999961853</ele>
        <time>2019-11-24T09:58:48.000Z</time>
      </trkpt>
      <trkpt lat="47.37015" lon="-2.48183">
        <ele>28.39999961853</ele>
        <time>2019-11-24T09:58:52.000Z</time>
      </trkpt>
      <trkpt lat="47.37027" lon="-2.48176">
        <ele>28.39999961853</ele>
        <time>2019-11-24T09:58:54.000Z</time>
      </trkpt>
      <trkpt lat="47.37048" lon="-2.48165">
        <ele>28.39999961853</ele>
        <time>2019-11-24T09:58:58.000Z</time>
      </trkpt>
      <trkpt lat="47.37058" lon="-2.48159">
        <ele>28.39999961853</ele>
        <time>2019-11-24T09:59:00.000Z</time>
      </trkpt>
      <trkpt lat="47.37074" lon="-2.48149">
        <ele>28.39999961853</ele>
        <time>2019-11-24T09:59:03.000Z</time>
      </trkpt>
      <trkpt lat="47.37099" lon="-2.4813">
        <ele>28.39999961853</ele>
        <time>2019-11-24T09:59:08.000Z</time>
      </trkpt>
      <trkpt lat="47.37128" lon="-2.48101">
        <ele>28.39999961853</ele>
        <time>2019-11-24T09:59:14.000Z</time>
      </trkpt>
      <trkpt lat="47.37145" lon="-2.48084">
        <ele>28.39999961853</ele>
        <time>2019-11-24T09:59:18.000Z</time>
      </trkpt>
      <trkpt lat="47.37149" lon="-2.4808">
        <ele>28.39999961853</ele>
        <time>2019-11-24T09:59:19.000Z</time>
      </trkpt>
      <trkpt lat="47.37158" lon="-2.48072">
        <ele>28.39999961853</ele>
        <time>2019-11-24T09:59:21.000Z</time>
      </trkpt>
      <trkpt lat="47.37166" lon="-2.48065">
        <ele>28.39999961853</ele>
        <time>2019-11-24T09:59:23.000Z</time>
      </trkpt>
      <trkpt lat="47.3717" lon="-2.48061">
        <ele>28.39999961853</ele>
        <time>2019-11-24T09:59:24.000Z</time>
      </trkpt>
      <trkpt lat="47.3719" lon="-2.48042">
        <ele>28.39999961853</ele>
        <time>2019-11-24T09:59:29.000Z</time>
      </trkpt>
      <trkpt lat="47.3722" lon="-2.48013">
        <ele>28.39999961853</ele>
        <time>2019-11-24T09:59:35.000Z</time>
      </trkpt>
      <trkpt lat="47.37242" lon="-2.47992">
        <ele>28.39999961853</ele>
        <time>2019-11-24T09:59:39.000Z</time>
      </trkpt>
      <trkpt lat="47.37246" lon="-2.47987">
        <ele>28.39999961853</ele>
        <time>2019-11-24T09:59:40.000Z</time>
      </trkpt>
      <trkpt lat="47.37274" lon="-2.47949">
        <ele>28.39999961853</ele>
        <time>2019-11-24T09:59:47.000Z</time>
      </trkpt>
      <trkpt lat="47.3729" lon="-2.47928">
        <ele>28.39999961853</ele>
        <time>2019-11-24T09:59:51.000Z</time>
      </trkpt>
      <trkpt lat="47.37294" lon="-2.47923">
        <ele>28.39999961853</ele>
        <time>2019-11-24T09:59:52.000Z</time>
      </trkpt>
      <trkpt lat="47.37324" lon="-2.47888">
        <ele>28.39999961853</ele>
        <time>2019-11-24T09:59:58.000Z</time>
      </trkpt>
      <trkpt lat="47.37358" lon="-2.47851">
        <ele>28.39999961853</ele>
        <time>2019-11-24T10:00:04.000Z</time>
      </trkpt>
      <trkpt lat="47.37362" lon="-2.47846">
        <ele>28.39999961853</ele>
        <time>2019-11-24T10:00:05.000Z</time>
      </trkpt>
      <trkpt lat="47.37383" lon="-2.47828">
        <ele>28.39999961853</ele>
        <time>2019-11-24T10:00:09.000Z</time>
      </trkpt>
      <trkpt lat="47.37421" lon="-2.47794">
        <ele>28.39999961853</ele>
        <time>2019-11-24T10:00:15.000Z</time>
      </trkpt>
      <trkpt lat="47.37427" lon="-2.4779">
        <ele>28.39999961853</ele>
        <time>2019-11-24T10:00:16.000Z</time>
      </trkpt>
      <trkpt lat="47.37445" lon="-2.47775">
        <ele>28.39999961853</ele>
        <time>2019-11-24T10:00:19.000Z</time>
      </trkpt>
      <trkpt lat="47.37489" lon="-2.47737">
        <ele>28.39999961853</ele>
        <time>2019-11-24T10:00:26.000Z</time>
      </trkpt>
      <trkpt lat="47.37524" lon="-2.47711">
        <ele>28</ele>
        <time>2019-11-24T10:00:31.000Z</time>
      </trkpt>
      <trkpt lat="47.37531" lon="-2.47706">
        <ele>27.60000038147</ele>
        <time>2019-11-24T10:00:32.000Z</time>
      </trkpt>
      <trkpt lat="47.37538" lon="-2.47701">
        <ele>27.200000762939</ele>
        <time>2019-11-24T10:00:33.000Z</time>
      </trkpt>
      <trkpt lat="47.37546" lon="-2.47696">
        <ele>26.799999237061</ele>
        <time>2019-11-24T10:00:34.000Z</time>
      </trkpt>
      <trkpt lat="47.37552" lon="-2.4769">
        <ele>26.39999961853</ele>
        <time>2019-11-24T10:00:35.000Z</time>
      </trkpt>
      <trkpt lat="47.37585" lon="-2.47666">
        <ele>26.39999961853</ele>
        <time>2019-11-24T10:00:40.000Z</time>
      </trkpt>
      <trkpt lat="47.37637" lon="-2.47629">
        <ele>26.39999961853</ele>
        <time>2019-11-24T10:00:48.000Z</time>
      </trkpt>
      <trkpt lat="47.37644" lon="-2.47625">
        <ele>26.39999961853</ele>
        <time>2019-11-24T10:00:49.000Z</time>
      </trkpt>
      <trkpt lat="47.37651" lon="-2.4762">
        <ele>26</ele>
        <time>2019-11-24T10:00:50.000Z</time>
      </trkpt>
      <trkpt lat="47.37657" lon="-2.47615">
        <ele>25.60000038147</ele>
        <time>2019-11-24T10:00:51.000Z</time>
      </trkpt>
      <trkpt lat="47.37663" lon="-2.4761">
        <ele>25.200000762939</ele>
        <time>2019-11-24T10:00:52.000Z</time>
      </trkpt>
      <trkpt lat="47.37669" lon="-2.47605">
        <ele>24.799999237061</ele>
        <time>2019-11-24T10:00:53.000Z</time>
      </trkpt>
      <trkpt lat="47.37675" lon="-2.476">
        <ele>24.200000762939</ele>
        <time>2019-11-24T10:00:54.000Z</time>
      </trkpt>
      <trkpt lat="47.37682" lon="-2.47596">
        <ele>24.200000762939</ele>
        <time>2019-11-24T10:00:55.000Z</time>
      </trkpt>
      <trkpt lat="47.37711" lon="-2.47574">
        <ele>24.200000762939</ele>
        <time>2019-11-24T10:01:00.000Z</time>
      </trkpt>
      <trkpt lat="47.37727" lon="-2.47567">
        <ele>24.200000762939</ele>
        <time>2019-11-24T10:01:04.000Z</time>
      </trkpt>
      <trkpt lat="47.37731" lon="-2.47573">
        <ele>23.799999237061</ele>
        <time>2019-11-24T10:01:06.000Z</time>
      </trkpt>
      <trkpt lat="47.37732" lon="-2.47576">
        <ele>23.39999961853</ele>
        <time>2019-11-24T10:01:07.000Z</time>
      </trkpt>
      <trkpt lat="47.37731" lon="-2.4758">
        <ele>23</ele>
        <time>2019-11-24T10:01:08.000Z</time>
      </trkpt>
      <trkpt lat="47.3773" lon="-2.47584">
        <ele>22.60000038147</ele>
        <time>2019-11-24T10:01:09.000Z</time>
      </trkpt>
      <trkpt lat="47.37729" lon="-2.47589">
        <ele>22.200000762939</ele>
        <time>2019-11-24T10:01:10.000Z</time>
      </trkpt>
      <trkpt lat="47.37728" lon="-2.47601">
        <ele>22.200000762939</ele>
        <time>2019-11-24T10:01:12.000Z</time>
      </trkpt>
      <trkpt lat="47.37726" lon="-2.47614">
        <ele>22.200000762939</ele>
        <time>2019-11-24T10:01:14.000Z</time>
      </trkpt>
      <trkpt lat="47.37725" lon="-2.47622">
        <ele>22.200000762939</ele>
        <time>2019-11-24T10:01:15.000Z</time>
      </trkpt>
      <trkpt lat="47.3772" lon="-2.47645">
        <ele>22.200000762939</ele>
        <time>2019-11-24T10:01:18.000Z</time>
      </trkpt>
      <trkpt lat="47.37718" lon="-2.47663">
        <ele>22.200000762939</ele>
        <time>2019-11-24T10:01:20.000Z</time>
      </trkpt>
      <trkpt lat="47.37715" lon="-2.47687">
        <ele>22.200000762939</ele>
        <time>2019-11-24T10:01:23.000Z</time>
      </trkpt>
      <trkpt lat="47.37711" lon="-2.4771">
        <ele>22.200000762939</ele>
        <time>2019-11-24T10:01:26.000Z</time>
      </trkpt>
      <trkpt lat="47.3771" lon="-2.47734">
        <ele>22.200000762939</ele>
        <time>2019-11-24T10:01:29.000Z</time>
      </trkpt>
      <trkpt lat="47.37707" lon="-2.47748">
        <ele>22.200000762939</ele>
        <time>2019-11-24T10:01:31.000Z</time>
      </trkpt>
      <trkpt lat="47.37705" lon="-2.47762">
        <ele>22.200000762939</ele>
        <time>2019-11-24T10:01:33.000Z</time>
      </trkpt>
      <trkpt lat="47.37699" lon="-2.47804">
        <ele>22.200000762939</ele>
        <time>2019-11-24T10:01:39.000Z</time>
      </trkpt>
      <trkpt lat="47.37692" lon="-2.47846">
        <ele>22.200000762939</ele>
        <time>2019-11-24T10:01:45.000Z</time>
      </trkpt>
      <trkpt lat="47.37691" lon="-2.47853">
        <ele>22.200000762939</ele>
        <time>2019-11-24T10:01:46.000Z</time>
      </trkpt>
      <trkpt lat="47.37686" lon="-2.47888">
        <ele>22.200000762939</ele>
        <time>2019-11-24T10:01:51.000Z</time>
      </trkpt>
      <trkpt lat="47.3768" lon="-2.47928">
        <ele>22.200000762939</ele>
        <time>2019-11-24T10:01:57.000Z</time>
      </trkpt>
      <trkpt lat="47.37677" lon="-2.47948">
        <ele>22.200000762939</ele>
        <time>2019-11-24T10:02:00.000Z</time>
      </trkpt>
      <trkpt lat="47.37675" lon="-2.47962">
        <ele>22.200000762939</ele>
        <time>2019-11-24T10:02:02.000Z</time>
      </trkpt>
      <trkpt lat="47.37673" lon="-2.47989">
        <ele>22.200000762939</ele>
        <time>2019-11-24T10:02:06.000Z</time>
      </trkpt>
      <trkpt lat="47.37673" lon="-2.47996">
        <ele>22.200000762939</ele>
        <time>2019-11-24T10:02:07.000Z</time>
      </trkpt>
      <trkpt lat="47.37669" lon="-2.48033">
        <ele>22.200000762939</ele>
        <time>2019-11-24T10:02:12.000Z</time>
      </trkpt>
      <trkpt lat="47.37663" lon="-2.48081">
        <ele>22.200000762939</ele>
        <time>2019-11-24T10:02:18.000Z</time>
      </trkpt>
      <trkpt lat="47.37663" lon="-2.48088">
        <ele>21.799999237061</ele>
        <time>2019-11-24T10:02:19.000Z</time>
      </trkpt>
      <trkpt lat="47.37663" lon="-2.48096">
        <ele>21.200000762939</ele>
        <time>2019-11-24T10:02:20.000Z</time>
      </trkpt>
      <trkpt lat="47.37661" lon="-2.48105">
        <ele>20.799999237061</ele>
        <time>2019-11-24T10:02:21.000Z</time>
      </trkpt>
      <trkpt lat="47.3766" lon="-2.48113">
        <ele>20.39999961853</ele>
        <time>2019-11-24T10:02:22.000Z</time>
      </trkpt>
      <trkpt lat="47.37659" lon="-2.48121">
        <ele>20</ele>
        <time>2019-11-24T10:02:23.000Z</time>
      </trkpt>
      <trkpt lat="47.37654" lon="-2.48168">
        <ele>20</ele>
        <time>2019-11-24T10:02:28.000Z</time>
      </trkpt>
      <trkpt lat="47.3765" lon="-2.48196">
        <ele>20</ele>
        <time>2019-11-24T10:02:31.000Z</time>
      </trkpt>
      <trkpt lat="47.37646" lon="-2.48212">
        <ele>20</ele>
        <time>2019-11-24T10:02:33.000Z</time>
      </trkpt>
      <trkpt lat="47.37644" lon="-2.4822">
        <ele>19.200000762939</ele>
        <time>2019-11-24T10:02:34.000Z</time>
      </trkpt>
      <trkpt lat="47.37642" lon="-2.48228">
        <ele>18.799999237061</ele>
        <time>2019-11-24T10:02:35.000Z</time>
      </trkpt>
      <trkpt lat="47.3764" lon="-2.48236">
        <ele>18.39999961853</ele>
        <time>2019-11-24T10:02:36.000Z</time>
      </trkpt>
      <trkpt lat="47.37641" lon="-2.48244">
        <ele>18</ele>
        <time>2019-11-24T10:02:37.000Z</time>
      </trkpt>
      <trkpt lat="47.37638" lon="-2.48264">
        <ele>18</ele>
        <time>2019-11-24T10:02:41.000Z</time>
      </trkpt>
      <trkpt lat="47.37633" lon="-2.48286">
        <ele>18</ele>
        <time>2019-11-24T10:02:46.000Z</time>
      </trkpt>
      <trkpt lat="47.37631" lon="-2.48316">
        <ele>18</ele>
        <time>2019-11-24T10:02:51.000Z</time>
      </trkpt>
      <trkpt lat="47.37629" lon="-2.48336">
        <ele>18</ele>
        <time>2019-11-24T10:02:54.000Z</time>
      </trkpt>
      <trkpt lat="47.37628" lon="-2.48357">
        <ele>18</ele>
        <time>2019-11-24T10:02:57.000Z</time>
      </trkpt>
      <trkpt lat="47.37627" lon="-2.48378">
        <ele>18</ele>
        <time>2019-11-24T10:03:00.000Z</time>
      </trkpt>
      <trkpt lat="47.37626" lon="-2.48398">
        <ele>18</ele>
        <time>2019-11-24T10:03:03.000Z</time>
      </trkpt>
      <trkpt lat="47.37625" lon="-2.48404">
        <ele>18</ele>
        <time>2019-11-24T10:03:04.000Z</time>
      </trkpt>
      <trkpt lat="47.37626" lon="-2.4841">
        <ele>18</ele>
        <time>2019-11-24T10:03:05.000Z</time>
      </trkpt>
      <trkpt lat="47.37626" lon="-2.48416">
        <ele>17.60000038147</ele>
        <time>2019-11-24T10:03:06.000Z</time>
      </trkpt>
      <trkpt lat="47.37626" lon="-2.48421">
        <ele>17.200000762939</ele>
        <time>2019-11-24T10:03:07.000Z</time>
      </trkpt>
      <trkpt lat="47.37628" lon="-2.48427">
        <ele>16.799999237061</ele>
        <time>2019-11-24T10:03:08.000Z</time>
      </trkpt>
      <trkpt lat="47.37629" lon="-2.48432">
        <ele>16.39999961853</ele>
        <time>2019-11-24T10:03:09.000Z</time>
      </trkpt>
      <trkpt lat="47.3763" lon="-2.48437">
        <ele>15.800000190735</ele>
        <time>2019-11-24T10:03:10.000Z</time>
      </trkpt>
      <trkpt lat="47.37632" lon="-2.48448">
        <ele>15.800000190735</ele>
        <time>2019-11-24T10:03:12.000Z</time>
      </trkpt>
      <trkpt lat="47.37633" lon="-2.48469">
        <ele>15.800000190735</ele>
        <time>2019-11-24T10:03:17.000Z</time>
      </trkpt>
      <trkpt lat="47.3763" lon="-2.48474">
        <ele>15.800000190735</ele>
        <time>2019-11-24T10:03:20.000Z</time>
      </trkpt>
      <trkpt lat="47.37625" lon="-2.48482">
        <ele>15.800000190735</ele>
        <time>2019-11-24T10:05:00.000Z</time>
      </trkpt>
      <trkpt lat="47.37623" lon="-2.48484">
        <ele>15.800000190735</ele>
        <time>2019-11-24T10:05:01.000Z</time>
      </trkpt>
      <trkpt lat="47.37611" lon="-2.48495">
        <ele>15.800000190735</ele>
        <time>2019-11-24T10:05:06.000Z</time>
      </trkpt>
      <trkpt lat="47.37594" lon="-2.48511">
        <ele>15.800000190735</ele>
        <time>2019-11-24T10:05:12.000Z</time>
      </trkpt>
      <trkpt lat="47.37567" lon="-2.48536">
        <ele>15.800000190735</ele>
        <time>2019-11-24T10:05:19.000Z</time>
      </trkpt>
      <trkpt lat="47.37563" lon="-2.4854">
        <ele>15.800000190735</ele>
        <time>2019-11-24T10:05:20.000Z</time>
      </trkpt>
      <trkpt lat="47.37547" lon="-2.48555">
        <ele>15.800000190735</ele>
        <time>2019-11-24T10:05:24.000Z</time>
      </trkpt>
      <trkpt lat="47.37532" lon="-2.48569">
        <ele>15.800000190735</ele>
        <time>2019-11-24T10:05:28.000Z</time>
      </trkpt>
      <trkpt lat="47.37524" lon="-2.48575">
        <ele>15.800000190735</ele>
        <time>2019-11-24T10:05:30.000Z</time>
      </trkpt>
      <trkpt lat="47.37511" lon="-2.48588">
        <ele>15.800000190735</ele>
        <time>2019-11-24T10:05:35.000Z</time>
      </trkpt>
      <trkpt lat="47.37492" lon="-2.48606">
        <ele>15.800000190735</ele>
        <time>2019-11-24T10:05:41.000Z</time>
      </trkpt>
      <trkpt lat="47.37466" lon="-2.48631">
        <ele>15.800000190735</ele>
        <time>2019-11-24T10:05:48.000Z</time>
      </trkpt>
      <trkpt lat="47.37455" lon="-2.48641">
        <ele>16.799999237061</ele>
        <time>2019-11-24T10:05:51.000Z</time>
      </trkpt>
      <trkpt lat="47.37451" lon="-2.48645">
        <ele>17.200000762939</ele>
        <time>2019-11-24T10:05:52.000Z</time>
      </trkpt>
      <trkpt lat="47.37447" lon="-2.48649">
        <ele>17.60000038147</ele>
        <time>2019-11-24T10:05:53.000Z</time>
      </trkpt>
      <trkpt lat="47.37443" lon="-2.48653">
        <ele>18</ele>
        <time>2019-11-24T10:05:54.000Z</time>
      </trkpt>
      <trkpt lat="47.37434" lon="-2.4866">
        <ele>18</ele>
        <time>2019-11-24T10:05:56.000Z</time>
      </trkpt>
      <trkpt lat="47.37399" lon="-2.48692">
        <ele>18</ele>
        <time>2019-11-24T10:06:04.000Z</time>
      </trkpt>
      <trkpt lat="47.37368" lon="-2.48721">
        <ele>18</ele>
        <time>2019-11-24T10:06:11.000Z</time>
      </trkpt>
      <trkpt lat="47.37331" lon="-2.48754">
        <ele>18</ele>
        <time>2019-11-24T10:06:19.000Z</time>
      </trkpt>
      <trkpt lat="47.37305" lon="-2.48777">
        <ele>18</ele>
        <time>2019-11-24T10:06:25.000Z</time>
      </trkpt>
      <trkpt lat="47.37296" lon="-2.48784">
        <ele>18</ele>
        <time>2019-11-24T10:06:27.000Z</time>
      </trkpt>
      <trkpt lat="47.37288" lon="-2.48793">
        <ele>18</ele>
        <time>2019-11-24T10:06:29.000Z</time>
      </trkpt>
      <trkpt lat="47.37252" lon="-2.48828">
        <ele>18</ele>
        <time>2019-11-24T10:06:37.000Z</time>
      </trkpt>
      <trkpt lat="47.3723" lon="-2.48848">
        <ele>18.39999961853</ele>
        <time>2019-11-24T10:06:42.000Z</time>
      </trkpt>
      <trkpt lat="47.37226" lon="-2.48852">
        <ele>18.799999237061</ele>
        <time>2019-11-24T10:06:43.000Z</time>
      </trkpt>
      <trkpt lat="47.37222" lon="-2.48856">
        <ele>19.200000762939</ele>
        <time>2019-11-24T10:06:44.000Z</time>
      </trkpt>
      <trkpt lat="47.37218" lon="-2.4886">
        <ele>19.60000038147</ele>
        <time>2019-11-24T10:06:45.000Z</time>
      </trkpt>
      <trkpt lat="47.37214" lon="-2.48864">
        <ele>20</ele>
        <time>2019-11-24T10:06:46.000Z</time>
      </trkpt>
      <trkpt lat="47.3721" lon="-2.48868">
        <ele>20</ele>
        <time>2019-11-24T10:06:47.000Z</time>
      </trkpt>
      <trkpt lat="47.37185" lon="-2.48892">
        <ele>20</ele>
        <time>2019-11-24T10:06:53.000Z</time>
      </trkpt>
      <trkpt lat="47.3716" lon="-2.48915">
        <ele>20</ele>
        <time>2019-11-24T10:06:59.000Z</time>
      </trkpt>
      <trkpt lat="47.37147" lon="-2.48927">
        <ele>20</ele>
        <time>2019-11-24T10:07:02.000Z</time>
      </trkpt>
      <trkpt lat="47.37138" lon="-2.48936">
        <ele>20</ele>
        <time>2019-11-24T10:07:04.000Z</time>
      </trkpt>
      <trkpt lat="47.37095" lon="-2.48975">
        <ele>20</ele>
        <time>2019-11-24T10:07:14.000Z</time>
      </trkpt>
      <trkpt lat="47.37086" lon="-2.48983">
        <ele>20.39999961853</ele>
        <time>2019-11-24T10:07:16.000Z</time>
      </trkpt>
      <trkpt lat="47.37082" lon="-2.48987">
        <ele>20.799999237061</ele>
        <time>2019-11-24T10:07:17.000Z</time>
      </trkpt>
      <trkpt lat="47.37078" lon="-2.48991">
        <ele>21.200000762939</ele>
        <time>2019-11-24T10:07:18.000Z</time>
      </trkpt>
      <trkpt lat="47.37073" lon="-2.48995">
        <ele>21.60000038147</ele>
        <time>2019-11-24T10:07:19.000Z</time>
      </trkpt>
      <trkpt lat="47.37069" lon="-2.48998">
        <ele>22</ele>
        <time>2019-11-24T10:07:20.000Z</time>
      </trkpt>
      <trkpt lat="47.37065" lon="-2.49001">
        <ele>22</ele>
        <time>2019-11-24T10:07:21.000Z</time>
      </trkpt>
      <trkpt lat="47.37032" lon="-2.49028">
        <ele>22</ele>
        <time>2019-11-24T10:07:28.000Z</time>
      </trkpt>
      <trkpt lat="47.36999" lon="-2.49062">
        <ele>22</ele>
        <time>2019-11-24T10:07:35.000Z</time>
      </trkpt>
      <trkpt lat="47.36986" lon="-2.49078">
        <ele>22</ele>
        <time>2019-11-24T10:07:38.000Z</time>
      </trkpt>
      <trkpt lat="47.36974" lon="-2.49094">
        <ele>22</ele>
        <time>2019-11-24T10:07:41.000Z</time>
      </trkpt>
      <trkpt lat="47.36965" lon="-2.49104">
        <ele>22</ele>
        <time>2019-11-24T10:07:43.000Z</time>
      </trkpt>
      <trkpt lat="47.36952" lon="-2.4912">
        <ele>22</ele>
        <time>2019-11-24T10:07:46.000Z</time>
      </trkpt>
      <trkpt lat="47.36933" lon="-2.49142">
        <ele>22</ele>
        <time>2019-11-24T10:07:51.000Z</time>
      </trkpt>
      <trkpt lat="47.36917" lon="-2.49157">
        <ele>22</ele>
        <time>2019-11-24T10:07:55.000Z</time>
      </trkpt>
      <trkpt lat="47.36913" lon="-2.49161">
        <ele>22</ele>
        <time>2019-11-24T10:07:56.000Z</time>
      </trkpt>
      <trkpt lat="47.36887" lon="-2.49194">
        <ele>22</ele>
        <time>2019-11-24T10:08:03.000Z</time>
      </trkpt>
      <trkpt lat="47.3686" lon="-2.49224">
        <ele>22</ele>
        <time>2019-11-24T10:08:09.000Z</time>
      </trkpt>
      <trkpt lat="47.36827" lon="-2.49261">
        <ele>22</ele>
        <time>2019-11-24T10:08:16.000Z</time>
      </trkpt>
      <trkpt lat="47.36812" lon="-2.49272">
        <ele>22</ele>
        <time>2019-11-24T10:08:19.000Z</time>
      </trkpt>
      <trkpt lat="47.36801" lon="-2.49276">
        <ele>22</ele>
        <time>2019-11-24T10:08:21.000Z</time>
      </trkpt>
      <trkpt lat="47.3677" lon="-2.49284">
        <ele>22</ele>
        <time>2019-11-24T10:08:27.000Z</time>
      </trkpt>
      <trkpt lat="47.36765" lon="-2.49287">
        <ele>22</ele>
        <time>2019-11-24T10:08:28.000Z</time>
      </trkpt>
      <trkpt lat="47.3676" lon="-2.49291">
        <ele>22</ele>
        <time>2019-11-24T10:08:29.000Z</time>
      </trkpt>
      <trkpt lat="47.36748" lon="-2.49303">
        <ele>22</ele>
        <time>2019-11-24T10:08:32.000Z</time>
      </trkpt>
      <trkpt lat="47.36734" lon="-2.49318">
        <ele>22</ele>
        <time>2019-11-24T10:08:37.000Z</time>
      </trkpt>
      <trkpt lat="47.36734" lon="-2.4932">
        <ele>22</ele>
        <time>2019-11-24T10:08:38.000Z</time>
      </trkpt>
      <trkpt lat="47.36731" lon="-2.49322">
        <ele>22</ele>
        <time>2019-11-24T10:08:41.000Z</time>
      </trkpt>
      <trkpt lat="47.36729" lon="-2.49327">
        <ele>22</ele>
        <time>2019-11-24T10:08:44.000Z</time>
      </trkpt>
      <trkpt lat="47.36729" lon="-2.4933">
        <ele>22</ele>
        <time>2019-11-24T10:08:45.000Z</time>
      </trkpt>
      <trkpt lat="47.36732" lon="-2.49343">
        <ele>22</ele>
        <time>2019-11-24T10:08:48.000Z</time>
      </trkpt>
      <trkpt lat="47.36734" lon="-2.49347">
        <ele>22</ele>
        <time>2019-11-24T10:08:49.000Z</time>
      </trkpt>
      <trkpt lat="47.36744" lon="-2.49383">
        <ele>22</ele>
        <time>2019-11-24T10:08:55.000Z</time>
      </trkpt>
      <trkpt lat="47.36757" lon="-2.49424">
        <ele>22</ele>
        <time>2019-11-24T10:09:01.000Z</time>
      </trkpt>
      <trkpt lat="47.36773" lon="-2.4948">
        <ele>22</ele>
        <time>2019-11-24T10:09:08.000Z</time>
      </trkpt>
      <trkpt lat="47.36776" lon="-2.4949">
        <ele>20.799999237061</ele>
        <time>2019-11-24T10:09:09.000Z</time>
      </trkpt>
      <trkpt lat="47.36778" lon="-2.49499">
        <ele>20.200000762939</ele>
        <time>2019-11-24T10:09:10.000Z</time>
      </trkpt>
      <trkpt lat="47.3678" lon="-2.49507">
        <ele>19.60000038147</ele>
        <time>2019-11-24T10:09:11.000Z</time>
      </trkpt>
      <trkpt lat="47.36783" lon="-2.49517">
        <ele>19</ele>
        <time>2019-11-24T10:09:12.000Z</time>
      </trkpt>
      <trkpt lat="47.36787" lon="-2.49546">
        <ele>19</ele>
        <time>2019-11-24T10:09:15.000Z</time>
      </trkpt>
      <trkpt lat="47.36786" lon="-2.49597">
        <ele>19</ele>
        <time>2019-11-24T10:09:20.000Z</time>
      </trkpt>
      <trkpt lat="47.36777" lon="-2.4966">
        <ele>19</ele>
        <time>2019-11-24T10:09:27.000Z</time>
      </trkpt>
      <trkpt lat="47.36766" lon="-2.49731">
        <ele>19</ele>
        <time>2019-11-24T10:09:34.000Z</time>
      </trkpt>
      <trkpt lat="47.36759" lon="-2.49782">
        <ele>19</ele>
        <time>2019-11-24T10:09:39.000Z</time>
      </trkpt>
      <trkpt lat="47.36757" lon="-2.49793">
        <ele>18.60000038147</ele>
        <time>2019-11-24T10:09:40.000Z</time>
      </trkpt>
      <trkpt lat="47.36756" lon="-2.49803">
        <ele>18.200000762939</ele>
        <time>2019-11-24T10:09:41.000Z</time>
      </trkpt>
      <trkpt lat="47.36754" lon="-2.49814">
        <ele>17.799999237061</ele>
        <time>2019-11-24T10:09:42.000Z</time>
      </trkpt>
      <trkpt lat="47.36753" lon="-2.49824">
        <ele>17.39999961853</ele>
        <time>2019-11-24T10:09:43.000Z</time>
      </trkpt>
      <trkpt lat="47.36751" lon="-2.49834">
        <ele>16.799999237061</ele>
        <time>2019-11-24T10:09:44.000Z</time>
      </trkpt>
      <trkpt lat="47.36747" lon="-2.49864">
        <ele>16.799999237061</ele>
        <time>2019-11-24T10:09:47.000Z</time>
      </trkpt>
      <trkpt lat="47.36735" lon="-2.49941">
        <ele>16.799999237061</ele>
        <time>2019-11-24T10:09:55.000Z</time>
      </trkpt>
      <trkpt lat="47.36727" lon="-2.49993">
        <ele>16.39999961853</ele>
        <time>2019-11-24T10:10:01.000Z</time>
      </trkpt>
      <trkpt lat="47.36727" lon="-2.50002">
        <ele>16</ele>
        <time>2019-11-24T10:10:02.000Z</time>
      </trkpt>
      <trkpt lat="47.36726" lon="-2.5001">
        <ele>15.60000038147</ele>
        <time>2019-11-24T10:10:03.000Z</time>
      </trkpt>
      <trkpt lat="47.36726" lon="-2.5002">
        <ele>15.199999809265</ele>
        <time>2019-11-24T10:10:04.000Z</time>
      </trkpt>
      <trkpt lat="47.36726" lon="-2.50029">
        <ele>14.800000190735</ele>
        <time>2019-11-24T10:10:05.000Z</time>
      </trkpt>
      <trkpt lat="47.36727" lon="-2.50037">
        <ele>14.800000190735</ele>
        <time>2019-11-24T10:10:06.000Z</time>
      </trkpt>
      <trkpt lat="47.3673" lon="-2.50062">
        <ele>14.800000190735</ele>
        <time>2019-11-24T10:10:09.000Z</time>
      </trkpt>
      <trkpt lat="47.36736" lon="-2.50088">
        <ele>14.800000190735</ele>
        <time>2019-11-24T10:10:12.000Z</time>
      </trkpt>
      <trkpt lat="47.36755" lon="-2.50148">
        <ele>14.800000190735</ele>
        <time>2019-11-24T10:10:19.000Z</time>
      </trkpt>
      <trkpt lat="47.3677" lon="-2.50189">
        <ele>14.39999961853</ele>
        <time>2019-11-24T10:10:24.000Z</time>
      </trkpt>
      <trkpt lat="47.36774" lon="-2.50197">
        <ele>14</ele>
        <time>2019-11-24T10:10:25.000Z</time>
      </trkpt>
      <trkpt lat="47.36777" lon="-2.50205">
        <ele>13.60000038147</ele>
        <time>2019-11-24T10:10:26.000Z</time>
      </trkpt>
      <trkpt lat="47.36781" lon="-2.50214">
        <ele>13.199999809265</ele>
        <time>2019-11-24T10:10:27.000Z</time>
      </trkpt>
      <trkpt lat="47.36786" lon="-2.50222">
        <ele>12.800000190735</ele>
        <time>2019-11-24T10:10:28.000Z</time>
      </trkpt>
      <trkpt lat="47.36796" lon="-2.50247">
        <ele>12.800000190735</ele>
        <time>2019-11-24T10:10:31.000Z</time>
      </trkpt>
      <trkpt lat="47.36815" lon="-2.50293">
        <ele>12.800000190735</ele>
        <time>2019-11-24T10:10:37.000Z</time>
      </trkpt>
      <trkpt lat="47.36826" lon="-2.50331">
        <ele>12.800000190735</ele>
        <time>2019-11-24T10:10:41.000Z</time>
      </trkpt>
      <trkpt lat="47.36828" lon="-2.50342">
        <ele>12.800000190735</ele>
        <time>2019-11-24T10:10:42.000Z</time>
      </trkpt>
      <trkpt lat="47.36831" lon="-2.50365">
        <ele>12.39999961853</ele>
        <time>2019-11-24T10:10:44.000Z</time>
      </trkpt>
      <trkpt lat="47.36832" lon="-2.50376">
        <ele>12</ele>
        <time>2019-11-24T10:10:45.000Z</time>
      </trkpt>
      <trkpt lat="47.36834" lon="-2.50387">
        <ele>11.60000038147</ele>
        <time>2019-11-24T10:10:46.000Z</time>
      </trkpt>
      <trkpt lat="47.36835" lon="-2.50399">
        <ele>10.800000190735</ele>
        <time>2019-11-24T10:10:47.000Z</time>
      </trkpt>
      <trkpt lat="47.3684" lon="-2.50479">
        <ele>10.800000190735</ele>
        <time>2019-11-24T10:10:54.000Z</time>
      </trkpt>
      <trkpt lat="47.36841" lon="-2.50563">
        <ele>10.800000190735</ele>
        <time>2019-11-24T10:11:02.000Z</time>
      </trkpt>
      <trkpt lat="47.36839" lon="-2.50582">
        <ele>10.800000190735</ele>
        <time>2019-11-24T10:11:04.000Z</time>
      </trkpt>
      <trkpt lat="47.36835" lon="-2.50612">
        <ele>10.800000190735</ele>
        <time>2019-11-24T10:11:07.000Z</time>
      </trkpt>
      <trkpt lat="47.36833" lon="-2.50622">
        <ele>10.39999961853</ele>
        <time>2019-11-24T10:11:08.000Z</time>
      </trkpt>
      <trkpt lat="47.36832" lon="-2.50632">
        <ele>9.8000001907349</ele>
        <time>2019-11-24T10:11:09.000Z</time>
      </trkpt>
      <trkpt lat="47.3683" lon="-2.50641">
        <ele>9.3999996185303</ele>
        <time>2019-11-24T10:11:10.000Z</time>
      </trkpt>
      <trkpt lat="47.36828" lon="-2.50652">
        <ele>9</ele>
        <time>2019-11-24T10:11:11.000Z</time>
      </trkpt>
      <trkpt lat="47.36826" lon="-2.50662">
        <ele>8.6000003814697</ele>
        <time>2019-11-24T10:11:12.000Z</time>
      </trkpt>
      <trkpt lat="47.36824" lon="-2.50673">
        <ele>8.6000003814697</ele>
        <time>2019-11-24T10:11:13.000Z</time>
      </trkpt>
      <trkpt lat="47.3681" lon="-2.50754">
        <ele>8.6000003814697</ele>
        <time>2019-11-24T10:11:21.000Z</time>
      </trkpt>
      <trkpt lat="47.36796" lon="-2.50832">
        <ele>8.6000003814697</ele>
        <time>2019-11-24T10:11:29.000Z</time>
      </trkpt>
      <trkpt lat="47.36794" lon="-2.50842">
        <ele>8.6000003814697</ele>
        <time>2019-11-24T10:11:30.000Z</time>
      </trkpt>
      <trkpt lat="47.36791" lon="-2.50852">
        <ele>8.6000003814697</ele>
        <time>2019-11-24T10:11:31.000Z</time>
      </trkpt>
      <trkpt lat="47.36786" lon="-2.50882">
        <ele>8.6000003814697</ele>
        <time>2019-11-24T10:11:34.000Z</time>
      </trkpt>
      <trkpt lat="47.36778" lon="-2.50926">
        <ele>8.6000003814697</ele>
        <time>2019-11-24T10:11:39.000Z</time>
      </trkpt>
      <trkpt lat="47.36773" lon="-2.50943">
        <ele>8.6000003814697</ele>
        <time>2019-11-24T10:11:41.000Z</time>
      </trkpt>
      <trkpt lat="47.36762" lon="-2.50967">
        <ele>8.6000003814697</ele>
        <time>2019-11-24T10:11:44.000Z</time>
      </trkpt>
      <trkpt lat="47.36738" lon="-2.51014">
        <ele>8.6000003814697</ele>
        <time>2019-11-24T10:11:50.000Z</time>
      </trkpt>
      <trkpt lat="47.36706" lon="-2.51082">
        <ele>8.6000003814697</ele>
        <time>2019-11-24T10:11:58.000Z</time>
      </trkpt>
      <trkpt lat="47.36689" lon="-2.51134">
        <ele>8.6000003814697</ele>
        <time>2019-11-24T10:12:04.000Z</time>
      </trkpt>
      <trkpt lat="47.36672" lon="-2.51187">
        <ele>8.6000003814697</ele>
        <time>2019-11-24T10:12:11.000Z</time>
      </trkpt>
      <trkpt lat="47.36669" lon="-2.512">
        <ele>8.6000003814697</ele>
        <time>2019-11-24T10:12:13.000Z</time>
      </trkpt>
      <trkpt lat="47.36667" lon="-2.51218">
        <ele>8.6000003814697</ele>
        <time>2019-11-24T10:12:16.000Z</time>
      </trkpt>
      <trkpt lat="47.36665" lon="-2.5125">
        <ele>8.6000003814697</ele>
        <time>2019-11-24T10:12:22.000Z</time>
      </trkpt>
      <trkpt lat="47.3667" lon="-2.51275">
        <ele>8.6000003814697</ele>
        <time>2019-11-24T10:12:26.000Z</time>
      </trkpt>
      <trkpt lat="47.36675" lon="-2.51297">
        <ele>8.6000003814697</ele>
        <time>2019-11-24T10:12:30.000Z</time>
      </trkpt>
      <trkpt lat="47.36688" lon="-2.51331">
        <ele>8.6000003814697</ele>
        <time>2019-11-24T10:12:36.000Z</time>
      </trkpt>
      <trkpt lat="47.36705" lon="-2.51381">
        <ele>8.6000003814697</ele>
        <time>2019-11-24T10:12:44.000Z</time>
      </trkpt>
      <trkpt lat="47.36715" lon="-2.51414">
        <ele>8.6000003814697</ele>
        <time>2019-11-24T10:12:51.000Z</time>
      </trkpt>
      <trkpt lat="47.36708" lon="-2.51413">
        <ele>8.6000003814697</ele>
        <time>2019-11-24T10:12:54.000Z</time>
      </trkpt>
      <trkpt lat="47.36704" lon="-2.51403">
        <ele>8.1999998092651</ele>
        <time>2019-11-24T10:12:56.000Z</time>
      </trkpt>
      <trkpt lat="47.367" lon="-2.51398">
        <ele>7.5999999046326</ele>
        <time>2019-11-24T10:12:57.000Z</time>
      </trkpt>
      <trkpt lat="47.36694" lon="-2.51396">
        <ele>7.1999998092651</ele>
        <time>2019-11-24T10:12:58.000Z</time>
      </trkpt>
      <trkpt lat="47.36689" lon="-2.51397">
        <ele>6.8000001907349</ele>
        <time>2019-11-24T10:12:59.000Z</time>
      </trkpt>
      <trkpt lat="47.36684" lon="-2.514">
        <ele>6.4000000953674</ele>
        <time>2019-11-24T10:13:00.000Z</time>
      </trkpt>
      <trkpt lat="47.36674" lon="-2.51417">
        <ele>6.4000000953674</ele>
        <time>2019-11-24T10:13:03.000Z</time>
      </trkpt>
      <trkpt lat="47.36661" lon="-2.51431">
        <ele>6.4000000953674</ele>
        <time>2019-11-24T10:13:07.000Z</time>
      </trkpt>
      <trkpt lat="47.36659" lon="-2.51435">
        <ele>6.4000000953674</ele>
        <time>2019-11-24T10:13:08.000Z</time>
      </trkpt>
      <trkpt lat="47.36656" lon="-2.51437">
        <ele>6</ele>
        <time>2019-11-24T10:13:09.000Z</time>
      </trkpt>
      <trkpt lat="47.36652" lon="-2.51437">
        <ele>5.4000000953674</ele>
        <time>2019-11-24T10:13:10.000Z</time>
      </trkpt>
      <trkpt lat="47.36649" lon="-2.51437">
        <ele>5</ele>
        <time>2019-11-24T10:13:11.000Z</time>
      </trkpt>
      <trkpt lat="47.36646" lon="-2.51437">
        <ele>4.5999999046326</ele>
        <time>2019-11-24T10:13:12.000Z</time>
      </trkpt>
      <trkpt lat="47.36643" lon="-2.51436">
        <ele>4.1999998092651</ele>
        <time>2019-11-24T10:13:13.000Z</time>
      </trkpt>
      <trkpt lat="47.36634" lon="-2.51431">
        <ele>4.1999998092651</ele>
        <time>2019-11-24T10:13:16.000Z</time>
      </trkpt>
      <trkpt lat="47.36626" lon="-2.5143">
        <ele>4.1999998092651</ele>
        <time>2019-11-24T10:13:18.000Z</time>
      </trkpt>
      <trkpt lat="47.3662" lon="-2.51429">
        <ele>4.1999998092651</ele>
        <time>2019-11-24T10:13:21.000Z</time>
      </trkpt>
      <trkpt lat="47.36615" lon="-2.51426">
        <ele>4.1999998092651</ele>
        <time>2019-11-24T10:13:26.000Z</time>
      </trkpt>
      <trkpt lat="47.36614" lon="-2.51425">
        <ele>4.1999998092651</ele>
        <time>2019-11-24T10:13:28.000Z</time>
      </trkpt>
      <trkpt lat="47.36602" lon="-2.51422">
        <ele>4.1999998092651</ele>
        <time>2019-11-24T10:13:47.000Z</time>
      </trkpt>
      <trkpt lat="47.36599" lon="-2.51423">
        <ele>4.1999998092651</ele>
        <time>2019-11-24T10:13:48.000Z</time>
      </trkpt>
      <trkpt lat="47.36585" lon="-2.51427">
        <ele>4.1999998092651</ele>
        <time>2019-11-24T10:13:53.000Z</time>
      </trkpt>
      <trkpt lat="47.36571" lon="-2.51443">
        <ele>4.1999998092651</ele>
        <time>2019-11-24T10:13:58.000Z</time>
      </trkpt>
      <trkpt lat="47.36561" lon="-2.51459">
        <ele>4.1999998092651</ele>
        <time>2019-11-24T10:14:03.000Z</time>
      </trkpt>
      <trkpt lat="47.36554" lon="-2.51467">
        <ele>4.1999998092651</ele>
        <time>2019-11-24T10:14:06.000Z</time>
      </trkpt>
      <trkpt lat="47.3655" lon="-2.51466">
        <ele>4.1999998092651</ele>
        <time>2019-11-24T10:14:08.000Z</time>
      </trkpt>
      <trkpt lat="47.36549" lon="-2.51462">
        <ele>4.1999998092651</ele>
        <time>2019-11-24T10:14:10.000Z</time>
      </trkpt>
      <trkpt lat="47.36547" lon="-2.51455">
        <ele>4.1999998092651</ele>
        <time>2019-11-24T10:14:12.000Z</time>
      </trkpt>
      <trkpt lat="47.36544" lon="-2.51444">
        <ele>4.1999998092651</ele>
        <time>2019-11-24T10:14:16.000Z</time>
      </trkpt>
      <trkpt lat="47.36542" lon="-2.51444">
        <ele>4.1999998092651</ele>
        <time>2019-11-24T10:14:17.000Z</time>
      </trkpt>
      <trkpt lat="47.36529" lon="-2.51442">
        <ele>4.1999998092651</ele>
        <time>2019-11-24T10:14:23.000Z</time>
      </trkpt>
      <trkpt lat="47.36512" lon="-2.51441">
        <ele>4.1999998092651</ele>
        <time>2019-11-24T10:14:30.000Z</time>
      </trkpt>
      <trkpt lat="47.36495" lon="-2.51434">
        <ele>4.1999998092651</ele>
        <time>2019-11-24T10:14:36.000Z</time>
      </trkpt>
      <trkpt lat="47.36477" lon="-2.51436">
        <ele>4.1999998092651</ele>
        <time>2019-11-24T10:14:41.000Z</time>
      </trkpt>
      <trkpt lat="47.36462" lon="-2.51444">
        <ele>4.1999998092651</ele>
        <time>2019-11-24T10:14:45.000Z</time>
      </trkpt>
      <trkpt lat="47.3644" lon="-2.51461">
        <ele>4.1999998092651</ele>
        <time>2019-11-24T10:14:51.000Z</time>
      </trkpt>
      <trkpt lat="47.36426" lon="-2.51486">
        <ele>4.1999998092651</ele>
        <time>2019-11-24T10:14:56.000Z</time>
      </trkpt>
      <trkpt lat="47.36422" lon="-2.51519">
        <ele>4.1999998092651</ele>
        <time>2019-11-24T10:15:01.000Z</time>
      </trkpt>
      <trkpt lat="47.3642" lon="-2.51525">
        <ele>4.1999998092651</ele>
        <time>2019-11-24T10:15:02.000Z</time>
      </trkpt>
      <trkpt lat="47.36414" lon="-2.51541">
        <ele>4.1999998092651</ele>
        <time>2019-11-24T10:15:05.000Z</time>
      </trkpt>
      <trkpt lat="47.36409" lon="-2.5155">
        <ele>4.1999998092651</ele>
        <time>2019-11-24T10:15:07.000Z</time>
      </trkpt>
      <trkpt lat="47.364" lon="-2.51568">
        <ele>4.1999998092651</ele>
        <time>2019-11-24T10:15:11.000Z</time>
      </trkpt>
      <trkpt lat="47.36387" lon="-2.51597">
        <ele>4.1999998092651</ele>
        <time>2019-11-24T10:15:16.000Z</time>
      </trkpt>
      <trkpt lat="47.36384" lon="-2.51604">
        <ele>4.1999998092651</ele>
        <time>2019-11-24T10:15:17.000Z</time>
      </trkpt>
      <trkpt lat="47.36364" lon="-2.51634">
        <ele>4.1999998092651</ele>
        <time>2019-11-24T10:15:22.000Z</time>
      </trkpt>
      <trkpt lat="47.36352" lon="-2.51651">
        <ele>4.1999998092651</ele>
        <time>2019-11-24T10:15:25.000Z</time>
      </trkpt>
      <trkpt lat="47.36344" lon="-2.5166">
        <ele>4.1999998092651</ele>
        <time>2019-11-24T10:15:27.000Z</time>
      </trkpt>
      <trkpt lat="47.36322" lon="-2.51688">
        <ele>4.1999998092651</ele>
        <time>2019-11-24T10:15:32.000Z</time>
      </trkpt>
      <trkpt lat="47.36317" lon="-2.5169">
        <ele>4.1999998092651</ele>
        <time>2019-11-24T10:15:33.000Z</time>
      </trkpt>
      <trkpt lat="47.36302" lon="-2.51692">
        <ele>4.1999998092651</ele>
        <time>2019-11-24T10:15:36.000Z</time>
      </trkpt>
      <trkpt lat="47.36293" lon="-2.51693">
        <ele>4.1999998092651</ele>
        <time>2019-11-24T10:15:38.000Z</time>
      </trkpt>
      <trkpt lat="47.3627" lon="-2.51686">
        <ele>4.1999998092651</ele>
        <time>2019-11-24T10:15:43.000Z</time>
      </trkpt>
      <trkpt lat="47.36267" lon="-2.51683">
        <ele>4.1999998092651</ele>
        <time>2019-11-24T10:15:44.000Z</time>
      </trkpt>
      <trkpt lat="47.36254" lon="-2.5167">
        <ele>4.1999998092651</ele>
        <time>2019-11-24T10:15:48.000Z</time>
      </trkpt>
      <trkpt lat="47.3624" lon="-2.51655">
        <ele>4.1999998092651</ele>
        <time>2019-11-24T10:15:52.000Z</time>
      </trkpt>
      <trkpt lat="47.36233" lon="-2.51648">
        <ele>4.1999998092651</ele>
        <time>2019-11-24T10:15:54.000Z</time>
      </trkpt>
      <trkpt lat="47.36224" lon="-2.5164">
        <ele>4.1999998092651</ele>
        <time>2019-11-24T10:15:56.000Z</time>
      </trkpt>
      <trkpt lat="47.36212" lon="-2.51628">
        <ele>4.1999998092651</ele>
        <time>2019-11-24T10:15:59.000Z</time>
      </trkpt>
      <trkpt lat="47.36189" lon="-2.51603">
        <ele>4.1999998092651</ele>
        <time>2019-11-24T10:16:05.000Z</time>
      </trkpt>
      <trkpt lat="47.36177" lon="-2.51591">
        <ele>5</ele>
        <time>2019-11-24T10:16:08.000Z</time>
      </trkpt>
      <trkpt lat="47.36173" lon="-2.51586">
        <ele>5.4000000953674</ele>
        <time>2019-11-24T10:16:09.000Z</time>
      </trkpt>
      <trkpt lat="47.36168" lon="-2.51581">
        <ele>5.8000001907349</ele>
        <time>2019-11-24T10:16:10.000Z</time>
      </trkpt>
      <trkpt lat="47.36163" lon="-2.51577">
        <ele>6.1999998092651</ele>
        <time>2019-11-24T10:16:11.000Z</time>
      </trkpt>
      <trkpt lat="47.36144" lon="-2.51562">
        <ele>6.1999998092651</ele>
        <time>2019-11-24T10:16:15.000Z</time>
      </trkpt>
      <trkpt lat="47.36135" lon="-2.51555">
        <ele>6.1999998092651</ele>
        <time>2019-11-24T10:16:17.000Z</time>
      </trkpt>
      <trkpt lat="47.36128" lon="-2.51548">
        <ele>6.1999998092651</ele>
        <time>2019-11-24T10:16:19.000Z</time>
      </trkpt>
      <trkpt lat="47.36115" lon="-2.51536">
        <ele>6.5999999046326</ele>
        <time>2019-11-24T10:16:22.000Z</time>
      </trkpt>
      <trkpt lat="47.36111" lon="-2.51532">
        <ele>7</ele>
        <time>2019-11-24T10:16:23.000Z</time>
      </trkpt>
      <trkpt lat="47.36107" lon="-2.51529">
        <ele>7.4000000953674</ele>
        <time>2019-11-24T10:16:24.000Z</time>
      </trkpt>
      <trkpt lat="47.36102" lon="-2.51526">
        <ele>8</ele>
        <time>2019-11-24T10:16:25.000Z</time>
      </trkpt>
      <trkpt lat="47.36097" lon="-2.51525">
        <ele>8.3999996185303</ele>
        <time>2019-11-24T10:16:26.000Z</time>
      </trkpt>
      <trkpt lat="47.36085" lon="-2.51522">
        <ele>8.3999996185303</ele>
        <time>2019-11-24T10:16:29.000Z</time>
      </trkpt>
      <trkpt lat="47.36072" lon="-2.51514">
        <ele>8.3999996185303</ele>
        <time>2019-11-24T10:16:32.000Z</time>
      </trkpt>
      <trkpt lat="47.36067" lon="-2.5151">
        <ele>8.3999996185303</ele>
        <time>2019-11-24T10:16:33.000Z</time>
      </trkpt>
      <trkpt lat="47.36058" lon="-2.51499">
        <ele>8</ele>
        <time>2019-11-24T10:16:35.000Z</time>
      </trkpt>
      <trkpt lat="47.36052" lon="-2.51492">
        <ele>7.5999999046326</ele>
        <time>2019-11-24T10:16:36.000Z</time>
      </trkpt>
      <trkpt lat="47.36046" lon="-2.51486">
        <ele>7.1999998092651</ele>
        <time>2019-11-24T10:16:37.000Z</time>
      </trkpt>
      <trkpt lat="47.36041" lon="-2.51481">
        <ele>6.5999999046326</ele>
        <time>2019-11-24T10:16:38.000Z</time>
      </trkpt>
      <trkpt lat="47.36036" lon="-2.51475">
        <ele>6.1999998092651</ele>
        <time>2019-11-24T10:16:39.000Z</time>
      </trkpt>
      <trkpt lat="47.36031" lon="-2.51471">
        <ele>6.1999998092651</ele>
        <time>2019-11-24T10:16:40.000Z</time>
      </trkpt>
      <trkpt lat="47.36022" lon="-2.51461">
        <ele>6.1999998092651</ele>
        <time>2019-11-24T10:16:42.000Z</time>
      </trkpt>
      <trkpt lat="47.36002" lon="-2.5143">
        <ele>6.1999998092651</ele>
        <time>2019-11-24T10:16:47.000Z</time>
      </trkpt>
      <trkpt lat="47.35997" lon="-2.51424">
        <ele>6.1999998092651</ele>
        <time>2019-11-24T10:16:48.000Z</time>
      </trkpt>
      <trkpt lat="47.35992" lon="-2.51419">
        <ele>6.1999998092651</ele>
        <time>2019-11-24T10:16:49.000Z</time>
      </trkpt>
      <trkpt lat="47.35975" lon="-2.51405">
        <ele>6.1999998092651</ele>
        <time>2019-11-24T10:16:52.000Z</time>
      </trkpt>
      <trkpt lat="47.35958" lon="-2.51394">
        <ele>6.1999998092651</ele>
        <time>2019-11-24T10:16:55.000Z</time>
      </trkpt>
      <trkpt lat="47.35953" lon="-2.51391">
        <ele>6.1999998092651</ele>
        <time>2019-11-24T10:16:56.000Z</time>
      </trkpt>
      <trkpt lat="47.35941" lon="-2.51388">
        <ele>6.1999998092651</ele>
        <time>2019-11-24T10:16:58.000Z</time>
      </trkpt>
      <trkpt lat="47.35925" lon="-2.51387">
        <ele>6.1999998092651</ele>
        <time>2019-11-24T10:17:01.000Z</time>
      </trkpt>
      <trkpt lat="47.35921" lon="-2.51387">
        <ele>6.1999998092651</ele>
        <time>2019-11-24T10:17:02.000Z</time>
      </trkpt>
      <trkpt lat="47.35915" lon="-2.51388">
        <ele>6.1999998092651</ele>
        <time>2019-11-24T10:17:03.000Z</time>
      </trkpt>
      <trkpt lat="47.35906" lon="-2.51388">
        <ele>6.1999998092651</ele>
        <time>2019-11-24T10:17:05.000Z</time>
      </trkpt>
      <trkpt lat="47.35901" lon="-2.51388">
        <ele>6.1999998092651</ele>
        <time>2019-11-24T10:17:06.000Z</time>
      </trkpt>
      <trkpt lat="47.35896" lon="-2.51388">
        <ele>6.1999998092651</ele>
        <time>2019-11-24T10:17:07.000Z</time>
      </trkpt>
      <trkpt lat="47.35878" lon="-2.51381">
        <ele>6.1999998092651</ele>
        <time>2019-11-24T10:17:10.000Z</time>
      </trkpt>
      <trkpt lat="47.35831" lon="-2.51362">
        <ele>6.1999998092651</ele>
        <time>2019-11-24T10:17:17.000Z</time>
      </trkpt>
      <trkpt lat="47.35796" lon="-2.51352">
        <ele>6.1999998092651</ele>
        <time>2019-11-24T10:17:23.000Z</time>
      </trkpt>
      <trkpt lat="47.35749" lon="-2.51339">
        <ele>6.1999998092651</ele>
        <time>2019-11-24T10:17:30.000Z</time>
      </trkpt>
      <trkpt lat="47.35708" lon="-2.5133">
        <ele>6.1999998092651</ele>
        <time>2019-11-24T10:17:36.000Z</time>
      </trkpt>
      <trkpt lat="47.35689" lon="-2.51328">
        <ele>6.1999998092651</ele>
        <time>2019-11-24T10:17:39.000Z</time>
      </trkpt>
      <trkpt lat="47.35679" lon="-2.51329">
        <ele>6.1999998092651</ele>
        <time>2019-11-24T10:17:41.000Z</time>
      </trkpt>
      <trkpt lat="47.35673" lon="-2.51328">
        <ele>5.8000001907349</ele>
        <time>2019-11-24T10:17:43.000Z</time>
      </trkpt>
      <trkpt lat="47.35669" lon="-2.51328">
        <ele>5.4000000953674</ele>
        <time>2019-11-24T10:17:44.000Z</time>
      </trkpt>
      <trkpt lat="47.35666" lon="-2.51328">
        <ele>5</ele>
        <time>2019-11-24T10:17:45.000Z</time>
      </trkpt>
      <trkpt lat="47.35662" lon="-2.51328">
        <ele>4.5999999046326</ele>
        <time>2019-11-24T10:17:46.000Z</time>
      </trkpt>
      <trkpt lat="47.35657" lon="-2.51328">
        <ele>4.1999998092651</ele>
        <time>2019-11-24T10:17:47.000Z</time>
      </trkpt>
      <trkpt lat="47.35642" lon="-2.51329">
        <ele>4.1999998092651</ele>
        <time>2019-11-24T10:17:50.000Z</time>
      </trkpt>
      <trkpt lat="47.35606" lon="-2.5133">
        <ele>4.1999998092651</ele>
        <time>2019-11-24T10:17:57.000Z</time>
      </trkpt>
      <trkpt lat="47.3557" lon="-2.51332">
        <ele>3.7999999523163</ele>
        <time>2019-11-24T10:18:03.000Z</time>
      </trkpt>
      <trkpt lat="47.35564" lon="-2.51333">
        <ele>3.4000000953674</ele>
        <time>2019-11-24T10:18:04.000Z</time>
      </trkpt>
      <trkpt lat="47.35558" lon="-2.51332">
        <ele>3</ele>
        <time>2019-11-24T10:18:05.000Z</time>
      </trkpt>
      <trkpt lat="47.35552" lon="-2.51332">
        <ele>2.5999999046326</ele>
        <time>2019-11-24T10:18:06.000Z</time>
      </trkpt>
      <trkpt lat="47.35546" lon="-2.51331">
        <ele>2.2000000476837</ele>
        <time>2019-11-24T10:18:07.000Z</time>
      </trkpt>
      <trkpt lat="47.35522" lon="-2.51332">
        <ele>2.2000000476837</ele>
        <time>2019-11-24T10:18:11.000Z</time>
      </trkpt>
      <trkpt lat="47.35481" lon="-2.51334">
        <ele>2.2000000476837</ele>
        <time>2019-11-24T10:18:18.000Z</time>
      </trkpt>
      <trkpt lat="47.35477" lon="-2.51332">
        <ele>2.2000000476837</ele>
        <time>2019-11-24T10:18:19.000Z</time>
      </trkpt>
      <trkpt lat="47.3547" lon="-2.51326">
        <ele>2.2000000476837</ele>
        <time>2019-11-24T10:18:21.000Z</time>
      </trkpt>
      <trkpt lat="47.35462" lon="-2.51324">
        <ele>2.2000000476837</ele>
        <time>2019-11-24T10:18:25.000Z</time>
      </trkpt>
      <trkpt lat="47.35459" lon="-2.51326">
        <ele>2.2000000476837</ele>
        <time>2019-11-24T10:18:27.000Z</time>
      </trkpt>
      <trkpt lat="47.35453" lon="-2.51326">
        <ele>2.2000000476837</ele>
        <time>2019-11-24T10:18:30.000Z</time>
      </trkpt>
      <trkpt lat="47.35449" lon="-2.51328">
        <ele>2.2000000476837</ele>
        <time>2019-11-24T10:18:33.000Z</time>
      </trkpt>
      <trkpt lat="47.35447" lon="-2.51328">
        <ele>2.2000000476837</ele>
        <time>2019-11-24T10:18:35.000Z</time>
      </trkpt>
      <trkpt lat="47.35439" lon="-2.51331">
        <ele>2.2000000476837</ele>
        <time>2019-11-24T10:18:40.000Z</time>
      </trkpt>
      <trkpt lat="47.35426" lon="-2.5133">
        <ele>2.2000000476837</ele>
        <time>2019-11-24T10:18:44.000Z</time>
      </trkpt>
      <trkpt lat="47.35422" lon="-2.51329">
        <ele>2.2000000476837</ele>
        <time>2019-11-24T10:18:47.000Z</time>
      </trkpt>
      <trkpt lat="47.35422" lon="-2.51329">
        <ele>1.7999999523163</ele>
        <time>2019-11-24T10:18:48.000Z</time>
      </trkpt>
      <trkpt lat="47.35419" lon="-2.51335">
        <ele>0.20000000298023</ele>
        <time>2019-11-24T10:18:53.000Z</time>
      </trkpt>
      <trkpt lat="47.35417" lon="-2.51337">
        <ele>0.20000000298023</ele>
        <time>2019-11-24T10:18:54.000Z</time>
      </trkpt>
      <trkpt lat="47.35406" lon="-2.51336">
        <ele>0.20000000298023</ele>
        <time>2019-11-24T10:18:57.000Z</time>
      </trkpt>
      <trkpt lat="47.35381" lon="-2.51335">
        <ele>0.20000000298023</ele>
        <time>2019-11-24T10:19:02.000Z</time>
      </trkpt>
      <trkpt lat="47.35351" lon="-2.51335">
        <ele>0.20000000298023</ele>
        <time>2019-11-24T10:19:08.000Z</time>
      </trkpt>
      <trkpt lat="47.35326" lon="-2.51334">
        <ele>0.20000000298023</ele>
        <time>2019-11-24T10:19:13.000Z</time>
      </trkpt>
      <trkpt lat="47.35317" lon="-2.51338">
        <ele>0.20000000298023</ele>
        <time>2019-11-24T10:19:15.000Z</time>
      </trkpt>
      <trkpt lat="47.35309" lon="-2.51341">
        <ele>0.20000000298023</ele>
        <time>2019-11-24T10:19:17.000Z</time>
      </trkpt>
      <trkpt lat="47.35305" lon="-2.51342">
        <ele>-0.20000000298023</ele>
        <time>2019-11-24T10:19:18.000Z</time>
      </trkpt>
      <trkpt lat="47.35301" lon="-2.51342">
        <ele>-0.60000002384186</ele>
        <time>2019-11-24T10:19:19.000Z</time>
      </trkpt>
      <trkpt lat="47.35297" lon="-2.51342">
        <ele>-1</ele>
        <time>2019-11-24T10:19:20.000Z</time>
      </trkpt>
      <trkpt lat="47.35293" lon="-2.51342">
        <ele>-1.3999999761581</ele>
        <time>2019-11-24T10:19:21.000Z</time>
      </trkpt>
      <trkpt lat="47.35288" lon="-2.51342">
        <ele>-1.7999999523163</ele>
        <time>2019-11-24T10:19:22.000Z</time>
      </trkpt>
      <trkpt lat="47.3528" lon="-2.51345">
        <ele>-1.7999999523163</ele>
        <time>2019-11-24T10:19:24.000Z</time>
      </trkpt>
      <trkpt lat="47.35273" lon="-2.5135">
        <ele>-1.7999999523163</ele>
        <time>2019-11-24T10:19:26.000Z</time>
      </trkpt>
      <trkpt lat="47.35261" lon="-2.51371">
        <ele>-1.7999999523163</ele>
        <time>2019-11-24T10:19:31.000Z</time>
      </trkpt>
      <trkpt lat="47.35251" lon="-2.51376">
        <ele>-1.7999999523163</ele>
        <time>2019-11-24T10:19:34.000Z</time>
      </trkpt>
      <trkpt lat="47.3524" lon="-2.5137">
        <ele>-1.7999999523163</ele>
        <time>2019-11-24T10:19:37.000Z</time>
      </trkpt>
      <trkpt lat="47.35236" lon="-2.51369">
        <ele>-1.7999999523163</ele>
        <time>2019-11-24T10:19:38.000Z</time>
      </trkpt>
      <trkpt lat="47.35219" lon="-2.51377">
        <ele>-1.7999999523163</ele>
        <time>2019-11-24T10:19:42.000Z</time>
      </trkpt>
      <trkpt lat="47.35215" lon="-2.51379">
        <ele>-1.7999999523163</ele>
        <time>2019-11-24T10:19:43.000Z</time>
      </trkpt>
      <trkpt lat="47.352" lon="-2.51387">
        <ele>-1.7999999523163</ele>
        <time>2019-11-24T10:19:47.000Z</time>
      </trkpt>
      <trkpt lat="47.35177" lon="-2.51403">
        <ele>-2.2000000476837</ele>
        <time>2019-11-24T10:19:54.000Z</time>
      </trkpt>
      <trkpt lat="47.35174" lon="-2.51405">
        <ele>-2.5999999046326</ele>
        <time>2019-11-24T10:19:55.000Z</time>
      </trkpt>
      <trkpt lat="47.3517" lon="-2.51408">
        <ele>-3</ele>
        <time>2019-11-24T10:19:56.000Z</time>
      </trkpt>
      <trkpt lat="47.35166" lon="-2.5141">
        <ele>-3.4000000953674</ele>
        <time>2019-11-24T10:19:57.000Z</time>
      </trkpt>
      <trkpt lat="47.35162" lon="-2.51412">
        <ele>-3.7999999523163</ele>
        <time>2019-11-24T10:19:58.000Z</time>
      </trkpt>
      <trkpt lat="47.3515" lon="-2.5142">
        <ele>-3.7999999523163</ele>
        <time>2019-11-24T10:20:01.000Z</time>
      </trkpt>
      <trkpt lat="47.35119" lon="-2.51437">
        <ele>-3.7999999523163</ele>
        <time>2019-11-24T10:20:08.000Z</time>
      </trkpt>
      <trkpt lat="47.35078" lon="-2.51462">
        <ele>-3.7999999523163</ele>
        <time>2019-11-24T10:20:17.000Z</time>
      </trkpt>
      <trkpt lat="47.35046" lon="-2.51484">
        <ele>-3.7999999523163</ele>
        <time>2019-11-24T10:20:25.000Z</time>
      </trkpt>
      <trkpt lat="47.3504" lon="-2.51498">
        <ele>-3.7999999523163</ele>
        <time>2019-11-24T10:20:30.000Z</time>
      </trkpt>
      <trkpt lat="47.35033" lon="-2.51511">
        <ele>-3.7999999523163</ele>
        <time>2019-11-24T10:20:34.000Z</time>
      </trkpt>
      <trkpt lat="47.35012" lon="-2.51543">
        <ele>-3.7999999523163</ele>
        <time>2019-11-24T10:20:42.000Z</time>
      </trkpt>
      <trkpt lat="47.34989" lon="-2.51579">
        <ele>-3.7999999523163</ele>
        <time>2019-11-24T10:20:51.000Z</time>
      </trkpt>
      <trkpt lat="47.34977" lon="-2.51586">
        <ele>-3.7999999523163</ele>
        <time>2019-11-24T10:20:55.000Z</time>
      </trkpt>
      <trkpt lat="47.34975" lon="-2.51584">
        <ele>-3.7999999523163</ele>
        <time>2019-11-24T10:20:56.000Z</time>
      </trkpt>
      <trkpt lat="47.34973" lon="-2.51578">
        <ele>-3.7999999523163</ele>
        <time>2019-11-24T10:20:58.000Z</time>
      </trkpt>
      <trkpt lat="47.34965" lon="-2.51553">
        <ele>-3.7999999523163</ele>
        <time>2019-11-24T10:21:03.000Z</time>
      </trkpt>
      <trkpt lat="47.34949" lon="-2.51503">
        <ele>-3.7999999523163</ele>
        <time>2019-11-24T10:21:11.000Z</time>
      </trkpt>
      <trkpt lat="47.34944" lon="-2.51486">
        <ele>-3.7999999523163</ele>
        <time>2019-11-24T10:21:14.000Z</time>
      </trkpt>
      <trkpt lat="47.34939" lon="-2.51476">
        <ele>-3.7999999523163</ele>
        <time>2019-11-24T10:21:16.000Z</time>
      </trkpt>
      <trkpt lat="47.34935" lon="-2.51474">
        <ele>-3.7999999523163</ele>
        <time>2019-11-24T10:21:17.000Z</time>
      </trkpt>
      <trkpt lat="47.34926" lon="-2.51461">
        <ele>-3.7999999523163</ele>
        <time>2019-11-24T10:21:20.000Z</time>
      </trkpt>
      <trkpt lat="47.34924" lon="-2.51456">
        <ele>-3.7999999523163</ele>
        <time>2019-11-24T10:21:21.000Z</time>
      </trkpt>
      <trkpt lat="47.34916" lon="-2.51423">
        <ele>-3.7999999523163</ele>
        <time>2019-11-24T10:21:27.000Z</time>
      </trkpt>
      <trkpt lat="47.34917" lon="-2.51394">
        <ele>-3.7999999523163</ele>
        <time>2019-11-24T10:21:33.000Z</time>
      </trkpt>
      <trkpt lat="47.34916" lon="-2.51376">
        <ele>-3.7999999523163</ele>
        <time>2019-11-24T10:21:37.000Z</time>
      </trkpt>
      <trkpt lat="47.34912" lon="-2.51375">
        <ele>-3.7999999523163</ele>
        <time>2019-11-24T10:21:38.000Z</time>
      </trkpt>
      <trkpt lat="47.34902" lon="-2.51383">
        <ele>-3.7999999523163</ele>
        <time>2019-11-24T10:21:41.000Z</time>
      </trkpt>
      <trkpt lat="47.34882" lon="-2.5138">
        <ele>-3.7999999523163</ele>
        <time>2019-11-24T10:21:45.000Z</time>
      </trkpt>
      <trkpt lat="47.34868" lon="-2.51359">
        <ele>-3.7999999523163</ele>
        <time>2019-11-24T10:21:49.000Z</time>
      </trkpt>
      <trkpt lat="47.34865" lon="-2.51354">
        <ele>-3.7999999523163</ele>
        <time>2019-11-24T10:21:50.000Z</time>
      </trkpt>
      <trkpt lat="47.34848" lon="-2.51334">
        <ele>-3.7999999523163</ele>
        <time>2019-11-24T10:21:55.000Z</time>
      </trkpt>
      <trkpt lat="47.34827" lon="-2.51307">
        <ele>-3.7999999523163</ele>
        <time>2019-11-24T10:22:01.000Z</time>
      </trkpt>
      <trkpt lat="47.34801" lon="-2.51284">
        <ele>-3.7999999523163</ele>
        <time>2019-11-24T10:22:07.000Z</time>
      </trkpt>
      <trkpt lat="47.34789" lon="-2.51277">
        <ele>-3.7999999523163</ele>
        <time>2019-11-24T10:22:10.000Z</time>
      </trkpt>
      <trkpt lat="47.34782" lon="-2.51273">
        <ele>-3.7999999523163</ele>
        <time>2019-11-24T10:22:12.000Z</time>
      </trkpt>
      <trkpt lat="47.34777" lon="-2.51266">
        <ele>-3.7999999523163</ele>
        <time>2019-11-24T10:22:14.000Z</time>
      </trkpt>
      <trkpt lat="47.34777" lon="-2.51255">
        <ele>-3.7999999523163</ele>
        <time>2019-11-24T10:22:16.000Z</time>
      </trkpt>
      <trkpt lat="47.34772" lon="-2.5124">
        <ele>-3.7999999523163</ele>
        <time>2019-11-24T10:22:19.000Z</time>
      </trkpt>
      <trkpt lat="47.34769" lon="-2.51235">
        <ele>-3.7999999523163</ele>
        <time>2019-11-24T10:22:20.000Z</time>
      </trkpt>
      <trkpt lat="47.34763" lon="-2.51225">
        <ele>-3.7999999523163</ele>
        <time>2019-11-24T10:22:22.000Z</time>
      </trkpt>
      <trkpt lat="47.34758" lon="-2.51215">
        <ele>-3.7999999523163</ele>
        <time>2019-11-24T10:22:24.000Z</time>
      </trkpt>
      <trkpt lat="47.34752" lon="-2.51204">
        <ele>-3.7999999523163</ele>
        <time>2019-11-24T10:22:26.000Z</time>
      </trkpt>
      <trkpt lat="47.34733" lon="-2.51174">
        <ele>-3.7999999523163</ele>
        <time>2019-11-24T10:22:32.000Z</time>
      </trkpt>
      <trkpt lat="47.3471" lon="-2.51131">
        <ele>-3.7999999523163</ele>
        <time>2019-11-24T10:22:40.000Z</time>
      </trkpt>
      <trkpt lat="47.34691" lon="-2.51108">
        <ele>-3.7999999523163</ele>
        <time>2019-11-24T10:22:45.000Z</time>
      </trkpt>
      <trkpt lat="47.34687" lon="-2.51104">
        <ele>-3.7999999523163</ele>
        <time>2019-11-24T10:22:46.000Z</time>
      </trkpt>
      <trkpt lat="47.34657" lon="-2.51078">
        <ele>-3.7999999523163</ele>
        <time>2019-11-24T10:22:53.000Z</time>
      </trkpt>
      <trkpt lat="47.34628" lon="-2.51053">
        <ele>-3.7999999523163</ele>
        <time>2019-11-24T10:23:00.000Z</time>
      </trkpt>
      <trkpt lat="47.34624" lon="-2.51049">
        <ele>-3.7999999523163</ele>
        <time>2019-11-24T10:23:01.000Z</time>
      </trkpt>
      <trkpt lat="47.34609" lon="-2.51032">
        <ele>-3.7999999523163</ele>
        <time>2019-11-24T10:23:05.000Z</time>
      </trkpt>
      <trkpt lat="47.34598" lon="-2.51023">
        <ele>-3.7999999523163</ele>
        <time>2019-11-24T10:23:08.000Z</time>
      </trkpt>
      <trkpt lat="47.3459" lon="-2.51012">
        <ele>-3.7999999523163</ele>
        <time>2019-11-24T10:23:11.000Z</time>
      </trkpt>
      <trkpt lat="47.34586" lon="-2.51002">
        <ele>-3.7999999523163</ele>
        <time>2019-11-24T10:23:13.000Z</time>
      </trkpt>
      <trkpt lat="47.34584" lon="-2.5099">
        <ele>-3.7999999523163</ele>
        <time>2019-11-24T10:23:15.000Z</time>
      </trkpt>
      <trkpt lat="47.34581" lon="-2.50984">
        <ele>-3.7999999523163</ele>
        <time>2019-11-24T10:23:16.000Z</time>
      </trkpt>
      <trkpt lat="47.34574" lon="-2.50976">
        <ele>-3.7999999523163</ele>
        <time>2019-11-24T10:23:18.000Z</time>
      </trkpt>
      <trkpt lat="47.34548" lon="-2.50946">
        <ele>-3.7999999523163</ele>
        <time>2019-11-24T10:23:24.000Z</time>
      </trkpt>
      <trkpt lat="47.34521" lon="-2.50905">
        <ele>-3.7999999523163</ele>
        <time>2019-11-24T10:23:30.000Z</time>
      </trkpt>
      <trkpt lat="47.34493" lon="-2.5086">
        <ele>-3.7999999523163</ele>
        <time>2019-11-24T10:23:37.000Z</time>
      </trkpt>
      <trkpt lat="47.3449" lon="-2.50853">
        <ele>-3.7999999523163</ele>
        <time>2019-11-24T10:23:38.000Z</time>
      </trkpt>
      <trkpt lat="47.34478" lon="-2.50833">
        <ele>-3.7999999523163</ele>
        <time>2019-11-24T10:23:41.000Z</time>
      </trkpt>
      <trkpt lat="47.34474" lon="-2.50827">
        <ele>-3.7999999523163</ele>
        <time>2019-11-24T10:23:42.000Z</time>
      </trkpt>
      <trkpt lat="47.3445" lon="-2.50788">
        <ele>-3.7999999523163</ele>
        <time>2019-11-24T10:23:48.000Z</time>
      </trkpt>
      <trkpt lat="47.34426" lon="-2.50749">
        <ele>-3.7999999523163</ele>
        <time>2019-11-24T10:23:54.000Z</time>
      </trkpt>
      <trkpt lat="47.34421" lon="-2.50743">
        <ele>-3.7999999523163</ele>
        <time>2019-11-24T10:23:55.000Z</time>
      </trkpt>
      <trkpt lat="47.34382" lon="-2.50705">
        <ele>-3.7999999523163</ele>
        <time>2019-11-24T10:24:03.000Z</time>
      </trkpt>
      <trkpt lat="47.34343" lon="-2.50672">
        <ele>-3.7999999523163</ele>
        <time>2019-11-24T10:24:10.000Z</time>
      </trkpt>
      <trkpt lat="47.34302" lon="-2.50642">
        <ele>-3.7999999523163</ele>
        <time>2019-11-24T10:24:17.000Z</time>
      </trkpt>
      <trkpt lat="47.3425" lon="-2.50608">
        <ele>-3.7999999523163</ele>
        <time>2019-11-24T10:24:26.000Z</time>
      </trkpt>
      <trkpt lat="47.34201" lon="-2.50576">
        <ele>-3.7999999523163</ele>
        <time>2019-11-24T10:24:34.000Z</time>
      </trkpt>
      <trkpt lat="47.34152" lon="-2.50547">
        <ele>-3.7999999523163</ele>
        <time>2019-11-24T10:24:42.000Z</time>
      </trkpt>
      <trkpt lat="47.34109" lon="-2.50518">
        <ele>-3.7999999523163</ele>
        <time>2019-11-24T10:24:49.000Z</time>
      </trkpt>
      <trkpt lat="47.34064" lon="-2.5049">
        <ele>-3.7999999523163</ele>
        <time>2019-11-24T10:24:56.000Z</time>
      </trkpt>
      <trkpt lat="47.34014" lon="-2.50457">
        <ele>-3.7999999523163</ele>
        <time>2019-11-24T10:25:04.000Z</time>
      </trkpt>
      <trkpt lat="47.33967" lon="-2.50425">
        <ele>-3.7999999523163</ele>
        <time>2019-11-24T10:25:12.000Z</time>
      </trkpt>
      <trkpt lat="47.33921" lon="-2.50395">
        <ele>-3.7999999523163</ele>
        <time>2019-11-24T10:25:20.000Z</time>
      </trkpt>
      <trkpt lat="47.33874" lon="-2.50364">
        <ele>-3.7999999523163</ele>
        <time>2019-11-24T10:25:28.000Z</time>
      </trkpt>
      <trkpt lat="47.3384" lon="-2.50342">
        <ele>-3.7999999523163</ele>
        <time>2019-11-24T10:25:34.000Z</time>
      </trkpt>
      <trkpt lat="47.33793" lon="-2.50311">
        <ele>-3.7999999523163</ele>
        <time>2019-11-24T10:25:42.000Z</time>
      </trkpt>
      <trkpt lat="47.33788" lon="-2.50307">
        <ele>-4.1999998092651</ele>
        <time>2019-11-24T10:25:43.000Z</time>
      </trkpt>
      <trkpt lat="47.33782" lon="-2.50303">
        <ele>-4.5999999046326</ele>
        <time>2019-11-24T10:25:44.000Z</time>
      </trkpt>
      <trkpt lat="47.33777" lon="-2.50298">
        <ele>-5</ele>
        <time>2019-11-24T10:25:45.000Z</time>
      </trkpt>
      <trkpt lat="47.33771" lon="-2.50295">
        <ele>-5.4000000953674</ele>
        <time>2019-11-24T10:25:46.000Z</time>
      </trkpt>
      <trkpt lat="47.33766" lon="-2.50291">
        <ele>-5.8000001907349</ele>
        <time>2019-11-24T10:25:47.000Z</time>
      </trkpt>
      <trkpt lat="47.33751" lon="-2.50277">
        <ele>-5.8000001907349</ele>
        <time>2019-11-24T10:25:50.000Z</time>
      </trkpt>
      <trkpt lat="47.33719" lon="-2.50244">
        <ele>-5.8000001907349</ele>
        <time>2019-11-24T10:25:57.000Z</time>
      </trkpt>
      <trkpt lat="47.33684" lon="-2.50199">
        <ele>-5.8000001907349</ele>
        <time>2019-11-24T10:26:05.000Z</time>
      </trkpt>
      <trkpt lat="47.33651" lon="-2.50151">
        <ele>-5.8000001907349</ele>
        <time>2019-11-24T10:26:13.000Z</time>
      </trkpt>
      <trkpt lat="47.3362" lon="-2.50092">
        <ele>-5.8000001907349</ele>
        <time>2019-11-24T10:26:21.000Z</time>
      </trkpt>
      <trkpt lat="47.33597" lon="-2.50038">
        <ele>-5.8000001907349</ele>
        <time>2019-11-24T10:26:28.000Z</time>
      </trkpt>
      <trkpt lat="47.33575" lon="-2.49972">
        <ele>-5.8000001907349</ele>
        <time>2019-11-24T10:26:36.000Z</time>
      </trkpt>
      <trkpt lat="47.33549" lon="-2.49896">
        <ele>-5.8000001907349</ele>
        <time>2019-11-24T10:26:45.000Z</time>
      </trkpt>
      <trkpt lat="47.3353" lon="-2.49841">
        <ele>-5.8000001907349</ele>
        <time>2019-11-24T10:26:52.000Z</time>
      </trkpt>
      <trkpt lat="47.3351" lon="-2.49789">
        <ele>-5.8000001907349</ele>
        <time>2019-11-24T10:26:59.000Z</time>
      </trkpt>
      <trkpt lat="47.33486" lon="-2.49729">
        <ele>-5.8000001907349</ele>
        <time>2019-11-24T10:27:07.000Z</time>
      </trkpt>
      <trkpt lat="47.33463" lon="-2.49673">
        <ele>-5.8000001907349</ele>
        <time>2019-11-24T10:27:14.000Z</time>
      </trkpt>
      <trkpt lat="47.33448" lon="-2.49618">
        <ele>-5.8000001907349</ele>
        <time>2019-11-24T10:27:20.000Z</time>
      </trkpt>
      <trkpt lat="47.3344" lon="-2.49554">
        <ele>-5.8000001907349</ele>
        <time>2019-11-24T10:27:26.000Z</time>
      </trkpt>
      <trkpt lat="47.33431" lon="-2.49475">
        <ele>-5.8000001907349</ele>
        <time>2019-11-24T10:27:34.000Z</time>
      </trkpt>
      <trkpt lat="47.33428" lon="-2.49453">
        <ele>-5.8000001907349</ele>
        <time>2019-11-24T10:27:36.000Z</time>
      </trkpt>
      <trkpt lat="47.33418" lon="-2.49372">
        <ele>-5.8000001907349</ele>
        <time>2019-11-24T10:27:44.000Z</time>
      </trkpt>
      <trkpt lat="47.33403" lon="-2.49315">
        <ele>-5.8000001907349</ele>
        <time>2019-11-24T10:27:50.000Z</time>
      </trkpt>
      <trkpt lat="47.33385" lon="-2.4927">
        <ele>-5.8000001907349</ele>
        <time>2019-11-24T10:27:55.000Z</time>
      </trkpt>
      <trkpt lat="47.33383" lon="-2.49261">
        <ele>-5.8000001907349</ele>
        <time>2019-11-24T10:27:56.000Z</time>
      </trkpt>
      <trkpt lat="47.33373" lon="-2.492">
        <ele>-5.8000001907349</ele>
        <time>2019-11-24T10:28:02.000Z</time>
      </trkpt>
      <trkpt lat="47.3335" lon="-2.49148">
        <ele>-5.8000001907349</ele>
        <time>2019-11-24T10:28:08.000Z</time>
      </trkpt>
      <trkpt lat="47.33315" lon="-2.49095">
        <ele>-5.8000001907349</ele>
        <time>2019-11-24T10:28:15.000Z</time>
      </trkpt>
      <trkpt lat="47.33306" lon="-2.49082">
        <ele>-5.8000001907349</ele>
        <time>2019-11-24T10:28:17.000Z</time>
      </trkpt>
      <trkpt lat="47.33293" lon="-2.49058">
        <ele>-5.8000001907349</ele>
        <time>2019-11-24T10:28:20.000Z</time>
      </trkpt>
      <trkpt lat="47.33274" lon="-2.49006">
        <ele>-5.8000001907349</ele>
        <time>2019-11-24T10:28:26.000Z</time>
      </trkpt>
      <trkpt lat="47.33256" lon="-2.4893">
        <ele>-5.8000001907349</ele>
        <time>2019-11-24T10:28:34.000Z</time>
      </trkpt>
      <trkpt lat="47.33254" lon="-2.4892">
        <ele>-5.8000001907349</ele>
        <time>2019-11-24T10:28:35.000Z</time>
      </trkpt>
      <trkpt lat="47.33235" lon="-2.48844">
        <ele>-5.8000001907349</ele>
        <time>2019-11-24T10:28:43.000Z</time>
      </trkpt>
      <trkpt lat="47.33211" lon="-2.48762">
        <ele>-5.8000001907349</ele>
        <time>2019-11-24T10:28:52.000Z</time>
      </trkpt>
      <trkpt lat="47.33205" lon="-2.48731">
        <ele>-5.8000001907349</ele>
        <time>2019-11-24T10:28:55.000Z</time>
      </trkpt>
      <trkpt lat="47.332" lon="-2.48712">
        <ele>-5.8000001907349</ele>
        <time>2019-11-24T10:28:57.000Z</time>
      </trkpt>
      <trkpt lat="47.33189" lon="-2.48675">
        <ele>-5.8000001907349</ele>
        <time>2019-11-24T10:29:01.000Z</time>
      </trkpt>
      <trkpt lat="47.33186" lon="-2.48655">
        <ele>-5.8000001907349</ele>
        <time>2019-11-24T10:29:03.000Z</time>
      </trkpt>
      <trkpt lat="47.33185" lon="-2.48592">
        <ele>-5.8000001907349</ele>
        <time>2019-11-24T10:29:09.000Z</time>
      </trkpt>
      <trkpt lat="47.33182" lon="-2.48507">
        <ele>-5.8000001907349</ele>
        <time>2019-11-24T10:29:17.000Z</time>
      </trkpt>
      <trkpt lat="47.33176" lon="-2.48448">
        <ele>-5.8000001907349</ele>
        <time>2019-11-24T10:29:23.000Z</time>
      </trkpt>
      <trkpt lat="47.33169" lon="-2.48392">
        <ele>-5.8000001907349</ele>
        <time>2019-11-24T10:29:29.000Z</time>
      </trkpt>
      <trkpt lat="47.33165" lon="-2.48383">
        <ele>-5.8000001907349</ele>
        <time>2019-11-24T10:29:30.000Z</time>
      </trkpt>
      <trkpt lat="47.33151" lon="-2.48351">
        <ele>-5.8000001907349</ele>
        <time>2019-11-24T10:29:34.000Z</time>
      </trkpt>
      <trkpt lat="47.33144" lon="-2.48311">
        <ele>-5.8000001907349</ele>
        <time>2019-11-24T10:29:38.000Z</time>
      </trkpt>
      <trkpt lat="47.33145" lon="-2.48279">
        <ele>-5.8000001907349</ele>
        <time>2019-11-24T10:29:41.000Z</time>
      </trkpt>
      <trkpt lat="47.33145" lon="-2.48268">
        <ele>-5.8000001907349</ele>
        <time>2019-11-24T10:29:42.000Z</time>
      </trkpt>
      <trkpt lat="47.33142" lon="-2.48205">
        <ele>-5.8000001907349</ele>
        <time>2019-11-24T10:29:48.000Z</time>
      </trkpt>
      <trkpt lat="47.33144" lon="-2.48133">
        <ele>-5.8000001907349</ele>
        <time>2019-11-24T10:29:55.000Z</time>
      </trkpt>
      <trkpt lat="47.33146" lon="-2.4805">
        <ele>-5.8000001907349</ele>
        <time>2019-11-24T10:30:03.000Z</time>
      </trkpt>
      <trkpt lat="47.33149" lon="-2.47968">
        <ele>-5.8000001907349</ele>
        <time>2019-11-24T10:30:11.000Z</time>
      </trkpt>
      <trkpt lat="47.33146" lon="-2.47916">
        <ele>-5.8000001907349</ele>
        <time>2019-11-24T10:30:16.000Z</time>
      </trkpt>
      <trkpt lat="47.33144" lon="-2.47906">
        <ele>-5.8000001907349</ele>
        <time>2019-11-24T10:30:17.000Z</time>
      </trkpt>
      <trkpt lat="47.33124" lon="-2.47849">
        <ele>-5.8000001907349</ele>
        <time>2019-11-24T10:30:23.000Z</time>
      </trkpt>
      <trkpt lat="47.33102" lon="-2.47821">
        <ele>-5.8000001907349</ele>
        <time>2019-11-24T10:30:27.000Z</time>
      </trkpt>
      <trkpt lat="47.33089" lon="-2.47813">
        <ele>-5.8000001907349</ele>
        <time>2019-11-24T10:30:29.000Z</time>
      </trkpt>
      <trkpt lat="47.33067" lon="-2.47804">
        <ele>-5.8000001907349</ele>
        <time>2019-11-24T10:30:32.000Z</time>
      </trkpt>
      <trkpt lat="47.33009" lon="-2.47782">
        <ele>-5.8000001907349</ele>
        <time>2019-11-24T10:30:40.000Z</time>
      </trkpt>
      <trkpt lat="47.32971" lon="-2.4775">
        <ele>-5.8000001907349</ele>
        <time>2019-11-24T10:30:46.000Z</time>
      </trkpt>
      <trkpt lat="47.32946" lon="-2.47713">
        <ele>-5.8000001907349</ele>
        <time>2019-11-24T10:30:51.000Z</time>
      </trkpt>
      <trkpt lat="47.32934" lon="-2.47671">
        <ele>-5.8000001907349</ele>
        <time>2019-11-24T10:30:55.000Z</time>
      </trkpt>
      <trkpt lat="47.3292" lon="-2.47592">
        <ele>-5.8000001907349</ele>
        <time>2019-11-24T10:31:02.000Z</time>
      </trkpt>
      <trkpt lat="47.3292" lon="-2.47547">
        <ele>-5.8000001907349</ele>
        <time>2019-11-24T10:31:06.000Z</time>
      </trkpt>
      <trkpt lat="47.32921" lon="-2.47525">
        <ele>-5.8000001907349</ele>
        <time>2019-11-24T10:31:08.000Z</time>
      </trkpt>
      <trkpt lat="47.32919" lon="-2.47503">
        <ele>-5.8000001907349</ele>
        <time>2019-11-24T10:31:10.000Z</time>
      </trkpt>
      <trkpt lat="47.32909" lon="-2.47454">
        <ele>-5.8000001907349</ele>
        <time>2019-11-24T10:31:15.000Z</time>
      </trkpt>
      <trkpt lat="47.32904" lon="-2.47434">
        <ele>-5.8000001907349</ele>
        <time>2019-11-24T10:31:17.000Z</time>
      </trkpt>
      <trkpt lat="47.32894" lon="-2.47369">
        <ele>-5.8000001907349</ele>
        <time>2019-11-24T10:31:23.000Z</time>
      </trkpt>
      <trkpt lat="47.32887" lon="-2.47308">
        <ele>-5.8000001907349</ele>
        <time>2019-11-24T10:31:29.000Z</time>
      </trkpt>
      <trkpt lat="47.32877" lon="-2.47249">
        <ele>-5.8000001907349</ele>
        <time>2019-11-24T10:31:35.000Z</time>
      </trkpt>
      <trkpt lat="47.32865" lon="-2.47178">
        <ele>-5.8000001907349</ele>
        <time>2019-11-24T10:31:42.000Z</time>
      </trkpt>
      <trkpt lat="47.32853" lon="-2.47114">
        <ele>-5.8000001907349</ele>
        <time>2019-11-24T10:31:48.000Z</time>
      </trkpt>
      <trkpt lat="47.32841" lon="-2.47058">
        <ele>-5.8000001907349</ele>
        <time>2019-11-24T10:31:54.000Z</time>
      </trkpt>
      <trkpt lat="47.32834" lon="-2.47034">
        <ele>-5.8000001907349</ele>
        <time>2019-11-24T10:31:57.000Z</time>
      </trkpt>
      <trkpt lat="47.32828" lon="-2.4702">
        <ele>-5.8000001907349</ele>
        <time>2019-11-24T10:31:59.000Z</time>
      </trkpt>
      <trkpt lat="47.32808" lon="-2.46974">
        <ele>-5.8000001907349</ele>
        <time>2019-11-24T10:32:05.000Z</time>
      </trkpt>
      <trkpt lat="47.32789" lon="-2.46924">
        <ele>-5.8000001907349</ele>
        <time>2019-11-24T10:32:11.000Z</time>
      </trkpt>
      <trkpt lat="47.32779" lon="-2.46878">
        <ele>-5.8000001907349</ele>
        <time>2019-11-24T10:32:16.000Z</time>
      </trkpt>
      <trkpt lat="47.32776" lon="-2.46862">
        <ele>-5.8000001907349</ele>
        <time>2019-11-24T10:32:18.000Z</time>
      </trkpt>
      <trkpt lat="47.32773" lon="-2.46849">
        <ele>-5.8000001907349</ele>
        <time>2019-11-24T10:32:20.000Z</time>
      </trkpt>
      <trkpt lat="47.32776" lon="-2.46833">
        <ele>-5.8000001907349</ele>
        <time>2019-11-24T10:32:24.000Z</time>
      </trkpt>
      <trkpt lat="47.32783" lon="-2.46829">
        <ele>-5.8000001907349</ele>
        <time>2019-11-24T10:32:27.000Z</time>
      </trkpt>
      <trkpt lat="47.32789" lon="-2.46822">
        <ele>-5.8000001907349</ele>
        <time>2019-11-24T10:32:30.000Z</time>
      </trkpt>
      <trkpt lat="47.32814" lon="-2.46799">
        <ele>-5.8000001907349</ele>
        <time>2019-11-24T10:32:38.000Z</time>
      </trkpt>
      <trkpt lat="47.32817" lon="-2.46795">
        <ele>-5.8000001907349</ele>
        <time>2019-11-24T10:32:39.000Z</time>
      </trkpt>
      <trkpt lat="47.32825" lon="-2.46789">
        <ele>-5.8000001907349</ele>
        <time>2019-11-24T10:32:41.000Z</time>
      </trkpt>
      <trkpt lat="47.32833" lon="-2.46781">
        <ele>-5.8000001907349</ele>
        <time>2019-11-24T10:32:43.000Z</time>
      </trkpt>
      <trkpt lat="47.32844" lon="-2.46768">
        <ele>-5.8000001907349</ele>
        <time>2019-11-24T10:32:46.000Z</time>
      </trkpt>
      <trkpt lat="47.32852" lon="-2.46758">
        <ele>-5.8000001907349</ele>
        <time>2019-11-24T10:32:48.000Z</time>
      </trkpt>
      <trkpt lat="47.32862" lon="-2.4674">
        <ele>-5.8000001907349</ele>
        <time>2019-11-24T10:32:51.000Z</time>
      </trkpt>
      <trkpt lat="47.32871" lon="-2.46721">
        <ele>-5.8000001907349</ele>
        <time>2019-11-24T10:32:54.000Z</time>
      </trkpt>
      <trkpt lat="47.32889" lon="-2.46684">
        <ele>-5.8000001907349</ele>
        <time>2019-11-24T10:33:00.000Z</time>
      </trkpt>
      <trkpt lat="47.32892" lon="-2.46677">
        <ele>-5.8000001907349</ele>
        <time>2019-11-24T10:33:01.000Z</time>
      </trkpt>
      <trkpt lat="47.32912" lon="-2.46625">
        <ele>-5.8000001907349</ele>
        <time>2019-11-24T10:33:09.000Z</time>
      </trkpt>
      <trkpt lat="47.3293" lon="-2.46591">
        <ele>-5.4000000953674</ele>
        <time>2019-11-24T10:33:15.000Z</time>
      </trkpt>
      <trkpt lat="47.32933" lon="-2.46586">
        <ele>-5</ele>
        <time>2019-11-24T10:33:16.000Z</time>
      </trkpt>
      <trkpt lat="47.32936" lon="-2.46582">
        <ele>-4.5999999046326</ele>
        <time>2019-11-24T10:33:17.000Z</time>
      </trkpt>
      <trkpt lat="47.3294" lon="-2.46579">
        <ele>-4.1999998092651</ele>
        <time>2019-11-24T10:33:18.000Z</time>
      </trkpt>
      <trkpt lat="47.32943" lon="-2.46575">
        <ele>-3.7999999523163</ele>
        <time>2019-11-24T10:33:19.000Z</time>
      </trkpt>
      <trkpt lat="47.32949" lon="-2.46569">
        <ele>-3.7999999523163</ele>
        <time>2019-11-24T10:33:21.000Z</time>
      </trkpt>
      <trkpt lat="47.32957" lon="-2.46556">
        <ele>-3.7999999523163</ele>
        <time>2019-11-24T10:33:24.000Z</time>
      </trkpt>
      <trkpt lat="47.32957" lon="-2.4655">
        <ele>-3.7999999523163</ele>
        <time>2019-11-24T10:33:25.000Z</time>
      </trkpt>
      <trkpt lat="47.32957" lon="-2.46544">
        <ele>-3.4000000953674</ele>
        <time>2019-11-24T10:33:26.000Z</time>
      </trkpt>
      <trkpt lat="47.32958" lon="-2.46537">
        <ele>-3</ele>
        <time>2019-11-24T10:33:27.000Z</time>
      </trkpt>
      <trkpt lat="47.32958" lon="-2.4653">
        <ele>-2.4000000953674</ele>
        <time>2019-11-24T10:33:28.000Z</time>
      </trkpt>
      <trkpt lat="47.32958" lon="-2.46523">
        <ele>-2</ele>
        <time>2019-11-24T10:33:29.000Z</time>
      </trkpt>
      <trkpt lat="47.32959" lon="-2.46517">
        <ele>-1.6000000238419</ele>
        <time>2019-11-24T10:33:30.000Z</time>
      </trkpt>
      <trkpt lat="47.32959" lon="-2.46503">
        <ele>-1.6000000238419</ele>
        <time>2019-11-24T10:33:32.000Z</time>
      </trkpt>
      <trkpt lat="47.3296" lon="-2.46473">
        <ele>-1.2000000476837</ele>
        <time>2019-11-24T10:33:37.000Z</time>
      </trkpt>
      <trkpt lat="47.3296" lon="-2.46468">
        <ele>-0.80000001192093</ele>
        <time>2019-11-24T10:33:38.000Z</time>
      </trkpt>
      <trkpt lat="47.3296" lon="-2.46462">
        <ele>-0.40000000596046</ele>
        <time>2019-11-24T10:33:39.000Z</time>
      </trkpt>
      <trkpt lat="47.3296" lon="-2.46457">
        <ele>12.1</ele>
        <time>2019-11-24T10:33:40.000Z</time>
      </trkpt>
      <trkpt lat="47.32961" lon="-2.46451">
        <ele>0.60000002384186</ele>
        <time>2019-11-24T10:33:41.000Z</time>
      </trkpt>
      <trkpt lat="47.32961" lon="-2.46436">
        <ele>1</ele>
        <time>2019-11-24T10:33:44.000Z</time>
      </trkpt>
      <trkpt lat="47.32961" lon="-2.46431">
        <ele>1.3999999761581</ele>
        <time>2019-11-24T10:33:45.000Z</time>
      </trkpt>
      <trkpt lat="47.32961" lon="-2.46426">
        <ele>1.7999999523163</ele>
        <time>2019-11-24T10:33:46.000Z</time>
      </trkpt>
      <trkpt lat="47.32961" lon="-2.46421">
        <ele>2.2000000476837</ele>
        <time>2019-11-24T10:33:47.000Z</time>
      </trkpt>
      <trkpt lat="47.32961" lon="-2.46416">
        <ele>2.7999999523163</ele>
        <time>2019-11-24T10:33:48.000Z</time>
      </trkpt>
      <trkpt lat="47.32961" lon="-2.46406">
        <ele>3.2000000476837</ele>
        <time>2019-11-24T10:33:50.000Z</time>
      </trkpt>
      <trkpt lat="47.32961" lon="-2.46402">
        <ele>4</ele>
        <time>2019-11-24T10:33:51.000Z</time>
      </trkpt>
      <trkpt lat="47.32961" lon="-2.46397">
        <ele>4.4000000953674</ele>
        <time>2019-11-24T10:33:52.000Z</time>
      </trkpt>
      <trkpt lat="47.32961" lon="-2.46393">
        <ele>4.8000001907349</ele>
        <time>2019-11-24T10:33:53.000Z</time>
      </trkpt>
      <trkpt lat="47.32961" lon="-2.46388">
        <ele>4.8000001907349</ele>
        <time>2019-11-24T10:33:54.000Z</time>
      </trkpt>
      <trkpt lat="47.32961" lon="-2.46379">
        <ele>5.1999998092651</ele>
        <time>2019-11-24T10:33:56.000Z</time>
      </trkpt>
      <trkpt lat="47.32961" lon="-2.46375">
        <ele>5.5999999046326</ele>
        <time>2019-11-24T10:33:57.000Z</time>
      </trkpt>
      <trkpt lat="47.32961" lon="-2.46371">
        <ele>6</ele>
        <time>2019-11-24T10:33:58.000Z</time>
      </trkpt>
      <trkpt lat="47.3296" lon="-2.46366">
        <ele>6.4000000953674</ele>
        <time>2019-11-24T10:33:59.000Z</time>
      </trkpt>
      <trkpt lat="47.32959" lon="-2.46362">
        <ele>6.8000001907349</ele>
        <time>2019-11-24T10:34:00.000Z</time>
      </trkpt>
      <trkpt lat="47.32956" lon="-2.46348">
        <ele>7.4000000953674</ele>
        <time>2019-11-24T10:34:03.000Z</time>
      </trkpt>
      <trkpt lat="47.32955" lon="-2.46344">
        <ele>7.8000001907349</ele>
        <time>2019-11-24T10:34:04.000Z</time>
      </trkpt>
      <trkpt lat="47.32954" lon="-2.4634">
        <ele>8.1999998092651</ele>
        <time>2019-11-24T10:34:05.000Z</time>
      </trkpt>
      <trkpt lat="47.32953" lon="-2.46336">
        <ele>8.6000003814697</ele>
        <time>2019-11-24T10:34:06.000Z</time>
      </trkpt>
      <trkpt lat="47.32952" lon="-2.46331">
        <ele>9</ele>
        <time>2019-11-24T10:34:07.000Z</time>
      </trkpt>
      <trkpt lat="47.32947" lon="-2.46314">
        <ele>9.3999996185303</ele>
        <time>2019-11-24T10:34:11.000Z</time>
      </trkpt>
      <trkpt lat="47.32946" lon="-2.4631">
        <ele>9.8000001907349</ele>
        <time>2019-11-24T10:34:12.000Z</time>
      </trkpt>
      <trkpt lat="47.32945" lon="-2.46305">
        <ele>10.199999809265</ele>
        <time>2019-11-24T10:34:13.000Z</time>
      </trkpt>
      <trkpt lat="47.32944" lon="-2.463">
        <ele>10.60000038147</ele>
        <time>2019-11-24T10:34:14.000Z</time>
      </trkpt>
      <trkpt lat="47.32943" lon="-2.46295">
        <ele>11</ele>
        <time>2019-11-24T10:34:15.000Z</time>
      </trkpt>
      <trkpt lat="47.32941" lon="-2.46285">
        <ele>11</ele>
        <time>2019-11-24T10:34:17.000Z</time>
      </trkpt>
      <trkpt lat="47.32932" lon="-2.46253">
        <ele>11.39999961853</ele>
        <time>2019-11-24T10:34:23.000Z</time>
      </trkpt>
      <trkpt lat="47.32931" lon="-2.46248">
        <ele>12</ele>
        <time>2019-11-24T10:34:24.000Z</time>
      </trkpt>
      <trkpt lat="47.3293" lon="-2.46242">
        <ele>12.39999961853</ele>
        <time>2019-11-24T10:34:25.000Z</time>
      </trkpt>
      <trkpt lat="47.32928" lon="-2.46237">
        <ele>12.800000190735</ele>
        <time>2019-11-24T10:34:26.000Z</time>
      </trkpt>
      <trkpt lat="47.32927" lon="-2.46231">
        <ele>13.199999809265</ele>
        <time>2019-11-24T10:34:27.000Z</time>
      </trkpt>
      <trkpt lat="47.32925" lon="-2.46226">
        <ele>13.199999809265</ele>
        <time>2019-11-24T10:34:28.000Z</time>
      </trkpt>
      <trkpt lat="47.32921" lon="-2.46214">
        <ele>13.199999809265</ele>
        <time>2019-11-24T10:34:30.000Z</time>
      </trkpt>
      <trkpt lat="47.3291" lon="-2.46174">
        <ele>13.199999809265</ele>
        <time>2019-11-24T10:34:37.000Z</time>
      </trkpt>
      <trkpt lat="47.32902" lon="-2.46153">
        <ele>13.199999809265</ele>
        <time>2019-11-24T10:34:41.000Z</time>
      </trkpt>
      <trkpt lat="47.32899" lon="-2.46151">
        <ele>13.199999809265</ele>
        <time>2019-11-24T10:34:42.000Z</time>
      </trkpt>
      <trkpt lat="47.32885" lon="-2.46156">
        <ele>13.199999809265</ele>
        <time>2019-11-24T10:34:45.000Z</time>
      </trkpt>
      <trkpt lat="47.32876" lon="-2.46162">
        <ele>13.199999809265</ele>
        <time>2019-11-24T10:34:47.000Z</time>
      </trkpt>
      <trkpt lat="47.32866" lon="-2.46169">
        <ele>13.199999809265</ele>
        <time>2019-11-24T10:34:49.000Z</time>
      </trkpt>
      <trkpt lat="47.32861" lon="-2.46173">
        <ele>13.199999809265</ele>
        <time>2019-11-24T10:34:50.000Z</time>
      </trkpt>
      <trkpt lat="47.32841" lon="-2.46187">
        <ele>12.800000190735</ele>
        <time>2019-11-24T10:34:53.000Z</time>
      </trkpt>
      <trkpt lat="47.32835" lon="-2.46191">
        <ele>12.199999809265</ele>
        <time>2019-11-24T10:34:54.000Z</time>
      </trkpt>
      <trkpt lat="47.32829" lon="-2.46194">
        <ele>11.800000190735</ele>
        <time>2019-11-24T10:34:55.000Z</time>
      </trkpt>
      <trkpt lat="47.32823" lon="-2.46196">
        <ele>11.39999961853</ele>
        <time>2019-11-24T10:34:56.000Z</time>
      </trkpt>
      <trkpt lat="47.32817" lon="-2.46195">
        <ele>11</ele>
        <time>2019-11-24T10:34:57.000Z</time>
      </trkpt>
      <trkpt lat="47.32812" lon="-2.46192">
        <ele>10.39999961853</ele>
        <time>2019-11-24T10:34:58.000Z</time>
      </trkpt>
      <trkpt lat="47.32807" lon="-2.46189">
        <ele>10</ele>
        <time>2019-11-24T10:34:59.000Z</time>
      </trkpt>
      <trkpt lat="47.32801" lon="-2.46185">
        <ele>9.3999996185303</ele>
        <time>2019-11-24T10:35:00.000Z</time>
      </trkpt>
      <trkpt lat="47.32795" lon="-2.46181">
        <ele>9</ele>
        <time>2019-11-24T10:35:01.000Z</time>
      </trkpt>
      <trkpt lat="47.32785" lon="-2.46173">
        <ele>9</ele>
        <time>2019-11-24T10:35:03.000Z</time>
      </trkpt>
      <trkpt lat="47.32781" lon="-2.46168">
        <ele>8.6000003814697</ele>
        <time>2019-11-24T10:35:04.000Z</time>
      </trkpt>
      <trkpt lat="47.32776" lon="-2.46163">
        <ele>7.5999999046326</ele>
        <time>2019-11-24T10:35:05.000Z</time>
      </trkpt>
      <trkpt lat="47.32773" lon="-2.46157">
        <ele>7.1999998092651</ele>
        <time>2019-11-24T10:35:06.000Z</time>
      </trkpt>
      <trkpt lat="47.3277" lon="-2.46151">
        <ele>6.8000001907349</ele>
        <time>2019-11-24T10:35:07.000Z</time>
      </trkpt>
      <trkpt lat="47.32767" lon="-2.46141">
        <ele>6.8000001907349</ele>
        <time>2019-11-24T10:35:09.000Z</time>
      </trkpt>
      <trkpt lat="47.32765" lon="-2.46133">
        <ele>6.8000001907349</ele>
        <time>2019-11-24T10:35:11.000Z</time>
      </trkpt>
      <trkpt lat="47.32764" lon="-2.46129">
        <ele>6.4000000953674</ele>
        <time>2019-11-24T10:35:12.000Z</time>
      </trkpt>
      <trkpt lat="47.32763" lon="-2.46126">
        <ele>6</ele>
        <time>2019-11-24T10:35:13.000Z</time>
      </trkpt>
      <trkpt lat="47.32762" lon="-2.46122">
        <ele>5.5999999046326</ele>
        <time>2019-11-24T10:35:14.000Z</time>
      </trkpt>
      <trkpt lat="47.32761" lon="-2.4612">
        <ele>5</ele>
        <time>2019-11-24T10:35:15.000Z</time>
      </trkpt>
      <trkpt lat="47.3276" lon="-2.46117">
        <ele>4.5999999046326</ele>
        <time>2019-11-24T10:35:16.000Z</time>
      </trkpt>
      <trkpt lat="47.32753" lon="-2.46098">
        <ele>4.5999999046326</ele>
        <time>2019-11-24T10:35:22.000Z</time>
      </trkpt>
      <trkpt lat="47.32747" lon="-2.4609">
        <ele>4.1999998092651</ele>
        <time>2019-11-24T10:35:25.000Z</time>
      </trkpt>
      <trkpt lat="47.32746" lon="-2.46088">
        <ele>3.7999999523163</ele>
        <time>2019-11-24T10:35:26.000Z</time>
      </trkpt>
      <trkpt lat="47.32744" lon="-2.46086">
        <ele>3.4000000953674</ele>
        <time>2019-11-24T10:35:27.000Z</time>
      </trkpt>
      <trkpt lat="47.32743" lon="-2.46084">
        <ele>3</ele>
        <time>2019-11-24T10:35:28.000Z</time>
      </trkpt>
      <trkpt lat="47.32742" lon="-2.46083">
        <ele>2.5999999046326</ele>
        <time>2019-11-24T10:35:29.000Z</time>
      </trkpt>
      <trkpt lat="47.3274" lon="-2.4608">
        <ele>2.5999999046326</ele>
        <time>2019-11-24T10:35:31.000Z</time>
      </trkpt>
      <trkpt lat="47.32738" lon="-2.46079">
        <ele>2.5999999046326</ele>
        <time>2019-11-24T10:35:32.000Z</time>
      </trkpt>
      <trkpt lat="47.32728" lon="-2.46066">
        <ele>2.5999999046326</ele>
        <time>2019-11-24T10:35:38.000Z</time>
      </trkpt>
      <trkpt lat="47.32719" lon="-2.46053">
        <ele>2.5999999046326</ele>
        <time>2019-11-24T10:35:43.000Z</time>
      </trkpt>
      <trkpt lat="47.32702" lon="-2.46034">
        <ele>2</ele>
        <time>2019-11-24T10:35:49.000Z</time>
      </trkpt>
      <trkpt lat="47.327" lon="-2.46031">
        <ele>1.6000000238419</ele>
        <time>2019-11-24T10:35:50.000Z</time>
      </trkpt>
      <trkpt lat="47.32698" lon="-2.46028">
        <ele>1.2000000476837</ele>
        <time>2019-11-24T10:35:51.000Z</time>
      </trkpt>
      <trkpt lat="47.32697" lon="-2.46026">
        <ele>0.80000001192093</ele>
        <time>2019-11-24T10:35:52.000Z</time>
      </trkpt>
      <trkpt lat="47.32695" lon="-2.46024">
        <ele>0.40000000596046</ele>
        <time>2019-11-24T10:35:53.000Z</time>
      </trkpt>
      <trkpt lat="47.32692" lon="-2.46019">
        <ele>0.40000000596046</ele>
        <time>2019-11-24T10:35:55.000Z</time>
      </trkpt>
      <trkpt lat="47.32683" lon="-2.46002">
        <ele>0.40000000596046</ele>
        <time>2019-11-24T10:36:01.000Z</time>
      </trkpt>
      <trkpt lat="47.3267" lon="-2.45989">
        <ele>0.40000000596046</ele>
        <time>2019-11-24T10:36:07.000Z</time>
      </trkpt>
      <trkpt lat="47.32655" lon="-2.45976">
        <ele>0.40000000596046</ele>
        <time>2019-11-24T10:36:12.000Z</time>
      </trkpt>
      <trkpt lat="47.32634" lon="-2.45953">
        <ele>0.40000000596046</ele>
        <time>2019-11-24T10:36:17.000Z</time>
      </trkpt>
      <trkpt lat="47.32631" lon="-2.45947">
        <ele>0.40000000596046</ele>
        <time>2019-11-24T10:36:18.000Z</time>
      </trkpt>
      <trkpt lat="47.32622" lon="-2.45931">
        <ele>0.40000000596046</ele>
        <time>2019-11-24T10:36:21.000Z</time>
      </trkpt>
      <trkpt lat="47.32615" lon="-2.4592">
        <ele>0.40000000596046</ele>
        <time>2019-11-24T10:36:23.000Z</time>
      </trkpt>
      <trkpt lat="47.32601" lon="-2.459">
        <ele>0.40000000596046</ele>
        <time>2019-11-24T10:36:27.000Z</time>
      </trkpt>
      <trkpt lat="47.32597" lon="-2.45895">
        <ele>0.40000000596046</ele>
        <time>2019-11-24T10:36:28.000Z</time>
      </trkpt>
      <trkpt lat="47.32571" lon="-2.45859">
        <ele>0.40000000596046</ele>
        <time>2019-11-24T10:36:35.000Z</time>
      </trkpt>
      <trkpt lat="47.32549" lon="-2.45821">
        <ele>0.40000000596046</ele>
        <time>2019-11-24T10:36:41.000Z</time>
      </trkpt>
      <trkpt lat="47.32545" lon="-2.45815">
        <ele>0.40000000596046</ele>
        <time>2019-11-24T10:36:42.000Z</time>
      </trkpt>
      <trkpt lat="47.32523" lon="-2.45781">
        <ele>0.40000000596046</ele>
        <time>2019-11-24T10:36:47.000Z</time>
      </trkpt>
      <trkpt lat="47.32497" lon="-2.45737">
        <ele>0.40000000596046</ele>
        <time>2019-11-24T10:36:53.000Z</time>
      </trkpt>
      <trkpt lat="47.32468" lon="-2.45686">
        <ele>0.40000000596046</ele>
        <time>2019-11-24T10:37:00.000Z</time>
      </trkpt>
      <trkpt lat="47.32453" lon="-2.4566">
        <ele>0.40000000596046</ele>
        <time>2019-11-24T10:37:04.000Z</time>
      </trkpt>
      <trkpt lat="47.32445" lon="-2.4565">
        <ele>0.40000000596046</ele>
        <time>2019-11-24T10:37:06.000Z</time>
      </trkpt>
      <trkpt lat="47.32441" lon="-2.45644">
        <ele>0.40000000596046</ele>
        <time>2019-11-24T10:37:07.000Z</time>
      </trkpt>
      <trkpt lat="47.32427" lon="-2.45619">
        <ele>0.40000000596046</ele>
        <time>2019-11-24T10:37:11.000Z</time>
      </trkpt>
      <trkpt lat="47.32406" lon="-2.45576">
        <ele>0.40000000596046</ele>
        <time>2019-11-24T10:37:18.000Z</time>
      </trkpt>
      <trkpt lat="47.32398" lon="-2.45557">
        <ele>0.40000000596046</ele>
        <time>2019-11-24T10:37:21.000Z</time>
      </trkpt>
      <trkpt lat="47.32392" lon="-2.45544">
        <ele>0.40000000596046</ele>
        <time>2019-11-24T10:37:23.000Z</time>
      </trkpt>
      <trkpt lat="47.32377" lon="-2.45515">
        <ele>0.40000000596046</ele>
        <time>2019-11-24T10:37:27.000Z</time>
      </trkpt>
      <trkpt lat="47.32373" lon="-2.45508">
        <ele>0.40000000596046</ele>
        <time>2019-11-24T10:37:28.000Z</time>
      </trkpt>
      <trkpt lat="47.32354" lon="-2.4548">
        <ele>0.40000000596046</ele>
        <time>2019-11-24T10:37:32.000Z</time>
      </trkpt>
      <trkpt lat="47.32349" lon="-2.45473">
        <ele>0.40000000596046</ele>
        <time>2019-11-24T10:37:33.000Z</time>
      </trkpt>
      <trkpt lat="47.32319" lon="-2.45422">
        <ele>0.40000000596046</ele>
        <time>2019-11-24T10:37:40.000Z</time>
      </trkpt>
      <trkpt lat="47.32317" lon="-2.45396">
        <ele>0.40000000596046</ele>
        <time>2019-11-24T10:37:43.000Z</time>
      </trkpt>
      <trkpt lat="47.3232" lon="-2.45369">
        <ele>0.40000000596046</ele>
        <time>2019-11-24T10:37:47.000Z</time>
      </trkpt>
      <trkpt lat="47.32319" lon="-2.45363">
        <ele>0.40000000596046</ele>
        <time>2019-11-24T10:37:48.000Z</time>
      </trkpt>
      <trkpt lat="47.32318" lon="-2.45357">
        <ele>0.40000000596046</ele>
        <time>2019-11-24T10:37:49.000Z</time>
      </trkpt>
      <trkpt lat="47.32317" lon="-2.45339">
        <ele>0.40000000596046</ele>
        <time>2019-11-24T10:37:52.000Z</time>
      </trkpt>
      <trkpt lat="47.32316" lon="-2.45322">
        <ele>1</ele>
        <time>2019-11-24T10:37:55.000Z</time>
      </trkpt>
      <trkpt lat="47.32317" lon="-2.45317">
        <ele>1.3999999761581</ele>
        <time>2019-11-24T10:37:56.000Z</time>
      </trkpt>
      <trkpt lat="47.32317" lon="-2.45312">
        <ele>1.7999999523163</ele>
        <time>2019-11-24T10:37:57.000Z</time>
      </trkpt>
      <trkpt lat="47.32316" lon="-2.45306">
        <ele>2.5999999046326</ele>
        <time>2019-11-24T10:37:58.000Z</time>
      </trkpt>
      <trkpt lat="47.32311" lon="-2.4529">
        <ele>2.5999999046326</ele>
        <time>2019-11-24T10:38:01.000Z</time>
      </trkpt>
      <trkpt lat="47.32309" lon="-2.45284">
        <ele>2.5999999046326</ele>
        <time>2019-11-24T10:38:02.000Z</time>
      </trkpt>
      <trkpt lat="47.32298" lon="-2.45245">
        <ele>2.5999999046326</ele>
        <time>2019-11-24T10:38:08.000Z</time>
      </trkpt>
      <trkpt lat="47.32289" lon="-2.45221">
        <ele>2.2000000476837</ele>
        <time>2019-11-24T10:38:11.000Z</time>
      </trkpt>
      <trkpt lat="47.32285" lon="-2.45213">
        <ele>1.7999999523163</ele>
        <time>2019-11-24T10:38:12.000Z</time>
      </trkpt>
      <trkpt lat="47.32282" lon="-2.45206">
        <ele>1.3999999761581</ele>
        <time>2019-11-24T10:38:13.000Z</time>
      </trkpt>
      <trkpt lat="47.32279" lon="-2.45199">
        <ele>1</ele>
        <time>2019-11-24T10:38:14.000Z</time>
      </trkpt>
      <trkpt lat="47.32276" lon="-2.45192">
        <ele>0.60000002384186</ele>
        <time>2019-11-24T10:38:15.000Z</time>
      </trkpt>
      <trkpt lat="47.32273" lon="-2.45185">
        <ele>0.60000002384186</ele>
        <time>2019-11-24T10:38:16.000Z</time>
      </trkpt>
      <trkpt lat="47.32271" lon="-2.45178">
        <ele>0.60000002384186</ele>
        <time>2019-11-24T10:38:17.000Z</time>
      </trkpt>
      <trkpt lat="47.3227" lon="-2.45172">
        <ele>0.60000002384186</ele>
        <time>2019-11-24T10:38:18.000Z</time>
      </trkpt>
      <trkpt lat="47.32265" lon="-2.45148">
        <ele>1</ele>
        <time>2019-11-24T10:38:22.000Z</time>
      </trkpt>
      <trkpt lat="47.32263" lon="-2.45142">
        <ele>1.6000000238419</ele>
        <time>2019-11-24T10:38:23.000Z</time>
      </trkpt>
      <trkpt lat="47.32262" lon="-2.45136">
        <ele>2</ele>
        <time>2019-11-24T10:38:24.000Z</time>
      </trkpt>
      <trkpt lat="47.3226" lon="-2.4513">
        <ele>2.4000000953674</ele>
        <time>2019-11-24T10:38:25.000Z</time>
      </trkpt>
      <trkpt lat="47.32258" lon="-2.45124">
        <ele>2.7999999523163</ele>
        <time>2019-11-24T10:38:26.000Z</time>
      </trkpt>
      <trkpt lat="47.32251" lon="-2.451">
        <ele>2.7999999523163</ele>
        <time>2019-11-24T10:38:30.000Z</time>
      </trkpt>
      <trkpt lat="47.32243" lon="-2.45084">
        <ele>3.2000000476837</ele>
        <time>2019-11-24T10:38:33.000Z</time>
      </trkpt>
      <trkpt lat="47.32241" lon="-2.45079">
        <ele>3.5999999046326</ele>
        <time>2019-11-24T10:38:34.000Z</time>
      </trkpt>
      <trkpt lat="47.32239" lon="-2.45074">
        <ele>4</ele>
        <time>2019-11-24T10:38:35.000Z</time>
      </trkpt>
      <trkpt lat="47.32236" lon="-2.45068">
        <ele>4.4000000953674</ele>
        <time>2019-11-24T10:38:36.000Z</time>
      </trkpt>
      <trkpt lat="47.32234" lon="-2.45063">
        <ele>4.8000001907349</ele>
        <time>2019-11-24T10:38:37.000Z</time>
      </trkpt>
      <trkpt lat="47.32216" lon="-2.45026">
        <ele>4.8000001907349</ele>
        <time>2019-11-24T10:38:43.000Z</time>
      </trkpt>
      <trkpt lat="47.32201" lon="-2.44996">
        <ele>4.8000001907349</ele>
        <time>2019-11-24T10:38:48.000Z</time>
      </trkpt>
      <trkpt lat="47.32197" lon="-2.4499">
        <ele>4.8000001907349</ele>
        <time>2019-11-24T10:38:49.000Z</time>
      </trkpt>
      <trkpt lat="47.32189" lon="-2.44977">
        <ele>4.8000001907349</ele>
        <time>2019-11-24T10:38:51.000Z</time>
      </trkpt>
      <trkpt lat="47.32184" lon="-2.44971">
        <ele>4.8000001907349</ele>
        <time>2019-11-24T10:38:52.000Z</time>
      </trkpt>
      <trkpt lat="47.32153" lon="-2.44948">
        <ele>4.8000001907349</ele>
        <time>2019-11-24T10:38:57.000Z</time>
      </trkpt>
      <trkpt lat="47.32142" lon="-2.44937">
        <ele>4.8000001907349</ele>
        <time>2019-11-24T10:38:59.000Z</time>
      </trkpt>
      <trkpt lat="47.32131" lon="-2.44922">
        <ele>4.4000000953674</ele>
        <time>2019-11-24T10:39:01.000Z</time>
      </trkpt>
      <trkpt lat="47.32127" lon="-2.44913">
        <ele>4</ele>
        <time>2019-11-24T10:39:02.000Z</time>
      </trkpt>
      <trkpt lat="47.32122" lon="-2.44904">
        <ele>3.5999999046326</ele>
        <time>2019-11-24T10:39:03.000Z</time>
      </trkpt>
      <trkpt lat="47.32118" lon="-2.44896">
        <ele>3</ele>
        <time>2019-11-24T10:39:04.000Z</time>
      </trkpt>
      <trkpt lat="47.32114" lon="-2.44887">
        <ele>2.5999999046326</ele>
        <time>2019-11-24T10:39:05.000Z</time>
      </trkpt>
      <trkpt lat="47.321" lon="-2.44852">
        <ele>2.5999999046326</ele>
        <time>2019-11-24T10:39:09.000Z</time>
      </trkpt>
      <trkpt lat="47.32075" lon="-2.44792">
        <ele>2.5999999046326</ele>
        <time>2019-11-24T10:39:16.000Z</time>
      </trkpt>
      <trkpt lat="47.32071" lon="-2.44784">
        <ele>2.2000000476837</ele>
        <time>2019-11-24T10:39:17.000Z</time>
      </trkpt>
      <trkpt lat="47.32066" lon="-2.44776">
        <ele>1.7999999523163</ele>
        <time>2019-11-24T10:39:18.000Z</time>
      </trkpt>
      <trkpt lat="47.32062" lon="-2.44769">
        <ele>1.3999999761581</ele>
        <time>2019-11-24T10:39:19.000Z</time>
      </trkpt>
      <trkpt lat="47.32058" lon="-2.44761">
        <ele>1</ele>
        <time>2019-11-24T10:39:20.000Z</time>
      </trkpt>
      <trkpt lat="47.32053" lon="-2.44753">
        <ele>0.60000002384186</ele>
        <time>2019-11-24T10:39:21.000Z</time>
      </trkpt>
      <trkpt lat="47.32029" lon="-2.44716">
        <ele>0.60000002384186</ele>
        <time>2019-11-24T10:39:26.000Z</time>
      </trkpt>
      <trkpt lat="47.31994" lon="-2.44668">
        <ele>0.60000002384186</ele>
        <time>2019-11-24T10:39:33.000Z</time>
      </trkpt>
      <trkpt lat="47.31969" lon="-2.44638">
        <ele>0.60000002384186</ele>
        <time>2019-11-24T10:39:38.000Z</time>
      </trkpt>
      <trkpt lat="47.31943" lon="-2.4461">
        <ele>8.1</ele>
        <time>2019-11-24T10:39:43.000Z</time>
      </trkpt>
      <trkpt lat="47.31939" lon="-2.44604">
        <ele>-0.40000000596046</ele>
        <time>2019-11-24T10:39:44.000Z</time>
      </trkpt>
      <trkpt lat="47.31934" lon="-2.44598">
        <ele>-0.80000001192093</ele>
        <time>2019-11-24T10:39:45.000Z</time>
      </trkpt>
      <trkpt lat="47.31929" lon="-2.44592">
        <ele>-1.2000000476837</ele>
        <time>2019-11-24T10:39:46.000Z</time>
      </trkpt>
      <trkpt lat="47.31924" lon="-2.44586">
        <ele>-1.6000000238419</ele>
        <time>2019-11-24T10:39:47.000Z</time>
      </trkpt>
      <trkpt lat="47.31915" lon="-2.44574">
        <ele>-1.6000000238419</ele>
        <time>2019-11-24T10:39:49.000Z</time>
      </trkpt>
      <trkpt lat="47.31908" lon="-2.44561">
        <ele>-1.6000000238419</ele>
        <time>2019-11-24T10:39:51.000Z</time>
      </trkpt>
      <trkpt lat="47.31907" lon="-2.44553">
        <ele>-1.6000000238419</ele>
        <time>2019-11-24T10:39:52.000Z</time>
      </trkpt>
      <trkpt lat="47.31912" lon="-2.4453">
        <ele>-1.6000000238419</ele>
        <time>2019-11-24T10:39:55.000Z</time>
      </trkpt>
      <trkpt lat="47.31915" lon="-2.44523">
        <ele>-1.6000000238419</ele>
        <time>2019-11-24T10:39:56.000Z</time>
      </trkpt>
      <trkpt lat="47.3193" lon="-2.44487">
        <ele>-1.6000000238419</ele>
        <time>2019-11-24T10:40:01.000Z</time>
      </trkpt>
      <trkpt lat="47.31949" lon="-2.4444">
        <ele>-1.6000000238419</ele>
        <time>2019-11-24T10:40:07.000Z</time>
      </trkpt>
      <trkpt lat="47.31955" lon="-2.44423">
        <ele>-1.6000000238419</ele>
        <time>2019-11-24T10:40:09.000Z</time>
      </trkpt>
      <trkpt lat="47.31966" lon="-2.4439">
        <ele>-1.6000000238419</ele>
        <time>2019-11-24T10:40:13.000Z</time>
      </trkpt>
      <trkpt lat="47.31984" lon="-2.44357">
        <ele>-1.6000000238419</ele>
        <time>2019-11-24T10:40:18.000Z</time>
      </trkpt>
      <trkpt lat="47.32007" lon="-2.44326">
        <ele>-1.6000000238419</ele>
        <time>2019-11-24T10:40:24.000Z</time>
      </trkpt>
      <trkpt lat="47.32019" lon="-2.44308">
        <ele>-1.2000000476837</ele>
        <time>2019-11-24T10:40:28.000Z</time>
      </trkpt>
      <trkpt lat="47.32022" lon="-2.44303">
        <ele>-0.80000001192093</ele>
        <time>2019-11-24T10:40:29.000Z</time>
      </trkpt>
      <trkpt lat="47.32025" lon="-2.44298">
        <ele>-0.40000000596046</ele>
        <time>2019-11-24T10:40:30.000Z</time>
      </trkpt>
      <trkpt lat="47.32028" lon="-2.44293">
        <ele>11.9</ele>
        <time>2019-11-24T10:40:31.000Z</time>
      </trkpt>
      <trkpt lat="47.32031" lon="-2.44288">
        <ele>0.40000000596046</ele>
        <time>2019-11-24T10:40:32.000Z</time>
      </trkpt>
      <trkpt lat="47.3204" lon="-2.44274">
        <ele>0.80000001192093</ele>
        <time>2019-11-24T10:40:35.000Z</time>
      </trkpt>
      <trkpt lat="47.32043" lon="-2.4427">
        <ele>1.3999999761581</ele>
        <time>2019-11-24T10:40:36.000Z</time>
      </trkpt>
      <trkpt lat="47.32046" lon="-2.44266">
        <ele>1.7999999523163</ele>
        <time>2019-11-24T10:40:37.000Z</time>
      </trkpt>
      <trkpt lat="47.32049" lon="-2.44261">
        <ele>2.2000000476837</ele>
        <time>2019-11-24T10:40:38.000Z</time>
      </trkpt>
      <trkpt lat="47.32052" lon="-2.44257">
        <ele>2.5999999046326</ele>
        <time>2019-11-24T10:40:39.000Z</time>
      </trkpt>
      <trkpt lat="47.32065" lon="-2.4424">
        <ele>3</ele>
        <time>2019-11-24T10:40:43.000Z</time>
      </trkpt>
      <trkpt lat="47.32068" lon="-2.44236">
        <ele>3.4000000953674</ele>
        <time>2019-11-24T10:40:44.000Z</time>
      </trkpt>
      <trkpt lat="47.32071" lon="-2.44233">
        <ele>4</ele>
        <time>2019-11-24T10:40:45.000Z</time>
      </trkpt>
      <trkpt lat="47.32074" lon="-2.44229">
        <ele>4.4000000953674</ele>
        <time>2019-11-24T10:40:46.000Z</time>
      </trkpt>
      <trkpt lat="47.32076" lon="-2.44225">
        <ele>4.8000001907349</ele>
        <time>2019-11-24T10:40:47.000Z</time>
      </trkpt>
      <trkpt lat="47.32085" lon="-2.44214">
        <ele>5.1999998092651</ele>
        <time>2019-11-24T10:40:50.000Z</time>
      </trkpt>
      <trkpt lat="47.32087" lon="-2.4421">
        <ele>6</ele>
        <time>2019-11-24T10:40:51.000Z</time>
      </trkpt>
      <trkpt lat="47.32089" lon="-2.44207">
        <ele>6.4000000953674</ele>
        <time>2019-11-24T10:40:52.000Z</time>
      </trkpt>
      <trkpt lat="47.32092" lon="-2.44204">
        <ele>6.8000001907349</ele>
        <time>2019-11-24T10:40:53.000Z</time>
      </trkpt>
      <trkpt lat="47.32107" lon="-2.44186">
        <ele>7.1999998092651</ele>
        <time>2019-11-24T10:40:59.000Z</time>
      </trkpt>
      <trkpt lat="47.32109" lon="-2.44182">
        <ele>7.5999999046326</ele>
        <time>2019-11-24T10:41:00.000Z</time>
      </trkpt>
      <trkpt lat="47.32112" lon="-2.44179">
        <ele>8.1999998092651</ele>
        <time>2019-11-24T10:41:01.000Z</time>
      </trkpt>
      <trkpt lat="47.32115" lon="-2.44176">
        <ele>8.6000003814697</ele>
        <time>2019-11-24T10:41:02.000Z</time>
      </trkpt>
      <trkpt lat="47.32117" lon="-2.44173">
        <ele>9</ele>
        <time>2019-11-24T10:41:03.000Z</time>
      </trkpt>
      <trkpt lat="47.3213" lon="-2.44157">
        <ele>9.3999996185303</ele>
        <time>2019-11-24T10:41:08.000Z</time>
      </trkpt>
      <trkpt lat="47.32132" lon="-2.44154">
        <ele>9.8000001907349</ele>
        <time>2019-11-24T10:41:09.000Z</time>
      </trkpt>
      <trkpt lat="47.32135" lon="-2.44151">
        <ele>10.199999809265</ele>
        <time>2019-11-24T10:41:10.000Z</time>
      </trkpt>
      <trkpt lat="47.32137" lon="-2.44148">
        <ele>10.60000038147</ele>
        <time>2019-11-24T10:41:11.000Z</time>
      </trkpt>
      <trkpt lat="47.32139" lon="-2.44145">
        <ele>11</ele>
        <time>2019-11-24T10:41:12.000Z</time>
      </trkpt>
      <trkpt lat="47.32146" lon="-2.44136">
        <ele>11.800000190735</ele>
        <time>2019-11-24T10:41:15.000Z</time>
      </trkpt>
      <trkpt lat="47.32148" lon="-2.44134">
        <ele>12.199999809265</ele>
        <time>2019-11-24T10:41:16.000Z</time>
      </trkpt>
      <trkpt lat="47.3215" lon="-2.44131">
        <ele>12.60000038147</ele>
        <time>2019-11-24T10:41:17.000Z</time>
      </trkpt>
      <trkpt lat="47.32153" lon="-2.44128">
        <ele>13.199999809265</ele>
        <time>2019-11-24T10:41:18.000Z</time>
      </trkpt>
      <trkpt lat="47.32165" lon="-2.44113">
        <ele>13.199999809265</ele>
        <time>2019-11-24T10:41:23.000Z</time>
      </trkpt>
      <trkpt lat="47.32167" lon="-2.44111">
        <ele>13.60000038147</ele>
        <time>2019-11-24T10:41:24.000Z</time>
      </trkpt>
      <trkpt lat="47.32169" lon="-2.44108">
        <ele>14</ele>
        <time>2019-11-24T10:41:25.000Z</time>
      </trkpt>
      <trkpt lat="47.32172" lon="-2.44105">
        <ele>14.39999961853</ele>
        <time>2019-11-24T10:41:26.000Z</time>
      </trkpt>
      <trkpt lat="47.32174" lon="-2.44103">
        <ele>15</ele>
        <time>2019-11-24T10:41:27.000Z</time>
      </trkpt>
      <trkpt lat="47.32176" lon="-2.441">
        <ele>15.39999961853</ele>
        <time>2019-11-24T10:41:28.000Z</time>
      </trkpt>
      <trkpt lat="47.32183" lon="-2.44092">
        <ele>15.39999961853</ele>
        <time>2019-11-24T10:41:31.000Z</time>
      </trkpt>
      <trkpt lat="47.32192" lon="-2.44083">
        <ele>15.800000190735</ele>
        <time>2019-11-24T10:41:35.000Z</time>
      </trkpt>
      <trkpt lat="47.32195" lon="-2.44081">
        <ele>16.200000762939</ele>
        <time>2019-11-24T10:41:36.000Z</time>
      </trkpt>
      <trkpt lat="47.32198" lon="-2.44079">
        <ele>16.60000038147</ele>
        <time>2019-11-24T10:41:37.000Z</time>
      </trkpt>
      <trkpt lat="47.322" lon="-2.44077">
        <ele>17</ele>
        <time>2019-11-24T10:41:38.000Z</time>
      </trkpt>
      <trkpt lat="47.32202" lon="-2.44075">
        <ele>17.39999961853</ele>
        <time>2019-11-24T10:41:39.000Z</time>
      </trkpt>
      <trkpt lat="47.32214" lon="-2.44062">
        <ele>17.39999961853</ele>
        <time>2019-11-24T10:41:44.000Z</time>
      </trkpt>
      <trkpt lat="47.32216" lon="-2.44061">
        <ele>17.799999237061</ele>
        <time>2019-11-24T10:41:45.000Z</time>
      </trkpt>
      <trkpt lat="47.32219" lon="-2.44059">
        <ele>18.200000762939</ele>
        <time>2019-11-24T10:41:46.000Z</time>
      </trkpt>
      <trkpt lat="47.32221" lon="-2.44057">
        <ele>18.60000038147</ele>
        <time>2019-11-24T10:41:47.000Z</time>
      </trkpt>
      <trkpt lat="47.32224" lon="-2.44056">
        <ele>19</ele>
        <time>2019-11-24T10:41:48.000Z</time>
      </trkpt>
      <trkpt lat="47.32226" lon="-2.44054">
        <ele>19.39999961853</ele>
        <time>2019-11-24T10:41:49.000Z</time>
      </trkpt>
      <trkpt lat="47.3223" lon="-2.44052">
        <ele>19.39999961853</ele>
        <time>2019-11-24T10:41:51.000Z</time>
      </trkpt>
      <trkpt lat="47.32243" lon="-2.44045">
        <ele>19.39999961853</ele>
        <time>2019-11-24T10:41:57.000Z</time>
      </trkpt>
      <trkpt lat="47.32248" lon="-2.44041">
        <ele>19.799999237061</ele>
        <time>2019-11-24T10:42:00.000Z</time>
      </trkpt>
      <trkpt lat="47.32249" lon="-2.4404">
        <ele>20.200000762939</ele>
        <time>2019-11-24T10:42:01.000Z</time>
      </trkpt>
      <trkpt lat="47.32251" lon="-2.44038">
        <ele>20.60000038147</ele>
        <time>2019-11-24T10:42:02.000Z</time>
      </trkpt>
      <trkpt lat="47.32252" lon="-2.44037">
        <ele>21</ele>
        <time>2019-11-24T10:42:03.000Z</time>
      </trkpt>
      <trkpt lat="47.32252" lon="-2.44036">
        <ele>21.39999961853</ele>
        <time>2019-11-24T10:42:04.000Z</time>
      </trkpt>
      <trkpt lat="47.32253" lon="-2.44036">
        <ele>21.39999961853</ele>
        <time>2019-11-24T10:42:06.000Z</time>
      </trkpt>
      <trkpt lat="47.32255" lon="-2.44035">
        <ele>21.39999961853</ele>
        <time>2019-11-24T10:42:15.000Z</time>
      </trkpt>
      <trkpt lat="47.32256" lon="-2.44036">
        <ele>21.39999961853</ele>
        <time>2019-11-24T10:42:16.000Z</time>
      </trkpt>
      <trkpt lat="47.32257" lon="-2.44035">
        <ele>21.39999961853</ele>
        <time>2019-11-24T10:42:17.000Z</time>
      </trkpt>
      <trkpt lat="47.32261" lon="-2.44035">
        <ele>21.39999961853</ele>
        <time>2019-11-24T10:42:23.000Z</time>
      </trkpt>
      <trkpt lat="47.32262" lon="-2.44028">
        <ele>21.39999961853</ele>
        <time>2019-11-24T10:46:39.000Z</time>
      </trkpt>
      <trkpt lat="47.32266" lon="-2.44023">
        <ele>21.39999961853</ele>
        <time>2019-11-24T10:46:42.000Z</time>
      </trkpt>
      <trkpt lat="47.32269" lon="-2.44021">
        <ele>21.39999961853</ele>
        <time>2019-11-24T10:46:43.000Z</time>
      </trkpt>
      <trkpt lat="47.32278" lon="-2.44012">
        <ele>21.39999961853</ele>
        <time>2019-11-24T10:46:46.000Z</time>
      </trkpt>
      <trkpt lat="47.32295" lon="-2.43996">
        <ele>21.799999237061</ele>
        <time>2019-11-24T10:46:51.000Z</time>
      </trkpt>
      <trkpt lat="47.32298" lon="-2.43992">
        <ele>22.200000762939</ele>
        <time>2019-11-24T10:46:52.000Z</time>
      </trkpt>
      <trkpt lat="47.32302" lon="-2.43987">
        <ele>22.799999237061</ele>
        <time>2019-11-24T10:46:53.000Z</time>
      </trkpt>
      <trkpt lat="47.32304" lon="-2.43983">
        <ele>23.200000762939</ele>
        <time>2019-11-24T10:46:54.000Z</time>
      </trkpt>
      <trkpt lat="47.32306" lon="-2.43978">
        <ele>23.60000038147</ele>
        <time>2019-11-24T10:46:55.000Z</time>
      </trkpt>
      <trkpt lat="47.32311" lon="-2.43962">
        <ele>23.60000038147</ele>
        <time>2019-11-24T10:46:58.000Z</time>
      </trkpt>
      <trkpt lat="47.32313" lon="-2.43956">
        <ele>23.60000038147</ele>
        <time>2019-11-24T10:46:59.000Z</time>
      </trkpt>
      <trkpt lat="47.32314" lon="-2.4395">
        <ele>24</ele>
        <time>2019-11-24T10:47:00.000Z</time>
      </trkpt>
      <trkpt lat="47.32316" lon="-2.43944">
        <ele>24.39999961853</ele>
        <time>2019-11-24T10:47:01.000Z</time>
      </trkpt>
      <trkpt lat="47.32317" lon="-2.43938">
        <ele>24.799999237061</ele>
        <time>2019-11-24T10:47:02.000Z</time>
      </trkpt>
      <trkpt lat="47.32318" lon="-2.43931">
        <ele>25.200000762939</ele>
        <time>2019-11-24T10:47:03.000Z</time>
      </trkpt>
      <trkpt lat="47.32319" lon="-2.43925">
        <ele>25.60000038147</ele>
        <time>2019-11-24T10:47:04.000Z</time>
      </trkpt>
      <trkpt lat="47.32324" lon="-2.43898">
        <ele>25.60000038147</ele>
        <time>2019-11-24T10:47:08.000Z</time>
      </trkpt>
      <trkpt lat="47.32328" lon="-2.43877">
        <ele>25.60000038147</ele>
        <time>2019-11-24T10:47:11.000Z</time>
      </trkpt>
      <trkpt lat="47.32336" lon="-2.43841">
        <ele>26</ele>
        <time>2019-11-24T10:47:16.000Z</time>
      </trkpt>
      <trkpt lat="47.32338" lon="-2.43834">
        <ele>26.39999961853</ele>
        <time>2019-11-24T10:47:17.000Z</time>
      </trkpt>
      <trkpt lat="47.3234" lon="-2.43827">
        <ele>26.799999237061</ele>
        <time>2019-11-24T10:47:18.000Z</time>
      </trkpt>
      <trkpt lat="47.32342" lon="-2.4382">
        <ele>27.39999961853</ele>
        <time>2019-11-24T10:47:19.000Z</time>
      </trkpt>
      <trkpt lat="47.32345" lon="-2.43813">
        <ele>27.799999237061</ele>
        <time>2019-11-24T10:47:20.000Z</time>
      </trkpt>
      <trkpt lat="47.32355" lon="-2.43784">
        <ele>27.799999237061</ele>
        <time>2019-11-24T10:47:24.000Z</time>
      </trkpt>
      <trkpt lat="47.32371" lon="-2.43724">
        <ele>27.799999237061</ele>
        <time>2019-11-24T10:47:32.000Z</time>
      </trkpt>
      <trkpt lat="47.3238" lon="-2.43672">
        <ele>27.799999237061</ele>
        <time>2019-11-24T10:47:39.000Z</time>
      </trkpt>
      <trkpt lat="47.32382" lon="-2.43664">
        <ele>27.799999237061</ele>
        <time>2019-11-24T10:47:40.000Z</time>
      </trkpt>
      <trkpt lat="47.32394" lon="-2.43604">
        <ele>27.799999237061</ele>
        <time>2019-11-24T10:47:48.000Z</time>
      </trkpt>
      <trkpt lat="47.32406" lon="-2.43563">
        <ele>28.200000762939</ele>
        <time>2019-11-24T10:47:54.000Z</time>
      </trkpt>
      <trkpt lat="47.32408" lon="-2.43556">
        <ele>28.60000038147</ele>
        <time>2019-11-24T10:47:55.000Z</time>
      </trkpt>
      <trkpt lat="47.32409" lon="-2.4355">
        <ele>29</ele>
        <time>2019-11-24T10:47:56.000Z</time>
      </trkpt>
      <trkpt lat="47.3241" lon="-2.43543">
        <ele>29.39999961853</ele>
        <time>2019-11-24T10:47:57.000Z</time>
      </trkpt>
      <trkpt lat="47.32412" lon="-2.43536">
        <ele>29.799999237061</ele>
        <time>2019-11-24T10:47:58.000Z</time>
      </trkpt>
      <trkpt lat="47.32414" lon="-2.43531">
        <ele>29.799999237061</ele>
        <time>2019-11-24T10:47:59.000Z</time>
      </trkpt>
      <trkpt lat="47.32426" lon="-2.43519">
        <ele>29.799999237061</ele>
        <time>2019-11-24T10:48:02.000Z</time>
      </trkpt>
      <trkpt lat="47.3243" lon="-2.43515">
        <ele>29.799999237061</ele>
        <time>2019-11-24T10:48:03.000Z</time>
      </trkpt>
      <trkpt lat="47.32463" lon="-2.43482">
        <ele>29.799999237061</ele>
        <time>2019-11-24T10:48:11.000Z</time>
      </trkpt>
      <trkpt lat="47.32487" lon="-2.43456">
        <ele>29.799999237061</ele>
        <time>2019-11-24T10:48:17.000Z</time>
      </trkpt>
      <trkpt lat="47.32491" lon="-2.43452">
        <ele>29.799999237061</ele>
        <time>2019-11-24T10:48:18.000Z</time>
      </trkpt>
      <trkpt lat="47.325" lon="-2.43436">
        <ele>29.799999237061</ele>
        <time>2019-11-24T10:48:21.000Z</time>
      </trkpt>
      <trkpt lat="47.32503" lon="-2.43423">
        <ele>29.799999237061</ele>
        <time>2019-11-24T10:48:23.000Z</time>
      </trkpt>
      <trkpt lat="47.32505" lon="-2.43418">
        <ele>29.799999237061</ele>
        <time>2019-11-24T10:48:24.000Z</time>
      </trkpt>
      <trkpt lat="47.32513" lon="-2.43413">
        <ele>29.799999237061</ele>
        <time>2019-11-24T10:48:26.000Z</time>
      </trkpt>
      <trkpt lat="47.32519" lon="-2.43421">
        <ele>29.799999237061</ele>
        <time>2019-11-24T10:48:29.000Z</time>
      </trkpt>
      <trkpt lat="47.32525" lon="-2.43414">
        <ele>29.799999237061</ele>
        <time>2019-11-24T10:48:32.000Z</time>
      </trkpt>
      <trkpt lat="47.32527" lon="-2.43409">
        <ele>29.799999237061</ele>
        <time>2019-11-24T10:48:33.000Z</time>
      </trkpt>
      <trkpt lat="47.32532" lon="-2.4339">
        <ele>29.799999237061</ele>
        <time>2019-11-24T10:48:38.000Z</time>
      </trkpt>
      <trkpt lat="47.32534" lon="-2.4339">
        <ele>29.799999237061</ele>
        <time>2019-11-24T10:48:39.000Z</time>
      </trkpt>
      <trkpt lat="47.32534" lon="-2.43397">
        <ele>29.799999237061</ele>
        <time>2019-11-24T10:48:41.000Z</time>
      </trkpt>
      <trkpt lat="47.32526" lon="-2.43413">
        <ele>29.799999237061</ele>
        <time>2019-11-24T10:48:45.000Z</time>
      </trkpt>
      <trkpt lat="47.32518" lon="-2.4342">
        <ele>29.799999237061</ele>
        <time>2019-11-24T10:48:47.000Z</time>
      </trkpt>
      <trkpt lat="47.32511" lon="-2.4343">
        <ele>29.799999237061</ele>
        <time>2019-11-24T10:48:49.000Z</time>
      </trkpt>
      <trkpt lat="47.32507" lon="-2.43433">
        <ele>29.799999237061</ele>
        <time>2019-11-24T10:48:50.000Z</time>
      </trkpt>
      <trkpt lat="47.32498" lon="-2.43427">
        <ele>29.799999237061</ele>
        <time>2019-11-24T10:48:52.000Z</time>
      </trkpt>
      <trkpt lat="47.32488" lon="-2.43408">
        <ele>29.799999237061</ele>
        <time>2019-11-24T10:48:55.000Z</time>
      </trkpt>
      <trkpt lat="47.32477" lon="-2.43396">
        <ele>29.799999237061</ele>
        <time>2019-11-24T10:48:57.000Z</time>
      </trkpt>
      <trkpt lat="47.32466" lon="-2.43382">
        <ele>29.799999237061</ele>
        <time>2019-11-24T10:48:59.000Z</time>
      </trkpt>
      <trkpt lat="47.32455" lon="-2.43366">
        <ele>29.39999961853</ele>
        <time>2019-11-24T10:49:01.000Z</time>
      </trkpt>
      <trkpt lat="47.3245" lon="-2.43359">
        <ele>29</ele>
        <time>2019-11-24T10:49:02.000Z</time>
      </trkpt>
      <trkpt lat="47.32446" lon="-2.43352">
        <ele>28.60000038147</ele>
        <time>2019-11-24T10:49:03.000Z</time>
      </trkpt>
      <trkpt lat="47.32441" lon="-2.43346">
        <ele>28.200000762939</ele>
        <time>2019-11-24T10:49:04.000Z</time>
      </trkpt>
      <trkpt lat="47.32437" lon="-2.43339">
        <ele>27.799999237061</ele>
        <time>2019-11-24T10:49:05.000Z</time>
      </trkpt>
      <trkpt lat="47.3242" lon="-2.43313">
        <ele>27.799999237061</ele>
        <time>2019-11-24T10:49:09.000Z</time>
      </trkpt>
      <trkpt lat="47.32402" lon="-2.43278">
        <ele>28.200000762939</ele>
        <time>2019-11-24T10:49:14.000Z</time>
      </trkpt>
      <trkpt lat="47.32398" lon="-2.43271">
        <ele>28.60000038147</ele>
        <time>2019-11-24T10:49:15.000Z</time>
      </trkpt>
      <trkpt lat="47.32394" lon="-2.43263">
        <ele>29</ele>
        <time>2019-11-24T10:49:16.000Z</time>
      </trkpt>
      <trkpt lat="47.3239" lon="-2.43255">
        <ele>29.39999961853</ele>
        <time>2019-11-24T10:49:17.000Z</time>
      </trkpt>
      <trkpt lat="47.32386" lon="-2.43248">
        <ele>29.799999237061</ele>
        <time>2019-11-24T10:49:18.000Z</time>
      </trkpt>
      <trkpt lat="47.32375" lon="-2.43222">
        <ele>29.799999237061</ele>
        <time>2019-11-24T10:49:21.000Z</time>
      </trkpt>
      <trkpt lat="47.32372" lon="-2.43213">
        <ele>29.799999237061</ele>
        <time>2019-11-24T10:49:22.000Z</time>
      </trkpt>
      <trkpt lat="47.32368" lon="-2.43192">
        <ele>29.799999237061</ele>
        <time>2019-11-24T10:49:24.000Z</time>
      </trkpt>
      <trkpt lat="47.32367" lon="-2.4317">
        <ele>29.799999237061</ele>
        <time>2019-11-24T10:49:26.000Z</time>
      </trkpt>
      <trkpt lat="47.32367" lon="-2.4311">
        <ele>29.799999237061</ele>
        <time>2019-11-24T10:49:32.000Z</time>
      </trkpt>
      <trkpt lat="47.32368" lon="-2.43094">
        <ele>29.39999961853</ele>
        <time>2019-11-24T10:49:34.000Z</time>
      </trkpt>
      <trkpt lat="47.32368" lon="-2.43088">
        <ele>29</ele>
        <time>2019-11-24T10:49:35.000Z</time>
      </trkpt>
      <trkpt lat="47.32367" lon="-2.43084">
        <ele>28.60000038147</ele>
        <time>2019-11-24T10:49:36.000Z</time>
      </trkpt>
      <trkpt lat="47.32366" lon="-2.43081">
        <ele>28.200000762939</ele>
        <time>2019-11-24T10:49:37.000Z</time>
      </trkpt>
      <trkpt lat="47.32365" lon="-2.43078">
        <ele>27.799999237061</ele>
        <time>2019-11-24T10:49:38.000Z</time>
      </trkpt>
      <trkpt lat="47.32365" lon="-2.43074">
        <ele>27.799999237061</ele>
        <time>2019-11-24T10:49:40.000Z</time>
      </trkpt>
      <trkpt lat="47.32369" lon="-2.43067">
        <ele>27.799999237061</ele>
        <time>2019-11-24T10:49:44.000Z</time>
      </trkpt>
      <trkpt lat="47.32374" lon="-2.43067">
        <ele>27.799999237061</ele>
        <time>2019-11-24T10:49:48.000Z</time>
      </trkpt>
      <trkpt lat="47.32383" lon="-2.43071">
        <ele>27.799999237061</ele>
        <time>2019-11-24T10:49:53.000Z</time>
      </trkpt>
      <trkpt lat="47.32386" lon="-2.43071">
        <ele>27.799999237061</ele>
        <time>2019-11-24T10:49:54.000Z</time>
      </trkpt>
      <trkpt lat="47.32398" lon="-2.43069">
        <ele>27.799999237061</ele>
        <time>2019-11-24T10:49:58.000Z</time>
      </trkpt>
      <trkpt lat="47.32422" lon="-2.43069">
        <ele>28.200000762939</ele>
        <time>2019-11-24T10:50:04.000Z</time>
      </trkpt>
      <trkpt lat="47.32426" lon="-2.4307">
        <ele>28.60000038147</ele>
        <time>2019-11-24T10:50:05.000Z</time>
      </trkpt>
      <trkpt lat="47.3243" lon="-2.43071">
        <ele>29</ele>
        <time>2019-11-24T10:50:06.000Z</time>
      </trkpt>
      <trkpt lat="47.32434" lon="-2.43072">
        <ele>29.60000038147</ele>
        <time>2019-11-24T10:50:07.000Z</time>
      </trkpt>
      <trkpt lat="47.32438" lon="-2.43073">
        <ele>30</ele>
        <time>2019-11-24T10:50:08.000Z</time>
      </trkpt>
      <trkpt lat="47.32443" lon="-2.43074">
        <ele>30</ele>
        <time>2019-11-24T10:50:09.000Z</time>
      </trkpt>
      <trkpt lat="47.32452" lon="-2.43074">
        <ele>30</ele>
        <time>2019-11-24T10:50:11.000Z</time>
      </trkpt>
      <trkpt lat="47.32456" lon="-2.43075">
        <ele>30.39999961853</ele>
        <time>2019-11-24T10:50:12.000Z</time>
      </trkpt>
      <trkpt lat="47.3246" lon="-2.43075">
        <ele>30.799999237061</ele>
        <time>2019-11-24T10:50:13.000Z</time>
      </trkpt>
      <trkpt lat="47.32465" lon="-2.43074">
        <ele>31.39999961853</ele>
        <time>2019-11-24T10:50:14.000Z</time>
      </trkpt>
      <trkpt lat="47.32469" lon="-2.43074">
        <ele>32.200000762939</ele>
        <time>2019-11-24T10:50:15.000Z</time>
      </trkpt>
      <trkpt lat="47.32477" lon="-2.43074">
        <ele>32.200000762939</ele>
        <time>2019-11-24T10:50:17.000Z</time>
      </trkpt>
      <trkpt lat="47.32485" lon="-2.43075">
        <ele>32.599998474121</ele>
        <time>2019-11-24T10:50:19.000Z</time>
      </trkpt>
      <trkpt lat="47.32489" lon="-2.43075">
        <ele>33</ele>
        <time>2019-11-24T10:50:20.000Z</time>
      </trkpt>
      <trkpt lat="47.32493" lon="-2.43075">
        <ele>33.400001525879</ele>
        <time>2019-11-24T10:50:21.000Z</time>
      </trkpt>
      <trkpt lat="47.32497" lon="-2.43075">
        <ele>33.799999237061</ele>
        <time>2019-11-24T10:50:22.000Z</time>
      </trkpt>
      <trkpt lat="47.32501" lon="-2.43076">
        <ele>34.400001525879</ele>
        <time>2019-11-24T10:50:23.000Z</time>
      </trkpt>
      <trkpt lat="47.32508" lon="-2.43078">
        <ele>34.400001525879</ele>
        <time>2019-11-24T10:50:25.000Z</time>
      </trkpt>
      <trkpt lat="47.32516" lon="-2.43078">
        <ele>34.799999237061</ele>
        <time>2019-11-24T10:50:27.000Z</time>
      </trkpt>
      <trkpt lat="47.32519" lon="-2.43079">
        <ele>35.200000762939</ele>
        <time>2019-11-24T10:50:28.000Z</time>
      </trkpt>
      <trkpt lat="47.32523" lon="-2.4308">
        <ele>35.599998474121</ele>
        <time>2019-11-24T10:50:29.000Z</time>
      </trkpt>
      <trkpt lat="47.32527" lon="-2.4308">
        <ele>36</ele>
        <time>2019-11-24T10:50:30.000Z</time>
      </trkpt>
      <trkpt lat="47.32531" lon="-2.43081">
        <ele>36.400001525879</ele>
        <time>2019-11-24T10:50:31.000Z</time>
      </trkpt>
      <trkpt lat="47.32535" lon="-2.43081">
        <ele>36.400001525879</ele>
        <time>2019-11-24T10:50:32.000Z</time>
      </trkpt>
      <trkpt lat="47.32556" lon="-2.43082">
        <ele>36.400001525879</ele>
        <time>2019-11-24T10:50:37.000Z</time>
      </trkpt>
      <trkpt lat="47.32563" lon="-2.43082">
        <ele>36.400001525879</ele>
        <time>2019-11-24T10:50:39.000Z</time>
      </trkpt>
      <trkpt lat="47.32571" lon="-2.43081">
        <ele>36.799999237061</ele>
        <time>2019-11-24T10:50:41.000Z</time>
      </trkpt>
      <trkpt lat="47.32575" lon="-2.4308">
        <ele>37.200000762939</ele>
        <time>2019-11-24T10:50:42.000Z</time>
      </trkpt>
      <trkpt lat="47.32579" lon="-2.4308">
        <ele>37.599998474121</ele>
        <time>2019-11-24T10:50:43.000Z</time>
      </trkpt>
      <trkpt lat="47.32583" lon="-2.43079">
        <ele>38</ele>
        <time>2019-11-24T10:50:44.000Z</time>
      </trkpt>
      <trkpt lat="47.32586" lon="-2.43078">
        <ele>38.400001525879</ele>
        <time>2019-11-24T10:50:45.000Z</time>
      </trkpt>
      <trkpt lat="47.32593" lon="-2.43076">
        <ele>38.400001525879</ele>
        <time>2019-11-24T10:50:47.000Z</time>
      </trkpt>
      <trkpt lat="47.3261" lon="-2.43073">
        <ele>38.400001525879</ele>
        <time>2019-11-24T10:50:53.000Z</time>
      </trkpt>
      <trkpt lat="47.32613" lon="-2.43069">
        <ele>38.400001525879</ele>
        <time>2019-11-24T10:50:55.000Z</time>
      </trkpt>
      <trkpt lat="47.32612" lon="-2.43061">
        <ele>38.400001525879</ele>
        <time>2019-11-24T10:50:57.000Z</time>
      </trkpt>
      <trkpt lat="47.32609" lon="-2.43029">
        <ele>38.400001525879</ele>
        <time>2019-11-24T10:51:02.000Z</time>
      </trkpt>
      <trkpt lat="47.3261" lon="-2.43022">
        <ele>38.400001525879</ele>
        <time>2019-11-24T10:51:03.000Z</time>
      </trkpt>
      <trkpt lat="47.3261" lon="-2.43007">
        <ele>38.799999237061</ele>
        <time>2019-11-24T10:51:05.000Z</time>
      </trkpt>
      <trkpt lat="47.3261" lon="-2.42999">
        <ele>39.200000762939</ele>
        <time>2019-11-24T10:51:06.000Z</time>
      </trkpt>
      <trkpt lat="47.32611" lon="-2.42991">
        <ele>39.599998474121</ele>
        <time>2019-11-24T10:51:07.000Z</time>
      </trkpt>
      <trkpt lat="47.32612" lon="-2.42982">
        <ele>40</ele>
        <time>2019-11-24T10:51:08.000Z</time>
      </trkpt>
      <trkpt lat="47.32613" lon="-2.42974">
        <ele>40.400001525879</ele>
        <time>2019-11-24T10:51:09.000Z</time>
      </trkpt>
      <trkpt lat="47.32616" lon="-2.42948">
        <ele>40.400001525879</ele>
        <time>2019-11-24T10:51:12.000Z</time>
      </trkpt>
      <trkpt lat="47.32621" lon="-2.42932">
        <ele>40.400001525879</ele>
        <time>2019-11-24T10:51:14.000Z</time>
      </trkpt>
      <trkpt lat="47.32624" lon="-2.42923">
        <ele>40.400001525879</ele>
        <time>2019-11-24T10:51:15.000Z</time>
      </trkpt>
      <trkpt lat="47.32629" lon="-2.42897">
        <ele>40.400001525879</ele>
        <time>2019-11-24T10:51:18.000Z</time>
      </trkpt>
      <trkpt lat="47.32631" lon="-2.42888">
        <ele>40.400001525879</ele>
        <time>2019-11-24T10:51:19.000Z</time>
      </trkpt>
      <trkpt lat="47.32644" lon="-2.42825">
        <ele>40.400001525879</ele>
        <time>2019-11-24T10:51:26.000Z</time>
      </trkpt>
      <trkpt lat="47.32662" lon="-2.42775">
        <ele>40.400001525879</ele>
        <time>2019-11-24T10:51:32.000Z</time>
      </trkpt>
      <trkpt lat="47.32685" lon="-2.42732">
        <ele>40.400001525879</ele>
        <time>2019-11-24T10:51:38.000Z</time>
      </trkpt>
      <trkpt lat="47.32716" lon="-2.4269">
        <ele>40.400001525879</ele>
        <time>2019-11-24T10:51:45.000Z</time>
      </trkpt>
      <trkpt lat="47.32746" lon="-2.4266">
        <ele>40.400001525879</ele>
        <time>2019-11-24T10:51:51.000Z</time>
      </trkpt>
      <trkpt lat="47.32766" lon="-2.42643">
        <ele>40.400001525879</ele>
        <time>2019-11-24T10:51:55.000Z</time>
      </trkpt>
      <trkpt lat="47.32781" lon="-2.42631">
        <ele>40.400001525879</ele>
        <time>2019-11-24T10:51:58.000Z</time>
      </trkpt>
      <trkpt lat="47.3279" lon="-2.42623">
        <ele>40.400001525879</ele>
        <time>2019-11-24T10:52:00.000Z</time>
      </trkpt>
      <trkpt lat="47.3279" lon="-2.42609">
        <ele>40.400001525879</ele>
        <time>2019-11-24T10:52:02.000Z</time>
      </trkpt>
      <trkpt lat="47.32785" lon="-2.42587">
        <ele>40.400001525879</ele>
        <time>2019-11-24T10:52:05.000Z</time>
      </trkpt>
      <trkpt lat="47.32783" lon="-2.4258">
        <ele>40.400001525879</ele>
        <time>2019-11-24T10:52:06.000Z</time>
      </trkpt>
      <trkpt lat="47.32783" lon="-2.42574">
        <ele>40.400001525879</ele>
        <time>2019-11-24T10:52:07.000Z</time>
      </trkpt>
      <trkpt lat="47.32787" lon="-2.42566">
        <ele>40.400001525879</ele>
        <time>2019-11-24T10:52:09.000Z</time>
      </trkpt>
      <trkpt lat="47.32798" lon="-2.42562">
        <ele>40.400001525879</ele>
        <time>2019-11-24T10:52:12.000Z</time>
      </trkpt>
      <trkpt lat="47.32801" lon="-2.42561">
        <ele>40.400001525879</ele>
        <time>2019-11-24T10:52:13.000Z</time>
      </trkpt>
      <trkpt lat="47.32817" lon="-2.42551">
        <ele>40.400001525879</ele>
        <time>2019-11-24T10:52:18.000Z</time>
      </trkpt>
      <trkpt lat="47.32832" lon="-2.42522">
        <ele>40.400001525879</ele>
        <time>2019-11-24T10:52:27.000Z</time>
      </trkpt>
      <trkpt lat="47.32841" lon="-2.42487">
        <ele>40.400001525879</ele>
        <time>2019-11-24T10:52:34.000Z</time>
      </trkpt>
      <trkpt lat="47.32846" lon="-2.42452">
        <ele>40.400001525879</ele>
        <time>2019-11-24T10:52:40.000Z</time>
      </trkpt>
      <trkpt lat="47.32837" lon="-2.42426">
        <ele>40.400001525879</ele>
        <time>2019-11-24T10:52:42.000Z</time>
      </trkpt>
      <trkpt lat="47.32829" lon="-2.42401">
        <ele>40.400001525879</ele>
        <time>2019-11-24T10:52:45.000Z</time>
      </trkpt>
      <trkpt lat="47.32829" lon="-2.42393">
        <ele>40.400001525879</ele>
        <time>2019-11-24T10:52:46.000Z</time>
      </trkpt>
      <trkpt lat="47.32835" lon="-2.42386">
        <ele>40.400001525879</ele>
        <time>2019-11-24T10:52:48.000Z</time>
      </trkpt>
      <trkpt lat="47.32843" lon="-2.42384">
        <ele>40</ele>
        <time>2019-11-24T10:52:50.000Z</time>
      </trkpt>
      <trkpt lat="47.32847" lon="-2.42382">
        <ele>39.599998474121</ele>
        <time>2019-11-24T10:52:51.000Z</time>
      </trkpt>
      <trkpt lat="47.32851" lon="-2.42381">
        <ele>39.200000762939</ele>
        <time>2019-11-24T10:52:52.000Z</time>
      </trkpt>
      <trkpt lat="47.32854" lon="-2.42379">
        <ele>38.799999237061</ele>
        <time>2019-11-24T10:52:53.000Z</time>
      </trkpt>
      <trkpt lat="47.32858" lon="-2.42377">
        <ele>38.400001525879</ele>
        <time>2019-11-24T10:52:54.000Z</time>
      </trkpt>
      <trkpt lat="47.32874" lon="-2.42368">
        <ele>38.400001525879</ele>
        <time>2019-11-24T10:52:58.000Z</time>
      </trkpt>
      <trkpt lat="47.32878" lon="-2.42362">
        <ele>38.400001525879</ele>
        <time>2019-11-24T10:52:59.000Z</time>
      </trkpt>
      <trkpt lat="47.32881" lon="-2.42335">
        <ele>38.400001525879</ele>
        <time>2019-11-24T10:53:02.000Z</time>
      </trkpt>
      <trkpt lat="47.32881" lon="-2.42325">
        <ele>38.400001525879</ele>
        <time>2019-11-24T10:53:03.000Z</time>
      </trkpt>
      <trkpt lat="47.32885" lon="-2.42284">
        <ele>38.400001525879</ele>
        <time>2019-11-24T10:53:07.000Z</time>
      </trkpt>
      <trkpt lat="47.32891" lon="-2.42213">
        <ele>38</ele>
        <time>2019-11-24T10:53:14.000Z</time>
      </trkpt>
      <trkpt lat="47.32892" lon="-2.42203">
        <ele>37.599998474121</ele>
        <time>2019-11-24T10:53:15.000Z</time>
      </trkpt>
      <trkpt lat="47.32892" lon="-2.42194">
        <ele>37.200000762939</ele>
        <time>2019-11-24T10:53:16.000Z</time>
      </trkpt>
      <trkpt lat="47.32893" lon="-2.42184">
        <ele>36.799999237061</ele>
        <time>2019-11-24T10:53:17.000Z</time>
      </trkpt>
      <trkpt lat="47.32892" lon="-2.42177">
        <ele>36.400001525879</ele>
        <time>2019-11-24T10:53:18.000Z</time>
      </trkpt>
      <trkpt lat="47.32891" lon="-2.4217">
        <ele>36.400001525879</ele>
        <time>2019-11-24T10:53:19.000Z</time>
      </trkpt>
      <trkpt lat="47.3288" lon="-2.42143">
        <ele>36.400001525879</ele>
        <time>2019-11-24T10:53:23.000Z</time>
      </trkpt>
      <trkpt lat="47.32873" lon="-2.42127">
        <ele>36.400001525879</ele>
        <time>2019-11-24T10:53:25.000Z</time>
      </trkpt>
      <trkpt lat="47.32867" lon="-2.42111">
        <ele>36.400001525879</ele>
        <time>2019-11-24T10:53:27.000Z</time>
      </trkpt>
      <trkpt lat="47.32866" lon="-2.42103">
        <ele>36.400001525879</ele>
        <time>2019-11-24T10:53:28.000Z</time>
      </trkpt>
      <trkpt lat="47.32856" lon="-2.42082">
        <ele>36.400001525879</ele>
        <time>2019-11-24T10:53:31.000Z</time>
      </trkpt>
      <trkpt lat="47.32853" lon="-2.42074">
        <ele>36.400001525879</ele>
        <time>2019-11-24T10:53:32.000Z</time>
      </trkpt>
      <trkpt lat="47.3285" lon="-2.42067">
        <ele>36.400001525879</ele>
        <time>2019-11-24T10:53:33.000Z</time>
      </trkpt>
      <trkpt lat="47.32838" lon="-2.42037">
        <ele>36.400001525879</ele>
        <time>2019-11-24T10:53:37.000Z</time>
      </trkpt>
      <trkpt lat="47.3283" lon="-2.42014">
        <ele>36.400001525879</ele>
        <time>2019-11-24T10:53:40.000Z</time>
      </trkpt>
      <trkpt lat="47.32828" lon="-2.42007">
        <ele>36.400001525879</ele>
        <time>2019-11-24T10:53:41.000Z</time>
      </trkpt>
      <trkpt lat="47.32824" lon="-2.42003">
        <ele>36.400001525879</ele>
        <time>2019-11-24T10:53:42.000Z</time>
      </trkpt>
      <trkpt lat="47.32813" lon="-2.41999">
        <ele>36.400001525879</ele>
        <time>2019-11-24T10:53:44.000Z</time>
      </trkpt>
      <trkpt lat="47.32807" lon="-2.41976">
        <ele>36.400001525879</ele>
        <time>2019-11-24T10:53:47.000Z</time>
      </trkpt>
      <trkpt lat="47.32806" lon="-2.41958">
        <ele>36.400001525879</ele>
        <time>2019-11-24T10:53:49.000Z</time>
      </trkpt>
      <trkpt lat="47.32804" lon="-2.41951">
        <ele>36.400001525879</ele>
        <time>2019-11-24T10:53:50.000Z</time>
      </trkpt>
      <trkpt lat="47.32801" lon="-2.41944">
        <ele>36.400001525879</ele>
        <time>2019-11-24T10:53:51.000Z</time>
      </trkpt>
      <trkpt lat="47.32783" lon="-2.41907">
        <ele>36.400001525879</ele>
        <time>2019-11-24T10:53:56.000Z</time>
      </trkpt>
      <trkpt lat="47.32762" lon="-2.41855">
        <ele>36.400001525879</ele>
        <time>2019-11-24T10:54:03.000Z</time>
      </trkpt>
      <trkpt lat="47.32759" lon="-2.41847">
        <ele>36.400001525879</ele>
        <time>2019-11-24T10:54:04.000Z</time>
      </trkpt>
      <trkpt lat="47.32734" lon="-2.41798">
        <ele>36.400001525879</ele>
        <time>2019-11-24T10:54:11.000Z</time>
      </trkpt>
      <trkpt lat="47.32714" lon="-2.41769">
        <ele>36.400001525879</ele>
        <time>2019-11-24T10:54:16.000Z</time>
      </trkpt>
      <trkpt lat="47.32709" lon="-2.41763">
        <ele>36.400001525879</ele>
        <time>2019-11-24T10:54:17.000Z</time>
      </trkpt>
      <trkpt lat="47.32708" lon="-2.41746">
        <ele>36.400001525879</ele>
        <time>2019-11-24T10:54:19.000Z</time>
      </trkpt>
      <trkpt lat="47.3271" lon="-2.4173">
        <ele>36.400001525879</ele>
        <time>2019-11-24T10:54:21.000Z</time>
      </trkpt>
      <trkpt lat="47.32711" lon="-2.41721">
        <ele>36.799999237061</ele>
        <time>2019-11-24T10:54:22.000Z</time>
      </trkpt>
      <trkpt lat="47.32713" lon="-2.41709">
        <ele>37.200000762939</ele>
        <time>2019-11-24T10:54:23.000Z</time>
      </trkpt>
      <trkpt lat="47.32713" lon="-2.41702">
        <ele>37.599998474121</ele>
        <time>2019-11-24T10:54:24.000Z</time>
      </trkpt>
      <trkpt lat="47.32714" lon="-2.41692">
        <ele>38</ele>
        <time>2019-11-24T10:54:25.000Z</time>
      </trkpt>
      <trkpt lat="47.32715" lon="-2.41684">
        <ele>38.400001525879</ele>
        <time>2019-11-24T10:54:26.000Z</time>
      </trkpt>
      <trkpt lat="47.32719" lon="-2.41642">
        <ele>38.400001525879</ele>
        <time>2019-11-24T10:54:31.000Z</time>
      </trkpt>
      <trkpt lat="47.32719" lon="-2.41633">
        <ele>38.400001525879</ele>
        <time>2019-11-24T10:54:32.000Z</time>
      </trkpt>
      <trkpt lat="47.32714" lon="-2.41611">
        <ele>38.400001525879</ele>
        <time>2019-11-24T10:54:35.000Z</time>
      </trkpt>
      <trkpt lat="47.32711" lon="-2.41604">
        <ele>38.400001525879</ele>
        <time>2019-11-24T10:54:36.000Z</time>
      </trkpt>
      <trkpt lat="47.32705" lon="-2.41584">
        <ele>38.400001525879</ele>
        <time>2019-11-24T10:54:40.000Z</time>
      </trkpt>
      <trkpt lat="47.32705" lon="-2.41577">
        <ele>38.400001525879</ele>
        <time>2019-11-24T10:54:42.000Z</time>
      </trkpt>
      <trkpt lat="47.32702" lon="-2.41573">
        <ele>38.400001525879</ele>
        <time>2019-11-24T10:54:44.000Z</time>
      </trkpt>
      <trkpt lat="47.32703" lon="-2.41558">
        <ele>38.400001525879</ele>
        <time>2019-11-24T10:54:47.000Z</time>
      </trkpt>
      <trkpt lat="47.32703" lon="-2.41551">
        <ele>38.400001525879</ele>
        <time>2019-11-24T10:54:48.000Z</time>
      </trkpt>
      <trkpt lat="47.327" lon="-2.4154">
        <ele>38.400001525879</ele>
        <time>2019-11-24T10:54:50.000Z</time>
      </trkpt>
      <trkpt lat="47.32692" lon="-2.41535">
        <ele>38.799999237061</ele>
        <time>2019-11-24T10:54:52.000Z</time>
      </trkpt>
      <trkpt lat="47.32688" lon="-2.41534">
        <ele>39.400001525879</ele>
        <time>2019-11-24T10:54:53.000Z</time>
      </trkpt>
      <trkpt lat="47.32683" lon="-2.41533">
        <ele>39.799999237061</ele>
        <time>2019-11-24T10:54:54.000Z</time>
      </trkpt>
      <trkpt lat="47.32678" lon="-2.41532">
        <ele>40.200000762939</ele>
        <time>2019-11-24T10:54:55.000Z</time>
      </trkpt>
      <trkpt lat="47.32673" lon="-2.41532">
        <ele>40.599998474121</ele>
        <time>2019-11-24T10:54:56.000Z</time>
      </trkpt>
      <trkpt lat="47.32654" lon="-2.41529">
        <ele>40.599998474121</ele>
        <time>2019-11-24T10:55:00.000Z</time>
      </trkpt>
      <trkpt lat="47.32633" lon="-2.41526">
        <ele>41</ele>
        <time>2019-11-24T10:55:04.000Z</time>
      </trkpt>
      <trkpt lat="47.32628" lon="-2.41525">
        <ele>41.799999237061</ele>
        <time>2019-11-24T10:55:05.000Z</time>
      </trkpt>
      <trkpt lat="47.32622" lon="-2.41524">
        <ele>42.200000762939</ele>
        <time>2019-11-24T10:55:06.000Z</time>
      </trkpt>
      <trkpt lat="47.32617" lon="-2.41523">
        <ele>42.599998474121</ele>
        <time>2019-11-24T10:55:07.000Z</time>
      </trkpt>
      <trkpt lat="47.32582" lon="-2.41516">
        <ele>42.599998474121</ele>
        <time>2019-11-24T10:55:14.000Z</time>
      </trkpt>
      <trkpt lat="47.32573" lon="-2.41501">
        <ele>42.599998474121</ele>
        <time>2019-11-24T10:55:17.000Z</time>
      </trkpt>
      <trkpt lat="47.32571" lon="-2.41488">
        <ele>42.599998474121</ele>
        <time>2019-11-24T10:55:19.000Z</time>
      </trkpt>
      <trkpt lat="47.3257" lon="-2.41481">
        <ele>42.599998474121</ele>
        <time>2019-11-24T10:55:20.000Z</time>
      </trkpt>
      <trkpt lat="47.32569" lon="-2.41469">
        <ele>42.599998474121</ele>
        <time>2019-11-24T10:55:22.000Z</time>
      </trkpt>
      <trkpt lat="47.32565" lon="-2.41454">
        <ele>42.599998474121</ele>
        <time>2019-11-24T10:55:25.000Z</time>
      </trkpt>
      <trkpt lat="47.32562" lon="-2.41451">
        <ele>42.599998474121</ele>
        <time>2019-11-24T10:55:26.000Z</time>
      </trkpt>
      <trkpt lat="47.32559" lon="-2.41446">
        <ele>42.599998474121</ele>
        <time>2019-11-24T10:55:27.000Z</time>
      </trkpt>
      <trkpt lat="47.32551" lon="-2.41429">
        <ele>42.599998474121</ele>
        <time>2019-11-24T10:55:30.000Z</time>
      </trkpt>
      <trkpt lat="47.32548" lon="-2.41423">
        <ele>43</ele>
        <time>2019-11-24T10:55:31.000Z</time>
      </trkpt>
      <trkpt lat="47.32544" lon="-2.41416">
        <ele>43.400001525879</ele>
        <time>2019-11-24T10:55:32.000Z</time>
      </trkpt>
      <trkpt lat="47.32541" lon="-2.41411">
        <ele>43.799999237061</ele>
        <time>2019-11-24T10:55:33.000Z</time>
      </trkpt>
      <trkpt lat="47.32538" lon="-2.41404">
        <ele>44.200000762939</ele>
        <time>2019-11-24T10:55:34.000Z</time>
      </trkpt>
      <trkpt lat="47.32534" lon="-2.41398">
        <ele>44.599998474121</ele>
        <time>2019-11-24T10:55:35.000Z</time>
      </trkpt>
      <trkpt lat="47.32528" lon="-2.41385">
        <ele>44.599998474121</ele>
        <time>2019-11-24T10:55:37.000Z</time>
      </trkpt>
      <trkpt lat="47.32503" lon="-2.41336">
        <ele>44.599998474121</ele>
        <time>2019-11-24T10:55:44.000Z</time>
      </trkpt>
      <trkpt lat="47.32478" lon="-2.41287">
        <ele>44.599998474121</ele>
        <time>2019-11-24T10:55:51.000Z</time>
      </trkpt>
      <trkpt lat="47.32457" lon="-2.41246">
        <ele>44.599998474121</ele>
        <time>2019-11-24T10:55:57.000Z</time>
      </trkpt>
      <trkpt lat="47.32435" lon="-2.41203">
        <ele>44.599998474121</ele>
        <time>2019-11-24T10:56:04.000Z</time>
      </trkpt>
      <trkpt lat="47.32429" lon="-2.41191">
        <ele>44.599998474121</ele>
        <time>2019-11-24T10:56:06.000Z</time>
      </trkpt>
      <trkpt lat="47.32424" lon="-2.41183">
        <ele>44.599998474121</ele>
        <time>2019-11-24T10:56:08.000Z</time>
      </trkpt>
      <trkpt lat="47.3242" lon="-2.41178">
        <ele>44.599998474121</ele>
        <time>2019-11-24T10:56:12.000Z</time>
      </trkpt>
      <trkpt lat="47.32412" lon="-2.41161">
        <ele>44.599998474121</ele>
        <time>2019-11-24T10:56:16.000Z</time>
      </trkpt>
      <trkpt lat="47.32396" lon="-2.41125">
        <ele>44.599998474121</ele>
        <time>2019-11-24T10:56:22.000Z</time>
      </trkpt>
      <trkpt lat="47.32376" lon="-2.41087">
        <ele>44.599998474121</ele>
        <time>2019-11-24T10:56:28.000Z</time>
      </trkpt>
      <trkpt lat="47.32369" lon="-2.41076">
        <ele>44.599998474121</ele>
        <time>2019-11-24T10:56:30.000Z</time>
      </trkpt>
      <trkpt lat="47.32363" lon="-2.41067">
        <ele>44.599998474121</ele>
        <time>2019-11-24T10:56:32.000Z</time>
      </trkpt>
      <trkpt lat="47.32354" lon="-2.41048">
        <ele>44.599998474121</ele>
        <time>2019-11-24T10:56:35.000Z</time>
      </trkpt>
      <trkpt lat="47.32328" lon="-2.41001">
        <ele>44.599998474121</ele>
        <time>2019-11-24T10:56:42.000Z</time>
      </trkpt>
      <trkpt lat="47.32305" lon="-2.40956">
        <ele>44.599998474121</ele>
        <time>2019-11-24T10:56:48.000Z</time>
      </trkpt>
      <trkpt lat="47.32268" lon="-2.4089">
        <ele>44.599998474121</ele>
        <time>2019-11-24T10:56:57.000Z</time>
      </trkpt>
      <trkpt lat="47.32264" lon="-2.40882">
        <ele>44.599998474121</ele>
        <time>2019-11-24T10:56:58.000Z</time>
      </trkpt>
      <trkpt lat="47.32228" lon="-2.40819">
        <ele>44.599998474121</ele>
        <time>2019-11-24T10:57:07.000Z</time>
      </trkpt>
      <trkpt lat="47.32215" lon="-2.40802">
        <ele>44.599998474121</ele>
        <time>2019-11-24T10:57:11.000Z</time>
      </trkpt>
      <trkpt lat="47.32212" lon="-2.40798">
        <ele>44.599998474121</ele>
        <time>2019-11-24T10:57:12.000Z</time>
      </trkpt>
      <trkpt lat="47.32206" lon="-2.40789">
        <ele>44.599998474121</ele>
        <time>2019-11-24T10:57:14.000Z</time>
      </trkpt>
      <trkpt lat="47.32199" lon="-2.4078">
        <ele>44.599998474121</ele>
        <time>2019-11-24T10:57:16.000Z</time>
      </trkpt>
      <trkpt lat="47.32192" lon="-2.40769">
        <ele>44.599998474121</ele>
        <time>2019-11-24T10:57:18.000Z</time>
      </trkpt>
      <trkpt lat="47.3218" lon="-2.40753">
        <ele>44.599998474121</ele>
        <time>2019-11-24T10:57:21.000Z</time>
      </trkpt>
      <trkpt lat="47.32148" lon="-2.40712">
        <ele>44.599998474121</ele>
        <time>2019-11-24T10:57:28.000Z</time>
      </trkpt>
      <trkpt lat="47.32113" lon="-2.40672">
        <ele>44.599998474121</ele>
        <time>2019-11-24T10:57:35.000Z</time>
      </trkpt>
      <trkpt lat="47.3208" lon="-2.40639">
        <ele>44.599998474121</ele>
        <time>2019-11-24T10:57:41.000Z</time>
      </trkpt>
      <trkpt lat="47.32051" lon="-2.40611">
        <ele>44.200000762939</ele>
        <time>2019-11-24T10:57:46.000Z</time>
      </trkpt>
      <trkpt lat="47.32045" lon="-2.40606">
        <ele>43.799999237061</ele>
        <time>2019-11-24T10:57:47.000Z</time>
      </trkpt>
      <trkpt lat="47.3204" lon="-2.40602">
        <ele>43.400001525879</ele>
        <time>2019-11-24T10:57:48.000Z</time>
      </trkpt>
      <trkpt lat="47.32034" lon="-2.40597">
        <ele>43</ele>
        <time>2019-11-24T10:57:49.000Z</time>
      </trkpt>
      <trkpt lat="47.32027" lon="-2.40591">
        <ele>42.599998474121</ele>
        <time>2019-11-24T10:57:50.000Z</time>
      </trkpt>
      <trkpt lat="47.31995" lon="-2.40566">
        <ele>42.599998474121</ele>
        <time>2019-11-24T10:57:55.000Z</time>
      </trkpt>
      <trkpt lat="47.31947" lon="-2.40531">
        <ele>42.599998474121</ele>
        <time>2019-11-24T10:58:02.000Z</time>
      </trkpt>
      <trkpt lat="47.31934" lon="-2.40519">
        <ele>42</ele>
        <time>2019-11-24T10:58:04.000Z</time>
      </trkpt>
      <trkpt lat="47.31926" lon="-2.40513">
        <ele>41.599998474121</ele>
        <time>2019-11-24T10:58:05.000Z</time>
      </trkpt>
      <trkpt lat="47.31919" lon="-2.40507">
        <ele>41.200000762939</ele>
        <time>2019-11-24T10:58:06.000Z</time>
      </trkpt>
      <trkpt lat="47.31911" lon="-2.40502">
        <ele>40.799999237061</ele>
        <time>2019-11-24T10:58:07.000Z</time>
      </trkpt>
      <trkpt lat="47.31904" lon="-2.40496">
        <ele>40.400001525879</ele>
        <time>2019-11-24T10:58:08.000Z</time>
      </trkpt>
      <trkpt lat="47.31862" lon="-2.40464">
        <ele>40.400001525879</ele>
        <time>2019-11-24T10:58:14.000Z</time>
      </trkpt>
      <trkpt lat="47.31823" lon="-2.40433">
        <ele>40</ele>
        <time>2019-11-24T10:58:20.000Z</time>
      </trkpt>
      <trkpt lat="47.31816" lon="-2.40428">
        <ele>39.599998474121</ele>
        <time>2019-11-24T10:58:21.000Z</time>
      </trkpt>
      <trkpt lat="47.3181" lon="-2.40423">
        <ele>39.200000762939</ele>
        <time>2019-11-24T10:58:22.000Z</time>
      </trkpt>
      <trkpt lat="47.31803" lon="-2.40419">
        <ele>38.799999237061</ele>
        <time>2019-11-24T10:58:23.000Z</time>
      </trkpt>
      <trkpt lat="47.31796" lon="-2.40414">
        <ele>38.400001525879</ele>
        <time>2019-11-24T10:58:24.000Z</time>
      </trkpt>
      <trkpt lat="47.31774" lon="-2.40397">
        <ele>38.400001525879</ele>
        <time>2019-11-24T10:58:27.000Z</time>
      </trkpt>
      <trkpt lat="47.3174" lon="-2.40372">
        <ele>38.400001525879</ele>
        <time>2019-11-24T10:58:32.000Z</time>
      </trkpt>
      <trkpt lat="47.31719" lon="-2.40357">
        <ele>38</ele>
        <time>2019-11-24T10:58:35.000Z</time>
      </trkpt>
      <trkpt lat="47.31711" lon="-2.40351">
        <ele>37.599998474121</ele>
        <time>2019-11-24T10:58:36.000Z</time>
      </trkpt>
      <trkpt lat="47.31704" lon="-2.40346">
        <ele>37</ele>
        <time>2019-11-24T10:58:37.000Z</time>
      </trkpt>
      <trkpt lat="47.31696" lon="-2.40341">
        <ele>36.599998474121</ele>
        <time>2019-11-24T10:58:38.000Z</time>
      </trkpt>
      <trkpt lat="47.31689" lon="-2.40336">
        <ele>36.200000762939</ele>
        <time>2019-11-24T10:58:39.000Z</time>
      </trkpt>
      <trkpt lat="47.31685" lon="-2.40332">
        <ele>36.200000762939</ele>
        <time>2019-11-24T10:58:40.000Z</time>
      </trkpt>
      <trkpt lat="47.31681" lon="-2.40328">
        <ele>36.200000762939</ele>
        <time>2019-11-24T10:58:41.000Z</time>
      </trkpt>
      <trkpt lat="47.31662" lon="-2.40311">
        <ele>36.200000762939</ele>
        <time>2019-11-24T10:58:45.000Z</time>
      </trkpt>
      <trkpt lat="47.31657" lon="-2.40308">
        <ele>36.200000762939</ele>
        <time>2019-11-24T10:58:46.000Z</time>
      </trkpt>
      <trkpt lat="47.31635" lon="-2.40292">
        <ele>35.799999237061</ele>
        <time>2019-11-24T10:58:50.000Z</time>
      </trkpt>
      <trkpt lat="47.31629" lon="-2.40288">
        <ele>35.400001525879</ele>
        <time>2019-11-24T10:58:51.000Z</time>
      </trkpt>
      <trkpt lat="47.31624" lon="-2.40284">
        <ele>35</ele>
        <time>2019-11-24T10:58:52.000Z</time>
      </trkpt>
      <trkpt lat="47.31618" lon="-2.40279">
        <ele>34.599998474121</ele>
        <time>2019-11-24T10:58:53.000Z</time>
      </trkpt>
      <trkpt lat="47.31612" lon="-2.40274">
        <ele>34</ele>
        <time>2019-11-24T10:58:54.000Z</time>
      </trkpt>
      <trkpt lat="47.31583" lon="-2.40252">
        <ele>34</ele>
        <time>2019-11-24T10:58:59.000Z</time>
      </trkpt>
      <trkpt lat="47.31568" lon="-2.40241">
        <ele>34</ele>
        <time>2019-11-24T10:59:02.000Z</time>
      </trkpt>
      <trkpt lat="47.31565" lon="-2.40238">
        <ele>34</ele>
        <time>2019-11-24T10:59:03.000Z</time>
      </trkpt>
      <trkpt lat="47.31554" lon="-2.40232">
        <ele>33.599998474121</ele>
        <time>2019-11-24T10:59:06.000Z</time>
      </trkpt>
      <trkpt lat="47.3155" lon="-2.40229">
        <ele>33.200000762939</ele>
        <time>2019-11-24T10:59:07.000Z</time>
      </trkpt>
      <trkpt lat="47.31546" lon="-2.40227">
        <ele>32.799999237061</ele>
        <time>2019-11-24T10:59:08.000Z</time>
      </trkpt>
      <trkpt lat="47.31543" lon="-2.40224">
        <ele>32.400001525879</ele>
        <time>2019-11-24T10:59:09.000Z</time>
      </trkpt>
      <trkpt lat="47.31539" lon="-2.40222">
        <ele>32</ele>
        <time>2019-11-24T10:59:10.000Z</time>
      </trkpt>
      <trkpt lat="47.31531" lon="-2.40216">
        <ele>32</ele>
        <time>2019-11-24T10:59:12.000Z</time>
      </trkpt>
      <trkpt lat="47.31507" lon="-2.40201">
        <ele>32</ele>
        <time>2019-11-24T10:59:17.000Z</time>
      </trkpt>
      <trkpt lat="47.31502" lon="-2.40198">
        <ele>32</ele>
        <time>2019-11-24T10:59:18.000Z</time>
      </trkpt>
      <trkpt lat="47.3148" lon="-2.40181">
        <ele>32</ele>
        <time>2019-11-24T10:59:22.000Z</time>
      </trkpt>
      <trkpt lat="47.31475" lon="-2.40176">
        <ele>32</ele>
        <time>2019-11-24T10:59:23.000Z</time>
      </trkpt>
      <trkpt lat="47.31463" lon="-2.40167">
        <ele>31.60000038147</ele>
        <time>2019-11-24T10:59:25.000Z</time>
      </trkpt>
      <trkpt lat="47.31456" lon="-2.40161">
        <ele>31.200000762939</ele>
        <time>2019-11-24T10:59:26.000Z</time>
      </trkpt>
      <trkpt lat="47.3145" lon="-2.40157">
        <ele>30.799999237061</ele>
        <time>2019-11-24T10:59:27.000Z</time>
      </trkpt>
      <trkpt lat="47.31444" lon="-2.40152">
        <ele>30.39999961853</ele>
        <time>2019-11-24T10:59:28.000Z</time>
      </trkpt>
      <trkpt lat="47.31439" lon="-2.40148">
        <ele>30</ele>
        <time>2019-11-24T10:59:29.000Z</time>
      </trkpt>
      <trkpt lat="47.31429" lon="-2.40141">
        <ele>30</ele>
        <time>2019-11-24T10:59:31.000Z</time>
      </trkpt>
      <trkpt lat="47.3141" lon="-2.40127">
        <ele>30</ele>
        <time>2019-11-24T10:59:35.000Z</time>
      </trkpt>
      <trkpt lat="47.31374" lon="-2.40103">
        <ele>30</ele>
        <time>2019-11-24T10:59:42.000Z</time>
      </trkpt>
      <trkpt lat="47.31341" lon="-2.40082">
        <ele>30</ele>
        <time>2019-11-24T10:59:48.000Z</time>
      </trkpt>
      <trkpt lat="47.31331" lon="-2.40078">
        <ele>29.60000038147</ele>
        <time>2019-11-24T10:59:50.000Z</time>
      </trkpt>
      <trkpt lat="47.31325" lon="-2.40076">
        <ele>29.200000762939</ele>
        <time>2019-11-24T10:59:51.000Z</time>
      </trkpt>
      <trkpt lat="47.3132" lon="-2.40075">
        <ele>28.799999237061</ele>
        <time>2019-11-24T10:59:52.000Z</time>
      </trkpt>
      <trkpt lat="47.31314" lon="-2.40073">
        <ele>28.39999961853</ele>
        <time>2019-11-24T10:59:53.000Z</time>
      </trkpt>
      <trkpt lat="47.31309" lon="-2.40072">
        <ele>28</ele>
        <time>2019-11-24T10:59:54.000Z</time>
      </trkpt>
      <trkpt lat="47.31283" lon="-2.40066">
        <ele>28</ele>
        <time>2019-11-24T10:59:59.000Z</time>
      </trkpt>
      <trkpt lat="47.31271" lon="-2.40063">
        <ele>28</ele>
        <time>2019-11-24T11:00:01.000Z</time>
      </trkpt>
      <trkpt lat="47.31263" lon="-2.40057">
        <ele>28</ele>
        <time>2019-11-24T11:00:03.000Z</time>
      </trkpt>
      <trkpt lat="47.31258" lon="-2.40051">
        <ele>28</ele>
        <time>2019-11-24T11:00:05.000Z</time>
      </trkpt>
      <trkpt lat="47.3125" lon="-2.40045">
        <ele>28</ele>
        <time>2019-11-24T11:00:07.000Z</time>
      </trkpt>
      <trkpt lat="47.3124" lon="-2.40037">
        <ele>28</ele>
        <time>2019-11-24T11:00:11.000Z</time>
      </trkpt>
      <trkpt lat="47.31236" lon="-2.4002">
        <ele>28</ele>
        <time>2019-11-24T11:00:15.000Z</time>
      </trkpt>
      <trkpt lat="47.31234" lon="-2.40013">
        <ele>28</ele>
        <time>2019-11-24T11:00:17.000Z</time>
      </trkpt>
      <trkpt lat="47.31229" lon="-2.39998">
        <ele>28</ele>
        <time>2019-11-24T11:00:21.000Z</time>
      </trkpt>
      <trkpt lat="47.31222" lon="-2.39978">
        <ele>28</ele>
        <time>2019-11-24T11:00:27.000Z</time>
      </trkpt>
      <trkpt lat="47.31219" lon="-2.39964">
        <ele>28.39999961853</ele>
        <time>2019-11-24T11:00:31.000Z</time>
      </trkpt>
      <trkpt lat="47.31218" lon="-2.39961">
        <ele>28.799999237061</ele>
        <time>2019-11-24T11:00:32.000Z</time>
      </trkpt>
      <trkpt lat="47.31217" lon="-2.39958">
        <ele>29.200000762939</ele>
        <time>2019-11-24T11:00:33.000Z</time>
      </trkpt>
      <trkpt lat="47.31216" lon="-2.39954">
        <ele>29.60000038147</ele>
        <time>2019-11-24T11:00:34.000Z</time>
      </trkpt>
      <trkpt lat="47.31215" lon="-2.39951">
        <ele>30</ele>
        <time>2019-11-24T11:00:35.000Z</time>
      </trkpt>
      <trkpt lat="47.3121" lon="-2.39936">
        <ele>30</ele>
        <time>2019-11-24T11:00:39.000Z</time>
      </trkpt>
      <trkpt lat="47.31202" lon="-2.39911">
        <ele>30</ele>
        <time>2019-11-24T11:00:46.000Z</time>
      </trkpt>
      <trkpt lat="47.31196" lon="-2.39895">
        <ele>30.39999961853</ele>
        <time>2019-11-24T11:00:50.000Z</time>
      </trkpt>
      <trkpt lat="47.31195" lon="-2.39892">
        <ele>31</ele>
        <time>2019-11-24T11:00:51.000Z</time>
      </trkpt>
      <trkpt lat="47.31194" lon="-2.3989">
        <ele>31.799999237061</ele>
        <time>2019-11-24T11:00:52.000Z</time>
      </trkpt>
      <trkpt lat="47.31193" lon="-2.39886">
        <ele>32.200000762939</ele>
        <time>2019-11-24T11:00:53.000Z</time>
      </trkpt>
      <trkpt lat="47.3119" lon="-2.39876">
        <ele>32.200000762939</ele>
        <time>2019-11-24T11:00:56.000Z</time>
      </trkpt>
      <trkpt lat="47.31184" lon="-2.39851">
        <ele>32.200000762939</ele>
        <time>2019-11-24T11:01:00.000Z</time>
      </trkpt>
      <trkpt lat="47.3117" lon="-2.39826">
        <ele>32.200000762939</ele>
        <time>2019-11-24T11:01:05.000Z</time>
      </trkpt>
      <trkpt lat="47.31161" lon="-2.39805">
        <ele>32.200000762939</ele>
        <time>2019-11-24T11:01:10.000Z</time>
      </trkpt>
      <trkpt lat="47.31149" lon="-2.39774">
        <ele>32.200000762939</ele>
        <time>2019-11-24T11:01:17.000Z</time>
      </trkpt>
      <trkpt lat="47.31146" lon="-2.39765">
        <ele>32.599998474121</ele>
        <time>2019-11-24T11:01:19.000Z</time>
      </trkpt>
      <trkpt lat="47.31144" lon="-2.3976">
        <ele>33</ele>
        <time>2019-11-24T11:01:20.000Z</time>
      </trkpt>
      <trkpt lat="47.31143" lon="-2.39757">
        <ele>33.400001525879</ele>
        <time>2019-11-24T11:01:21.000Z</time>
      </trkpt>
      <trkpt lat="47.31141" lon="-2.39754">
        <ele>33.799999237061</ele>
        <time>2019-11-24T11:01:22.000Z</time>
      </trkpt>
      <trkpt lat="47.3114" lon="-2.3975">
        <ele>34.200000762939</ele>
        <time>2019-11-24T11:01:23.000Z</time>
      </trkpt>
      <trkpt lat="47.31139" lon="-2.39748">
        <ele>34.200000762939</ele>
        <time>2019-11-24T11:01:24.000Z</time>
      </trkpt>
      <trkpt lat="47.31133" lon="-2.39729">
        <ele>34.200000762939</ele>
        <time>2019-11-24T11:01:30.000Z</time>
      </trkpt>
      <trkpt lat="47.3112" lon="-2.39694">
        <ele>34.200000762939</ele>
        <time>2019-11-24T11:01:40.000Z</time>
      </trkpt>
      <trkpt lat="47.31109" lon="-2.39661">
        <ele>34.599998474121</ele>
        <time>2019-11-24T11:01:49.000Z</time>
      </trkpt>
      <trkpt lat="47.31107" lon="-2.39657">
        <ele>35</ele>
        <time>2019-11-24T11:01:50.000Z</time>
      </trkpt>
      <trkpt lat="47.31106" lon="-2.39653">
        <ele>35.400001525879</ele>
        <time>2019-11-24T11:01:51.000Z</time>
      </trkpt>
      <trkpt lat="47.31105" lon="-2.3965">
        <ele>35.799999237061</ele>
        <time>2019-11-24T11:01:52.000Z</time>
      </trkpt>
      <trkpt lat="47.31103" lon="-2.39646">
        <ele>36.200000762939</ele>
        <time>2019-11-24T11:01:53.000Z</time>
      </trkpt>
      <trkpt lat="47.31095" lon="-2.39626">
        <ele>36.200000762939</ele>
        <time>2019-11-24T11:01:58.000Z</time>
      </trkpt>
      <trkpt lat="47.3109" lon="-2.39608">
        <ele>36.200000762939</ele>
        <time>2019-11-24T11:02:03.000Z</time>
      </trkpt>
      <trkpt lat="47.31082" lon="-2.39593">
        <ele>36.200000762939</ele>
        <time>2019-11-24T11:02:08.000Z</time>
      </trkpt>
      <trkpt lat="47.31074" lon="-2.39568">
        <ele>36.200000762939</ele>
        <time>2019-11-24T11:02:15.000Z</time>
      </trkpt>
      <trkpt lat="47.31065" lon="-2.39538">
        <ele>36.200000762939</ele>
        <time>2019-11-24T11:02:21.000Z</time>
      </trkpt>
      <trkpt lat="47.31053" lon="-2.39501">
        <ele>36.200000762939</ele>
        <time>2019-11-24T11:02:27.000Z</time>
      </trkpt>
      <trkpt lat="47.31036" lon="-2.39449">
        <ele>35.799999237061</ele>
        <time>2019-11-24T11:02:34.000Z</time>
      </trkpt>
      <trkpt lat="47.31034" lon="-2.39441">
        <ele>35.400001525879</ele>
        <time>2019-11-24T11:02:35.000Z</time>
      </trkpt>
      <trkpt lat="47.31032" lon="-2.39434">
        <ele>35</ele>
        <time>2019-11-24T11:02:36.000Z</time>
      </trkpt>
      <trkpt lat="47.31029" lon="-2.39427">
        <ele>34.599998474121</ele>
        <time>2019-11-24T11:02:37.000Z</time>
      </trkpt>
      <trkpt lat="47.31027" lon="-2.3942">
        <ele>34</ele>
        <time>2019-11-24T11:02:38.000Z</time>
      </trkpt>
      <trkpt lat="47.3102" lon="-2.394">
        <ele>34</ele>
        <time>2019-11-24T11:02:41.000Z</time>
      </trkpt>
      <trkpt lat="47.30999" lon="-2.39337">
        <ele>34.400001525879</ele>
        <time>2019-11-24T11:02:50.000Z</time>
      </trkpt>
      <trkpt lat="47.30996" lon="-2.3933">
        <ele>34.799999237061</ele>
        <time>2019-11-24T11:02:51.000Z</time>
      </trkpt>
      <trkpt lat="47.30994" lon="-2.39323">
        <ele>35.200000762939</ele>
        <time>2019-11-24T11:02:52.000Z</time>
      </trkpt>
      <trkpt lat="47.30992" lon="-2.39317">
        <ele>35.599998474121</ele>
        <time>2019-11-24T11:02:53.000Z</time>
      </trkpt>
      <trkpt lat="47.30989" lon="-2.3931">
        <ele>36.200000762939</ele>
        <time>2019-11-24T11:02:54.000Z</time>
      </trkpt>
      <trkpt lat="47.30982" lon="-2.3929">
        <ele>36.200000762939</ele>
        <time>2019-11-24T11:02:57.000Z</time>
      </trkpt>
      <trkpt lat="47.30962" lon="-2.39239">
        <ele>36.200000762939</ele>
        <time>2019-11-24T11:03:04.000Z</time>
      </trkpt>
      <trkpt lat="47.30937" lon="-2.39182">
        <ele>36.200000762939</ele>
        <time>2019-11-24T11:03:12.000Z</time>
      </trkpt>
      <trkpt lat="47.30917" lon="-2.39132">
        <ele>36.200000762939</ele>
        <time>2019-11-24T11:03:19.000Z</time>
      </trkpt>
      <trkpt lat="47.30901" lon="-2.39078">
        <ele>36.200000762939</ele>
        <time>2019-11-24T11:03:26.000Z</time>
      </trkpt>
      <trkpt lat="47.309" lon="-2.3907">
        <ele>36.200000762939</ele>
        <time>2019-11-24T11:03:27.000Z</time>
      </trkpt>
      <trkpt lat="47.30899" lon="-2.39061">
        <ele>36.200000762939</ele>
        <time>2019-11-24T11:03:28.000Z</time>
      </trkpt>
      <trkpt lat="47.309" lon="-2.39026">
        <ele>36.200000762939</ele>
        <time>2019-11-24T11:03:32.000Z</time>
      </trkpt>
      <trkpt lat="47.30907" lon="-2.38976">
        <ele>36.200000762939</ele>
        <time>2019-11-24T11:03:38.000Z</time>
      </trkpt>
      <trkpt lat="47.3091" lon="-2.38968">
        <ele>36.200000762939</ele>
        <time>2019-11-24T11:03:39.000Z</time>
      </trkpt>
      <trkpt lat="47.30927" lon="-2.38923">
        <ele>36.200000762939</ele>
        <time>2019-11-24T11:03:45.000Z</time>
      </trkpt>
      <trkpt lat="47.30922" lon="-2.38899">
        <ele>36.200000762939</ele>
        <time>2019-11-24T11:03:48.000Z</time>
      </trkpt>
      <trkpt lat="47.30907" lon="-2.38886">
        <ele>36.200000762939</ele>
        <time>2019-11-24T11:03:51.000Z</time>
      </trkpt>
      <trkpt lat="47.30889" lon="-2.38888">
        <ele>36.200000762939</ele>
        <time>2019-11-24T11:03:54.000Z</time>
      </trkpt>
      <trkpt lat="47.30872" lon="-2.38888">
        <ele>36.200000762939</ele>
        <time>2019-11-24T11:03:57.000Z</time>
      </trkpt>
      <trkpt lat="47.30859" lon="-2.38891">
        <ele>36.200000762939</ele>
        <time>2019-11-24T11:03:59.000Z</time>
      </trkpt>
      <trkpt lat="47.30832" lon="-2.38909">
        <ele>35.599998474121</ele>
        <time>2019-11-24T11:04:03.000Z</time>
      </trkpt>
      <trkpt lat="47.30825" lon="-2.38914">
        <ele>35.200000762939</ele>
        <time>2019-11-24T11:04:04.000Z</time>
      </trkpt>
      <trkpt lat="47.30818" lon="-2.3892">
        <ele>34.599998474121</ele>
        <time>2019-11-24T11:04:05.000Z</time>
      </trkpt>
      <trkpt lat="47.30811" lon="-2.38926">
        <ele>34.200000762939</ele>
        <time>2019-11-24T11:04:06.000Z</time>
      </trkpt>
      <trkpt lat="47.30804" lon="-2.38932">
        <ele>33.799999237061</ele>
        <time>2019-11-24T11:04:07.000Z</time>
      </trkpt>
      <trkpt lat="47.3079" lon="-2.38942">
        <ele>33.799999237061</ele>
        <time>2019-11-24T11:04:09.000Z</time>
      </trkpt>
      <trkpt lat="47.30778" lon="-2.38951">
        <ele>33.799999237061</ele>
        <time>2019-11-24T11:04:11.000Z</time>
      </trkpt>
      <trkpt lat="47.30767" lon="-2.38962">
        <ele>33.799999237061</ele>
        <time>2019-11-24T11:04:13.000Z</time>
      </trkpt>
      <trkpt lat="47.30758" lon="-2.38974">
        <ele>33.799999237061</ele>
        <time>2019-11-24T11:04:15.000Z</time>
      </trkpt>
      <trkpt lat="47.30754" lon="-2.3898">
        <ele>33.799999237061</ele>
        <time>2019-11-24T11:04:16.000Z</time>
      </trkpt>
      <trkpt lat="47.30747" lon="-2.38993">
        <ele>33.799999237061</ele>
        <time>2019-11-24T11:04:18.000Z</time>
      </trkpt>
      <trkpt lat="47.30742" lon="-2.38998">
        <ele>33.799999237061</ele>
        <time>2019-11-24T11:04:19.000Z</time>
      </trkpt>
      <trkpt lat="47.30732" lon="-2.39001">
        <ele>33.799999237061</ele>
        <time>2019-11-24T11:04:21.000Z</time>
      </trkpt>
      <trkpt lat="47.30719" lon="-2.38989">
        <ele>33.799999237061</ele>
        <time>2019-11-24T11:04:24.000Z</time>
      </trkpt>
      <trkpt lat="47.30712" lon="-2.38976">
        <ele>33.799999237061</ele>
        <time>2019-11-24T11:04:26.000Z</time>
      </trkpt>
      <trkpt lat="47.30708" lon="-2.38971">
        <ele>33.799999237061</ele>
        <time>2019-11-24T11:04:27.000Z</time>
      </trkpt>
      <trkpt lat="47.30701" lon="-2.38958">
        <ele>33.799999237061</ele>
        <time>2019-11-24T11:04:29.000Z</time>
      </trkpt>
      <trkpt lat="47.30697" lon="-2.38935">
        <ele>33.799999237061</ele>
        <time>2019-11-24T11:04:32.000Z</time>
      </trkpt>
      <trkpt lat="47.30697" lon="-2.38927">
        <ele>33.799999237061</ele>
        <time>2019-11-24T11:04:33.000Z</time>
      </trkpt>
      <trkpt lat="47.30695" lon="-2.38919">
        <ele>33.799999237061</ele>
        <time>2019-11-24T11:04:34.000Z</time>
      </trkpt>
      <trkpt lat="47.30692" lon="-2.38914">
        <ele>34.200000762939</ele>
        <time>2019-11-24T11:04:35.000Z</time>
      </trkpt>
      <trkpt lat="47.3069" lon="-2.38912">
        <ele>34.599998474121</ele>
        <time>2019-11-24T11:04:36.000Z</time>
      </trkpt>
      <trkpt lat="47.30685" lon="-2.38913">
        <ele>35</ele>
        <time>2019-11-24T11:04:37.000Z</time>
      </trkpt>
      <trkpt lat="47.3068" lon="-2.38918">
        <ele>35.400001525879</ele>
        <time>2019-11-24T11:04:38.000Z</time>
      </trkpt>
      <trkpt lat="47.30675" lon="-2.38923">
        <ele>35.799999237061</ele>
        <time>2019-11-24T11:04:39.000Z</time>
      </trkpt>
      <trkpt lat="47.30671" lon="-2.38928">
        <ele>35.799999237061</ele>
        <time>2019-11-24T11:04:40.000Z</time>
      </trkpt>
      <trkpt lat="47.30651" lon="-2.38947">
        <ele>35.799999237061</ele>
        <time>2019-11-24T11:04:44.000Z</time>
      </trkpt>
      <trkpt lat="47.30602" lon="-2.38993">
        <ele>35.799999237061</ele>
        <time>2019-11-24T11:04:53.000Z</time>
      </trkpt>
      <trkpt lat="47.30597" lon="-2.39">
        <ele>35.799999237061</ele>
        <time>2019-11-24T11:04:55.000Z</time>
      </trkpt>
      <trkpt lat="47.30571" lon="-2.39032">
        <ele>35.799999237061</ele>
        <time>2019-11-24T11:05:00.000Z</time>
      </trkpt>
      <trkpt lat="47.30549" lon="-2.39056">
        <ele>35.400001525879</ele>
        <time>2019-11-24T11:05:04.000Z</time>
      </trkpt>
      <trkpt lat="47.30543" lon="-2.39062">
        <ele>35</ele>
        <time>2019-11-24T11:05:05.000Z</time>
      </trkpt>
      <trkpt lat="47.30537" lon="-2.39067">
        <ele>34.599998474121</ele>
        <time>2019-11-24T11:05:06.000Z</time>
      </trkpt>
      <trkpt lat="47.30531" lon="-2.39073">
        <ele>34.200000762939</ele>
        <time>2019-11-24T11:05:07.000Z</time>
      </trkpt>
      <trkpt lat="47.30525" lon="-2.39079">
        <ele>33.599998474121</ele>
        <time>2019-11-24T11:05:08.000Z</time>
      </trkpt>
      <trkpt lat="47.30488" lon="-2.39115">
        <ele>33.200000762939</ele>
        <time>2019-11-24T11:05:14.000Z</time>
      </trkpt>
      <trkpt lat="47.30482" lon="-2.39122">
        <ele>32.799999237061</ele>
        <time>2019-11-24T11:05:15.000Z</time>
      </trkpt>
      <trkpt lat="47.30475" lon="-2.39128">
        <ele>32.400001525879</ele>
        <time>2019-11-24T11:05:16.000Z</time>
      </trkpt>
      <trkpt lat="47.30469" lon="-2.39135">
        <ele>32</ele>
        <time>2019-11-24T11:05:17.000Z</time>
      </trkpt>
      <trkpt lat="47.30463" lon="-2.39143">
        <ele>31.60000038147</ele>
        <time>2019-11-24T11:05:18.000Z</time>
      </trkpt>
      <trkpt lat="47.30449" lon="-2.39157">
        <ele>31.60000038147</ele>
        <time>2019-11-24T11:05:20.000Z</time>
      </trkpt>
      <trkpt lat="47.30434" lon="-2.39169">
        <ele>31.200000762939</ele>
        <time>2019-11-24T11:05:22.000Z</time>
      </trkpt>
      <trkpt lat="47.30426" lon="-2.39173">
        <ele>30.799999237061</ele>
        <time>2019-11-24T11:05:23.000Z</time>
      </trkpt>
      <trkpt lat="47.30418" lon="-2.39175">
        <ele>30.39999961853</ele>
        <time>2019-11-24T11:05:24.000Z</time>
      </trkpt>
      <trkpt lat="47.30409" lon="-2.39175">
        <ele>29.39999961853</ele>
        <time>2019-11-24T11:05:25.000Z</time>
      </trkpt>
      <trkpt lat="47.30392" lon="-2.39167">
        <ele>29.39999961853</ele>
        <time>2019-11-24T11:05:27.000Z</time>
      </trkpt>
      <trkpt lat="47.30375" lon="-2.39143">
        <ele>29.39999961853</ele>
        <time>2019-11-24T11:05:30.000Z</time>
      </trkpt>
      <trkpt lat="47.30365" lon="-2.39113">
        <ele>29.39999961853</ele>
        <time>2019-11-24T11:05:33.000Z</time>
      </trkpt>
      <trkpt lat="47.30363" lon="-2.39104">
        <ele>29.39999961853</ele>
        <time>2019-11-24T11:05:34.000Z</time>
      </trkpt>
      <trkpt lat="47.30353" lon="-2.39053">
        <ele>29.39999961853</ele>
        <time>2019-11-24T11:05:40.000Z</time>
      </trkpt>
      <trkpt lat="47.30338" lon="-2.39002">
        <ele>29.39999961853</ele>
        <time>2019-11-24T11:05:46.000Z</time>
      </trkpt>
      <trkpt lat="47.3032" lon="-2.38963">
        <ele>29.39999961853</ele>
        <time>2019-11-24T11:05:51.000Z</time>
      </trkpt>
      <trkpt lat="47.30312" lon="-2.38948">
        <ele>29</ele>
        <time>2019-11-24T11:05:53.000Z</time>
      </trkpt>
      <trkpt lat="47.30307" lon="-2.3894">
        <ele>28.60000038147</ele>
        <time>2019-11-24T11:05:54.000Z</time>
      </trkpt>
      <trkpt lat="47.30303" lon="-2.38932">
        <ele>28.200000762939</ele>
        <time>2019-11-24T11:05:55.000Z</time>
      </trkpt>
      <trkpt lat="47.30299" lon="-2.38923">
        <ele>27.799999237061</ele>
        <time>2019-11-24T11:05:56.000Z</time>
      </trkpt>
      <trkpt lat="47.30295" lon="-2.38914">
        <ele>27.39999961853</ele>
        <time>2019-11-24T11:05:57.000Z</time>
      </trkpt>
      <trkpt lat="47.30274" lon="-2.38859">
        <ele>27.39999961853</ele>
        <time>2019-11-24T11:06:03.000Z</time>
      </trkpt>
      <trkpt lat="47.30256" lon="-2.38815">
        <ele>27.39999961853</ele>
        <time>2019-11-24T11:06:08.000Z</time>
      </trkpt>
      <trkpt lat="47.30251" lon="-2.38807">
        <ele>26.799999237061</ele>
        <time>2019-11-24T11:06:09.000Z</time>
      </trkpt>
      <trkpt lat="47.30246" lon="-2.38799">
        <ele>26.39999961853</ele>
        <time>2019-11-24T11:06:10.000Z</time>
      </trkpt>
      <trkpt lat="47.3024" lon="-2.38791">
        <ele>26</ele>
        <time>2019-11-24T11:06:11.000Z</time>
      </trkpt>
      <trkpt lat="47.30233" lon="-2.38783">
        <ele>25.60000038147</ele>
        <time>2019-11-24T11:06:12.000Z</time>
      </trkpt>
      <trkpt lat="47.30227" lon="-2.38777">
        <ele>25</ele>
        <time>2019-11-24T11:06:13.000Z</time>
      </trkpt>
      <trkpt lat="47.30221" lon="-2.38771">
        <ele>24</ele>
        <time>2019-11-24T11:06:14.000Z</time>
      </trkpt>
      <trkpt lat="47.30215" lon="-2.38767">
        <ele>23.39999961853</ele>
        <time>2019-11-24T11:06:15.000Z</time>
      </trkpt>
      <trkpt lat="47.30209" lon="-2.38766">
        <ele>22.60000038147</ele>
        <time>2019-11-24T11:06:16.000Z</time>
      </trkpt>
      <trkpt lat="47.30203" lon="-2.38766">
        <ele>21.799999237061</ele>
        <time>2019-11-24T11:06:17.000Z</time>
      </trkpt>
      <trkpt lat="47.30196" lon="-2.38767">
        <ele>21</ele>
        <time>2019-11-24T11:06:18.000Z</time>
      </trkpt>
      <trkpt lat="47.30188" lon="-2.38775">
        <ele>20.39999961853</ele>
        <time>2019-11-24T11:06:19.000Z</time>
      </trkpt>
      <trkpt lat="47.30182" lon="-2.38783">
        <ele>19.60000038147</ele>
        <time>2019-11-24T11:06:20.000Z</time>
      </trkpt>
      <trkpt lat="47.30175" lon="-2.38792">
        <ele>18.799999237061</ele>
        <time>2019-11-24T11:06:21.000Z</time>
      </trkpt>
      <trkpt lat="47.30169" lon="-2.38801">
        <ele>18</ele>
        <time>2019-11-24T11:06:22.000Z</time>
      </trkpt>
      <trkpt lat="47.30162" lon="-2.38811">
        <ele>17.200000762939</ele>
        <time>2019-11-24T11:06:23.000Z</time>
      </trkpt>
      <trkpt lat="47.30155" lon="-2.38821">
        <ele>16.799999237061</ele>
        <time>2019-11-24T11:06:24.000Z</time>
      </trkpt>
      <trkpt lat="47.30149" lon="-2.38831">
        <ele>16.39999961853</ele>
        <time>2019-11-24T11:06:25.000Z</time>
      </trkpt>
      <trkpt lat="47.30143" lon="-2.38841">
        <ele>16</ele>
        <time>2019-11-24T11:06:26.000Z</time>
      </trkpt>
      <trkpt lat="47.30137" lon="-2.38852">
        <ele>15.60000038147</ele>
        <time>2019-11-24T11:06:27.000Z</time>
      </trkpt>
      <trkpt lat="47.30131" lon="-2.38863">
        <ele>15</ele>
        <time>2019-11-24T11:06:28.000Z</time>
      </trkpt>
      <trkpt lat="47.30125" lon="-2.38873">
        <ele>14.60000038147</ele>
        <time>2019-11-24T11:06:29.000Z</time>
      </trkpt>
      <trkpt lat="47.30119" lon="-2.38884">
        <ele>14.199999809265</ele>
        <time>2019-11-24T11:06:30.000Z</time>
      </trkpt>
      <trkpt lat="47.30113" lon="-2.38894">
        <ele>13.800000190735</ele>
        <time>2019-11-24T11:06:31.000Z</time>
      </trkpt>
      <trkpt lat="47.30107" lon="-2.38903">
        <ele>13.199999809265</ele>
        <time>2019-11-24T11:06:32.000Z</time>
      </trkpt>
      <trkpt lat="47.30101" lon="-2.38911">
        <ele>12.800000190735</ele>
        <time>2019-11-24T11:06:33.000Z</time>
      </trkpt>
      <trkpt lat="47.30094" lon="-2.38919">
        <ele>12.39999961853</ele>
        <time>2019-11-24T11:06:34.000Z</time>
      </trkpt>
      <trkpt lat="47.30086" lon="-2.38926">
        <ele>12</ele>
        <time>2019-11-24T11:06:35.000Z</time>
      </trkpt>
      <trkpt lat="47.30077" lon="-2.38933">
        <ele>11.60000038147</ele>
        <time>2019-11-24T11:06:36.000Z</time>
      </trkpt>
      <trkpt lat="47.3007" lon="-2.38939">
        <ele>11.199999809265</ele>
        <time>2019-11-24T11:06:37.000Z</time>
      </trkpt>
      <trkpt lat="47.30063" lon="-2.38945">
        <ele>10</ele>
        <time>2019-11-24T11:06:38.000Z</time>
      </trkpt>
      <trkpt lat="47.30055" lon="-2.38951">
        <ele>9.3999996185303</ele>
        <time>2019-11-24T11:06:39.000Z</time>
      </trkpt>
      <trkpt lat="47.30048" lon="-2.38958">
        <ele>9</ele>
        <time>2019-11-24T11:06:40.000Z</time>
      </trkpt>
      <trkpt lat="47.30042" lon="-2.38964">
        <ele>8.3999996185303</ele>
        <time>2019-11-24T11:06:41.000Z</time>
      </trkpt>
      <trkpt lat="47.30037" lon="-2.3897">
        <ele>8</ele>
        <time>2019-11-24T11:06:42.000Z</time>
      </trkpt>
      <trkpt lat="47.30034" lon="-2.38978">
        <ele>7.4000000953674</ele>
        <time>2019-11-24T11:06:43.000Z</time>
      </trkpt>
      <trkpt lat="47.30032" lon="-2.38986">
        <ele>7</ele>
        <time>2019-11-24T11:06:44.000Z</time>
      </trkpt>
      <trkpt lat="47.30031" lon="-2.38995">
        <ele>6.5999999046326</ele>
        <time>2019-11-24T11:06:45.000Z</time>
      </trkpt>
      <trkpt lat="47.3003" lon="-2.39003">
        <ele>6</ele>
        <time>2019-11-24T11:06:46.000Z</time>
      </trkpt>
      <trkpt lat="47.30028" lon="-2.39011">
        <ele>6</ele>
        <time>2019-11-24T11:06:47.000Z</time>
      </trkpt>
      <trkpt lat="47.3002" lon="-2.3902">
        <ele>6</ele>
        <time>2019-11-24T11:06:49.000Z</time>
      </trkpt>
      <trkpt lat="47.30005" lon="-2.39013">
        <ele>6</ele>
        <time>2019-11-24T11:06:52.000Z</time>
      </trkpt>
      <trkpt lat="47.29997" lon="-2.39003">
        <ele>6</ele>
        <time>2019-11-24T11:06:54.000Z</time>
      </trkpt>
      <trkpt lat="47.29992" lon="-2.39">
        <ele>6</ele>
        <time>2019-11-24T11:06:55.000Z</time>
      </trkpt>
      <trkpt lat="47.29986" lon="-2.38999">
        <ele>6</ele>
        <time>2019-11-24T11:06:56.000Z</time>
      </trkpt>
      <trkpt lat="47.29967" lon="-2.39006">
        <ele>6</ele>
        <time>2019-11-24T11:06:59.000Z</time>
      </trkpt>
      <trkpt lat="47.29955" lon="-2.39014">
        <ele>6</ele>
        <time>2019-11-24T11:07:01.000Z</time>
      </trkpt>
      <trkpt lat="47.29949" lon="-2.39019">
        <ele>5.5999999046326</ele>
        <time>2019-11-24T11:07:02.000Z</time>
      </trkpt>
      <trkpt lat="47.29943" lon="-2.39024">
        <ele>4.8000001907349</ele>
        <time>2019-11-24T11:07:03.000Z</time>
      </trkpt>
      <trkpt lat="47.29937" lon="-2.39029">
        <ele>4.4000000953674</ele>
        <time>2019-11-24T11:07:04.000Z</time>
      </trkpt>
      <trkpt lat="47.29931" lon="-2.39034">
        <ele>4</ele>
        <time>2019-11-24T11:07:05.000Z</time>
      </trkpt>
      <trkpt lat="47.29881" lon="-2.39075">
        <ele>4</ele>
        <time>2019-11-24T11:07:13.000Z</time>
      </trkpt>
      <trkpt lat="47.29868" lon="-2.39085">
        <ele>3.5999999046326</ele>
        <time>2019-11-24T11:07:15.000Z</time>
      </trkpt>
      <trkpt lat="47.29862" lon="-2.3909">
        <ele>3.2000000476837</ele>
        <time>2019-11-24T11:07:16.000Z</time>
      </trkpt>
      <trkpt lat="47.29855" lon="-2.39096">
        <ele>2.7999999523163</ele>
        <time>2019-11-24T11:07:17.000Z</time>
      </trkpt>
      <trkpt lat="47.29849" lon="-2.391">
        <ele>2.4000000953674</ele>
        <time>2019-11-24T11:07:18.000Z</time>
      </trkpt>
      <trkpt lat="47.29842" lon="-2.39104">
        <ele>1.7999999523163</ele>
        <time>2019-11-24T11:07:19.000Z</time>
      </trkpt>
      <trkpt lat="47.29791" lon="-2.39131">
        <ele>1.7999999523163</ele>
        <time>2019-11-24T11:07:26.000Z</time>
      </trkpt>
      <trkpt lat="47.29762" lon="-2.39146">
        <ele>1.3999999761581</ele>
        <time>2019-11-24T11:07:30.000Z</time>
      </trkpt>
      <trkpt lat="47.29755" lon="-2.3915">
        <ele>1</ele>
        <time>2019-11-24T11:07:31.000Z</time>
      </trkpt>
      <trkpt lat="47.29748" lon="-2.39154">
        <ele>0.60000002384186</ele>
        <time>2019-11-24T11:07:32.000Z</time>
      </trkpt>
      <trkpt lat="47.29741" lon="-2.39157">
        <ele>0.20000000298023</ele>
        <time>2019-11-24T11:07:33.000Z</time>
      </trkpt>
      <trkpt lat="47.29733" lon="-2.39161">
        <ele>-0.20000000298023</ele>
        <time>2019-11-24T11:07:34.000Z</time>
      </trkpt>
      <trkpt lat="47.29678" lon="-2.39187">
        <ele>-0.20000000298023</ele>
        <time>2019-11-24T11:07:42.000Z</time>
      </trkpt>
      <trkpt lat="47.29652" lon="-2.39189">
        <ele>-0.60000002384186</ele>
        <time>2019-11-24T11:07:46.000Z</time>
      </trkpt>
      <trkpt lat="47.29648" lon="-2.39187">
        <ele>-1</ele>
        <time>2019-11-24T11:07:47.000Z</time>
      </trkpt>
      <trkpt lat="47.29644" lon="-2.39184">
        <ele>-1.3999999761581</ele>
        <time>2019-11-24T11:07:48.000Z</time>
      </trkpt>
      <trkpt lat="47.29639" lon="-2.39181">
        <ele>-1.7999999523163</ele>
        <time>2019-11-24T11:07:49.000Z</time>
      </trkpt>
      <trkpt lat="47.29634" lon="-2.39178">
        <ele>-2.2000000476837</ele>
        <time>2019-11-24T11:07:50.000Z</time>
      </trkpt>
      <trkpt lat="47.29629" lon="-2.39176">
        <ele>-2.2000000476837</ele>
        <time>2019-11-24T11:07:51.000Z</time>
      </trkpt>
      <trkpt lat="47.296" lon="-2.39171">
        <ele>-2.2000000476837</ele>
        <time>2019-11-24T11:07:56.000Z</time>
      </trkpt>
      <trkpt lat="47.29576" lon="-2.39168">
        <ele>-2.2000000476837</ele>
        <time>2019-11-24T11:08:00.000Z</time>
      </trkpt>
      <trkpt lat="47.2957" lon="-2.39168">
        <ele>-2.2000000476837</ele>
        <time>2019-11-24T11:08:01.000Z</time>
      </trkpt>
      <trkpt lat="47.29547" lon="-2.39171">
        <ele>-2.2000000476837</ele>
        <time>2019-11-24T11:08:05.000Z</time>
      </trkpt>
      <trkpt lat="47.29534" lon="-2.39173">
        <ele>-2.2000000476837</ele>
        <time>2019-11-24T11:08:07.000Z</time>
      </trkpt>
      <trkpt lat="47.29493" lon="-2.39174">
        <ele>-2.2000000476837</ele>
        <time>2019-11-24T11:08:14.000Z</time>
      </trkpt>
      <trkpt lat="47.29463" lon="-2.39174">
        <ele>-2.2000000476837</ele>
        <time>2019-11-24T11:08:19.000Z</time>
      </trkpt>
      <trkpt lat="47.29451" lon="-2.39176">
        <ele>-2.2000000476837</ele>
        <time>2019-11-24T11:08:21.000Z</time>
      </trkpt>
      <trkpt lat="47.29422" lon="-2.39177">
        <ele>-2.2000000476837</ele>
        <time>2019-11-24T11:08:27.000Z</time>
      </trkpt>
      <trkpt lat="47.29414" lon="-2.39178">
        <ele>-2.2000000476837</ele>
        <time>2019-11-24T11:08:29.000Z</time>
      </trkpt>
      <trkpt lat="47.29404" lon="-2.39178">
        <ele>-2.2000000476837</ele>
        <time>2019-11-24T11:08:31.000Z</time>
      </trkpt>
      <trkpt lat="47.29393" lon="-2.39176">
        <ele>-2.2000000476837</ele>
        <time>2019-11-24T11:08:33.000Z</time>
      </trkpt>
      <trkpt lat="47.29383" lon="-2.39174">
        <ele>-2.2000000476837</ele>
        <time>2019-11-24T11:08:35.000Z</time>
      </trkpt>
      <trkpt lat="47.29378" lon="-2.39172">
        <ele>-2.2000000476837</ele>
        <time>2019-11-24T11:08:36.000Z</time>
      </trkpt>
      <trkpt lat="47.29361" lon="-2.39167">
        <ele>-2.2000000476837</ele>
        <time>2019-11-24T11:08:39.000Z</time>
      </trkpt>
      <trkpt lat="47.29355" lon="-2.3917">
        <ele>-2.2000000476837</ele>
        <time>2019-11-24T11:08:40.000Z</time>
      </trkpt>
      <trkpt lat="47.29346" lon="-2.39189">
        <ele>-2.2000000476837</ele>
        <time>2019-11-24T11:08:43.000Z</time>
      </trkpt>
      <trkpt lat="47.29343" lon="-2.3923">
        <ele>-2.2000000476837</ele>
        <time>2019-11-24T11:08:48.000Z</time>
      </trkpt>
      <trkpt lat="47.2935" lon="-2.39289">
        <ele>-2.2000000476837</ele>
        <time>2019-11-24T11:08:55.000Z</time>
      </trkpt>
      <trkpt lat="47.2935" lon="-2.39305">
        <ele>-2.2000000476837</ele>
        <time>2019-11-24T11:08:57.000Z</time>
      </trkpt>
      <trkpt lat="47.29347" lon="-2.39327">
        <ele>-2.2000000476837</ele>
        <time>2019-11-24T11:09:00.000Z</time>
      </trkpt>
      <trkpt lat="47.29345" lon="-2.39331">
        <ele>-2.2000000476837</ele>
        <time>2019-11-24T11:09:01.000Z</time>
      </trkpt>
      <trkpt lat="47.29336" lon="-2.39329">
        <ele>-2.2000000476837</ele>
        <time>2019-11-24T11:09:03.000Z</time>
      </trkpt>
      <trkpt lat="47.29327" lon="-2.39321">
        <ele>-2.2000000476837</ele>
        <time>2019-11-24T11:09:05.000Z</time>
      </trkpt>
      <trkpt lat="47.29317" lon="-2.39313">
        <ele>-2.2000000476837</ele>
        <time>2019-11-24T11:09:07.000Z</time>
      </trkpt>
      <trkpt lat="47.29281" lon="-2.39292">
        <ele>-2.2000000476837</ele>
        <time>2019-11-24T11:09:13.000Z</time>
      </trkpt>
      <trkpt lat="47.29274" lon="-2.3929">
        <ele>-2.2000000476837</ele>
        <time>2019-11-24T11:09:14.000Z</time>
      </trkpt>
      <trkpt lat="47.29254" lon="-2.39294">
        <ele>-2.2000000476837</ele>
        <time>2019-11-24T11:09:17.000Z</time>
      </trkpt>
      <trkpt lat="47.29241" lon="-2.39302">
        <ele>-2.2000000476837</ele>
        <time>2019-11-24T11:09:19.000Z</time>
      </trkpt>
      <trkpt lat="47.29215" lon="-2.39317">
        <ele>-2.2000000476837</ele>
        <time>2019-11-24T11:09:23.000Z</time>
      </trkpt>
      <trkpt lat="47.29195" lon="-2.39324">
        <ele>-2.5999999046326</ele>
        <time>2019-11-24T11:09:26.000Z</time>
      </trkpt>
      <trkpt lat="47.29189" lon="-2.39326">
        <ele>-3</ele>
        <time>2019-11-24T11:09:27.000Z</time>
      </trkpt>
      <trkpt lat="47.29182" lon="-2.39328">
        <ele>-3.4000000953674</ele>
        <time>2019-11-24T11:09:28.000Z</time>
      </trkpt>
      <trkpt lat="47.29175" lon="-2.3933">
        <ele>-3.7999999523163</ele>
        <time>2019-11-24T11:09:29.000Z</time>
      </trkpt>
      <trkpt lat="47.29168" lon="-2.39332">
        <ele>-4.1999998092651</ele>
        <time>2019-11-24T11:09:30.000Z</time>
      </trkpt>
      <trkpt lat="47.29162" lon="-2.39335">
        <ele>-4.1999998092651</ele>
        <time>2019-11-24T11:09:31.000Z</time>
      </trkpt>
      <trkpt lat="47.29156" lon="-2.39338">
        <ele>-4.1999998092651</ele>
        <time>2019-11-24T11:09:32.000Z</time>
      </trkpt>
      <trkpt lat="47.29145" lon="-2.39348">
        <ele>-4.1999998092651</ele>
        <time>2019-11-24T11:09:34.000Z</time>
      </trkpt>
      <trkpt lat="47.29136" lon="-2.39358">
        <ele>-4.1999998092651</ele>
        <time>2019-11-24T11:09:36.000Z</time>
      </trkpt>
      <trkpt lat="47.29125" lon="-2.39365">
        <ele>-4.1999998092651</ele>
        <time>2019-11-24T11:09:38.000Z</time>
      </trkpt>
      <trkpt lat="47.2912" lon="-2.39368">
        <ele>-4.1999998092651</ele>
        <time>2019-11-24T11:09:39.000Z</time>
      </trkpt>
      <trkpt lat="47.2911" lon="-2.39374">
        <ele>-4.1999998092651</ele>
        <time>2019-11-24T11:09:41.000Z</time>
      </trkpt>
      <trkpt lat="47.29105" lon="-2.39377">
        <ele>-3.7999999523163</ele>
        <time>2019-11-24T11:09:42.000Z</time>
      </trkpt>
      <trkpt lat="47.29101" lon="-2.3938">
        <ele>-3.4000000953674</ele>
        <time>2019-11-24T11:09:43.000Z</time>
      </trkpt>
      <trkpt lat="47.29096" lon="-2.39381">
        <ele>-3</ele>
        <time>2019-11-24T11:09:44.000Z</time>
      </trkpt>
      <trkpt lat="47.29091" lon="-2.3938">
        <ele>-2.5999999046326</ele>
        <time>2019-11-24T11:09:45.000Z</time>
      </trkpt>
      <trkpt lat="47.29087" lon="-2.39377">
        <ele>-2.2000000476837</ele>
        <time>2019-11-24T11:09:46.000Z</time>
      </trkpt>
      <trkpt lat="47.29078" lon="-2.39366">
        <ele>-2.2000000476837</ele>
        <time>2019-11-24T11:09:48.000Z</time>
      </trkpt>
      <trkpt lat="47.2906" lon="-2.39354">
        <ele>-2.2000000476837</ele>
        <time>2019-11-24T11:09:51.000Z</time>
      </trkpt>
      <trkpt lat="47.29054" lon="-2.39351">
        <ele>-2.2000000476837</ele>
        <time>2019-11-24T11:09:52.000Z</time>
      </trkpt>
      <trkpt lat="47.29" lon="-2.39325">
        <ele>-2.2000000476837</ele>
        <time>2019-11-24T11:10:00.000Z</time>
      </trkpt>
      <trkpt lat="47.28981" lon="-2.39319">
        <ele>-2.2000000476837</ele>
        <time>2019-11-24T11:10:03.000Z</time>
      </trkpt>
      <trkpt lat="47.28969" lon="-2.39318">
        <ele>-2.2000000476837</ele>
        <time>2019-11-24T11:10:05.000Z</time>
      </trkpt>
      <trkpt lat="47.28963" lon="-2.39319">
        <ele>-2.2000000476837</ele>
        <time>2019-11-24T11:10:06.000Z</time>
      </trkpt>
      <trkpt lat="47.28944" lon="-2.39309">
        <ele>-2.2000000476837</ele>
        <time>2019-11-24T11:10:10.000Z</time>
      </trkpt>
      <trkpt lat="47.2894" lon="-2.39294">
        <ele>-2.2000000476837</ele>
        <time>2019-11-24T11:10:12.000Z</time>
      </trkpt>
      <trkpt lat="47.28938" lon="-2.39286">
        <ele>-2.2000000476837</ele>
        <time>2019-11-24T11:10:13.000Z</time>
      </trkpt>
      <trkpt lat="47.28936" lon="-2.39268">
        <ele>-2.2000000476837</ele>
        <time>2019-11-24T11:10:15.000Z</time>
      </trkpt>
      <trkpt lat="47.28935" lon="-2.39241">
        <ele>-2.2000000476837</ele>
        <time>2019-11-24T11:10:18.000Z</time>
      </trkpt>
      <trkpt lat="47.28935" lon="-2.392">
        <ele>-2.2000000476837</ele>
        <time>2019-11-24T11:10:23.000Z</time>
      </trkpt>
      <trkpt lat="47.28934" lon="-2.39191">
        <ele>-2.2000000476837</ele>
        <time>2019-11-24T11:10:24.000Z</time>
      </trkpt>
      <trkpt lat="47.28933" lon="-2.39173">
        <ele>-2.2000000476837</ele>
        <time>2019-11-24T11:10:26.000Z</time>
      </trkpt>
      <trkpt lat="47.28935" lon="-2.39147">
        <ele>-2.2000000476837</ele>
        <time>2019-11-24T11:10:29.000Z</time>
      </trkpt>
      <trkpt lat="47.28941" lon="-2.39094">
        <ele>-2.2000000476837</ele>
        <time>2019-11-24T11:10:35.000Z</time>
      </trkpt>
      <trkpt lat="47.28949" lon="-2.39028">
        <ele>-2.2000000476837</ele>
        <time>2019-11-24T11:10:42.000Z</time>
      </trkpt>
      <trkpt lat="47.28955" lon="-2.38953">
        <ele>-2.2000000476837</ele>
        <time>2019-11-24T11:10:50.000Z</time>
      </trkpt>
      <trkpt lat="47.28958" lon="-2.38895">
        <ele>-2.2000000476837</ele>
        <time>2019-11-24T11:10:56.000Z</time>
      </trkpt>
      <trkpt lat="47.2896" lon="-2.38828">
        <ele>-2.2000000476837</ele>
        <time>2019-11-24T11:11:03.000Z</time>
      </trkpt>
      <trkpt lat="47.2896" lon="-2.38754">
        <ele>-2.2000000476837</ele>
        <time>2019-11-24T11:11:11.000Z</time>
      </trkpt>
      <trkpt lat="47.28959" lon="-2.3869">
        <ele>-2.2000000476837</ele>
        <time>2019-11-24T11:11:18.000Z</time>
      </trkpt>
      <trkpt lat="47.28958" lon="-2.38614">
        <ele>-2.2000000476837</ele>
        <time>2019-11-24T11:11:26.000Z</time>
      </trkpt>
      <trkpt lat="47.28954" lon="-2.38556">
        <ele>-2.2000000476837</ele>
        <time>2019-11-24T11:11:32.000Z</time>
      </trkpt>
      <trkpt lat="47.28948" lon="-2.38492">
        <ele>-2.2000000476837</ele>
        <time>2019-11-24T11:11:39.000Z</time>
      </trkpt>
      <trkpt lat="47.28941" lon="-2.3842">
        <ele>-2.2000000476837</ele>
        <time>2019-11-24T11:11:47.000Z</time>
      </trkpt>
      <trkpt lat="47.28935" lon="-2.38345">
        <ele>-2.2000000476837</ele>
        <time>2019-11-24T11:11:55.000Z</time>
      </trkpt>
      <trkpt lat="47.28935" lon="-2.38289">
        <ele>-2.2000000476837</ele>
        <time>2019-11-24T11:12:01.000Z</time>
      </trkpt>
      <trkpt lat="47.28937" lon="-2.3827">
        <ele>-2.2000000476837</ele>
        <time>2019-11-24T11:12:03.000Z</time>
      </trkpt>
      <trkpt lat="47.28938" lon="-2.38242">
        <ele>-2.2000000476837</ele>
        <time>2019-11-24T11:12:06.000Z</time>
      </trkpt>
      <trkpt lat="47.2893" lon="-2.3822">
        <ele>-2.2000000476837</ele>
        <time>2019-11-24T11:12:09.000Z</time>
      </trkpt>
      <trkpt lat="47.28915" lon="-2.38208">
        <ele>-2.2000000476837</ele>
        <time>2019-11-24T11:12:12.000Z</time>
      </trkpt>
      <trkpt lat="47.2891" lon="-2.38204">
        <ele>-2.2000000476837</ele>
        <time>2019-11-24T11:12:13.000Z</time>
      </trkpt>
      <trkpt lat="47.28906" lon="-2.38199">
        <ele>-2.2000000476837</ele>
        <time>2019-11-24T11:12:14.000Z</time>
      </trkpt>
      <trkpt lat="47.28901" lon="-2.38184">
        <ele>-2.2000000476837</ele>
        <time>2019-11-24T11:12:16.000Z</time>
      </trkpt>
      <trkpt lat="47.28902" lon="-2.38168">
        <ele>-2.2000000476837</ele>
        <time>2019-11-24T11:12:18.000Z</time>
      </trkpt>
      <trkpt lat="47.28903" lon="-2.3816">
        <ele>-2.2000000476837</ele>
        <time>2019-11-24T11:12:19.000Z</time>
      </trkpt>
      <trkpt lat="47.28906" lon="-2.38093">
        <ele>-2.2000000476837</ele>
        <time>2019-11-24T11:12:27.000Z</time>
      </trkpt>
      <trkpt lat="47.28909" lon="-2.3803">
        <ele>-2.2000000476837</ele>
        <time>2019-11-24T11:12:34.000Z</time>
      </trkpt>
      <trkpt lat="47.28914" lon="-2.37965">
        <ele>-2.2000000476837</ele>
        <time>2019-11-24T11:12:41.000Z</time>
      </trkpt>
      <trkpt lat="47.2892" lon="-2.3789">
        <ele>-2.2000000476837</ele>
        <time>2019-11-24T11:12:49.000Z</time>
      </trkpt>
      <trkpt lat="47.28925" lon="-2.37826">
        <ele>-2.2000000476837</ele>
        <time>2019-11-24T11:12:56.000Z</time>
      </trkpt>
      <trkpt lat="47.2893" lon="-2.37764">
        <ele>-2.2000000476837</ele>
        <time>2019-11-24T11:13:03.000Z</time>
      </trkpt>
      <trkpt lat="47.28931" lon="-2.37746">
        <ele>-2.2000000476837</ele>
        <time>2019-11-24T11:13:05.000Z</time>
      </trkpt>
      <trkpt lat="47.28934" lon="-2.37719">
        <ele>-2.2000000476837</ele>
        <time>2019-11-24T11:13:08.000Z</time>
      </trkpt>
      <trkpt lat="47.28937" lon="-2.37658">
        <ele>-2.2000000476837</ele>
        <time>2019-11-24T11:13:15.000Z</time>
      </trkpt>
      <trkpt lat="47.28936" lon="-2.37651">
        <ele>-2.2000000476837</ele>
        <time>2019-11-24T11:13:16.000Z</time>
      </trkpt>
      <trkpt lat="47.28927" lon="-2.37643">
        <ele>-2.2000000476837</ele>
        <time>2019-11-24T11:13:18.000Z</time>
      </trkpt>
      <trkpt lat="47.2891" lon="-2.37645">
        <ele>-2.2000000476837</ele>
        <time>2019-11-24T11:13:21.000Z</time>
      </trkpt>
      <trkpt lat="47.28877" lon="-2.37654">
        <ele>-2.2000000476837</ele>
        <time>2019-11-24T11:13:27.000Z</time>
      </trkpt>
      <trkpt lat="47.28872" lon="-2.37654">
        <ele>-2.2000000476837</ele>
        <time>2019-11-24T11:13:28.000Z</time>
      </trkpt>
      <trkpt lat="47.28863" lon="-2.37646">
        <ele>-2.2000000476837</ele>
        <time>2019-11-24T11:13:30.000Z</time>
      </trkpt>
      <trkpt lat="47.28857" lon="-2.37633">
        <ele>-2.2000000476837</ele>
        <time>2019-11-24T11:13:32.000Z</time>
      </trkpt>
      <trkpt lat="47.28852" lon="-2.37629">
        <ele>-2.2000000476837</ele>
        <time>2019-11-24T11:13:33.000Z</time>
      </trkpt>
      <trkpt lat="47.28837" lon="-2.37634">
        <ele>-2.2000000476837</ele>
        <time>2019-11-24T11:13:36.000Z</time>
      </trkpt>
      <trkpt lat="47.28826" lon="-2.37651">
        <ele>-2.2000000476837</ele>
        <time>2019-11-24T11:13:39.000Z</time>
      </trkpt>
      <trkpt lat="47.2882" lon="-2.37667">
        <ele>-2.2000000476837</ele>
        <time>2019-11-24T11:13:41.000Z</time>
      </trkpt>
      <trkpt lat="47.2881" lon="-2.37687">
        <ele>-2.2000000476837</ele>
        <time>2019-11-24T11:13:44.000Z</time>
      </trkpt>
      <trkpt lat="47.28806" lon="-2.37692">
        <ele>-2.2000000476837</ele>
        <time>2019-11-24T11:13:45.000Z</time>
      </trkpt>
      <trkpt lat="47.28795" lon="-2.37698">
        <ele>-2.2000000476837</ele>
        <time>2019-11-24T11:13:47.000Z</time>
      </trkpt>
      <trkpt lat="47.2876" lon="-2.37724">
        <ele>-2.2000000476837</ele>
        <time>2019-11-24T11:13:54.000Z</time>
      </trkpt>
      <trkpt lat="47.2875" lon="-2.37738">
        <ele>-2.2000000476837</ele>
        <time>2019-11-24T11:13:57.000Z</time>
      </trkpt>
      <trkpt lat="47.28743" lon="-2.37749">
        <ele>-2.2000000476837</ele>
        <time>2019-11-24T11:13:59.000Z</time>
      </trkpt>
      <trkpt lat="47.28714" lon="-2.37796">
        <ele>-2.2000000476837</ele>
        <time>2019-11-24T11:14:06.000Z</time>
      </trkpt>
      <trkpt lat="47.28687" lon="-2.37845">
        <ele>-2.2000000476837</ele>
        <time>2019-11-24T11:14:13.000Z</time>
      </trkpt>
      <trkpt lat="47.28663" lon="-2.37884">
        <ele>-2.2000000476837</ele>
        <time>2019-11-24T11:14:19.000Z</time>
      </trkpt>
      <trkpt lat="47.28636" lon="-2.37922">
        <ele>-2.2000000476837</ele>
        <time>2019-11-24T11:14:25.000Z</time>
      </trkpt>
      <trkpt lat="47.28608" lon="-2.37961">
        <ele>-2.2000000476837</ele>
        <time>2019-11-24T11:14:31.000Z</time>
      </trkpt>
      <trkpt lat="47.28575" lon="-2.38004">
        <ele>-2.2000000476837</ele>
        <time>2019-11-24T11:14:38.000Z</time>
      </trkpt>
      <trkpt lat="47.28564" lon="-2.38016">
        <ele>-2.2000000476837</ele>
        <time>2019-11-24T11:14:40.000Z</time>
      </trkpt>
      <trkpt lat="47.28549" lon="-2.38033">
        <ele>-2.2000000476837</ele>
        <time>2019-11-24T11:14:43.000Z</time>
      </trkpt>
      <trkpt lat="47.2854" lon="-2.38043">
        <ele>-2.2000000476837</ele>
        <time>2019-11-24T11:14:45.000Z</time>
      </trkpt>
      <trkpt lat="47.28528" lon="-2.38057">
        <ele>-2.2000000476837</ele>
        <time>2019-11-24T11:14:48.000Z</time>
      </trkpt>
      <trkpt lat="47.28522" lon="-2.38062">
        <ele>-2.2000000476837</ele>
        <time>2019-11-24T11:14:51.000Z</time>
      </trkpt>
      <trkpt lat="47.28512" lon="-2.38068">
        <ele>-2.2000000476837</ele>
        <time>2019-11-24T11:14:56.000Z</time>
      </trkpt>
      <trkpt lat="47.28493" lon="-2.38082">
        <ele>-2.2000000476837</ele>
        <time>2019-11-24T11:15:00.000Z</time>
      </trkpt>
      <trkpt lat="47.28453" lon="-2.38106">
        <ele>-2.2000000476837</ele>
        <time>2019-11-24T11:15:07.000Z</time>
      </trkpt>
      <trkpt lat="47.28422" lon="-2.38113">
        <ele>-2.2000000476837</ele>
        <time>2019-11-24T11:15:12.000Z</time>
      </trkpt>
      <trkpt lat="47.28416" lon="-2.38112">
        <ele>-2.2000000476837</ele>
        <time>2019-11-24T11:15:13.000Z</time>
      </trkpt>
      <trkpt lat="47.28398" lon="-2.38108">
        <ele>-2.2000000476837</ele>
        <time>2019-11-24T11:15:16.000Z</time>
      </trkpt>
      <trkpt lat="47.2838" lon="-2.381">
        <ele>-2.2000000476837</ele>
        <time>2019-11-24T11:15:19.000Z</time>
      </trkpt>
      <trkpt lat="47.28358" lon="-2.38086">
        <ele>-2.2000000476837</ele>
        <time>2019-11-24T11:15:23.000Z</time>
      </trkpt>
      <trkpt lat="47.28326" lon="-2.38056">
        <ele>-2.2000000476837</ele>
        <time>2019-11-24T11:15:29.000Z</time>
      </trkpt>
      <trkpt lat="47.28295" lon="-2.38027">
        <ele>-2.2000000476837</ele>
        <time>2019-11-24T11:15:35.000Z</time>
      </trkpt>
      <trkpt lat="47.28262" lon="-2.38009">
        <ele>-2.2000000476837</ele>
        <time>2019-11-24T11:15:41.000Z</time>
      </trkpt>
      <trkpt lat="47.28256" lon="-2.38008">
        <ele>-2.2000000476837</ele>
        <time>2019-11-24T11:15:42.000Z</time>
      </trkpt>
      <trkpt lat="47.28238" lon="-2.38013">
        <ele>-2.2000000476837</ele>
        <time>2019-11-24T11:15:45.000Z</time>
      </trkpt>
      <trkpt lat="47.28232" lon="-2.38014">
        <ele>-2.2000000476837</ele>
        <time>2019-11-24T11:15:46.000Z</time>
      </trkpt>
      <trkpt lat="47.28204" lon="-2.38021">
        <ele>-2.2000000476837</ele>
        <time>2019-11-24T11:15:51.000Z</time>
      </trkpt>
      <trkpt lat="47.28173" lon="-2.38033">
        <ele>-2.2000000476837</ele>
        <time>2019-11-24T11:15:57.000Z</time>
      </trkpt>
      <trkpt lat="47.28168" lon="-2.38031">
        <ele>-2.2000000476837</ele>
        <time>2019-11-24T11:15:58.000Z</time>
      </trkpt>
      <trkpt lat="47.28165" lon="-2.38026">
        <ele>-1.7999999523163</ele>
        <time>2019-11-24T11:15:59.000Z</time>
      </trkpt>
      <trkpt lat="47.28162" lon="-2.3802">
        <ele>-1.3999999761581</ele>
        <time>2019-11-24T11:16:00.000Z</time>
      </trkpt>
      <trkpt lat="47.2816" lon="-2.38013">
        <ele>-0.80000001192093</ele>
        <time>2019-11-24T11:16:01.000Z</time>
      </trkpt>
      <trkpt lat="47.28159" lon="-2.38005">
        <ele>-0.40000000596046</ele>
        <time>2019-11-24T11:16:02.000Z</time>
      </trkpt>
      <trkpt lat="47.28158" lon="-2.37997">
        <ele>7</ele>
        <time>2019-11-24T11:16:03.000Z</time>
      </trkpt>
      <trkpt lat="47.28157" lon="-2.3799">
        <ele>7.1</ele>
        <time>2019-11-24T11:16:04.000Z</time>
      </trkpt>
      <trkpt lat="47.28155" lon="-2.3797">
        <ele>7.4</ele>
        <time>2019-11-24T11:16:07.000Z</time>
      </trkpt>
      <trkpt lat="47.28152" lon="-2.3796">
        <ele>7.5</ele>
        <time>2019-11-24T11:16:09.000Z</time>
      </trkpt>
      <trkpt lat="47.28142" lon="-2.37956">
        <ele>7.9</ele>
        <time>2019-11-24T11:16:12.000Z</time>
      </trkpt>
      <trkpt lat="47.28138" lon="-2.37952">
        <ele>8</ele>
        <time>2019-11-24T11:16:13.000Z</time>
      </trkpt>
      <trkpt lat="47.28131" lon="-2.37942">
        <ele>7.4</ele>
        <time>2019-11-24T11:16:15.000Z</time>
      </trkpt>
      <trkpt lat="47.28117" lon="-2.37918">
        <ele>7</ele>
        <time>2019-11-24T11:16:19.000Z</time>
      </trkpt>
      <trkpt lat="47.28109" lon="-2.37907">
        <ele>6.9</ele>
        <time>2019-11-24T11:16:21.000Z</time>
      </trkpt>
      <trkpt lat="47.28084" lon="-2.37869">
        <ele>7</ele>
        <time>2019-11-24T11:16:27.000Z</time>
      </trkpt>
      <trkpt lat="47.28052" lon="-2.37818">
        <ele>6.8</ele>
        <time>2019-11-24T11:16:35.000Z</time>
      </trkpt>
      <trkpt lat="47.28028" lon="-2.37782">
        <ele>6.9</ele>
        <time>2019-11-24T11:16:41.000Z</time>
      </trkpt>
      <trkpt lat="47.28019" lon="-2.37771">
        <ele>7.3</ele>
        <time>2019-11-24T11:16:45.000Z</time>
      </trkpt>
      <trkpt lat="47.28017" lon="-2.37771">
        <ele>7.4</ele>
        <time>2019-11-24T11:16:46.000Z</time>
      </trkpt>
      <trkpt lat="47.28013" lon="-2.37762">
        <ele>7.5</ele>
        <time>2019-11-24T11:16:49.000Z</time>
      </trkpt>
      <trkpt lat="47.28" lon="-2.37738">
        <ele>7.6</ele>
        <time>2019-11-24T11:16:54.000Z</time>
      </trkpt>
      <trkpt lat="47.27976" lon="-2.37703">
        <ele>7.8</ele>
        <time>2019-11-24T11:17:01.000Z</time>
      </trkpt>
      <trkpt lat="47.2796" lon="-2.37697">
        <ele>8</ele>
        <time>2019-11-24T11:17:05.000Z</time>
      </trkpt>
      <trkpt lat="47.27955" lon="-2.37699">
        <ele>7.9</ele>
        <time>2019-11-24T11:17:08.000Z</time>
      </trkpt>
      <trkpt lat="47.27954" lon="-2.37696">
        <ele>8</ele>
        <time>2019-11-24T11:17:10.000Z</time>
      </trkpt>
      <trkpt lat="47.27953" lon="-2.37688">
        <ele>8</ele>
        <time>2019-11-24T11:17:13.000Z</time>
      </trkpt>
      <trkpt lat="47.27947" lon="-2.37669">
        <ele>8</ele>
        <time>2019-11-24T11:17:18.000Z</time>
      </trkpt>
      <trkpt lat="47.27934" lon="-2.37654">
        <ele>6.8</ele>
        <time>2019-11-24T11:17:23.000Z</time>
      </trkpt>
      <trkpt lat="47.27931" lon="-2.37649">
        <ele>6.5</ele>
        <time>2019-11-24T11:17:24.000Z</time>
      </trkpt>
      <trkpt lat="47.27927" lon="-2.37634">
        <ele>6.4</ele>
        <time>2019-11-24T11:17:26.000Z</time>
      </trkpt>
      <trkpt lat="47.27913" lon="-2.37565">
        <ele>7.2</ele>
        <time>2019-11-24T11:17:34.000Z</time>
      </trkpt>
      <trkpt lat="47.27899" lon="-2.37503">
        <ele>6.7</ele>
        <time>2019-11-24T11:17:41.000Z</time>
      </trkpt>
      <trkpt lat="47.27885" lon="-2.37446">
        <ele>7.6</ele>
        <time>2019-11-24T11:17:47.000Z</time>
      </trkpt>
      <trkpt lat="47.27867" lon="-2.37373">
        <ele>7.5</ele>
        <time>2019-11-24T11:17:55.000Z</time>
      </trkpt>
      <trkpt lat="47.2785" lon="-2.3731">
        <ele>6.8</ele>
        <time>2019-11-24T11:18:02.000Z</time>
      </trkpt>
      <trkpt lat="47.27831" lon="-2.37238">
        <ele>7.7</ele>
        <time>2019-11-24T11:18:10.000Z</time>
      </trkpt>
      <trkpt lat="47.27823" lon="-2.37203">
        <ele>7.1</ele>
        <time>2019-11-24T11:18:14.000Z</time>
      </trkpt>
      <trkpt lat="47.2782" lon="-2.37194">
        <ele>7.1</ele>
        <time>2019-11-24T11:18:15.000Z</time>
      </trkpt>
      <trkpt lat="47.27819" lon="-2.37184">
        <ele>7.1</ele>
        <time>2019-11-24T11:18:16.000Z</time>
      </trkpt>
      <trkpt lat="47.27811" lon="-2.37157">
        <ele>7.5</ele>
        <time>2019-11-24T11:18:19.000Z</time>
      </trkpt>
      <trkpt lat="47.27808" lon="-2.37148">
        <ele>7.7</ele>
        <time>2019-11-24T11:18:20.000Z</time>
      </trkpt>
      <trkpt lat="47.27795" lon="-2.37098">
        <ele>6.9</ele>
        <time>2019-11-24T11:18:25.000Z</time>
      </trkpt>
      <trkpt lat="47.27778" lon="-2.37038">
        <ele>7.6</ele>
        <time>2019-11-24T11:18:31.000Z</time>
      </trkpt>
      <trkpt lat="47.27758" lon="-2.36967">
        <ele>6.8</ele>
        <time>2019-11-24T11:18:38.000Z</time>
      </trkpt>
      <trkpt lat="47.27738" lon="-2.369">
        <ele>7</ele>
        <time>2019-11-24T11:18:45.000Z</time>
      </trkpt>
      <trkpt lat="47.2772" lon="-2.36842">
        <ele>7.5</ele>
        <time>2019-11-24T11:18:51.000Z</time>
      </trkpt>
      <trkpt lat="47.27697" lon="-2.36766">
        <ele>7.4</ele>
        <time>2019-11-24T11:18:59.000Z</time>
      </trkpt>
      <trkpt lat="47.27672" lon="-2.36692">
        <ele>7.3</ele>
        <time>2019-11-24T11:19:07.000Z</time>
      </trkpt>
      <trkpt lat="47.27647" lon="-2.36621">
        <ele>6.6</ele>
        <time>2019-11-24T11:19:15.000Z</time>
      </trkpt>
      <trkpt lat="47.27621" lon="-2.36548">
        <ele>6.4</ele>
        <time>2019-11-24T11:19:23.000Z</time>
      </trkpt>
      <trkpt lat="47.27595" lon="-2.36477">
        <ele>6.3</ele>
        <time>2019-11-24T11:19:31.000Z</time>
      </trkpt>
      <trkpt lat="47.27573" lon="-2.36411">
        <ele>7</ele>
        <time>2019-11-24T11:19:38.000Z</time>
      </trkpt>
      <trkpt lat="47.27545" lon="-2.3634">
        <ele>6.9</ele>
        <time>2019-11-24T11:19:46.000Z</time>
      </trkpt>
      <trkpt lat="47.27519" lon="-2.36269">
        <ele>7</ele>
        <time>2019-11-24T11:19:54.000Z</time>
      </trkpt>
      <trkpt lat="47.27499" lon="-2.36217">
        <ele>7.9</ele>
        <time>2019-11-24T11:20:00.000Z</time>
      </trkpt>
      <trkpt lat="47.27473" lon="-2.36146">
        <ele>7.5</ele>
        <time>2019-11-24T11:20:08.000Z</time>
      </trkpt>
      <trkpt lat="47.2746" lon="-2.36104">
        <ele>7.1</ele>
        <time>2019-11-24T11:20:13.000Z</time>
      </trkpt>
      <trkpt lat="47.27446" lon="-2.36074">
        <ele>8</ele>
        <time>2019-11-24T11:20:17.000Z</time>
      </trkpt>
      <trkpt lat="47.27444" lon="-2.36066">
        <ele>7.9</ele>
        <time>2019-11-24T11:20:18.000Z</time>
      </trkpt>
      <trkpt lat="47.27427" lon="-2.36027">
        <ele>6.8</ele>
        <time>2019-11-24T11:20:23.000Z</time>
      </trkpt>
      <trkpt lat="47.27405" lon="-2.35975">
        <ele>6.8</ele>
        <time>2019-11-24T11:20:29.000Z</time>
      </trkpt>
      <trkpt lat="47.27383" lon="-2.3592">
        <ele>6.6</ele>
        <time>2019-11-24T11:20:35.000Z</time>
      </trkpt>
      <trkpt lat="47.27353" lon="-2.35846">
        <ele>6.4</ele>
        <time>2019-11-24T11:20:43.000Z</time>
      </trkpt>
      <trkpt lat="47.27328" lon="-2.35782">
        <ele>5.8</ele>
        <time>2019-11-24T11:20:50.000Z</time>
      </trkpt>
      <trkpt lat="47.27319" lon="-2.35754">
        <ele>5.9</ele>
        <time>2019-11-24T11:20:53.000Z</time>
      </trkpt>
      <trkpt lat="47.27314" lon="-2.35746">
        <ele>6</ele>
        <time>2019-11-24T11:20:54.000Z</time>
      </trkpt>
      <trkpt lat="47.27306" lon="-2.35731">
        <ele>6</ele>
        <time>2019-11-24T11:20:56.000Z</time>
      </trkpt>
      <trkpt lat="47.27302" lon="-2.35713">
        <ele>5.9</ele>
        <time>2019-11-24T11:20:58.000Z</time>
      </trkpt>
      <trkpt lat="47.2729" lon="-2.35687">
        <ele>5.6</ele>
        <time>2019-11-24T11:21:01.000Z</time>
      </trkpt>
      <trkpt lat="47.27285" lon="-2.35678">
        <ele>5.7</ele>
        <time>2019-11-24T11:21:02.000Z</time>
      </trkpt>
      <trkpt lat="47.27277" lon="-2.3566">
        <ele>6.2</ele>
        <time>2019-11-24T11:21:04.000Z</time>
      </trkpt>
      <trkpt lat="47.27261" lon="-2.35625">
        <ele>6.6</ele>
        <time>2019-11-24T11:21:08.000Z</time>
      </trkpt>
      <trkpt lat="47.27234" lon="-2.35563">
        <ele>6.6</ele>
        <time>2019-11-24T11:21:15.000Z</time>
      </trkpt>
      <trkpt lat="47.27202" lon="-2.35496">
        <ele>7.1</ele>
        <time>2019-11-24T11:21:23.000Z</time>
      </trkpt>
      <trkpt lat="47.27169" lon="-2.35429">
        <ele>7.5</ele>
        <time>2019-11-24T11:21:31.000Z</time>
      </trkpt>
      <trkpt lat="47.27133" lon="-2.35364">
        <ele>6.6</ele>
        <time>2019-11-24T11:21:39.000Z</time>
      </trkpt>
      <trkpt lat="47.27128" lon="-2.35357">
        <ele>6.5</ele>
        <time>2019-11-24T11:21:40.000Z</time>
      </trkpt>
      <trkpt lat="47.27096" lon="-2.35303">
        <ele>6.5</ele>
        <time>2019-11-24T11:21:47.000Z</time>
      </trkpt>
      <trkpt lat="47.27057" lon="-2.35245">
        <ele>7</ele>
        <time>2019-11-24T11:21:55.000Z</time>
      </trkpt>
      <trkpt lat="47.27019" lon="-2.35184">
        <ele>6.5</ele>
        <time>2019-11-24T11:22:03.000Z</time>
      </trkpt>
      <trkpt lat="47.27014" lon="-2.35177">
        <ele>6.3</ele>
        <time>2019-11-24T11:22:04.000Z</time>
      </trkpt>
      <trkpt lat="47.26975" lon="-2.35117">
        <ele>6.8</ele>
        <time>2019-11-24T11:22:12.000Z</time>
      </trkpt>
      <trkpt lat="47.26971" lon="-2.3511">
        <ele>6.9</ele>
        <time>2019-11-24T11:22:13.000Z</time>
      </trkpt>
      <trkpt lat="47.26957" lon="-2.35091">
        <ele>6.3</ele>
        <time>2019-11-24T11:22:17.000Z</time>
      </trkpt>
      <trkpt lat="47.26947" lon="-2.35073">
        <ele>6.5</ele>
        <time>2019-11-24T11:22:22.000Z</time>
      </trkpt>
      <trkpt lat="47.26943" lon="-2.35069">
        <ele>6.4</ele>
        <time>2019-11-24T11:22:23.000Z</time>
      </trkpt>
      <trkpt lat="47.26929" lon="-2.35046">
        <ele>6.4</ele>
        <time>2019-11-24T11:22:27.000Z</time>
      </trkpt>
      <trkpt lat="47.26899" lon="-2.35001">
        <ele>6.4</ele>
        <time>2019-11-24T11:22:34.000Z</time>
      </trkpt>
      <trkpt lat="47.26859" lon="-2.34938">
        <ele>6.8</ele>
        <time>2019-11-24T11:22:43.000Z</time>
      </trkpt>
      <trkpt lat="47.2682" lon="-2.34883">
        <ele>6.2</ele>
        <time>2019-11-24T11:22:51.000Z</time>
      </trkpt>
      <trkpt lat="47.26782" lon="-2.34828">
        <ele>6.3</ele>
        <time>2019-11-24T11:22:59.000Z</time>
      </trkpt>
      <trkpt lat="47.26762" lon="-2.34802">
        <ele>6</ele>
        <time>2019-11-24T11:23:03.000Z</time>
      </trkpt>
      <trkpt lat="47.26753" lon="-2.34788">
        <ele>6.3</ele>
        <time>2019-11-24T11:23:05.000Z</time>
      </trkpt>
      <trkpt lat="47.26747" lon="-2.34782">
        <ele>6.5</ele>
        <time>2019-11-24T11:23:06.000Z</time>
      </trkpt>
      <trkpt lat="47.26726" lon="-2.34757">
        <ele>5.9</ele>
        <time>2019-11-24T11:23:10.000Z</time>
      </trkpt>
      <trkpt lat="47.26685" lon="-2.34707">
        <ele>6.2</ele>
        <time>2019-11-24T11:23:18.000Z</time>
      </trkpt>
      <trkpt lat="47.26645" lon="-2.34657">
        <ele>6.3</ele>
        <time>2019-11-24T11:23:26.000Z</time>
      </trkpt>
      <trkpt lat="47.26609" lon="-2.34614">
        <ele>6.7</ele>
        <time>2019-11-24T11:23:33.000Z</time>
      </trkpt>
      <trkpt lat="47.26577" lon="-2.34577">
        <ele>6.7</ele>
        <time>2019-11-24T11:23:39.000Z</time>
      </trkpt>
      <trkpt lat="47.26533" lon="-2.34531">
        <ele>6.8</ele>
        <time>2019-11-24T11:23:47.000Z</time>
      </trkpt>
      <trkpt lat="47.26491" lon="-2.34499">
        <ele>6.3</ele>
        <time>2019-11-24T11:23:54.000Z</time>
      </trkpt>
      <trkpt lat="47.26441" lon="-2.34463">
        <ele>5.9</ele>
        <time>2019-11-24T11:24:02.000Z</time>
      </trkpt>
      <trkpt lat="47.26422" lon="-2.34449">
        <ele>6.5</ele>
        <time>2019-11-24T11:24:05.000Z</time>
      </trkpt>
      <trkpt lat="47.26375" lon="-2.34411">
        <ele>6</ele>
        <time>2019-11-24T11:24:13.000Z</time>
      </trkpt>
      <trkpt lat="47.2637" lon="-2.34406">
        <ele>5.8</ele>
        <time>2019-11-24T11:24:14.000Z</time>
      </trkpt>
      <trkpt lat="47.26339" lon="-2.34379">
        <ele>6.9</ele>
        <time>2019-11-24T11:24:20.000Z</time>
      </trkpt>
      <trkpt lat="47.26333" lon="-2.34378">
        <ele>7</ele>
        <time>2019-11-24T11:24:21.000Z</time>
      </trkpt>
      <trkpt lat="47.26322" lon="-2.34373">
        <ele>6.4</ele>
        <time>2019-11-24T11:24:23.000Z</time>
      </trkpt>
      <trkpt lat="47.26314" lon="-2.34358">
        <ele>6.3</ele>
        <time>2019-11-24T11:24:25.000Z</time>
      </trkpt>
      <trkpt lat="47.26304" lon="-2.34345">
        <ele>6</ele>
        <time>2019-11-24T11:24:27.000Z</time>
      </trkpt>
      <trkpt lat="47.26292" lon="-2.34333">
        <ele>6</ele>
        <time>2019-11-24T11:24:29.000Z</time>
      </trkpt>
      <trkpt lat="47.26245" lon="-2.34283">
        <ele>5.9</ele>
        <time>2019-11-24T11:24:37.000Z</time>
      </trkpt>
      <trkpt lat="47.26229" lon="-2.34262">
        <ele>5.9</ele>
        <time>2019-11-24T11:24:40.000Z</time>
      </trkpt>
      <trkpt lat="47.26218" lon="-2.34252">
        <ele>5.9</ele>
        <time>2019-11-24T11:24:42.000Z</time>
      </trkpt>
      <trkpt lat="47.26172" lon="-2.34207">
        <ele>6.2</ele>
        <time>2019-11-24T11:24:50.000Z</time>
      </trkpt>
      <trkpt lat="47.26166" lon="-2.34202">
        <ele>6</ele>
        <time>2019-11-24T11:24:51.000Z</time>
      </trkpt>
      <trkpt lat="47.26142" lon="-2.34184">
        <ele>6.4</ele>
        <time>2019-11-24T11:24:55.000Z</time>
      </trkpt>
      <trkpt lat="47.26135" lon="-2.3418">
        <ele>6.4</ele>
        <time>2019-11-24T11:24:56.000Z</time>
      </trkpt>
      <trkpt lat="47.26113" lon="-2.34159">
        <ele>6.1</ele>
        <time>2019-11-24T11:25:00.000Z</time>
      </trkpt>
      <trkpt lat="47.261" lon="-2.34152">
        <ele>5.8</ele>
        <time>2019-11-24T11:25:02.000Z</time>
      </trkpt>
      <trkpt lat="47.26086" lon="-2.34145">
        <ele>5.8</ele>
        <time>2019-11-24T11:25:04.000Z</time>
      </trkpt>
      <trkpt lat="47.26034" lon="-2.34119">
        <ele>5.8</ele>
        <time>2019-11-24T11:25:12.000Z</time>
      </trkpt>
      <trkpt lat="47.2598" lon="-2.34094">
        <ele>5</ele>
        <time>2019-11-24T11:25:20.000Z</time>
      </trkpt>
      <trkpt lat="47.25934" lon="-2.34074">
        <ele>5</ele>
        <time>2019-11-24T11:25:27.000Z</time>
      </trkpt>
      <trkpt lat="47.25927" lon="-2.34072">
        <ele>5</ele>
        <time>2019-11-24T11:25:28.000Z</time>
      </trkpt>
      <trkpt lat="47.25914" lon="-2.3407">
        <ele>5</ele>
        <time>2019-11-24T11:25:30.000Z</time>
      </trkpt>
      <trkpt lat="47.25908" lon="-2.34066">
        <ele>5</ele>
        <time>2019-11-24T11:25:31.000Z</time>
      </trkpt>
      <trkpt lat="47.25899" lon="-2.34041">
        <ele>5</ele>
        <time>2019-11-24T11:25:34.000Z</time>
      </trkpt>
      <trkpt lat="47.25905" lon="-2.34015">
        <ele>-0.40000000596046</ele>
        <time>2019-11-24T11:25:37.000Z</time>
      </trkpt>
      <trkpt lat="47.25907" lon="-2.34006">
        <ele>-0.80000001192093</ele>
        <time>2019-11-24T11:25:38.000Z</time>
      </trkpt>
      <trkpt lat="47.25909" lon="-2.33995">
        <ele>-1.2000000476837</ele>
        <time>2019-11-24T11:25:39.000Z</time>
      </trkpt>
      <trkpt lat="47.25912" lon="-2.33987">
        <ele>-1.6000000238419</ele>
        <time>2019-11-24T11:25:40.000Z</time>
      </trkpt>
      <trkpt lat="47.25915" lon="-2.33978">
        <ele>-2</ele>
        <time>2019-11-24T11:25:41.000Z</time>
      </trkpt>
      <trkpt lat="47.25918" lon="-2.3397">
        <ele>-2</ele>
        <time>2019-11-24T11:25:42.000Z</time>
      </trkpt>
      <trkpt lat="47.25933" lon="-2.33929">
        <ele>-2</ele>
        <time>2019-11-24T11:25:47.000Z</time>
      </trkpt>
      <trkpt lat="47.25929" lon="-2.33911">
        <ele>-2</ele>
        <time>2019-11-24T11:25:49.000Z</time>
      </trkpt>
      <trkpt lat="47.25913" lon="-2.33893">
        <ele>-2</ele>
        <time>2019-11-24T11:25:52.000Z</time>
      </trkpt>
      <trkpt lat="47.25902" lon="-2.33886">
        <ele>-2</ele>
        <time>2019-11-24T11:25:54.000Z</time>
      </trkpt>
      <trkpt lat="47.25878" lon="-2.33873">
        <ele>-2</ele>
        <time>2019-11-24T11:25:58.000Z</time>
      </trkpt>
      <trkpt lat="47.25865" lon="-2.3387">
        <ele>-2</ele>
        <time>2019-11-24T11:26:00.000Z</time>
      </trkpt>
      <trkpt lat="47.25847" lon="-2.33862">
        <ele>-2</ele>
        <time>2019-11-24T11:26:03.000Z</time>
      </trkpt>
      <trkpt lat="47.25803" lon="-2.33844">
        <ele>-2</ele>
        <time>2019-11-24T11:26:10.000Z</time>
      </trkpt>
      <trkpt lat="47.25767" lon="-2.33826">
        <ele>-2</ele>
        <time>2019-11-24T11:26:16.000Z</time>
      </trkpt>
      <trkpt lat="47.25761" lon="-2.33824">
        <ele>-2</ele>
        <time>2019-11-24T11:26:17.000Z</time>
      </trkpt>
      <trkpt lat="47.25725" lon="-2.33809">
        <ele>-2</ele>
        <time>2019-11-24T11:26:23.000Z</time>
      </trkpt>
      <trkpt lat="47.25688" lon="-2.33796">
        <ele>-2</ele>
        <time>2019-11-24T11:26:29.000Z</time>
      </trkpt>
      <trkpt lat="47.25655" lon="-2.33782">
        <ele>-2</ele>
        <time>2019-11-24T11:26:35.000Z</time>
      </trkpt>
      <trkpt lat="47.2565" lon="-2.3378">
        <ele>-1.6000000238419</ele>
        <time>2019-11-24T11:26:36.000Z</time>
      </trkpt>
      <trkpt lat="47.25645" lon="-2.33778">
        <ele>-1.2000000476837</ele>
        <time>2019-11-24T11:26:37.000Z</time>
      </trkpt>
      <trkpt lat="47.2564" lon="-2.33776">
        <ele>-0.80000001192093</ele>
        <time>2019-11-24T11:26:38.000Z</time>
      </trkpt>
      <trkpt lat="47.25635" lon="-2.33774">
        <ele>-0.40000000596046</ele>
        <time>2019-11-24T11:26:39.000Z</time>
      </trkpt>
      <trkpt lat="47.2563" lon="-2.33773">
        <ele>8.3</ele>
        <time>2019-11-24T11:26:40.000Z</time>
      </trkpt>
      <trkpt lat="47.25625" lon="-2.33771">
        <ele>8.4</ele>
        <time>2019-11-24T11:26:41.000Z</time>
      </trkpt>
      <trkpt lat="47.2559" lon="-2.33762">
        <ele>8.4</ele>
        <time>2019-11-24T11:26:48.000Z</time>
      </trkpt>
      <trkpt lat="47.25538" lon="-2.33761">
        <ele>7.6</ele>
        <time>2019-11-24T11:26:57.000Z</time>
      </trkpt>
      <trkpt lat="47.25483" lon="-2.33757">
        <ele>7.1</ele>
        <time>2019-11-24T11:27:06.000Z</time>
      </trkpt>
      <trkpt lat="47.25457" lon="-2.33741">
        <ele>7.2</ele>
        <time>2019-11-24T11:27:11.000Z</time>
      </trkpt>
      <trkpt lat="47.25451" lon="-2.33719">
        <ele>7.2</ele>
        <time>2019-11-24T11:27:14.000Z</time>
      </trkpt>
      <trkpt lat="47.25451" lon="-2.33711">
        <ele>7.1</ele>
        <time>2019-11-24T11:27:15.000Z</time>
      </trkpt>
      <trkpt lat="47.25447" lon="-2.33671">
        <ele>7</ele>
        <time>2019-11-24T11:27:20.000Z</time>
      </trkpt>
      <trkpt lat="47.25445" lon="-2.33655">
        <ele>7</ele>
        <time>2019-11-24T11:27:22.000Z</time>
      </trkpt>
      <trkpt lat="47.25441" lon="-2.33631">
        <ele>7</ele>
        <time>2019-11-24T11:27:25.000Z</time>
      </trkpt>
      <trkpt lat="47.2544" lon="-2.33604">
        <ele>7</ele>
        <time>2019-11-24T11:27:29.000Z</time>
      </trkpt>
      <trkpt lat="47.2544" lon="-2.33598">
        <ele>7.1</ele>
        <time>2019-11-24T11:27:30.000Z</time>
      </trkpt>
      <trkpt lat="47.25441" lon="-2.33587">
        <ele>7.1</ele>
        <time>2019-11-24T11:27:32.000Z</time>
      </trkpt>
      <trkpt lat="47.25445" lon="-2.33581">
        <ele>7</ele>
        <time>2019-11-24T11:27:34.000Z</time>
      </trkpt>
      <trkpt lat="47.25451" lon="-2.33578">
        <ele>7</ele>
        <time>2019-11-24T11:27:36.000Z</time>
      </trkpt>
      <trkpt lat="47.25455" lon="-2.33576">
        <ele>7.1</ele>
        <time>2019-11-24T11:27:37.000Z</time>
      </trkpt>
      <trkpt lat="47.25457" lon="-2.33573">
        <ele>7.2</ele>
        <time>2019-11-24T11:27:38.000Z</time>
      </trkpt>
      <trkpt lat="47.25456" lon="-2.33557">
        <ele>7.4</ele>
        <time>2019-11-24T11:27:41.000Z</time>
      </trkpt>
      <trkpt lat="47.25454" lon="-2.33546">
        <ele>7.6</ele>
        <time>2019-11-24T11:27:43.000Z</time>
      </trkpt>
      <trkpt lat="47.25449" lon="-2.33523">
        <ele>8</ele>
        <time>2019-11-24T11:27:47.000Z</time>
      </trkpt>
      <trkpt lat="47.25442" lon="-2.33489">
        <ele>8</ele>
        <time>2019-11-24T11:27:52.000Z</time>
      </trkpt>
      <trkpt lat="47.2544" lon="-2.33483">
        <ele>8</ele>
        <time>2019-11-24T11:27:53.000Z</time>
      </trkpt>
      <trkpt lat="47.25435" lon="-2.33469">
        <ele>8</ele>
        <time>2019-11-24T11:27:55.000Z</time>
      </trkpt>
      <trkpt lat="47.25433" lon="-2.33446">
        <ele>8</ele>
        <time>2019-11-24T11:27:58.000Z</time>
      </trkpt>
      <trkpt lat="47.25432" lon="-2.33385">
        <ele>7.5</ele>
        <time>2019-11-24T11:28:06.000Z</time>
      </trkpt>
      <trkpt lat="47.25432" lon="-2.3337">
        <ele>7.8</ele>
        <time>2019-11-24T11:28:08.000Z</time>
      </trkpt>
      <trkpt lat="47.25434" lon="-2.33348">
        <ele>8</ele>
        <time>2019-11-24T11:28:11.000Z</time>
      </trkpt>
      <trkpt lat="47.25435" lon="-2.33341">
        <ele>8</ele>
        <time>2019-11-24T11:28:12.000Z</time>
      </trkpt>
      <trkpt lat="47.25437" lon="-2.33334">
        <ele>8</ele>
        <time>2019-11-24T11:28:13.000Z</time>
      </trkpt>
      <trkpt lat="47.25447" lon="-2.33308">
        <ele>8</ele>
        <time>2019-11-24T11:28:17.000Z</time>
      </trkpt>
      <trkpt lat="47.2545" lon="-2.33294">
        <ele>7.9</ele>
        <time>2019-11-24T11:28:19.000Z</time>
      </trkpt>
      <trkpt lat="47.25449" lon="-2.33279">
        <ele>7.9</ele>
        <time>2019-11-24T11:28:21.000Z</time>
      </trkpt>
      <trkpt lat="47.25441" lon="-2.33258">
        <ele>8</ele>
        <time>2019-11-24T11:28:24.000Z</time>
      </trkpt>
      <trkpt lat="47.25437" lon="-2.33251">
        <ele>8</ele>
        <time>2019-11-24T11:28:25.000Z</time>
      </trkpt>
      <trkpt lat="47.25407" lon="-2.3318">
        <ele>7.7</ele>
        <time>2019-11-24T11:28:35.000Z</time>
      </trkpt>
      <trkpt lat="47.25395" lon="-2.33154">
        <ele>7.9</ele>
        <time>2019-11-24T11:28:39.000Z</time>
      </trkpt>
      <trkpt lat="47.25389" lon="-2.33145">
        <ele>8</ele>
        <time>2019-11-24T11:28:41.000Z</time>
      </trkpt>
      <trkpt lat="47.25378" lon="-2.33123">
        <ele>8</ele>
        <time>2019-11-24T11:28:46.000Z</time>
      </trkpt>
      <trkpt lat="47.25368" lon="-2.33093">
        <ele>8</ele>
        <time>2019-11-24T11:28:52.000Z</time>
      </trkpt>
      <trkpt lat="47.25363" lon="-2.33081">
        <ele>8</ele>
        <time>2019-11-24T11:28:56.000Z</time>
      </trkpt>
      <trkpt lat="47.25362" lon="-2.33079">
        <ele>8</ele>
        <time>2019-11-24T11:28:58.000Z</time>
      </trkpt>
      <trkpt lat="47.25362" lon="-2.33079">
        <ele>2.2000000476837</ele>
        <time>2019-11-24T11:38:39.000Z</time>
      </trkpt>
      <trkpt lat="47.25362" lon="-2.33076">
        <ele>2.2000000476837</ele>
        <time>2019-11-24T11:38:40.000Z</time>
      </trkpt>
      <trkpt lat="47.25355" lon="-2.33062">
        <ele>2.2000000476837</ele>
        <time>2019-11-24T11:38:45.000Z</time>
      </trkpt>
      <trkpt lat="47.25346" lon="-2.33037">
        <ele>2.2000000476837</ele>
        <time>2019-11-24T11:38:50.000Z</time>
      </trkpt>
      <trkpt lat="47.25334" lon="-2.33006">
        <ele>2.2000000476837</ele>
        <time>2019-11-24T11:38:55.000Z</time>
      </trkpt>
      <trkpt lat="47.25332" lon="-2.33001">
        <ele>2.2000000476837</ele>
        <time>2019-11-24T11:38:56.000Z</time>
      </trkpt>
      <trkpt lat="47.25311" lon="-2.3295">
        <ele>2.2000000476837</ele>
        <time>2019-11-24T11:39:04.000Z</time>
      </trkpt>
      <trkpt lat="47.2531" lon="-2.32943">
        <ele>2.2000000476837</ele>
        <time>2019-11-24T11:39:05.000Z</time>
      </trkpt>
      <trkpt lat="47.2531" lon="-2.32928">
        <ele>2.2000000476837</ele>
        <time>2019-11-24T11:39:07.000Z</time>
      </trkpt>
      <trkpt lat="47.25323" lon="-2.32906">
        <ele>2.2000000476837</ele>
        <time>2019-11-24T11:39:11.000Z</time>
      </trkpt>
      <trkpt lat="47.25331" lon="-2.32897">
        <ele>2.2000000476837</ele>
        <time>2019-11-24T11:39:13.000Z</time>
      </trkpt>
      <trkpt lat="47.25341" lon="-2.3289">
        <ele>2.2000000476837</ele>
        <time>2019-11-24T11:39:15.000Z</time>
      </trkpt>
      <trkpt lat="47.25346" lon="-2.32886">
        <ele>2.5999999046326</ele>
        <time>2019-11-24T11:39:16.000Z</time>
      </trkpt>
      <trkpt lat="47.2535" lon="-2.32882">
        <ele>3</ele>
        <time>2019-11-24T11:39:17.000Z</time>
      </trkpt>
      <trkpt lat="47.25354" lon="-2.32878">
        <ele>3.4000000953674</ele>
        <time>2019-11-24T11:39:18.000Z</time>
      </trkpt>
      <trkpt lat="47.25359" lon="-2.32874">
        <ele>3.7999999523163</ele>
        <time>2019-11-24T11:39:19.000Z</time>
      </trkpt>
      <trkpt lat="47.25363" lon="-2.32868">
        <ele>4.1999998092651</ele>
        <time>2019-11-24T11:39:20.000Z</time>
      </trkpt>
      <trkpt lat="47.25375" lon="-2.32853">
        <ele>4.1999998092651</ele>
        <time>2019-11-24T11:39:23.000Z</time>
      </trkpt>
      <trkpt lat="47.25412" lon="-2.32807">
        <ele>4.1999998092651</ele>
        <time>2019-11-24T11:39:32.000Z</time>
      </trkpt>
      <trkpt lat="47.25423" lon="-2.32793">
        <ele>4.1999998092651</ele>
        <time>2019-11-24T11:39:35.000Z</time>
      </trkpt>
      <trkpt lat="47.25428" lon="-2.32782">
        <ele>4.1999998092651</ele>
        <time>2019-11-24T11:39:37.000Z</time>
      </trkpt>
      <trkpt lat="47.25433" lon="-2.32771">
        <ele>4.1999998092651</ele>
        <time>2019-11-24T11:39:39.000Z</time>
      </trkpt>
      <trkpt lat="47.25443" lon="-2.32757">
        <ele>4.1999998092651</ele>
        <time>2019-11-24T11:39:42.000Z</time>
      </trkpt>
      <trkpt lat="47.25468" lon="-2.32722">
        <ele>4.1999998092651</ele>
        <time>2019-11-24T11:39:49.000Z</time>
      </trkpt>
      <trkpt lat="47.25479" lon="-2.32708">
        <ele>4.5999999046326</ele>
        <time>2019-11-24T11:39:52.000Z</time>
      </trkpt>
      <trkpt lat="47.25482" lon="-2.32703">
        <ele>5</ele>
        <time>2019-11-24T11:39:53.000Z</time>
      </trkpt>
      <trkpt lat="47.25485" lon="-2.32698">
        <ele>5.4000000953674</ele>
        <time>2019-11-24T11:39:54.000Z</time>
      </trkpt>
      <trkpt lat="47.25487" lon="-2.32692">
        <ele>5.8000001907349</ele>
        <time>2019-11-24T11:39:55.000Z</time>
      </trkpt>
      <trkpt lat="47.25489" lon="-2.32685">
        <ele>6.1999998092651</ele>
        <time>2019-11-24T11:39:56.000Z</time>
      </trkpt>
      <trkpt lat="47.25489" lon="-2.32657">
        <ele>6.1999998092651</ele>
        <time>2019-11-24T11:40:00.000Z</time>
      </trkpt>
      <trkpt lat="47.25482" lon="-2.32629">
        <ele>6.1999998092651</ele>
        <time>2019-11-24T11:40:04.000Z</time>
      </trkpt>
      <trkpt lat="47.25481" lon="-2.32622">
        <ele>6.1999998092651</ele>
        <time>2019-11-24T11:40:05.000Z</time>
      </trkpt>
      <trkpt lat="47.25477" lon="-2.32594">
        <ele>6.1999998092651</ele>
        <time>2019-11-24T11:40:09.000Z</time>
      </trkpt>
      <trkpt lat="47.25479" lon="-2.32574">
        <ele>6.1999998092651</ele>
        <time>2019-11-24T11:40:12.000Z</time>
      </trkpt>
      <trkpt lat="47.25485" lon="-2.32562">
        <ele>6.1999998092651</ele>
        <time>2019-11-24T11:40:14.000Z</time>
      </trkpt>
      <trkpt lat="47.25488" lon="-2.32557">
        <ele>6.1999998092651</ele>
        <time>2019-11-24T11:40:15.000Z</time>
      </trkpt>
      <trkpt lat="47.25496" lon="-2.32547">
        <ele>6.1999998092651</ele>
        <time>2019-11-24T11:40:17.000Z</time>
      </trkpt>
      <trkpt lat="47.25501" lon="-2.32543">
        <ele>6.1999998092651</ele>
        <time>2019-11-24T11:40:18.000Z</time>
      </trkpt>
      <trkpt lat="47.25525" lon="-2.32517">
        <ele>6.1999998092651</ele>
        <time>2019-11-24T11:40:23.000Z</time>
      </trkpt>
      <trkpt lat="47.2556" lon="-2.32486">
        <ele>6.1999998092651</ele>
        <time>2019-11-24T11:40:29.000Z</time>
      </trkpt>
      <trkpt lat="47.25572" lon="-2.32475">
        <ele>5.8000001907349</ele>
        <time>2019-11-24T11:40:31.000Z</time>
      </trkpt>
      <trkpt lat="47.25578" lon="-2.32469">
        <ele>5.4000000953674</ele>
        <time>2019-11-24T11:40:32.000Z</time>
      </trkpt>
      <trkpt lat="47.25584" lon="-2.32463">
        <ele>5</ele>
        <time>2019-11-24T11:40:33.000Z</time>
      </trkpt>
      <trkpt lat="47.2559" lon="-2.32456">
        <ele>4.5999999046326</ele>
        <time>2019-11-24T11:40:34.000Z</time>
      </trkpt>
      <trkpt lat="47.25596" lon="-2.3245">
        <ele>4</ele>
        <time>2019-11-24T11:40:35.000Z</time>
      </trkpt>
      <trkpt lat="47.25603" lon="-2.32443">
        <ele>4</ele>
        <time>2019-11-24T11:40:36.000Z</time>
      </trkpt>
      <trkpt lat="47.25615" lon="-2.3243">
        <ele>3.5999999046326</ele>
        <time>2019-11-24T11:40:38.000Z</time>
      </trkpt>
      <trkpt lat="47.25621" lon="-2.32423">
        <ele>3.2000000476837</ele>
        <time>2019-11-24T11:40:39.000Z</time>
      </trkpt>
      <trkpt lat="47.25627" lon="-2.32417">
        <ele>2.7999999523163</ele>
        <time>2019-11-24T11:40:40.000Z</time>
      </trkpt>
      <trkpt lat="47.25634" lon="-2.32411">
        <ele>2.4000000953674</ele>
        <time>2019-11-24T11:40:41.000Z</time>
      </trkpt>
      <trkpt lat="47.2564" lon="-2.32406">
        <ele>2</ele>
        <time>2019-11-24T11:40:42.000Z</time>
      </trkpt>
      <trkpt lat="47.25647" lon="-2.32403">
        <ele>2</ele>
        <time>2019-11-24T11:40:43.000Z</time>
      </trkpt>
      <trkpt lat="47.25666" lon="-2.32404">
        <ele>2</ele>
        <time>2019-11-24T11:40:46.000Z</time>
      </trkpt>
      <trkpt lat="47.25682" lon="-2.32417">
        <ele>1.6000000238419</ele>
        <time>2019-11-24T11:40:49.000Z</time>
      </trkpt>
      <trkpt lat="47.25689" lon="-2.32418">
        <ele>1</ele>
        <time>2019-11-24T11:40:50.000Z</time>
      </trkpt>
      <trkpt lat="47.25696" lon="-2.32419">
        <ele>0.60000002384186</ele>
        <time>2019-11-24T11:40:51.000Z</time>
      </trkpt>
      <trkpt lat="47.25703" lon="-2.3242">
        <ele>0.20000000298023</ele>
        <time>2019-11-24T11:40:52.000Z</time>
      </trkpt>
      <trkpt lat="47.2571" lon="-2.3242">
        <ele>-0.20000000298023</ele>
        <time>2019-11-24T11:40:53.000Z</time>
      </trkpt>
      <trkpt lat="47.25749" lon="-2.32422">
        <ele>-0.20000000298023</ele>
        <time>2019-11-24T11:40:59.000Z</time>
      </trkpt>
      <trkpt lat="47.25758" lon="-2.32421">
        <ele>-0.20000000298023</ele>
        <time>2019-11-24T11:41:02.000Z</time>
      </trkpt>
      <trkpt lat="47.25765" lon="-2.32413">
        <ele>-0.20000000298023</ele>
        <time>2019-11-24T11:41:08.000Z</time>
      </trkpt>
      <trkpt lat="47.25776" lon="-2.32406">
        <ele>-0.20000000298023</ele>
        <time>2019-11-24T11:41:13.000Z</time>
      </trkpt>
      <trkpt lat="47.25787" lon="-2.32418">
        <ele>-0.20000000298023</ele>
        <time>2019-11-24T11:41:16.000Z</time>
      </trkpt>
      <trkpt lat="47.2579" lon="-2.32423">
        <ele>-0.20000000298023</ele>
        <time>2019-11-24T11:41:17.000Z</time>
      </trkpt>
      <trkpt lat="47.25793" lon="-2.3243">
        <ele>-0.20000000298023</ele>
        <time>2019-11-24T11:41:18.000Z</time>
      </trkpt>
      <trkpt lat="47.25804" lon="-2.32448">
        <ele>-0.20000000298023</ele>
        <time>2019-11-24T11:41:21.000Z</time>
      </trkpt>
      <trkpt lat="47.25822" lon="-2.3246">
        <ele>-0.20000000298023</ele>
        <time>2019-11-24T11:41:24.000Z</time>
      </trkpt>
      <trkpt lat="47.25828" lon="-2.32463">
        <ele>-0.20000000298023</ele>
        <time>2019-11-24T11:41:25.000Z</time>
      </trkpt>
      <trkpt lat="47.25845" lon="-2.32472">
        <ele>-0.20000000298023</ele>
        <time>2019-11-24T11:41:28.000Z</time>
      </trkpt>
      <trkpt lat="47.25863" lon="-2.32474">
        <ele>-0.20000000298023</ele>
        <time>2019-11-24T11:41:31.000Z</time>
      </trkpt>
      <trkpt lat="47.25898" lon="-2.32465">
        <ele>-0.20000000298023</ele>
        <time>2019-11-24T11:41:37.000Z</time>
      </trkpt>
      <trkpt lat="47.25913" lon="-2.32448">
        <ele>-0.20000000298023</ele>
        <time>2019-11-24T11:41:40.000Z</time>
      </trkpt>
      <trkpt lat="47.25926" lon="-2.32429">
        <ele>-0.20000000298023</ele>
        <time>2019-11-24T11:41:43.000Z</time>
      </trkpt>
      <trkpt lat="47.25941" lon="-2.32411">
        <ele>-0.20000000298023</ele>
        <time>2019-11-24T11:41:46.000Z</time>
      </trkpt>
      <trkpt lat="47.25966" lon="-2.32374">
        <ele>-0.20000000298023</ele>
        <time>2019-11-24T11:41:52.000Z</time>
      </trkpt>
      <trkpt lat="47.25999" lon="-2.32334">
        <ele>-0.20000000298023</ele>
        <time>2019-11-24T11:41:59.000Z</time>
      </trkpt>
      <trkpt lat="47.2603" lon="-2.32295">
        <ele>-0.20000000298023</ele>
        <time>2019-11-24T11:42:06.000Z</time>
      </trkpt>
      <trkpt lat="47.26035" lon="-2.3229">
        <ele>-0.20000000298023</ele>
        <time>2019-11-24T11:42:07.000Z</time>
      </trkpt>
      <trkpt lat="47.26062" lon="-2.32259">
        <ele>-0.20000000298023</ele>
        <time>2019-11-24T11:42:13.000Z</time>
      </trkpt>
      <trkpt lat="47.26092" lon="-2.32223">
        <ele>-0.20000000298023</ele>
        <time>2019-11-24T11:42:20.000Z</time>
      </trkpt>
      <trkpt lat="47.26106" lon="-2.32196">
        <ele>-0.20000000298023</ele>
        <time>2019-11-24T11:42:24.000Z</time>
      </trkpt>
      <trkpt lat="47.26108" lon="-2.32189">
        <ele>-0.20000000298023</ele>
        <time>2019-11-24T11:42:25.000Z</time>
      </trkpt>
      <trkpt lat="47.26122" lon="-2.32152">
        <ele>-0.20000000298023</ele>
        <time>2019-11-24T11:42:30.000Z</time>
      </trkpt>
      <trkpt lat="47.26125" lon="-2.32145">
        <ele>-0.20000000298023</ele>
        <time>2019-11-24T11:42:31.000Z</time>
      </trkpt>
      <trkpt lat="47.26133" lon="-2.32122">
        <ele>-0.20000000298023</ele>
        <time>2019-11-24T11:42:34.000Z</time>
      </trkpt>
      <trkpt lat="47.26137" lon="-2.32106">
        <ele>-0.20000000298023</ele>
        <time>2019-11-24T11:42:36.000Z</time>
      </trkpt>
      <trkpt lat="47.26147" lon="-2.32069">
        <ele>-0.20000000298023</ele>
        <time>2019-11-24T11:42:41.000Z</time>
      </trkpt>
      <trkpt lat="47.26157" lon="-2.32041">
        <ele>-0.20000000298023</ele>
        <time>2019-11-24T11:42:45.000Z</time>
      </trkpt>
      <trkpt lat="47.26166" lon="-2.32024">
        <ele>-0.20000000298023</ele>
        <time>2019-11-24T11:42:48.000Z</time>
      </trkpt>
      <trkpt lat="47.26178" lon="-2.3202">
        <ele>-0.20000000298023</ele>
        <time>2019-11-24T11:42:51.000Z</time>
      </trkpt>
      <trkpt lat="47.26188" lon="-2.32024">
        <ele>-0.20000000298023</ele>
        <time>2019-11-24T11:42:55.000Z</time>
      </trkpt>
      <trkpt lat="47.26192" lon="-2.32023">
        <ele>-0.60000002384186</ele>
        <time>2019-11-24T11:42:57.000Z</time>
      </trkpt>
      <trkpt lat="47.26194" lon="-2.32023">
        <ele>-1</ele>
        <time>2019-11-24T11:42:58.000Z</time>
      </trkpt>
      <trkpt lat="47.26195" lon="-2.32022">
        <ele>-1.3999999761581</ele>
        <time>2019-11-24T11:42:59.000Z</time>
      </trkpt>
      <trkpt lat="47.26196" lon="-2.32021">
        <ele>-1.7999999523163</ele>
        <time>2019-11-24T11:43:00.000Z</time>
      </trkpt>
      <trkpt lat="47.26197" lon="-2.32019">
        <ele>-2.2000000476837</ele>
        <time>2019-11-24T11:43:01.000Z</time>
      </trkpt>
      <trkpt lat="47.26198" lon="-2.32012">
        <ele>-2.2000000476837</ele>
        <time>2019-11-24T11:43:04.000Z</time>
      </trkpt>
      <trkpt lat="47.26201" lon="-2.32008">
        <ele>-2.2000000476837</ele>
        <time>2019-11-24T11:43:06.000Z</time>
      </trkpt>
      <trkpt lat="47.26202" lon="-2.32007">
        <ele>-2.2000000476837</ele>
        <time>2019-11-24T11:43:07.000Z</time>
      </trkpt>
      <trkpt lat="47.26207" lon="-2.32004">
        <ele>-2.2000000476837</ele>
        <time>2019-11-24T11:43:09.000Z</time>
      </trkpt>
      <trkpt lat="47.26211" lon="-2.32">
        <ele>-2.2000000476837</ele>
        <time>2019-11-24T11:43:11.000Z</time>
      </trkpt>
      <trkpt lat="47.26219" lon="-2.31991">
        <ele>-2.2000000476837</ele>
        <time>2019-11-24T11:43:14.000Z</time>
      </trkpt>
      <trkpt lat="47.26234" lon="-2.31981">
        <ele>-2.2000000476837</ele>
        <time>2019-11-24T11:43:19.000Z</time>
      </trkpt>
      <trkpt lat="47.26246" lon="-2.31963">
        <ele>-2.2000000476837</ele>
        <time>2019-11-24T11:43:24.000Z</time>
      </trkpt>
      <trkpt lat="47.26255" lon="-2.31944">
        <ele>-2.2000000476837</ele>
        <time>2019-11-24T11:43:29.000Z</time>
      </trkpt>
      <trkpt lat="47.2627" lon="-2.31927">
        <ele>-2.2000000476837</ele>
        <time>2019-11-24T11:43:34.000Z</time>
      </trkpt>
      <trkpt lat="47.26286" lon="-2.31908">
        <ele>-2.2000000476837</ele>
        <time>2019-11-24T11:43:38.000Z</time>
      </trkpt>
      <trkpt lat="47.26289" lon="-2.31904">
        <ele>-2.2000000476837</ele>
        <time>2019-11-24T11:43:39.000Z</time>
      </trkpt>
      <trkpt lat="47.26294" lon="-2.31895">
        <ele>-2.2000000476837</ele>
        <time>2019-11-24T11:43:42.000Z</time>
      </trkpt>
      <trkpt lat="47.26294" lon="-2.31891">
        <ele>-2.2000000476837</ele>
        <time>2019-11-24T11:43:43.000Z</time>
      </trkpt>
      <trkpt lat="47.26295" lon="-2.31863">
        <ele>-2.2000000476837</ele>
        <time>2019-11-24T11:43:48.000Z</time>
      </trkpt>
      <trkpt lat="47.26299" lon="-2.31833">
        <ele>-2.2000000476837</ele>
        <time>2019-11-24T11:43:53.000Z</time>
      </trkpt>
      <trkpt lat="47.263" lon="-2.31827">
        <ele>-2.2000000476837</ele>
        <time>2019-11-24T11:43:54.000Z</time>
      </trkpt>
      <trkpt lat="47.26302" lon="-2.31802">
        <ele>-2.2000000476837</ele>
        <time>2019-11-24T11:43:58.000Z</time>
      </trkpt>
      <trkpt lat="47.26303" lon="-2.31781">
        <ele>-2.2000000476837</ele>
        <time>2019-11-24T11:44:01.000Z</time>
      </trkpt>
      <trkpt lat="47.26301" lon="-2.31761">
        <ele>-2.2000000476837</ele>
        <time>2019-11-24T11:44:04.000Z</time>
      </trkpt>
      <trkpt lat="47.26297" lon="-2.31738">
        <ele>-2.2000000476837</ele>
        <time>2019-11-24T11:44:08.000Z</time>
      </trkpt>
      <trkpt lat="47.26298" lon="-2.31731">
        <ele>-2.2000000476837</ele>
        <time>2019-11-24T11:44:09.000Z</time>
      </trkpt>
      <trkpt lat="47.26302" lon="-2.31719">
        <ele>-2.2000000476837</ele>
        <time>2019-11-24T11:44:11.000Z</time>
      </trkpt>
      <trkpt lat="47.26311" lon="-2.31713">
        <ele>-2.2000000476837</ele>
        <time>2019-11-24T11:44:14.000Z</time>
      </trkpt>
      <trkpt lat="47.26324" lon="-2.31706">
        <ele>-1.7999999523163</ele>
        <time>2019-11-24T11:44:17.000Z</time>
      </trkpt>
      <trkpt lat="47.26328" lon="-2.31704">
        <ele>-1.3999999761581</ele>
        <time>2019-11-24T11:44:18.000Z</time>
      </trkpt>
      <trkpt lat="47.26331" lon="-2.317">
        <ele>-1</ele>
        <time>2019-11-24T11:44:19.000Z</time>
      </trkpt>
      <trkpt lat="47.26333" lon="-2.31695">
        <ele>-0.60000002384186</ele>
        <time>2019-11-24T11:44:20.000Z</time>
      </trkpt>
      <trkpt lat="47.26336" lon="-2.3169">
        <ele>-0.20000000298023</ele>
        <time>2019-11-24T11:44:21.000Z</time>
      </trkpt>
      <trkpt lat="47.26339" lon="-2.31688">
        <ele>-0.20000000298023</ele>
        <time>2019-11-24T11:44:22.000Z</time>
      </trkpt>
      <trkpt lat="47.26353" lon="-2.31679">
        <ele>0.20000000298023</ele>
        <time>2019-11-24T11:44:27.000Z</time>
      </trkpt>
      <trkpt lat="47.26356" lon="-2.31677">
        <ele>0.60000002384186</ele>
        <time>2019-11-24T11:44:28.000Z</time>
      </trkpt>
      <trkpt lat="47.26359" lon="-2.31675">
        <ele>1</ele>
        <time>2019-11-24T11:44:29.000Z</time>
      </trkpt>
      <trkpt lat="47.26363" lon="-2.31673">
        <ele>1.3999999761581</ele>
        <time>2019-11-24T11:44:30.000Z</time>
      </trkpt>
      <trkpt lat="47.26366" lon="-2.31672">
        <ele>1.7999999523163</ele>
        <time>2019-11-24T11:44:31.000Z</time>
      </trkpt>
      <trkpt lat="47.26385" lon="-2.31664">
        <ele>1.7999999523163</ele>
        <time>2019-11-24T11:44:36.000Z</time>
      </trkpt>
      <trkpt lat="47.26407" lon="-2.31654">
        <ele>1.7999999523163</ele>
        <time>2019-11-24T11:44:43.000Z</time>
      </trkpt>
      <trkpt lat="47.26411" lon="-2.31645">
        <ele>1.7999999523163</ele>
        <time>2019-11-24T11:44:45.000Z</time>
      </trkpt>
      <trkpt lat="47.26411" lon="-2.3164">
        <ele>1.7999999523163</ele>
        <time>2019-11-24T11:44:46.000Z</time>
      </trkpt>
      <trkpt lat="47.26411" lon="-2.31619">
        <ele>2.2000000476837</ele>
        <time>2019-11-24T11:44:50.000Z</time>
      </trkpt>
      <trkpt lat="47.26411" lon="-2.31613">
        <ele>2.5999999046326</ele>
        <time>2019-11-24T11:44:51.000Z</time>
      </trkpt>
      <trkpt lat="47.26411" lon="-2.31607">
        <ele>3</ele>
        <time>2019-11-24T11:44:52.000Z</time>
      </trkpt>
      <trkpt lat="47.26411" lon="-2.31601">
        <ele>3.4000000953674</ele>
        <time>2019-11-24T11:44:53.000Z</time>
      </trkpt>
      <trkpt lat="47.26411" lon="-2.31595">
        <ele>3.7999999523163</ele>
        <time>2019-11-24T11:44:54.000Z</time>
      </trkpt>
      <trkpt lat="47.26411" lon="-2.3158">
        <ele>3.7999999523163</ele>
        <time>2019-11-24T11:44:57.000Z</time>
      </trkpt>
      <trkpt lat="47.26413" lon="-2.31552">
        <ele>3.7999999523163</ele>
        <time>2019-11-24T11:45:04.000Z</time>
      </trkpt>
      <trkpt lat="47.26418" lon="-2.31553">
        <ele>3.7999999523163</ele>
        <time>2019-11-24T11:45:08.000Z</time>
      </trkpt>
      <trkpt lat="47.26417" lon="-2.31553">
        <ele>3.7999999523163</ele>
        <time>2019-11-24T11:45:09.000Z</time>
      </trkpt>
    </trkseg>
  </trk>
</gpx>